<?xml version="1.0" encoding="UTF-8" standalone="no" ?>
<gpx xmlns="http://www.topografix.com/GPX/1/1" xmlns:xsi="http://www.w3.org/2001/XMLSchema-instance" xsi:schemaLocation="http://www.topografix.com/GPX/1/1 http://www.topografix.com/GPX/1/1/gpx.xsd" version="1.1" creator="VisuGPX - https://www.visugpx.com">
  <metadata>
    <name>Pornichet 30/09/2021</name>
    <desc><![CDATA[Sortie VTT jeudi 30 septembre 2021]]></desc>
  </metadata>
  <trk>
    <name><![CDATA[Pornichet Cyclisme]]></name>
    <trkseg>
      <trkpt lat="47.26369" lon="-2.31586">
        <ele>8.3</ele>
        <time>2021-09-30T06:50:55.000Z</time>
      </trkpt>
      <trkpt lat="47.2637" lon="-2.31609">
        <ele>8.3</ele>
        <time>2021-09-30T06:50:59.000Z</time>
      </trkpt>
      <trkpt lat="47.26371" lon="-2.31616">
        <ele>8.3</ele>
        <time>2021-09-30T06:51:00.000Z</time>
      </trkpt>
      <trkpt lat="47.26371" lon="-2.31623">
        <ele>8.4</ele>
        <time>2021-09-30T06:51:01.000Z</time>
      </trkpt>
      <trkpt lat="47.26372" lon="-2.31672">
        <ele>7.8</ele>
        <time>2021-09-30T06:51:08.000Z</time>
      </trkpt>
      <trkpt lat="47.26371" lon="-2.31687">
        <ele>7.3</ele>
        <time>2021-09-30T06:51:11.000Z</time>
      </trkpt>
      <trkpt lat="47.26368" lon="-2.3169">
        <ele>7.2</ele>
        <time>2021-09-30T06:51:12.000Z</time>
      </trkpt>
      <trkpt lat="47.26355" lon="-2.31697">
        <ele>6.7</ele>
        <time>2021-09-30T06:51:15.000Z</time>
      </trkpt>
      <trkpt lat="47.2635" lon="-2.31699">
        <ele>6.5</ele>
        <time>2021-09-30T06:51:16.000Z</time>
      </trkpt>
      <trkpt lat="47.26319" lon="-2.31718">
        <ele>4.9</ele>
        <time>2021-09-30T06:51:22.000Z</time>
      </trkpt>
      <trkpt lat="47.26313" lon="-2.31721">
        <ele>-0.40000000596046</ele>
        <time>2021-09-30T06:51:23.000Z</time>
      </trkpt>
      <trkpt lat="47.26308" lon="-2.31723">
        <ele>-0.80000001192093</ele>
        <time>2021-09-30T06:51:24.000Z</time>
      </trkpt>
      <trkpt lat="47.26303" lon="-2.31724">
        <ele>-1.3999999761581</ele>
        <time>2021-09-30T06:51:25.000Z</time>
      </trkpt>
      <trkpt lat="47.26298" lon="-2.31727">
        <ele>-2.2000000476837</ele>
        <time>2021-09-30T06:51:26.000Z</time>
      </trkpt>
      <trkpt lat="47.26293" lon="-2.31729">
        <ele>-2.2000000476837</ele>
        <time>2021-09-30T06:51:27.000Z</time>
      </trkpt>
      <trkpt lat="47.26283" lon="-2.31734">
        <ele>-2.2000000476837</ele>
        <time>2021-09-30T06:51:29.000Z</time>
      </trkpt>
      <trkpt lat="47.26274" lon="-2.31739">
        <ele>-2.5999999046326</ele>
        <time>2021-09-30T06:51:31.000Z</time>
      </trkpt>
      <trkpt lat="47.2627" lon="-2.31742">
        <ele>-3</ele>
        <time>2021-09-30T06:51:32.000Z</time>
      </trkpt>
      <trkpt lat="47.26267" lon="-2.31747">
        <ele>-3.4000000953674</ele>
        <time>2021-09-30T06:51:33.000Z</time>
      </trkpt>
      <trkpt lat="47.26266" lon="-2.31753">
        <ele>-3.7999999523163</ele>
        <time>2021-09-30T06:51:34.000Z</time>
      </trkpt>
      <trkpt lat="47.26266" lon="-2.31762">
        <ele>-4.1999998092651</ele>
        <time>2021-09-30T06:51:35.000Z</time>
      </trkpt>
      <trkpt lat="47.26266" lon="-2.31768">
        <ele>-4.1999998092651</ele>
        <time>2021-09-30T06:51:36.000Z</time>
      </trkpt>
      <trkpt lat="47.26268" lon="-2.31781">
        <ele>-4.1999998092651</ele>
        <time>2021-09-30T06:51:38.000Z</time>
      </trkpt>
      <trkpt lat="47.26271" lon="-2.31808">
        <ele>-4.1999998092651</ele>
        <time>2021-09-30T06:51:42.000Z</time>
      </trkpt>
      <trkpt lat="47.26268" lon="-2.31849">
        <ele>-4.1999998092651</ele>
        <time>2021-09-30T06:51:48.000Z</time>
      </trkpt>
      <trkpt lat="47.26263" lon="-2.31899">
        <ele>-4.1999998092651</ele>
        <time>2021-09-30T06:51:55.000Z</time>
      </trkpt>
      <trkpt lat="47.26262" lon="-2.31905">
        <ele>-4.1999998092651</ele>
        <time>2021-09-30T06:51:56.000Z</time>
      </trkpt>
      <trkpt lat="47.26252" lon="-2.31919">
        <ele>-4.1999998092651</ele>
        <time>2021-09-30T06:51:59.000Z</time>
      </trkpt>
      <trkpt lat="47.26248" lon="-2.31923">
        <ele>-4.1999998092651</ele>
        <time>2021-09-30T06:52:00.000Z</time>
      </trkpt>
      <trkpt lat="47.26245" lon="-2.31928">
        <ele>-4.1999998092651</ele>
        <time>2021-09-30T06:52:01.000Z</time>
      </trkpt>
      <trkpt lat="47.26237" lon="-2.31936">
        <ele>-4.1999998092651</ele>
        <time>2021-09-30T06:52:03.000Z</time>
      </trkpt>
      <trkpt lat="47.26233" lon="-2.31941">
        <ele>-4.1999998092651</ele>
        <time>2021-09-30T06:52:04.000Z</time>
      </trkpt>
      <trkpt lat="47.26219" lon="-2.31967">
        <ele>-4.1999998092651</ele>
        <time>2021-09-30T06:52:09.000Z</time>
      </trkpt>
      <trkpt lat="47.26214" lon="-2.31979">
        <ele>-4.1999998092651</ele>
        <time>2021-09-30T06:52:11.000Z</time>
      </trkpt>
      <trkpt lat="47.26209" lon="-2.31989">
        <ele>-4.1999998092651</ele>
        <time>2021-09-30T06:52:12.000Z</time>
      </trkpt>
      <trkpt lat="47.26206" lon="-2.31993">
        <ele>-4.5999999046326</ele>
        <time>2021-09-30T06:52:14.000Z</time>
      </trkpt>
      <trkpt lat="47.26202" lon="-2.31994">
        <ele>-5</ele>
        <time>2021-09-30T06:52:15.000Z</time>
      </trkpt>
      <trkpt lat="47.26199" lon="-2.31994">
        <ele>-5.4000000953674</ele>
        <time>2021-09-30T06:52:16.000Z</time>
      </trkpt>
      <trkpt lat="47.26196" lon="-2.31997">
        <ele>-5.8000001907349</ele>
        <time>2021-09-30T06:52:17.000Z</time>
      </trkpt>
      <trkpt lat="47.26194" lon="-2.32">
        <ele>-6.1999998092651</ele>
        <time>2021-09-30T06:52:18.000Z</time>
      </trkpt>
      <trkpt lat="47.26189" lon="-2.32006">
        <ele>-6.1999998092651</ele>
        <time>2021-09-30T06:52:20.000Z</time>
      </trkpt>
      <trkpt lat="47.26175" lon="-2.32021">
        <ele>-6.1999998092651</ele>
        <time>2021-09-30T06:52:26.000Z</time>
      </trkpt>
      <trkpt lat="47.26171" lon="-2.32032">
        <ele>-6.1999998092651</ele>
        <time>2021-09-30T06:52:29.000Z</time>
      </trkpt>
      <trkpt lat="47.26169" lon="-2.32037">
        <ele>-6.1999998092651</ele>
        <time>2021-09-30T06:52:31.000Z</time>
      </trkpt>
      <trkpt lat="47.26167" lon="-2.32038">
        <ele>-6.1999998092651</ele>
        <time>2021-09-30T06:52:32.000Z</time>
      </trkpt>
      <trkpt lat="47.26163" lon="-2.32038">
        <ele>-6.1999998092651</ele>
        <time>2021-09-30T06:52:35.000Z</time>
      </trkpt>
      <trkpt lat="47.26149" lon="-2.32042">
        <ele>-6.1999998092651</ele>
        <time>2021-09-30T06:52:40.000Z</time>
      </trkpt>
      <trkpt lat="47.26142" lon="-2.32048">
        <ele>-6.1999998092651</ele>
        <time>2021-09-30T06:52:42.000Z</time>
      </trkpt>
      <trkpt lat="47.26134" lon="-2.32065">
        <ele>-6.1999998092651</ele>
        <time>2021-09-30T06:52:45.000Z</time>
      </trkpt>
      <trkpt lat="47.26131" lon="-2.32078">
        <ele>-6.1999998092651</ele>
        <time>2021-09-30T06:52:47.000Z</time>
      </trkpt>
      <trkpt lat="47.26121" lon="-2.32111">
        <ele>-6.1999998092651</ele>
        <time>2021-09-30T06:52:52.000Z</time>
      </trkpt>
      <trkpt lat="47.26103" lon="-2.32168">
        <ele>-6.1999998092651</ele>
        <time>2021-09-30T06:53:00.000Z</time>
      </trkpt>
      <trkpt lat="47.26092" lon="-2.32194">
        <ele>-6.1999998092651</ele>
        <time>2021-09-30T06:53:04.000Z</time>
      </trkpt>
      <trkpt lat="47.26089" lon="-2.322">
        <ele>-6.1999998092651</ele>
        <time>2021-09-30T06:53:05.000Z</time>
      </trkpt>
      <trkpt lat="47.26064" lon="-2.32245">
        <ele>-6.1999998092651</ele>
        <time>2021-09-30T06:53:13.000Z</time>
      </trkpt>
      <trkpt lat="47.2604" lon="-2.32274">
        <ele>-6.1999998092651</ele>
        <time>2021-09-30T06:53:19.000Z</time>
      </trkpt>
      <trkpt lat="47.26006" lon="-2.32311">
        <ele>-6.1999998092651</ele>
        <time>2021-09-30T06:53:27.000Z</time>
      </trkpt>
      <trkpt lat="47.25997" lon="-2.32321">
        <ele>-6.1999998092651</ele>
        <time>2021-09-30T06:53:29.000Z</time>
      </trkpt>
      <trkpt lat="47.25971" lon="-2.32352">
        <ele>-6.1999998092651</ele>
        <time>2021-09-30T06:53:35.000Z</time>
      </trkpt>
      <trkpt lat="47.25939" lon="-2.32393">
        <ele>-6.1999998092651</ele>
        <time>2021-09-30T06:53:43.000Z</time>
      </trkpt>
      <trkpt lat="47.25907" lon="-2.32435">
        <ele>-6.1999998092651</ele>
        <time>2021-09-30T06:53:51.000Z</time>
      </trkpt>
      <trkpt lat="47.25887" lon="-2.32457">
        <ele>-6.1999998092651</ele>
        <time>2021-09-30T06:53:56.000Z</time>
      </trkpt>
      <trkpt lat="47.2588" lon="-2.32466">
        <ele>-6.1999998092651</ele>
        <time>2021-09-30T06:53:58.000Z</time>
      </trkpt>
      <trkpt lat="47.25878" lon="-2.32482">
        <ele>-6.1999998092651</ele>
        <time>2021-09-30T06:54:01.000Z</time>
      </trkpt>
      <trkpt lat="47.25889" lon="-2.32493">
        <ele>-6.1999998092651</ele>
        <time>2021-09-30T06:54:04.000Z</time>
      </trkpt>
      <trkpt lat="47.25893" lon="-2.32497">
        <ele>-6.1999998092651</ele>
        <time>2021-09-30T06:54:05.000Z</time>
      </trkpt>
      <trkpt lat="47.25903" lon="-2.32515">
        <ele>-6.1999998092651</ele>
        <time>2021-09-30T06:54:08.000Z</time>
      </trkpt>
      <trkpt lat="47.25906" lon="-2.32522">
        <ele>-6.1999998092651</ele>
        <time>2021-09-30T06:54:09.000Z</time>
      </trkpt>
      <trkpt lat="47.2592" lon="-2.32562">
        <ele>-6.1999998092651</ele>
        <time>2021-09-30T06:54:15.000Z</time>
      </trkpt>
      <trkpt lat="47.25935" lon="-2.32618">
        <ele>-6.1999998092651</ele>
        <time>2021-09-30T06:54:23.000Z</time>
      </trkpt>
      <trkpt lat="47.2594" lon="-2.32659">
        <ele>-6.1999998092651</ele>
        <time>2021-09-30T06:54:29.000Z</time>
      </trkpt>
      <trkpt lat="47.25942" lon="-2.32667">
        <ele>-6.1999998092651</ele>
        <time>2021-09-30T06:54:31.000Z</time>
      </trkpt>
      <trkpt lat="47.25945" lon="-2.32668">
        <ele>-6.1999998092651</ele>
        <time>2021-09-30T06:54:32.000Z</time>
      </trkpt>
      <trkpt lat="47.25957" lon="-2.32667">
        <ele>-6.1999998092651</ele>
        <time>2021-09-30T06:54:35.000Z</time>
      </trkpt>
      <trkpt lat="47.2597" lon="-2.32668">
        <ele>-6.1999998092651</ele>
        <time>2021-09-30T06:54:38.000Z</time>
      </trkpt>
      <trkpt lat="47.25979" lon="-2.32667">
        <ele>-6.1999998092651</ele>
        <time>2021-09-30T06:54:40.000Z</time>
      </trkpt>
      <trkpt lat="47.25983" lon="-2.32665">
        <ele>-6.1999998092651</ele>
        <time>2021-09-30T06:54:41.000Z</time>
      </trkpt>
      <trkpt lat="47.25997" lon="-2.32663">
        <ele>-5.8000001907349</ele>
        <time>2021-09-30T06:54:44.000Z</time>
      </trkpt>
      <trkpt lat="47.26001" lon="-2.32663">
        <ele>-5.4000000953674</ele>
        <time>2021-09-30T06:54:45.000Z</time>
      </trkpt>
      <trkpt lat="47.26006" lon="-2.32662">
        <ele>-5</ele>
        <time>2021-09-30T06:54:46.000Z</time>
      </trkpt>
      <trkpt lat="47.2601" lon="-2.32661">
        <ele>-4.4000000953674</ele>
        <time>2021-09-30T06:54:47.000Z</time>
      </trkpt>
      <trkpt lat="47.26015" lon="-2.32661">
        <ele>-4</ele>
        <time>2021-09-30T06:54:48.000Z</time>
      </trkpt>
      <trkpt lat="47.26028" lon="-2.32658">
        <ele>-4</ele>
        <time>2021-09-30T06:54:51.000Z</time>
      </trkpt>
      <trkpt lat="47.26064" lon="-2.32651">
        <ele>-4</ele>
        <time>2021-09-30T06:54:59.000Z</time>
      </trkpt>
      <trkpt lat="47.26093" lon="-2.3265">
        <ele>-4</ele>
        <time>2021-09-30T06:55:05.000Z</time>
      </trkpt>
      <trkpt lat="47.26098" lon="-2.3265">
        <ele>-4</ele>
        <time>2021-09-30T06:55:06.000Z</time>
      </trkpt>
      <trkpt lat="47.26127" lon="-2.32656">
        <ele>-4</ele>
        <time>2021-09-30T06:55:12.000Z</time>
      </trkpt>
      <trkpt lat="47.2615" lon="-2.32668">
        <ele>-3.5999999046326</ele>
        <time>2021-09-30T06:55:17.000Z</time>
      </trkpt>
      <trkpt lat="47.26154" lon="-2.32672">
        <ele>-3.2000000476837</ele>
        <time>2021-09-30T06:55:18.000Z</time>
      </trkpt>
      <trkpt lat="47.26158" lon="-2.32677">
        <ele>-2.7999999523163</ele>
        <time>2021-09-30T06:55:19.000Z</time>
      </trkpt>
      <trkpt lat="47.26163" lon="-2.3268">
        <ele>-2.4000000953674</ele>
        <time>2021-09-30T06:55:20.000Z</time>
      </trkpt>
      <trkpt lat="47.26167" lon="-2.32684">
        <ele>-2</ele>
        <time>2021-09-30T06:55:21.000Z</time>
      </trkpt>
      <trkpt lat="47.26187" lon="-2.32707">
        <ele>-2</ele>
        <time>2021-09-30T06:55:26.000Z</time>
      </trkpt>
      <trkpt lat="47.26211" lon="-2.3274">
        <ele>-2</ele>
        <time>2021-09-30T06:55:32.000Z</time>
      </trkpt>
      <trkpt lat="47.26244" lon="-2.32794">
        <ele>-2</ele>
        <time>2021-09-30T06:55:40.000Z</time>
      </trkpt>
      <trkpt lat="47.26253" lon="-2.32817">
        <ele>-2.4000000953674</ele>
        <time>2021-09-30T06:55:43.000Z</time>
      </trkpt>
      <trkpt lat="47.26255" lon="-2.32825">
        <ele>-2.7999999523163</ele>
        <time>2021-09-30T06:55:44.000Z</time>
      </trkpt>
      <trkpt lat="47.26257" lon="-2.32832">
        <ele>-3.4000000953674</ele>
        <time>2021-09-30T06:55:45.000Z</time>
      </trkpt>
      <trkpt lat="47.26259" lon="-2.3284">
        <ele>-3.7999999523163</ele>
        <time>2021-09-30T06:55:46.000Z</time>
      </trkpt>
      <trkpt lat="47.2626" lon="-2.32848">
        <ele>-4.1999998092651</ele>
        <time>2021-09-30T06:55:47.000Z</time>
      </trkpt>
      <trkpt lat="47.26263" lon="-2.32863">
        <ele>-4.1999998092651</ele>
        <time>2021-09-30T06:55:49.000Z</time>
      </trkpt>
      <trkpt lat="47.26271" lon="-2.32873">
        <ele>-4.1999998092651</ele>
        <time>2021-09-30T06:55:51.000Z</time>
      </trkpt>
      <trkpt lat="47.26286" lon="-2.32881">
        <ele>-4.1999998092651</ele>
        <time>2021-09-30T06:55:54.000Z</time>
      </trkpt>
      <trkpt lat="47.26295" lon="-2.32901">
        <ele>-4.1999998092651</ele>
        <time>2021-09-30T06:55:57.000Z</time>
      </trkpt>
      <trkpt lat="47.263" lon="-2.32916">
        <ele>-4.1999998092651</ele>
        <time>2021-09-30T06:55:59.000Z</time>
      </trkpt>
      <trkpt lat="47.26314" lon="-2.32951">
        <ele>-4.1999998092651</ele>
        <time>2021-09-30T06:56:04.000Z</time>
      </trkpt>
      <trkpt lat="47.26329" lon="-2.32977">
        <ele>-4.1999998092651</ele>
        <time>2021-09-30T06:56:08.000Z</time>
      </trkpt>
      <trkpt lat="47.26338" lon="-2.32986">
        <ele>-4.1999998092651</ele>
        <time>2021-09-30T06:56:10.000Z</time>
      </trkpt>
      <trkpt lat="47.26345" lon="-2.32995">
        <ele>-4.1999998092651</ele>
        <time>2021-09-30T06:56:12.000Z</time>
      </trkpt>
      <trkpt lat="47.26348" lon="-2.33008">
        <ele>-4.1999998092651</ele>
        <time>2021-09-30T06:56:14.000Z</time>
      </trkpt>
      <trkpt lat="47.26351" lon="-2.33035">
        <ele>-4.1999998092651</ele>
        <time>2021-09-30T06:56:18.000Z</time>
      </trkpt>
      <trkpt lat="47.26352" lon="-2.33042">
        <ele>-4.1999998092651</ele>
        <time>2021-09-30T06:56:19.000Z</time>
      </trkpt>
      <trkpt lat="47.26361" lon="-2.33117">
        <ele>-4.1999998092651</ele>
        <time>2021-09-30T06:56:29.000Z</time>
      </trkpt>
      <trkpt lat="47.26367" lon="-2.33177">
        <ele>-4.1999998092651</ele>
        <time>2021-09-30T06:56:37.000Z</time>
      </trkpt>
      <trkpt lat="47.26373" lon="-2.33235">
        <ele>-4.1999998092651</ele>
        <time>2021-09-30T06:56:45.000Z</time>
      </trkpt>
      <trkpt lat="47.26375" lon="-2.33242">
        <ele>-4.1999998092651</ele>
        <time>2021-09-30T06:56:46.000Z</time>
      </trkpt>
      <trkpt lat="47.26387" lon="-2.33264">
        <ele>-4.1999998092651</ele>
        <time>2021-09-30T06:56:50.000Z</time>
      </trkpt>
      <trkpt lat="47.26403" lon="-2.33265">
        <ele>-4.1999998092651</ele>
        <time>2021-09-30T06:56:53.000Z</time>
      </trkpt>
      <trkpt lat="47.26449" lon="-2.33269">
        <ele>-4.1999998092651</ele>
        <time>2021-09-30T06:57:02.000Z</time>
      </trkpt>
      <trkpt lat="47.26495" lon="-2.33275">
        <ele>-4.1999998092651</ele>
        <time>2021-09-30T06:57:12.000Z</time>
      </trkpt>
      <trkpt lat="47.26504" lon="-2.33282">
        <ele>-4.1999998092651</ele>
        <time>2021-09-30T06:57:16.000Z</time>
      </trkpt>
      <trkpt lat="47.26516" lon="-2.33287">
        <ele>-4.1999998092651</ele>
        <time>2021-09-30T06:57:21.000Z</time>
      </trkpt>
      <trkpt lat="47.26527" lon="-2.33287">
        <ele>-4.1999998092651</ele>
        <time>2021-09-30T06:57:25.000Z</time>
      </trkpt>
      <trkpt lat="47.26536" lon="-2.33295">
        <ele>-4.1999998092651</ele>
        <time>2021-09-30T06:57:29.000Z</time>
      </trkpt>
      <trkpt lat="47.26546" lon="-2.33289">
        <ele>-4.1999998092651</ele>
        <time>2021-09-30T06:57:32.000Z</time>
      </trkpt>
      <trkpt lat="47.26553" lon="-2.33282">
        <ele>-4.1999998092651</ele>
        <time>2021-09-30T06:57:34.000Z</time>
      </trkpt>
      <trkpt lat="47.26568" lon="-2.33265">
        <ele>-4.1999998092651</ele>
        <time>2021-09-30T06:57:38.000Z</time>
      </trkpt>
      <trkpt lat="47.266" lon="-2.33234">
        <ele>-4.1999998092651</ele>
        <time>2021-09-30T06:57:46.000Z</time>
      </trkpt>
      <trkpt lat="47.26629" lon="-2.33204">
        <ele>-4.1999998092651</ele>
        <time>2021-09-30T06:57:53.000Z</time>
      </trkpt>
      <trkpt lat="47.26656" lon="-2.33177">
        <ele>-4.1999998092651</ele>
        <time>2021-09-30T06:58:00.000Z</time>
      </trkpt>
      <trkpt lat="47.26688" lon="-2.33144">
        <ele>-4.1999998092651</ele>
        <time>2021-09-30T06:58:08.000Z</time>
      </trkpt>
      <trkpt lat="47.26716" lon="-2.33114">
        <ele>-4.1999998092651</ele>
        <time>2021-09-30T06:58:15.000Z</time>
      </trkpt>
      <trkpt lat="47.26742" lon="-2.33087">
        <ele>-4.1999998092651</ele>
        <time>2021-09-30T06:58:22.000Z</time>
      </trkpt>
      <trkpt lat="47.26746" lon="-2.33084">
        <ele>-4.1999998092651</ele>
        <time>2021-09-30T06:58:23.000Z</time>
      </trkpt>
      <trkpt lat="47.26758" lon="-2.33091">
        <ele>-4.1999998092651</ele>
        <time>2021-09-30T06:58:26.000Z</time>
      </trkpt>
      <trkpt lat="47.26765" lon="-2.33114">
        <ele>-4.1999998092651</ele>
        <time>2021-09-30T06:58:29.000Z</time>
      </trkpt>
      <trkpt lat="47.26766" lon="-2.33122">
        <ele>-4.1999998092651</ele>
        <time>2021-09-30T06:58:30.000Z</time>
      </trkpt>
      <trkpt lat="47.26767" lon="-2.33136">
        <ele>-4.1999998092651</ele>
        <time>2021-09-30T06:58:32.000Z</time>
      </trkpt>
      <trkpt lat="47.26765" lon="-2.3315">
        <ele>-4.1999998092651</ele>
        <time>2021-09-30T06:58:34.000Z</time>
      </trkpt>
      <trkpt lat="47.26759" lon="-2.33166">
        <ele>-4.1999998092651</ele>
        <time>2021-09-30T06:58:36.000Z</time>
      </trkpt>
      <trkpt lat="47.2675" lon="-2.33193">
        <ele>-4.1999998092651</ele>
        <time>2021-09-30T06:58:40.000Z</time>
      </trkpt>
      <trkpt lat="47.26732" lon="-2.33247">
        <ele>-4.1999998092651</ele>
        <time>2021-09-30T06:58:48.000Z</time>
      </trkpt>
      <trkpt lat="47.2673" lon="-2.33278">
        <ele>-4.1999998092651</ele>
        <time>2021-09-30T06:58:52.000Z</time>
      </trkpt>
      <trkpt lat="47.26739" lon="-2.33316">
        <ele>-4.1999998092651</ele>
        <time>2021-09-30T06:58:57.000Z</time>
      </trkpt>
      <trkpt lat="47.26749" lon="-2.33362">
        <ele>-4.1999998092651</ele>
        <time>2021-09-30T06:59:03.000Z</time>
      </trkpt>
      <trkpt lat="47.26756" lon="-2.33418">
        <ele>-4.1999998092651</ele>
        <time>2021-09-30T06:59:10.000Z</time>
      </trkpt>
      <trkpt lat="47.26766" lon="-2.33493">
        <ele>-4.1999998092651</ele>
        <time>2021-09-30T06:59:20.000Z</time>
      </trkpt>
      <trkpt lat="47.26772" lon="-2.33523">
        <ele>-4.1999998092651</ele>
        <time>2021-09-30T06:59:24.000Z</time>
      </trkpt>
      <trkpt lat="47.26773" lon="-2.3353">
        <ele>-4.1999998092651</ele>
        <time>2021-09-30T06:59:25.000Z</time>
      </trkpt>
      <trkpt lat="47.26778" lon="-2.33583">
        <ele>-4.1999998092651</ele>
        <time>2021-09-30T06:59:32.000Z</time>
      </trkpt>
      <trkpt lat="47.26777" lon="-2.33625">
        <ele>-4.1999998092651</ele>
        <time>2021-09-30T06:59:38.000Z</time>
      </trkpt>
      <trkpt lat="47.26776" lon="-2.33671">
        <ele>-3.7999999523163</ele>
        <time>2021-09-30T06:59:45.000Z</time>
      </trkpt>
      <trkpt lat="47.26777" lon="-2.33678">
        <ele>-3.4000000953674</ele>
        <time>2021-09-30T06:59:46.000Z</time>
      </trkpt>
      <trkpt lat="47.26777" lon="-2.33685">
        <ele>-3</ele>
        <time>2021-09-30T06:59:47.000Z</time>
      </trkpt>
      <trkpt lat="47.26778" lon="-2.33691">
        <ele>-2.5999999046326</ele>
        <time>2021-09-30T06:59:48.000Z</time>
      </trkpt>
      <trkpt lat="47.26779" lon="-2.33697">
        <ele>-2.2000000476837</ele>
        <time>2021-09-30T06:59:49.000Z</time>
      </trkpt>
      <trkpt lat="47.26784" lon="-2.33707">
        <ele>-2.2000000476837</ele>
        <time>2021-09-30T06:59:51.000Z</time>
      </trkpt>
      <trkpt lat="47.26795" lon="-2.3372">
        <ele>-2.2000000476837</ele>
        <time>2021-09-30T06:59:54.000Z</time>
      </trkpt>
      <trkpt lat="47.26803" lon="-2.33729">
        <ele>-2.2000000476837</ele>
        <time>2021-09-30T06:59:56.000Z</time>
      </trkpt>
      <trkpt lat="47.26807" lon="-2.33733">
        <ele>-2.2000000476837</ele>
        <time>2021-09-30T06:59:57.000Z</time>
      </trkpt>
      <trkpt lat="47.26826" lon="-2.33754">
        <ele>-2.2000000476837</ele>
        <time>2021-09-30T07:00:02.000Z</time>
      </trkpt>
      <trkpt lat="47.2683" lon="-2.3376">
        <ele>-2.2000000476837</ele>
        <time>2021-09-30T07:00:03.000Z</time>
      </trkpt>
      <trkpt lat="47.26842" lon="-2.33772">
        <ele>-2.2000000476837</ele>
        <time>2021-09-30T07:00:06.000Z</time>
      </trkpt>
      <trkpt lat="47.26847" lon="-2.33774">
        <ele>-2.2000000476837</ele>
        <time>2021-09-30T07:00:07.000Z</time>
      </trkpt>
      <trkpt lat="47.26883" lon="-2.33789">
        <ele>-2.2000000476837</ele>
        <time>2021-09-30T07:00:15.000Z</time>
      </trkpt>
      <trkpt lat="47.26891" lon="-2.33797">
        <ele>-2.2000000476837</ele>
        <time>2021-09-30T07:00:17.000Z</time>
      </trkpt>
      <trkpt lat="47.26895" lon="-2.33809">
        <ele>-2.2000000476837</ele>
        <time>2021-09-30T07:00:19.000Z</time>
      </trkpt>
      <trkpt lat="47.26899" lon="-2.33822">
        <ele>-2.2000000476837</ele>
        <time>2021-09-30T07:00:21.000Z</time>
      </trkpt>
      <trkpt lat="47.26905" lon="-2.33849">
        <ele>-2.2000000476837</ele>
        <time>2021-09-30T07:00:25.000Z</time>
      </trkpt>
      <trkpt lat="47.26906" lon="-2.33856">
        <ele>-1.7999999523163</ele>
        <time>2021-09-30T07:00:26.000Z</time>
      </trkpt>
      <trkpt lat="47.26908" lon="-2.33862">
        <ele>-1.2000000476837</ele>
        <time>2021-09-30T07:00:27.000Z</time>
      </trkpt>
      <trkpt lat="47.26909" lon="-2.33869">
        <ele>-0.80000001192093</ele>
        <time>2021-09-30T07:00:28.000Z</time>
      </trkpt>
      <trkpt lat="47.2691" lon="-2.33876">
        <ele>8.4</ele>
        <time>2021-09-30T07:00:29.000Z</time>
      </trkpt>
      <trkpt lat="47.26917" lon="-2.33903">
        <ele>8</ele>
        <time>2021-09-30T07:00:33.000Z</time>
      </trkpt>
      <trkpt lat="47.26932" lon="-2.3397">
        <ele>9</ele>
        <time>2021-09-30T07:00:43.000Z</time>
      </trkpt>
      <trkpt lat="47.26947" lon="-2.34032">
        <ele>9.1</ele>
        <time>2021-09-30T07:00:52.000Z</time>
      </trkpt>
      <trkpt lat="47.26951" lon="-2.34054">
        <ele>9.7</ele>
        <time>2021-09-30T07:00:55.000Z</time>
      </trkpt>
      <trkpt lat="47.26956" lon="-2.34075">
        <ele>10</ele>
        <time>2021-09-30T07:00:58.000Z</time>
      </trkpt>
      <trkpt lat="47.26971" lon="-2.34137">
        <ele>9</ele>
        <time>2021-09-30T07:01:07.000Z</time>
      </trkpt>
      <trkpt lat="47.26983" lon="-2.34184">
        <ele>9.2</ele>
        <time>2021-09-30T07:01:14.000Z</time>
      </trkpt>
      <trkpt lat="47.26992" lon="-2.34227">
        <ele>9.6</ele>
        <time>2021-09-30T07:01:20.000Z</time>
      </trkpt>
      <trkpt lat="47.26993" lon="-2.34234">
        <ele>9.5</ele>
        <time>2021-09-30T07:01:21.000Z</time>
      </trkpt>
      <trkpt lat="47.26996" lon="-2.34256">
        <ele>9.3</ele>
        <time>2021-09-30T07:01:24.000Z</time>
      </trkpt>
      <trkpt lat="47.27002" lon="-2.34281">
        <ele>10</ele>
        <time>2021-09-30T07:01:28.000Z</time>
      </trkpt>
      <trkpt lat="47.27007" lon="-2.34317">
        <ele>10</ele>
        <time>2021-09-30T07:01:35.000Z</time>
      </trkpt>
      <trkpt lat="47.27011" lon="-2.34317">
        <ele>10</ele>
        <time>2021-09-30T07:01:36.000Z</time>
      </trkpt>
      <trkpt lat="47.27018" lon="-2.34318">
        <ele>10</ele>
        <time>2021-09-30T07:01:38.000Z</time>
      </trkpt>
      <trkpt lat="47.27025" lon="-2.34317">
        <ele>0.40000000596046</ele>
        <time>2021-09-30T07:01:40.000Z</time>
      </trkpt>
      <trkpt lat="47.27028" lon="-2.34317">
        <ele>0.80000001192093</ele>
        <time>2021-09-30T07:01:41.000Z</time>
      </trkpt>
      <trkpt lat="47.27032" lon="-2.34319">
        <ele>1.2000000476837</ele>
        <time>2021-09-30T07:01:42.000Z</time>
      </trkpt>
      <trkpt lat="47.27035" lon="-2.34324">
        <ele>2</ele>
        <time>2021-09-30T07:01:43.000Z</time>
      </trkpt>
      <trkpt lat="47.2704" lon="-2.34344">
        <ele>2</ele>
        <time>2021-09-30T07:01:46.000Z</time>
      </trkpt>
      <trkpt lat="47.27041" lon="-2.34351">
        <ele>2</ele>
        <time>2021-09-30T07:01:47.000Z</time>
      </trkpt>
      <trkpt lat="47.2705" lon="-2.34393">
        <ele>2</ele>
        <time>2021-09-30T07:01:53.000Z</time>
      </trkpt>
      <trkpt lat="47.27062" lon="-2.34449">
        <ele>2</ele>
        <time>2021-09-30T07:02:01.000Z</time>
      </trkpt>
      <trkpt lat="47.27066" lon="-2.34464">
        <ele>2</ele>
        <time>2021-09-30T07:02:03.000Z</time>
      </trkpt>
      <trkpt lat="47.27076" lon="-2.34496">
        <ele>2</ele>
        <time>2021-09-30T07:02:08.000Z</time>
      </trkpt>
      <trkpt lat="47.2709" lon="-2.3455">
        <ele>2</ele>
        <time>2021-09-30T07:02:16.000Z</time>
      </trkpt>
      <trkpt lat="47.27106" lon="-2.34621">
        <ele>2</ele>
        <time>2021-09-30T07:02:26.000Z</time>
      </trkpt>
      <trkpt lat="47.27121" lon="-2.34692">
        <ele>2</ele>
        <time>2021-09-30T07:02:35.000Z</time>
      </trkpt>
      <trkpt lat="47.27135" lon="-2.34752">
        <ele>2</ele>
        <time>2021-09-30T07:02:43.000Z</time>
      </trkpt>
      <trkpt lat="47.27137" lon="-2.34759">
        <ele>2</ele>
        <time>2021-09-30T07:02:44.000Z</time>
      </trkpt>
      <trkpt lat="47.27149" lon="-2.34812">
        <ele>2</ele>
        <time>2021-09-30T07:02:51.000Z</time>
      </trkpt>
      <trkpt lat="47.27162" lon="-2.34872">
        <ele>2</ele>
        <time>2021-09-30T07:02:59.000Z</time>
      </trkpt>
      <trkpt lat="47.2718" lon="-2.34934">
        <ele>2</ele>
        <time>2021-09-30T07:03:08.000Z</time>
      </trkpt>
      <trkpt lat="47.27197" lon="-2.34989">
        <ele>2</ele>
        <time>2021-09-30T07:03:16.000Z</time>
      </trkpt>
      <trkpt lat="47.27211" lon="-2.35028">
        <ele>2.7999999523163</ele>
        <time>2021-09-30T07:03:22.000Z</time>
      </trkpt>
      <trkpt lat="47.27214" lon="-2.35034">
        <ele>3.2000000476837</ele>
        <time>2021-09-30T07:03:23.000Z</time>
      </trkpt>
      <trkpt lat="47.27216" lon="-2.35041">
        <ele>3.5999999046326</ele>
        <time>2021-09-30T07:03:24.000Z</time>
      </trkpt>
      <trkpt lat="47.27219" lon="-2.35048">
        <ele>4.1999998092651</ele>
        <time>2021-09-30T07:03:25.000Z</time>
      </trkpt>
      <trkpt lat="47.27239" lon="-2.35095">
        <ele>4.1999998092651</ele>
        <time>2021-09-30T07:03:32.000Z</time>
      </trkpt>
      <trkpt lat="47.27254" lon="-2.35122">
        <ele>4.1999998092651</ele>
        <time>2021-09-30T07:03:37.000Z</time>
      </trkpt>
      <trkpt lat="47.27258" lon="-2.35123">
        <ele>4.1999998092651</ele>
        <time>2021-09-30T07:03:38.000Z</time>
      </trkpt>
      <trkpt lat="47.27271" lon="-2.35117">
        <ele>4.1999998092651</ele>
        <time>2021-09-30T07:03:41.000Z</time>
      </trkpt>
      <trkpt lat="47.27275" lon="-2.35114">
        <ele>4.1999998092651</ele>
        <time>2021-09-30T07:03:42.000Z</time>
      </trkpt>
      <trkpt lat="47.27294" lon="-2.35103">
        <ele>4.1999998092651</ele>
        <time>2021-09-30T07:03:48.000Z</time>
      </trkpt>
      <trkpt lat="47.27301" lon="-2.35101">
        <ele>4.1999998092651</ele>
        <time>2021-09-30T07:03:52.000Z</time>
      </trkpt>
      <trkpt lat="47.27312" lon="-2.35093">
        <ele>4.1999998092651</ele>
        <time>2021-09-30T07:03:56.000Z</time>
      </trkpt>
      <trkpt lat="47.27319" lon="-2.35088">
        <ele>4.5999999046326</ele>
        <time>2021-09-30T07:03:58.000Z</time>
      </trkpt>
      <trkpt lat="47.27322" lon="-2.35086">
        <ele>5</ele>
        <time>2021-09-30T07:03:59.000Z</time>
      </trkpt>
      <trkpt lat="47.27326" lon="-2.35085">
        <ele>5.4000000953674</ele>
        <time>2021-09-30T07:04:00.000Z</time>
      </trkpt>
      <trkpt lat="47.27329" lon="-2.35084">
        <ele>5.8000001907349</ele>
        <time>2021-09-30T07:04:01.000Z</time>
      </trkpt>
      <trkpt lat="47.27332" lon="-2.35083">
        <ele>6.1999998092651</ele>
        <time>2021-09-30T07:04:02.000Z</time>
      </trkpt>
      <trkpt lat="47.27347" lon="-2.35076">
        <ele>6.5999999046326</ele>
        <time>2021-09-30T07:04:06.000Z</time>
      </trkpt>
      <trkpt lat="47.27351" lon="-2.35074">
        <ele>7</ele>
        <time>2021-09-30T07:04:07.000Z</time>
      </trkpt>
      <trkpt lat="47.27354" lon="-2.35072">
        <ele>7.5999999046326</ele>
        <time>2021-09-30T07:04:08.000Z</time>
      </trkpt>
      <trkpt lat="47.27358" lon="-2.3507">
        <ele>8</ele>
        <time>2021-09-30T07:04:09.000Z</time>
      </trkpt>
      <trkpt lat="47.27361" lon="-2.35069">
        <ele>8.3999996185303</ele>
        <time>2021-09-30T07:04:10.000Z</time>
      </trkpt>
      <trkpt lat="47.27383" lon="-2.35058">
        <ele>8.8000001907349</ele>
        <time>2021-09-30T07:04:16.000Z</time>
      </trkpt>
      <trkpt lat="47.27387" lon="-2.35057">
        <ele>9.1999998092651</ele>
        <time>2021-09-30T07:04:17.000Z</time>
      </trkpt>
      <trkpt lat="47.2739" lon="-2.35056">
        <ele>9.6000003814697</ele>
        <time>2021-09-30T07:04:18.000Z</time>
      </trkpt>
      <trkpt lat="47.27393" lon="-2.35056">
        <ele>10</ele>
        <time>2021-09-30T07:04:19.000Z</time>
      </trkpt>
      <trkpt lat="47.27395" lon="-2.35058">
        <ele>10.39999961853</ele>
        <time>2021-09-30T07:04:20.000Z</time>
      </trkpt>
      <trkpt lat="47.27397" lon="-2.35061">
        <ele>10.39999961853</ele>
        <time>2021-09-30T07:04:21.000Z</time>
      </trkpt>
      <trkpt lat="47.27401" lon="-2.35072">
        <ele>10.39999961853</ele>
        <time>2021-09-30T07:04:24.000Z</time>
      </trkpt>
      <trkpt lat="47.27404" lon="-2.35081">
        <ele>10.39999961853</ele>
        <time>2021-09-30T07:04:26.000Z</time>
      </trkpt>
      <trkpt lat="47.27412" lon="-2.35119">
        <ele>10.39999961853</ele>
        <time>2021-09-30T07:04:33.000Z</time>
      </trkpt>
      <trkpt lat="47.27422" lon="-2.35165">
        <ele>10.39999961853</ele>
        <time>2021-09-30T07:04:41.000Z</time>
      </trkpt>
      <trkpt lat="47.27426" lon="-2.35171">
        <ele>10.39999961853</ele>
        <time>2021-09-30T07:04:43.000Z</time>
      </trkpt>
      <trkpt lat="47.27431" lon="-2.3517">
        <ele>10.39999961853</ele>
        <time>2021-09-30T07:04:44.000Z</time>
      </trkpt>
      <trkpt lat="47.27448" lon="-2.3516">
        <ele>10.39999961853</ele>
        <time>2021-09-30T07:04:48.000Z</time>
      </trkpt>
      <trkpt lat="47.27456" lon="-2.35156">
        <ele>10.39999961853</ele>
        <time>2021-09-30T07:04:50.000Z</time>
      </trkpt>
      <trkpt lat="47.27468" lon="-2.3515">
        <ele>10.800000190735</ele>
        <time>2021-09-30T07:04:53.000Z</time>
      </trkpt>
      <trkpt lat="47.27472" lon="-2.35149">
        <ele>11.39999961853</ele>
        <time>2021-09-30T07:04:54.000Z</time>
      </trkpt>
      <trkpt lat="47.27476" lon="-2.35147">
        <ele>11.800000190735</ele>
        <time>2021-09-30T07:04:55.000Z</time>
      </trkpt>
      <trkpt lat="47.27479" lon="-2.35146">
        <ele>12.199999809265</ele>
        <time>2021-09-30T07:04:56.000Z</time>
      </trkpt>
      <trkpt lat="47.27483" lon="-2.35144">
        <ele>12.60000038147</ele>
        <time>2021-09-30T07:04:57.000Z</time>
      </trkpt>
      <trkpt lat="47.27497" lon="-2.35132">
        <ele>12.60000038147</ele>
        <time>2021-09-30T07:05:01.000Z</time>
      </trkpt>
      <trkpt lat="47.27504" lon="-2.35127">
        <ele>12.60000038147</ele>
        <time>2021-09-30T07:05:03.000Z</time>
      </trkpt>
      <trkpt lat="47.27508" lon="-2.35127">
        <ele>12.60000038147</ele>
        <time>2021-09-30T07:05:04.000Z</time>
      </trkpt>
      <trkpt lat="47.2752" lon="-2.35133">
        <ele>12.60000038147</ele>
        <time>2021-09-30T07:05:07.000Z</time>
      </trkpt>
      <trkpt lat="47.27532" lon="-2.35136">
        <ele>12.60000038147</ele>
        <time>2021-09-30T07:05:10.000Z</time>
      </trkpt>
      <trkpt lat="47.27553" lon="-2.35134">
        <ele>12.60000038147</ele>
        <time>2021-09-30T07:05:15.000Z</time>
      </trkpt>
      <trkpt lat="47.27566" lon="-2.3513">
        <ele>12.60000038147</ele>
        <time>2021-09-30T07:05:18.000Z</time>
      </trkpt>
      <trkpt lat="47.27581" lon="-2.35129">
        <ele>12.60000038147</ele>
        <time>2021-09-30T07:05:21.000Z</time>
      </trkpt>
      <trkpt lat="47.27595" lon="-2.35128">
        <ele>12.60000038147</ele>
        <time>2021-09-30T07:05:24.000Z</time>
      </trkpt>
      <trkpt lat="47.27603" lon="-2.35135">
        <ele>12.60000038147</ele>
        <time>2021-09-30T07:05:26.000Z</time>
      </trkpt>
      <trkpt lat="47.27607" lon="-2.35156">
        <ele>12.60000038147</ele>
        <time>2021-09-30T07:05:29.000Z</time>
      </trkpt>
      <trkpt lat="47.27614" lon="-2.35171">
        <ele>12.60000038147</ele>
        <time>2021-09-30T07:05:32.000Z</time>
      </trkpt>
      <trkpt lat="47.27626" lon="-2.35172">
        <ele>12.60000038147</ele>
        <time>2021-09-30T07:05:34.000Z</time>
      </trkpt>
      <trkpt lat="47.27643" lon="-2.35171">
        <ele>12.60000038147</ele>
        <time>2021-09-30T07:05:37.000Z</time>
      </trkpt>
      <trkpt lat="47.27658" lon="-2.35169">
        <ele>12.60000038147</ele>
        <time>2021-09-30T07:05:40.000Z</time>
      </trkpt>
      <trkpt lat="47.27663" lon="-2.35172">
        <ele>12.60000038147</ele>
        <time>2021-09-30T07:05:41.000Z</time>
      </trkpt>
      <trkpt lat="47.27669" lon="-2.35193">
        <ele>12.60000038147</ele>
        <time>2021-09-30T07:05:44.000Z</time>
      </trkpt>
      <trkpt lat="47.2767" lon="-2.35201">
        <ele>12.60000038147</ele>
        <time>2021-09-30T07:05:45.000Z</time>
      </trkpt>
      <trkpt lat="47.2767" lon="-2.35208">
        <ele>12.199999809265</ele>
        <time>2021-09-30T07:05:46.000Z</time>
      </trkpt>
      <trkpt lat="47.27669" lon="-2.35214">
        <ele>11.800000190735</ele>
        <time>2021-09-30T07:05:47.000Z</time>
      </trkpt>
      <trkpt lat="47.27668" lon="-2.35218">
        <ele>11.39999961853</ele>
        <time>2021-09-30T07:05:48.000Z</time>
      </trkpt>
      <trkpt lat="47.27666" lon="-2.3522">
        <ele>11</ele>
        <time>2021-09-30T07:05:49.000Z</time>
      </trkpt>
      <trkpt lat="47.27663" lon="-2.35223">
        <ele>10.60000038147</ele>
        <time>2021-09-30T07:05:50.000Z</time>
      </trkpt>
      <trkpt lat="47.27652" lon="-2.3523">
        <ele>10.60000038147</ele>
        <time>2021-09-30T07:05:53.000Z</time>
      </trkpt>
      <trkpt lat="47.27618" lon="-2.35246">
        <ele>10.60000038147</ele>
        <time>2021-09-30T07:06:01.000Z</time>
      </trkpt>
      <trkpt lat="47.27613" lon="-2.35248">
        <ele>10.60000038147</ele>
        <time>2021-09-30T07:06:02.000Z</time>
      </trkpt>
      <trkpt lat="47.27596" lon="-2.35263">
        <ele>10.60000038147</ele>
        <time>2021-09-30T07:06:06.000Z</time>
      </trkpt>
      <trkpt lat="47.27555" lon="-2.35287">
        <ele>10.60000038147</ele>
        <time>2021-09-30T07:06:14.000Z</time>
      </trkpt>
      <trkpt lat="47.27515" lon="-2.35296">
        <ele>10.60000038147</ele>
        <time>2021-09-30T07:06:21.000Z</time>
      </trkpt>
      <trkpt lat="47.27497" lon="-2.35297">
        <ele>10.60000038147</ele>
        <time>2021-09-30T07:06:25.000Z</time>
      </trkpt>
      <trkpt lat="47.27496" lon="-2.35297">
        <ele>10</ele>
        <time>2021-09-30T07:06:26.000Z</time>
      </trkpt>
      <trkpt lat="47.27495" lon="-2.35295">
        <ele>9.6000003814697</ele>
        <time>2021-09-30T07:06:27.000Z</time>
      </trkpt>
      <trkpt lat="47.27495" lon="-2.35292">
        <ele>9.1999998092651</ele>
        <time>2021-09-30T07:06:28.000Z</time>
      </trkpt>
      <trkpt lat="47.27497" lon="-2.35291">
        <ele>8.8000001907349</ele>
        <time>2021-09-30T07:06:29.000Z</time>
      </trkpt>
      <trkpt lat="47.27499" lon="-2.35292">
        <ele>8.3999996185303</ele>
        <time>2021-09-30T07:06:30.000Z</time>
      </trkpt>
      <trkpt lat="47.27502" lon="-2.35293">
        <ele>8.3999996185303</ele>
        <time>2021-09-30T07:06:31.000Z</time>
      </trkpt>
      <trkpt lat="47.27519" lon="-2.35293">
        <ele>8.3999996185303</ele>
        <time>2021-09-30T07:06:35.000Z</time>
      </trkpt>
      <trkpt lat="47.27524" lon="-2.35291">
        <ele>8.3999996185303</ele>
        <time>2021-09-30T07:06:36.000Z</time>
      </trkpt>
      <trkpt lat="47.27529" lon="-2.3529">
        <ele>8.3999996185303</ele>
        <time>2021-09-30T07:06:37.000Z</time>
      </trkpt>
      <trkpt lat="47.27549" lon="-2.35285">
        <ele>8.8000001907349</ele>
        <time>2021-09-30T07:06:41.000Z</time>
      </trkpt>
      <trkpt lat="47.27554" lon="-2.35284">
        <ele>9.1999998092651</ele>
        <time>2021-09-30T07:06:42.000Z</time>
      </trkpt>
      <trkpt lat="47.27559" lon="-2.35282">
        <ele>9.6000003814697</ele>
        <time>2021-09-30T07:06:43.000Z</time>
      </trkpt>
      <trkpt lat="47.27565" lon="-2.35279">
        <ele>10</ele>
        <time>2021-09-30T07:06:44.000Z</time>
      </trkpt>
      <trkpt lat="47.2757" lon="-2.35276">
        <ele>10.39999961853</ele>
        <time>2021-09-30T07:06:45.000Z</time>
      </trkpt>
      <trkpt lat="47.27581" lon="-2.35269">
        <ele>10.39999961853</ele>
        <time>2021-09-30T07:06:47.000Z</time>
      </trkpt>
      <trkpt lat="47.27615" lon="-2.35247">
        <ele>10.39999961853</ele>
        <time>2021-09-30T07:06:54.000Z</time>
      </trkpt>
      <trkpt lat="47.27621" lon="-2.3525">
        <ele>10.39999961853</ele>
        <time>2021-09-30T07:06:56.000Z</time>
      </trkpt>
      <trkpt lat="47.27622" lon="-2.35261">
        <ele>10.39999961853</ele>
        <time>2021-09-30T07:06:58.000Z</time>
      </trkpt>
      <trkpt lat="47.27623" lon="-2.35268">
        <ele>10.39999961853</ele>
        <time>2021-09-30T07:06:59.000Z</time>
      </trkpt>
      <trkpt lat="47.27625" lon="-2.35283">
        <ele>10.39999961853</ele>
        <time>2021-09-30T07:07:01.000Z</time>
      </trkpt>
      <trkpt lat="47.27627" lon="-2.35307">
        <ele>10.39999961853</ele>
        <time>2021-09-30T07:07:04.000Z</time>
      </trkpt>
      <trkpt lat="47.27627" lon="-2.35314">
        <ele>10.39999961853</ele>
        <time>2021-09-30T07:07:05.000Z</time>
      </trkpt>
      <trkpt lat="47.27627" lon="-2.35322">
        <ele>10.39999961853</ele>
        <time>2021-09-30T07:07:07.000Z</time>
      </trkpt>
      <trkpt lat="47.27631" lon="-2.35327">
        <ele>10.39999961853</ele>
        <time>2021-09-30T07:07:10.000Z</time>
      </trkpt>
      <trkpt lat="47.27634" lon="-2.35328">
        <ele>10.39999961853</ele>
        <time>2021-09-30T07:07:11.000Z</time>
      </trkpt>
      <trkpt lat="47.27644" lon="-2.3533">
        <ele>10.39999961853</ele>
        <time>2021-09-30T07:07:14.000Z</time>
      </trkpt>
      <trkpt lat="47.27649" lon="-2.35331">
        <ele>10</ele>
        <time>2021-09-30T07:07:15.000Z</time>
      </trkpt>
      <trkpt lat="47.27653" lon="-2.35331">
        <ele>9.6000003814697</ele>
        <time>2021-09-30T07:07:16.000Z</time>
      </trkpt>
      <trkpt lat="47.27658" lon="-2.3533">
        <ele>9.1999998092651</ele>
        <time>2021-09-30T07:07:17.000Z</time>
      </trkpt>
      <trkpt lat="47.2766" lon="-2.35332">
        <ele>8.8000001907349</ele>
        <time>2021-09-30T07:07:18.000Z</time>
      </trkpt>
      <trkpt lat="47.27662" lon="-2.35334">
        <ele>8.3999996185303</ele>
        <time>2021-09-30T07:07:19.000Z</time>
      </trkpt>
      <trkpt lat="47.2766" lon="-2.35337">
        <ele>8.3999996185303</ele>
        <time>2021-09-30T07:07:21.000Z</time>
      </trkpt>
      <trkpt lat="47.27654" lon="-2.35332">
        <ele>8.3999996185303</ele>
        <time>2021-09-30T07:07:23.000Z</time>
      </trkpt>
      <trkpt lat="47.2765" lon="-2.35328">
        <ele>8.3999996185303</ele>
        <time>2021-09-30T07:07:24.000Z</time>
      </trkpt>
      <trkpt lat="47.27643" lon="-2.35323">
        <ele>8.3999996185303</ele>
        <time>2021-09-30T07:07:26.000Z</time>
      </trkpt>
      <trkpt lat="47.27631" lon="-2.35315">
        <ele>8.3999996185303</ele>
        <time>2021-09-30T07:07:29.000Z</time>
      </trkpt>
      <trkpt lat="47.27625" lon="-2.35298">
        <ele>8.3999996185303</ele>
        <time>2021-09-30T07:07:32.000Z</time>
      </trkpt>
      <trkpt lat="47.27623" lon="-2.35285">
        <ele>8.3999996185303</ele>
        <time>2021-09-30T07:07:34.000Z</time>
      </trkpt>
      <trkpt lat="47.27619" lon="-2.35258">
        <ele>8.3999996185303</ele>
        <time>2021-09-30T07:07:38.000Z</time>
      </trkpt>
      <trkpt lat="47.27623" lon="-2.35243">
        <ele>8.3999996185303</ele>
        <time>2021-09-30T07:07:41.000Z</time>
      </trkpt>
      <trkpt lat="47.27626" lon="-2.3524">
        <ele>8.3999996185303</ele>
        <time>2021-09-30T07:07:42.000Z</time>
      </trkpt>
      <trkpt lat="47.2764" lon="-2.35232">
        <ele>8.3999996185303</ele>
        <time>2021-09-30T07:07:45.000Z</time>
      </trkpt>
      <trkpt lat="47.27652" lon="-2.35227">
        <ele>8.3999996185303</ele>
        <time>2021-09-30T07:07:47.000Z</time>
      </trkpt>
      <trkpt lat="47.27692" lon="-2.35212">
        <ele>8.3999996185303</ele>
        <time>2021-09-30T07:07:53.000Z</time>
      </trkpt>
      <trkpt lat="47.27747" lon="-2.35198">
        <ele>8.3999996185303</ele>
        <time>2021-09-30T07:08:01.000Z</time>
      </trkpt>
      <trkpt lat="47.2776" lon="-2.35196">
        <ele>8.3999996185303</ele>
        <time>2021-09-30T07:08:03.000Z</time>
      </trkpt>
      <trkpt lat="47.27768" lon="-2.35198">
        <ele>8</ele>
        <time>2021-09-30T07:08:05.000Z</time>
      </trkpt>
      <trkpt lat="47.27771" lon="-2.35202">
        <ele>7.5999999046326</ele>
        <time>2021-09-30T07:08:06.000Z</time>
      </trkpt>
      <trkpt lat="47.27773" lon="-2.35207">
        <ele>7.1999998092651</ele>
        <time>2021-09-30T07:08:07.000Z</time>
      </trkpt>
      <trkpt lat="47.27775" lon="-2.35213">
        <ele>6.8000001907349</ele>
        <time>2021-09-30T07:08:08.000Z</time>
      </trkpt>
      <trkpt lat="47.27777" lon="-2.35221">
        <ele>6.4000000953674</ele>
        <time>2021-09-30T07:08:09.000Z</time>
      </trkpt>
      <trkpt lat="47.27783" lon="-2.35256">
        <ele>6.4000000953674</ele>
        <time>2021-09-30T07:08:13.000Z</time>
      </trkpt>
      <trkpt lat="47.27792" lon="-2.35302">
        <ele>6.4000000953674</ele>
        <time>2021-09-30T07:08:18.000Z</time>
      </trkpt>
      <trkpt lat="47.27805" lon="-2.35354">
        <ele>6.4000000953674</ele>
        <time>2021-09-30T07:08:24.000Z</time>
      </trkpt>
      <trkpt lat="47.27809" lon="-2.35359">
        <ele>6.4000000953674</ele>
        <time>2021-09-30T07:08:25.000Z</time>
      </trkpt>
      <trkpt lat="47.27825" lon="-2.35363">
        <ele>6.4000000953674</ele>
        <time>2021-09-30T07:08:28.000Z</time>
      </trkpt>
      <trkpt lat="47.27866" lon="-2.3536">
        <ele>6.4000000953674</ele>
        <time>2021-09-30T07:08:36.000Z</time>
      </trkpt>
      <trkpt lat="47.27871" lon="-2.35361">
        <ele>6.4000000953674</ele>
        <time>2021-09-30T07:08:37.000Z</time>
      </trkpt>
      <trkpt lat="47.27882" lon="-2.35372">
        <ele>6.4000000953674</ele>
        <time>2021-09-30T07:08:40.000Z</time>
      </trkpt>
      <trkpt lat="47.27886" lon="-2.35377">
        <ele>6.4000000953674</ele>
        <time>2021-09-30T07:08:41.000Z</time>
      </trkpt>
      <trkpt lat="47.2789" lon="-2.35383">
        <ele>6.4000000953674</ele>
        <time>2021-09-30T07:08:42.000Z</time>
      </trkpt>
      <trkpt lat="47.27905" lon="-2.35404">
        <ele>6.4000000953674</ele>
        <time>2021-09-30T07:08:46.000Z</time>
      </trkpt>
      <trkpt lat="47.27941" lon="-2.35448">
        <ele>6.4000000953674</ele>
        <time>2021-09-30T07:08:54.000Z</time>
      </trkpt>
      <trkpt lat="47.27967" lon="-2.35467">
        <ele>6.4000000953674</ele>
        <time>2021-09-30T07:08:59.000Z</time>
      </trkpt>
      <trkpt lat="47.27972" lon="-2.35472">
        <ele>6.4000000953674</ele>
        <time>2021-09-30T07:09:00.000Z</time>
      </trkpt>
      <trkpt lat="47.27983" lon="-2.35491">
        <ele>6.4000000953674</ele>
        <time>2021-09-30T07:09:03.000Z</time>
      </trkpt>
      <trkpt lat="47.27987" lon="-2.35498">
        <ele>6.4000000953674</ele>
        <time>2021-09-30T07:09:04.000Z</time>
      </trkpt>
      <trkpt lat="47.28002" lon="-2.35527">
        <ele>6.4000000953674</ele>
        <time>2021-09-30T07:09:09.000Z</time>
      </trkpt>
      <trkpt lat="47.28009" lon="-2.3555">
        <ele>6.4000000953674</ele>
        <time>2021-09-30T07:09:14.000Z</time>
      </trkpt>
      <trkpt lat="47.2801" lon="-2.35554">
        <ele>6.8000001907349</ele>
        <time>2021-09-30T07:09:15.000Z</time>
      </trkpt>
      <trkpt lat="47.28012" lon="-2.35558">
        <ele>7.1999998092651</ele>
        <time>2021-09-30T07:09:16.000Z</time>
      </trkpt>
      <trkpt lat="47.28014" lon="-2.35562">
        <ele>7.5999999046326</ele>
        <time>2021-09-30T07:09:17.000Z</time>
      </trkpt>
      <trkpt lat="47.28016" lon="-2.35563">
        <ele>8</ele>
        <time>2021-09-30T07:09:18.000Z</time>
      </trkpt>
      <trkpt lat="47.28019" lon="-2.35563">
        <ele>8.3999996185303</ele>
        <time>2021-09-30T07:09:19.000Z</time>
      </trkpt>
      <trkpt lat="47.28035" lon="-2.35569">
        <ele>8.3999996185303</ele>
        <time>2021-09-30T07:09:24.000Z</time>
      </trkpt>
      <trkpt lat="47.28053" lon="-2.3558">
        <ele>8.3999996185303</ele>
        <time>2021-09-30T07:09:30.000Z</time>
      </trkpt>
      <trkpt lat="47.28062" lon="-2.35582">
        <ele>9</ele>
        <time>2021-09-30T07:09:33.000Z</time>
      </trkpt>
      <trkpt lat="47.28065" lon="-2.35583">
        <ele>9.3999996185303</ele>
        <time>2021-09-30T07:09:34.000Z</time>
      </trkpt>
      <trkpt lat="47.28067" lon="-2.35584">
        <ele>9.8000001907349</ele>
        <time>2021-09-30T07:09:35.000Z</time>
      </trkpt>
      <trkpt lat="47.28069" lon="-2.35586">
        <ele>10.199999809265</ele>
        <time>2021-09-30T07:09:36.000Z</time>
      </trkpt>
      <trkpt lat="47.28071" lon="-2.35589">
        <ele>10.60000038147</ele>
        <time>2021-09-30T07:09:37.000Z</time>
      </trkpt>
      <trkpt lat="47.28081" lon="-2.35606">
        <ele>10.60000038147</ele>
        <time>2021-09-30T07:09:42.000Z</time>
      </trkpt>
      <trkpt lat="47.28085" lon="-2.35615">
        <ele>10.60000038147</ele>
        <time>2021-09-30T07:09:47.000Z</time>
      </trkpt>
      <trkpt lat="47.28086" lon="-2.35615">
        <ele>10.60000038147</ele>
        <time>2021-09-30T07:09:49.000Z</time>
      </trkpt>
      <trkpt lat="47.28084" lon="-2.35613">
        <ele>10.60000038147</ele>
        <time>2021-09-30T07:13:06.000Z</time>
      </trkpt>
      <trkpt lat="47.28082" lon="-2.35609">
        <ele>10.60000038147</ele>
        <time>2021-09-30T07:13:08.000Z</time>
      </trkpt>
      <trkpt lat="47.28072" lon="-2.35594">
        <ele>10.60000038147</ele>
        <time>2021-09-30T07:13:15.000Z</time>
      </trkpt>
      <trkpt lat="47.28061" lon="-2.35583">
        <ele>10.60000038147</ele>
        <time>2021-09-30T07:13:20.000Z</time>
      </trkpt>
      <trkpt lat="47.28041" lon="-2.35575">
        <ele>10.199999809265</ele>
        <time>2021-09-30T07:13:26.000Z</time>
      </trkpt>
      <trkpt lat="47.28039" lon="-2.35574">
        <ele>9.8000001907349</ele>
        <time>2021-09-30T07:13:27.000Z</time>
      </trkpt>
      <trkpt lat="47.28037" lon="-2.35574">
        <ele>9.3999996185303</ele>
        <time>2021-09-30T07:13:28.000Z</time>
      </trkpt>
      <trkpt lat="47.28036" lon="-2.35573">
        <ele>8.8000001907349</ele>
        <time>2021-09-30T07:13:29.000Z</time>
      </trkpt>
      <trkpt lat="47.28035" lon="-2.35571">
        <ele>8.3999996185303</ele>
        <time>2021-09-30T07:13:30.000Z</time>
      </trkpt>
      <trkpt lat="47.28033" lon="-2.35569">
        <ele>8.3999996185303</ele>
        <time>2021-09-30T07:13:32.000Z</time>
      </trkpt>
      <trkpt lat="47.28032" lon="-2.35565">
        <ele>8.3999996185303</ele>
        <time>2021-09-30T07:13:35.000Z</time>
      </trkpt>
      <trkpt lat="47.28032" lon="-2.35564">
        <ele>8.3999996185303</ele>
        <time>2021-09-30T07:13:36.000Z</time>
      </trkpt>
      <trkpt lat="47.28032" lon="-2.3556">
        <ele>8.3999996185303</ele>
        <time>2021-09-30T07:13:45.000Z</time>
      </trkpt>
      <trkpt lat="47.28034" lon="-2.35555">
        <ele>8.3999996185303</ele>
        <time>2021-09-30T07:13:47.000Z</time>
      </trkpt>
      <trkpt lat="47.28037" lon="-2.35554">
        <ele>8.3999996185303</ele>
        <time>2021-09-30T07:13:48.000Z</time>
      </trkpt>
      <trkpt lat="47.28057" lon="-2.35552">
        <ele>8.3999996185303</ele>
        <time>2021-09-30T07:13:54.000Z</time>
      </trkpt>
      <trkpt lat="47.28081" lon="-2.35553">
        <ele>8.3999996185303</ele>
        <time>2021-09-30T07:14:02.000Z</time>
      </trkpt>
      <trkpt lat="47.28105" lon="-2.35554">
        <ele>8.3999996185303</ele>
        <time>2021-09-30T07:14:10.000Z</time>
      </trkpt>
      <trkpt lat="47.28126" lon="-2.35557">
        <ele>8.3999996185303</ele>
        <time>2021-09-30T07:14:17.000Z</time>
      </trkpt>
      <trkpt lat="47.28133" lon="-2.35557">
        <ele>8.8000001907349</ele>
        <time>2021-09-30T07:14:19.000Z</time>
      </trkpt>
      <trkpt lat="47.28136" lon="-2.35557">
        <ele>9.1999998092651</ele>
        <time>2021-09-30T07:14:20.000Z</time>
      </trkpt>
      <trkpt lat="47.28139" lon="-2.35558">
        <ele>9.8000001907349</ele>
        <time>2021-09-30T07:14:21.000Z</time>
      </trkpt>
      <trkpt lat="47.28142" lon="-2.35558">
        <ele>10.199999809265</ele>
        <time>2021-09-30T07:14:22.000Z</time>
      </trkpt>
      <trkpt lat="47.28146" lon="-2.35559">
        <ele>10.60000038147</ele>
        <time>2021-09-30T07:14:23.000Z</time>
      </trkpt>
      <trkpt lat="47.28149" lon="-2.3556">
        <ele>10.60000038147</ele>
        <time>2021-09-30T07:14:24.000Z</time>
      </trkpt>
      <trkpt lat="47.28174" lon="-2.35574">
        <ele>10.60000038147</ele>
        <time>2021-09-30T07:14:32.000Z</time>
      </trkpt>
      <trkpt lat="47.282" lon="-2.35603">
        <ele>10.60000038147</ele>
        <time>2021-09-30T07:14:41.000Z</time>
      </trkpt>
      <trkpt lat="47.28203" lon="-2.35607">
        <ele>11</ele>
        <time>2021-09-30T07:14:42.000Z</time>
      </trkpt>
      <trkpt lat="47.28205" lon="-2.35611">
        <ele>11.39999961853</ele>
        <time>2021-09-30T07:14:43.000Z</time>
      </trkpt>
      <trkpt lat="47.28207" lon="-2.35614">
        <ele>11.800000190735</ele>
        <time>2021-09-30T07:14:44.000Z</time>
      </trkpt>
      <trkpt lat="47.2821" lon="-2.35617">
        <ele>12.199999809265</ele>
        <time>2021-09-30T07:14:45.000Z</time>
      </trkpt>
      <trkpt lat="47.28212" lon="-2.3562">
        <ele>12.60000038147</ele>
        <time>2021-09-30T07:14:46.000Z</time>
      </trkpt>
      <trkpt lat="47.28219" lon="-2.3563">
        <ele>12.60000038147</ele>
        <time>2021-09-30T07:14:49.000Z</time>
      </trkpt>
      <trkpt lat="47.28247" lon="-2.35664">
        <ele>12.60000038147</ele>
        <time>2021-09-30T07:15:00.000Z</time>
      </trkpt>
      <trkpt lat="47.28265" lon="-2.35687">
        <ele>13</ele>
        <time>2021-09-30T07:15:07.000Z</time>
      </trkpt>
      <trkpt lat="47.28268" lon="-2.3569">
        <ele>13.39999961853</ele>
        <time>2021-09-30T07:15:08.000Z</time>
      </trkpt>
      <trkpt lat="47.2827" lon="-2.35693">
        <ele>13.800000190735</ele>
        <time>2021-09-30T07:15:09.000Z</time>
      </trkpt>
      <trkpt lat="47.28273" lon="-2.35696">
        <ele>14.199999809265</ele>
        <time>2021-09-30T07:15:10.000Z</time>
      </trkpt>
      <trkpt lat="47.28276" lon="-2.35699">
        <ele>14.60000038147</ele>
        <time>2021-09-30T07:15:11.000Z</time>
      </trkpt>
      <trkpt lat="47.28289" lon="-2.35711">
        <ele>14.60000038147</ele>
        <time>2021-09-30T07:15:15.000Z</time>
      </trkpt>
      <trkpt lat="47.28313" lon="-2.35734">
        <ele>14.60000038147</ele>
        <time>2021-09-30T07:15:23.000Z</time>
      </trkpt>
      <trkpt lat="47.28341" lon="-2.3575">
        <ele>14.60000038147</ele>
        <time>2021-09-30T07:15:31.000Z</time>
      </trkpt>
      <trkpt lat="47.28353" lon="-2.35756">
        <ele>15</ele>
        <time>2021-09-30T07:15:34.000Z</time>
      </trkpt>
      <trkpt lat="47.28356" lon="-2.35759">
        <ele>15.39999961853</ele>
        <time>2021-09-30T07:15:35.000Z</time>
      </trkpt>
      <trkpt lat="47.2836" lon="-2.35761">
        <ele>15.800000190735</ele>
        <time>2021-09-30T07:15:36.000Z</time>
      </trkpt>
      <trkpt lat="47.28364" lon="-2.35764">
        <ele>16.200000762939</ele>
        <time>2021-09-30T07:15:37.000Z</time>
      </trkpt>
      <trkpt lat="47.28367" lon="-2.35766">
        <ele>16.60000038147</ele>
        <time>2021-09-30T07:15:38.000Z</time>
      </trkpt>
      <trkpt lat="47.28389" lon="-2.35775">
        <ele>16.60000038147</ele>
        <time>2021-09-30T07:15:44.000Z</time>
      </trkpt>
      <trkpt lat="47.28416" lon="-2.35787">
        <ele>16.60000038147</ele>
        <time>2021-09-30T07:15:51.000Z</time>
      </trkpt>
      <trkpt lat="47.28445" lon="-2.35798">
        <ele>16.60000038147</ele>
        <time>2021-09-30T07:15:58.000Z</time>
      </trkpt>
      <trkpt lat="47.28477" lon="-2.35811">
        <ele>16.60000038147</ele>
        <time>2021-09-30T07:16:05.000Z</time>
      </trkpt>
      <trkpt lat="47.28501" lon="-2.35818">
        <ele>16.60000038147</ele>
        <time>2021-09-30T07:16:11.000Z</time>
      </trkpt>
      <trkpt lat="47.28527" lon="-2.3583">
        <ele>16.60000038147</ele>
        <time>2021-09-30T07:16:18.000Z</time>
      </trkpt>
      <trkpt lat="47.28552" lon="-2.35838">
        <ele>16.60000038147</ele>
        <time>2021-09-30T07:16:25.000Z</time>
      </trkpt>
      <trkpt lat="47.28563" lon="-2.35822">
        <ele>16.60000038147</ele>
        <time>2021-09-30T07:16:29.000Z</time>
      </trkpt>
      <trkpt lat="47.28566" lon="-2.35816">
        <ele>16.60000038147</ele>
        <time>2021-09-30T07:16:30.000Z</time>
      </trkpt>
      <trkpt lat="47.28585" lon="-2.35779">
        <ele>16.60000038147</ele>
        <time>2021-09-30T07:16:37.000Z</time>
      </trkpt>
      <trkpt lat="47.28605" lon="-2.35743">
        <ele>16.60000038147</ele>
        <time>2021-09-30T07:16:45.000Z</time>
      </trkpt>
      <trkpt lat="47.28608" lon="-2.35741">
        <ele>16.60000038147</ele>
        <time>2021-09-30T07:16:46.000Z</time>
      </trkpt>
      <trkpt lat="47.28616" lon="-2.35742">
        <ele>16.60000038147</ele>
        <time>2021-09-30T07:16:48.000Z</time>
      </trkpt>
      <trkpt lat="47.28625" lon="-2.35754">
        <ele>16.60000038147</ele>
        <time>2021-09-30T07:16:51.000Z</time>
      </trkpt>
      <trkpt lat="47.28628" lon="-2.35764">
        <ele>16.60000038147</ele>
        <time>2021-09-30T07:16:53.000Z</time>
      </trkpt>
      <trkpt lat="47.28634" lon="-2.35784">
        <ele>16.60000038147</ele>
        <time>2021-09-30T07:16:57.000Z</time>
      </trkpt>
      <trkpt lat="47.28638" lon="-2.35802">
        <ele>16.60000038147</ele>
        <time>2021-09-30T07:17:02.000Z</time>
      </trkpt>
      <trkpt lat="47.28641" lon="-2.35812">
        <ele>16.60000038147</ele>
        <time>2021-09-30T07:17:08.000Z</time>
      </trkpt>
      <trkpt lat="47.28642" lon="-2.35829">
        <ele>16.60000038147</ele>
        <time>2021-09-30T07:17:13.000Z</time>
      </trkpt>
      <trkpt lat="47.28651" lon="-2.35855">
        <ele>16.60000038147</ele>
        <time>2021-09-30T07:17:18.000Z</time>
      </trkpt>
      <trkpt lat="47.28664" lon="-2.35886">
        <ele>16.60000038147</ele>
        <time>2021-09-30T07:17:24.000Z</time>
      </trkpt>
      <trkpt lat="47.28677" lon="-2.35914">
        <ele>16.60000038147</ele>
        <time>2021-09-30T07:17:31.000Z</time>
      </trkpt>
      <trkpt lat="47.28685" lon="-2.35907">
        <ele>16.60000038147</ele>
        <time>2021-09-30T07:17:34.000Z</time>
      </trkpt>
      <trkpt lat="47.28691" lon="-2.35899">
        <ele>17</ele>
        <time>2021-09-30T07:17:36.000Z</time>
      </trkpt>
      <trkpt lat="47.28694" lon="-2.35895">
        <ele>17.39999961853</ele>
        <time>2021-09-30T07:17:37.000Z</time>
      </trkpt>
      <trkpt lat="47.28697" lon="-2.3589">
        <ele>17.799999237061</ele>
        <time>2021-09-30T07:17:38.000Z</time>
      </trkpt>
      <trkpt lat="47.287" lon="-2.35886">
        <ele>18.200000762939</ele>
        <time>2021-09-30T07:17:39.000Z</time>
      </trkpt>
      <trkpt lat="47.28703" lon="-2.35882">
        <ele>18.60000038147</ele>
        <time>2021-09-30T07:17:40.000Z</time>
      </trkpt>
      <trkpt lat="47.28706" lon="-2.35878">
        <ele>18.60000038147</ele>
        <time>2021-09-30T07:17:41.000Z</time>
      </trkpt>
      <trkpt lat="47.28728" lon="-2.35841">
        <ele>18.60000038147</ele>
        <time>2021-09-30T07:17:49.000Z</time>
      </trkpt>
      <trkpt lat="47.28751" lon="-2.35798">
        <ele>18.60000038147</ele>
        <time>2021-09-30T07:17:58.000Z</time>
      </trkpt>
      <trkpt lat="47.2877" lon="-2.3576">
        <ele>18.60000038147</ele>
        <time>2021-09-30T07:18:05.000Z</time>
      </trkpt>
      <trkpt lat="47.28789" lon="-2.35723">
        <ele>18.60000038147</ele>
        <time>2021-09-30T07:18:12.000Z</time>
      </trkpt>
      <trkpt lat="47.28808" lon="-2.35685">
        <ele>18.60000038147</ele>
        <time>2021-09-30T07:18:19.000Z</time>
      </trkpt>
      <trkpt lat="47.28822" lon="-2.35666">
        <ele>18.60000038147</ele>
        <time>2021-09-30T07:18:23.000Z</time>
      </trkpt>
      <trkpt lat="47.2883" lon="-2.35657">
        <ele>18.60000038147</ele>
        <time>2021-09-30T07:18:25.000Z</time>
      </trkpt>
      <trkpt lat="47.2886" lon="-2.35623">
        <ele>18.60000038147</ele>
        <time>2021-09-30T07:18:33.000Z</time>
      </trkpt>
      <trkpt lat="47.28894" lon="-2.35588">
        <ele>18.60000038147</ele>
        <time>2021-09-30T07:18:42.000Z</time>
      </trkpt>
      <trkpt lat="47.28912" lon="-2.35571">
        <ele>18.60000038147</ele>
        <time>2021-09-30T07:18:48.000Z</time>
      </trkpt>
      <trkpt lat="47.28919" lon="-2.35561">
        <ele>18.60000038147</ele>
        <time>2021-09-30T07:18:54.000Z</time>
      </trkpt>
      <trkpt lat="47.28925" lon="-2.35558">
        <ele>18.60000038147</ele>
        <time>2021-09-30T07:18:57.000Z</time>
      </trkpt>
      <trkpt lat="47.28927" lon="-2.35559">
        <ele>18.60000038147</ele>
        <time>2021-09-30T07:18:58.000Z</time>
      </trkpt>
      <trkpt lat="47.28931" lon="-2.35571">
        <ele>18.60000038147</ele>
        <time>2021-09-30T07:19:01.000Z</time>
      </trkpt>
      <trkpt lat="47.28933" lon="-2.35576">
        <ele>18.60000038147</ele>
        <time>2021-09-30T07:19:02.000Z</time>
      </trkpt>
      <trkpt lat="47.28945" lon="-2.35608">
        <ele>18.60000038147</ele>
        <time>2021-09-30T07:19:08.000Z</time>
      </trkpt>
      <trkpt lat="47.28969" lon="-2.35662">
        <ele>18.60000038147</ele>
        <time>2021-09-30T07:19:18.000Z</time>
      </trkpt>
      <trkpt lat="47.28979" lon="-2.35682">
        <ele>19</ele>
        <time>2021-09-30T07:19:22.000Z</time>
      </trkpt>
      <trkpt lat="47.28981" lon="-2.35687">
        <ele>19.60000038147</ele>
        <time>2021-09-30T07:19:23.000Z</time>
      </trkpt>
      <trkpt lat="47.28984" lon="-2.35691">
        <ele>20</ele>
        <time>2021-09-30T07:19:24.000Z</time>
      </trkpt>
      <trkpt lat="47.28988" lon="-2.35694">
        <ele>20.39999961853</ele>
        <time>2021-09-30T07:19:25.000Z</time>
      </trkpt>
      <trkpt lat="47.28991" lon="-2.35697">
        <ele>20.799999237061</ele>
        <time>2021-09-30T07:19:26.000Z</time>
      </trkpt>
      <trkpt lat="47.29006" lon="-2.35704">
        <ele>20.799999237061</ele>
        <time>2021-09-30T07:19:30.000Z</time>
      </trkpt>
      <trkpt lat="47.29011" lon="-2.35705">
        <ele>20.799999237061</ele>
        <time>2021-09-30T07:19:31.000Z</time>
      </trkpt>
      <trkpt lat="47.29028" lon="-2.35698">
        <ele>20.799999237061</ele>
        <time>2021-09-30T07:19:35.000Z</time>
      </trkpt>
      <trkpt lat="47.2904" lon="-2.35688">
        <ele>20.799999237061</ele>
        <time>2021-09-30T07:19:38.000Z</time>
      </trkpt>
      <trkpt lat="47.29054" lon="-2.35672">
        <ele>20.799999237061</ele>
        <time>2021-09-30T07:19:42.000Z</time>
      </trkpt>
      <trkpt lat="47.2908" lon="-2.35645">
        <ele>20.799999237061</ele>
        <time>2021-09-30T07:19:50.000Z</time>
      </trkpt>
      <trkpt lat="47.29095" lon="-2.35634">
        <ele>20.799999237061</ele>
        <time>2021-09-30T07:19:56.000Z</time>
      </trkpt>
      <trkpt lat="47.29117" lon="-2.35614">
        <ele>20.799999237061</ele>
        <time>2021-09-30T07:20:03.000Z</time>
      </trkpt>
      <trkpt lat="47.2912" lon="-2.3561">
        <ele>20.799999237061</ele>
        <time>2021-09-30T07:20:04.000Z</time>
      </trkpt>
      <trkpt lat="47.29129" lon="-2.35587">
        <ele>20.799999237061</ele>
        <time>2021-09-30T07:20:08.000Z</time>
      </trkpt>
      <trkpt lat="47.29128" lon="-2.35559">
        <ele>20.799999237061</ele>
        <time>2021-09-30T07:20:12.000Z</time>
      </trkpt>
      <trkpt lat="47.29126" lon="-2.35546">
        <ele>20.799999237061</ele>
        <time>2021-09-30T07:20:14.000Z</time>
      </trkpt>
      <trkpt lat="47.2912" lon="-2.35519">
        <ele>20.799999237061</ele>
        <time>2021-09-30T07:20:18.000Z</time>
      </trkpt>
      <trkpt lat="47.29114" lon="-2.3548">
        <ele>20.799999237061</ele>
        <time>2021-09-30T07:20:24.000Z</time>
      </trkpt>
      <trkpt lat="47.29123" lon="-2.35464">
        <ele>20.799999237061</ele>
        <time>2021-09-30T07:20:27.000Z</time>
      </trkpt>
      <trkpt lat="47.2914" lon="-2.35456">
        <ele>20.799999237061</ele>
        <time>2021-09-30T07:20:31.000Z</time>
      </trkpt>
      <trkpt lat="47.29144" lon="-2.35455">
        <ele>20.799999237061</ele>
        <time>2021-09-30T07:20:32.000Z</time>
      </trkpt>
      <trkpt lat="47.29189" lon="-2.35438">
        <ele>20.799999237061</ele>
        <time>2021-09-30T07:20:41.000Z</time>
      </trkpt>
      <trkpt lat="47.29233" lon="-2.35422">
        <ele>20.799999237061</ele>
        <time>2021-09-30T07:20:50.000Z</time>
      </trkpt>
      <trkpt lat="47.29272" lon="-2.35402">
        <ele>20.799999237061</ele>
        <time>2021-09-30T07:20:58.000Z</time>
      </trkpt>
      <trkpt lat="47.29305" lon="-2.35374">
        <ele>20.799999237061</ele>
        <time>2021-09-30T07:21:05.000Z</time>
      </trkpt>
      <trkpt lat="47.2934" lon="-2.35336">
        <ele>20.799999237061</ele>
        <time>2021-09-30T07:21:13.000Z</time>
      </trkpt>
      <trkpt lat="47.29349" lon="-2.35327">
        <ele>20.39999961853</ele>
        <time>2021-09-30T07:21:15.000Z</time>
      </trkpt>
      <trkpt lat="47.29353" lon="-2.35322">
        <ele>20</ele>
        <time>2021-09-30T07:21:16.000Z</time>
      </trkpt>
      <trkpt lat="47.29357" lon="-2.35317">
        <ele>19.60000038147</ele>
        <time>2021-09-30T07:21:17.000Z</time>
      </trkpt>
      <trkpt lat="47.29361" lon="-2.35312">
        <ele>19.200000762939</ele>
        <time>2021-09-30T07:21:18.000Z</time>
      </trkpt>
      <trkpt lat="47.29365" lon="-2.35307">
        <ele>18.799999237061</ele>
        <time>2021-09-30T07:21:19.000Z</time>
      </trkpt>
      <trkpt lat="47.29379" lon="-2.35292">
        <ele>18.799999237061</ele>
        <time>2021-09-30T07:21:22.000Z</time>
      </trkpt>
      <trkpt lat="47.29406" lon="-2.35255">
        <ele>18.799999237061</ele>
        <time>2021-09-30T07:21:29.000Z</time>
      </trkpt>
      <trkpt lat="47.29428" lon="-2.35219">
        <ele>18.799999237061</ele>
        <time>2021-09-30T07:21:35.000Z</time>
      </trkpt>
      <trkpt lat="47.29436" lon="-2.35201">
        <ele>18.200000762939</ele>
        <time>2021-09-30T07:21:38.000Z</time>
      </trkpt>
      <trkpt lat="47.29439" lon="-2.35195">
        <ele>17.799999237061</ele>
        <time>2021-09-30T07:21:39.000Z</time>
      </trkpt>
      <trkpt lat="47.29442" lon="-2.35189">
        <ele>17.39999961853</ele>
        <time>2021-09-30T07:21:40.000Z</time>
      </trkpt>
      <trkpt lat="47.29445" lon="-2.35182">
        <ele>17</ele>
        <time>2021-09-30T07:21:41.000Z</time>
      </trkpt>
      <trkpt lat="47.29447" lon="-2.35175">
        <ele>16.60000038147</ele>
        <time>2021-09-30T07:21:42.000Z</time>
      </trkpt>
      <trkpt lat="47.29466" lon="-2.35125">
        <ele>16.60000038147</ele>
        <time>2021-09-30T07:21:49.000Z</time>
      </trkpt>
      <trkpt lat="47.29484" lon="-2.35074">
        <ele>16.60000038147</ele>
        <time>2021-09-30T07:21:56.000Z</time>
      </trkpt>
      <trkpt lat="47.29505" lon="-2.35018">
        <ele>16.60000038147</ele>
        <time>2021-09-30T07:22:03.000Z</time>
      </trkpt>
      <trkpt lat="47.29514" lon="-2.35001">
        <ele>16</ele>
        <time>2021-09-30T07:22:05.000Z</time>
      </trkpt>
      <trkpt lat="47.29518" lon="-2.3499">
        <ele>15.60000038147</ele>
        <time>2021-09-30T07:22:06.000Z</time>
      </trkpt>
      <trkpt lat="47.29522" lon="-2.3498">
        <ele>15.199999809265</ele>
        <time>2021-09-30T07:22:07.000Z</time>
      </trkpt>
      <trkpt lat="47.29527" lon="-2.34972">
        <ele>14.60000038147</ele>
        <time>2021-09-30T07:22:08.000Z</time>
      </trkpt>
      <trkpt lat="47.29532" lon="-2.34963">
        <ele>14.199999809265</ele>
        <time>2021-09-30T07:22:09.000Z</time>
      </trkpt>
      <trkpt lat="47.29556" lon="-2.34921">
        <ele>14.199999809265</ele>
        <time>2021-09-30T07:22:14.000Z</time>
      </trkpt>
      <trkpt lat="47.2956" lon="-2.34915">
        <ele>14.199999809265</ele>
        <time>2021-09-30T07:22:15.000Z</time>
      </trkpt>
      <trkpt lat="47.29585" lon="-2.34877">
        <ele>14.199999809265</ele>
        <time>2021-09-30T07:22:22.000Z</time>
      </trkpt>
      <trkpt lat="47.29608" lon="-2.34842">
        <ele>14.199999809265</ele>
        <time>2021-09-30T07:22:28.000Z</time>
      </trkpt>
      <trkpt lat="47.29612" lon="-2.34837">
        <ele>14.199999809265</ele>
        <time>2021-09-30T07:22:29.000Z</time>
      </trkpt>
      <trkpt lat="47.29629" lon="-2.34836">
        <ele>14.199999809265</ele>
        <time>2021-09-30T07:22:32.000Z</time>
      </trkpt>
      <trkpt lat="47.29652" lon="-2.34855">
        <ele>14.199999809265</ele>
        <time>2021-09-30T07:22:36.000Z</time>
      </trkpt>
      <trkpt lat="47.29658" lon="-2.34862">
        <ele>14.199999809265</ele>
        <time>2021-09-30T07:22:37.000Z</time>
      </trkpt>
      <trkpt lat="47.29679" lon="-2.34887">
        <ele>14.199999809265</ele>
        <time>2021-09-30T07:22:41.000Z</time>
      </trkpt>
      <trkpt lat="47.29685" lon="-2.3489">
        <ele>14.199999809265</ele>
        <time>2021-09-30T07:22:42.000Z</time>
      </trkpt>
      <trkpt lat="47.29706" lon="-2.34893">
        <ele>14.199999809265</ele>
        <time>2021-09-30T07:22:45.000Z</time>
      </trkpt>
      <trkpt lat="47.29733" lon="-2.34881">
        <ele>14.199999809265</ele>
        <time>2021-09-30T07:22:49.000Z</time>
      </trkpt>
      <trkpt lat="47.29769" lon="-2.34868">
        <ele>14.199999809265</ele>
        <time>2021-09-30T07:22:55.000Z</time>
      </trkpt>
      <trkpt lat="47.29807" lon="-2.34855">
        <ele>14.199999809265</ele>
        <time>2021-09-30T07:23:01.000Z</time>
      </trkpt>
      <trkpt lat="47.29847" lon="-2.34846">
        <ele>14.199999809265</ele>
        <time>2021-09-30T07:23:08.000Z</time>
      </trkpt>
      <trkpt lat="47.29884" lon="-2.34838">
        <ele>14.199999809265</ele>
        <time>2021-09-30T07:23:15.000Z</time>
      </trkpt>
      <trkpt lat="47.2992" lon="-2.34831">
        <ele>14.60000038147</ele>
        <time>2021-09-30T07:23:23.000Z</time>
      </trkpt>
      <trkpt lat="47.29924" lon="-2.34831">
        <ele>15</ele>
        <time>2021-09-30T07:23:24.000Z</time>
      </trkpt>
      <trkpt lat="47.29929" lon="-2.3483">
        <ele>15.60000038147</ele>
        <time>2021-09-30T07:23:25.000Z</time>
      </trkpt>
      <trkpt lat="47.29933" lon="-2.34829">
        <ele>16</ele>
        <time>2021-09-30T07:23:26.000Z</time>
      </trkpt>
      <trkpt lat="47.29938" lon="-2.34828">
        <ele>16.39999961853</ele>
        <time>2021-09-30T07:23:27.000Z</time>
      </trkpt>
      <trkpt lat="47.29951" lon="-2.34826">
        <ele>16.39999961853</ele>
        <time>2021-09-30T07:23:30.000Z</time>
      </trkpt>
      <trkpt lat="47.29973" lon="-2.34821">
        <ele>16.39999961853</ele>
        <time>2021-09-30T07:23:36.000Z</time>
      </trkpt>
      <trkpt lat="47.29984" lon="-2.34825">
        <ele>16.39999961853</ele>
        <time>2021-09-30T07:23:40.000Z</time>
      </trkpt>
      <trkpt lat="47.29986" lon="-2.34829">
        <ele>16.39999961853</ele>
        <time>2021-09-30T07:23:41.000Z</time>
      </trkpt>
      <trkpt lat="47.2999" lon="-2.34853">
        <ele>16.39999961853</ele>
        <time>2021-09-30T07:23:45.000Z</time>
      </trkpt>
      <trkpt lat="47.29995" lon="-2.349">
        <ele>16.799999237061</ele>
        <time>2021-09-30T07:23:52.000Z</time>
      </trkpt>
      <trkpt lat="47.29996" lon="-2.34906">
        <ele>17.200000762939</ele>
        <time>2021-09-30T07:23:53.000Z</time>
      </trkpt>
      <trkpt lat="47.29996" lon="-2.34912">
        <ele>17.60000038147</ele>
        <time>2021-09-30T07:23:54.000Z</time>
      </trkpt>
      <trkpt lat="47.29997" lon="-2.34919">
        <ele>18</ele>
        <time>2021-09-30T07:23:55.000Z</time>
      </trkpt>
      <trkpt lat="47.29998" lon="-2.34925">
        <ele>18.39999961853</ele>
        <time>2021-09-30T07:23:56.000Z</time>
      </trkpt>
      <trkpt lat="47.29998" lon="-2.34938">
        <ele>18.39999961853</ele>
        <time>2021-09-30T07:23:58.000Z</time>
      </trkpt>
      <trkpt lat="47.29997" lon="-2.34952">
        <ele>18.39999961853</ele>
        <time>2021-09-30T07:24:00.000Z</time>
      </trkpt>
      <trkpt lat="47.29993" lon="-2.35014">
        <ele>18.39999961853</ele>
        <time>2021-09-30T07:24:08.000Z</time>
      </trkpt>
      <trkpt lat="47.29987" lon="-2.35089">
        <ele>18.39999961853</ele>
        <time>2021-09-30T07:24:17.000Z</time>
      </trkpt>
      <trkpt lat="47.29984" lon="-2.35162">
        <ele>18.39999961853</ele>
        <time>2021-09-30T07:24:25.000Z</time>
      </trkpt>
      <trkpt lat="47.29988" lon="-2.35198">
        <ele>18.39999961853</ele>
        <time>2021-09-30T07:24:29.000Z</time>
      </trkpt>
      <trkpt lat="47.2999" lon="-2.35206">
        <ele>18</ele>
        <time>2021-09-30T07:24:30.000Z</time>
      </trkpt>
      <trkpt lat="47.29992" lon="-2.35214">
        <ele>17.60000038147</ele>
        <time>2021-09-30T07:24:31.000Z</time>
      </trkpt>
      <trkpt lat="47.29994" lon="-2.35221">
        <ele>17.200000762939</ele>
        <time>2021-09-30T07:24:32.000Z</time>
      </trkpt>
      <trkpt lat="47.29996" lon="-2.35228">
        <ele>16.799999237061</ele>
        <time>2021-09-30T07:24:33.000Z</time>
      </trkpt>
      <trkpt lat="47.29998" lon="-2.35233">
        <ele>16.39999961853</ele>
        <time>2021-09-30T07:24:34.000Z</time>
      </trkpt>
      <trkpt lat="47.29999" lon="-2.35237">
        <ele>16.39999961853</ele>
        <time>2021-09-30T07:24:35.000Z</time>
      </trkpt>
      <trkpt lat="47.30004" lon="-2.35248">
        <ele>16.39999961853</ele>
        <time>2021-09-30T07:24:40.000Z</time>
      </trkpt>
      <trkpt lat="47.30011" lon="-2.35256">
        <ele>16.39999961853</ele>
        <time>2021-09-30T07:24:47.000Z</time>
      </trkpt>
      <trkpt lat="47.30012" lon="-2.35255">
        <ele>16.39999961853</ele>
        <time>2021-09-30T07:24:48.000Z</time>
      </trkpt>
      <trkpt lat="47.30015" lon="-2.35253">
        <ele>16.39999961853</ele>
        <time>2021-09-30T07:24:51.000Z</time>
      </trkpt>
      <trkpt lat="47.30021" lon="-2.35249">
        <ele>16.39999961853</ele>
        <time>2021-09-30T07:24:57.000Z</time>
      </trkpt>
      <trkpt lat="47.30024" lon="-2.35247">
        <ele>16.39999961853</ele>
        <time>2021-09-30T07:25:00.000Z</time>
      </trkpt>
      <trkpt lat="47.30027" lon="-2.35245">
        <ele>16.39999961853</ele>
        <time>2021-09-30T07:25:02.000Z</time>
      </trkpt>
      <trkpt lat="47.30035" lon="-2.35239">
        <ele>16.39999961853</ele>
        <time>2021-09-30T07:25:05.000Z</time>
      </trkpt>
      <trkpt lat="47.30039" lon="-2.35237">
        <ele>16.39999961853</ele>
        <time>2021-09-30T07:25:06.000Z</time>
      </trkpt>
      <trkpt lat="47.30068" lon="-2.35223">
        <ele>16.39999961853</ele>
        <time>2021-09-30T07:25:13.000Z</time>
      </trkpt>
      <trkpt lat="47.30076" lon="-2.35218">
        <ele>16.39999961853</ele>
        <time>2021-09-30T07:25:15.000Z</time>
      </trkpt>
      <trkpt lat="47.3009" lon="-2.35214">
        <ele>16.39999961853</ele>
        <time>2021-09-30T07:25:18.000Z</time>
      </trkpt>
      <trkpt lat="47.30099" lon="-2.35209">
        <ele>16.39999961853</ele>
        <time>2021-09-30T07:25:20.000Z</time>
      </trkpt>
      <trkpt lat="47.30108" lon="-2.35205">
        <ele>16.39999961853</ele>
        <time>2021-09-30T07:25:22.000Z</time>
      </trkpt>
      <trkpt lat="47.30118" lon="-2.352">
        <ele>16.39999961853</ele>
        <time>2021-09-30T07:25:24.000Z</time>
      </trkpt>
      <trkpt lat="47.30127" lon="-2.35197">
        <ele>16.39999961853</ele>
        <time>2021-09-30T07:25:26.000Z</time>
      </trkpt>
      <trkpt lat="47.30145" lon="-2.35194">
        <ele>16.39999961853</ele>
        <time>2021-09-30T07:25:30.000Z</time>
      </trkpt>
      <trkpt lat="47.30164" lon="-2.35181">
        <ele>16.39999961853</ele>
        <time>2021-09-30T07:25:35.000Z</time>
      </trkpt>
      <trkpt lat="47.30182" lon="-2.35175">
        <ele>16.39999961853</ele>
        <time>2021-09-30T07:25:39.000Z</time>
      </trkpt>
      <trkpt lat="47.30191" lon="-2.35173">
        <ele>16.39999961853</ele>
        <time>2021-09-30T07:25:41.000Z</time>
      </trkpt>
      <trkpt lat="47.30204" lon="-2.35163">
        <ele>16.39999961853</ele>
        <time>2021-09-30T07:25:44.000Z</time>
      </trkpt>
      <trkpt lat="47.30208" lon="-2.35145">
        <ele>16.39999961853</ele>
        <time>2021-09-30T07:25:47.000Z</time>
      </trkpt>
      <trkpt lat="47.30207" lon="-2.35131">
        <ele>16.39999961853</ele>
        <time>2021-09-30T07:25:49.000Z</time>
      </trkpt>
      <trkpt lat="47.30207" lon="-2.35125">
        <ele>16.39999961853</ele>
        <time>2021-09-30T07:25:50.000Z</time>
      </trkpt>
      <trkpt lat="47.30207" lon="-2.35111">
        <ele>16.39999961853</ele>
        <time>2021-09-30T07:25:52.000Z</time>
      </trkpt>
      <trkpt lat="47.30208" lon="-2.35105">
        <ele>16.799999237061</ele>
        <time>2021-09-30T07:25:53.000Z</time>
      </trkpt>
      <trkpt lat="47.30208" lon="-2.35098">
        <ele>17.200000762939</ele>
        <time>2021-09-30T07:25:54.000Z</time>
      </trkpt>
      <trkpt lat="47.30208" lon="-2.35091">
        <ele>17.60000038147</ele>
        <time>2021-09-30T07:25:55.000Z</time>
      </trkpt>
      <trkpt lat="47.30208" lon="-2.35084">
        <ele>18</ele>
        <time>2021-09-30T07:25:56.000Z</time>
      </trkpt>
      <trkpt lat="47.30208" lon="-2.35077">
        <ele>18.39999961853</ele>
        <time>2021-09-30T07:25:57.000Z</time>
      </trkpt>
      <trkpt lat="47.30208" lon="-2.35024">
        <ele>18.39999961853</ele>
        <time>2021-09-30T07:26:05.000Z</time>
      </trkpt>
      <trkpt lat="47.30207" lon="-2.34998">
        <ele>18.39999961853</ele>
        <time>2021-09-30T07:26:09.000Z</time>
      </trkpt>
      <trkpt lat="47.30207" lon="-2.34985">
        <ele>18.39999961853</ele>
        <time>2021-09-30T07:26:11.000Z</time>
      </trkpt>
      <trkpt lat="47.30208" lon="-2.34972">
        <ele>18.799999237061</ele>
        <time>2021-09-30T07:26:13.000Z</time>
      </trkpt>
      <trkpt lat="47.30208" lon="-2.34965">
        <ele>19.200000762939</ele>
        <time>2021-09-30T07:26:14.000Z</time>
      </trkpt>
      <trkpt lat="47.30208" lon="-2.34957">
        <ele>19.60000038147</ele>
        <time>2021-09-30T07:26:15.000Z</time>
      </trkpt>
      <trkpt lat="47.30209" lon="-2.3495">
        <ele>20.200000762939</ele>
        <time>2021-09-30T07:26:16.000Z</time>
      </trkpt>
      <trkpt lat="47.30209" lon="-2.34943">
        <ele>20.60000038147</ele>
        <time>2021-09-30T07:26:17.000Z</time>
      </trkpt>
      <trkpt lat="47.30209" lon="-2.34935">
        <ele>20.60000038147</ele>
        <time>2021-09-30T07:26:18.000Z</time>
      </trkpt>
      <trkpt lat="47.30209" lon="-2.34914">
        <ele>20.60000038147</ele>
        <time>2021-09-30T07:26:21.000Z</time>
      </trkpt>
      <trkpt lat="47.30216" lon="-2.34898">
        <ele>20.60000038147</ele>
        <time>2021-09-30T07:26:24.000Z</time>
      </trkpt>
      <trkpt lat="47.30233" lon="-2.34881">
        <ele>20.60000038147</ele>
        <time>2021-09-30T07:26:28.000Z</time>
      </trkpt>
      <trkpt lat="47.30248" lon="-2.34873">
        <ele>21</ele>
        <time>2021-09-30T07:26:31.000Z</time>
      </trkpt>
      <trkpt lat="47.30252" lon="-2.34871">
        <ele>21.39999961853</ele>
        <time>2021-09-30T07:26:32.000Z</time>
      </trkpt>
      <trkpt lat="47.30256" lon="-2.34869">
        <ele>21.799999237061</ele>
        <time>2021-09-30T07:26:33.000Z</time>
      </trkpt>
      <trkpt lat="47.30261" lon="-2.34867">
        <ele>22.200000762939</ele>
        <time>2021-09-30T07:26:34.000Z</time>
      </trkpt>
      <trkpt lat="47.30265" lon="-2.34864">
        <ele>22.60000038147</ele>
        <time>2021-09-30T07:26:35.000Z</time>
      </trkpt>
      <trkpt lat="47.30283" lon="-2.34856">
        <ele>22.60000038147</ele>
        <time>2021-09-30T07:26:39.000Z</time>
      </trkpt>
      <trkpt lat="47.30287" lon="-2.34853">
        <ele>22.60000038147</ele>
        <time>2021-09-30T07:26:40.000Z</time>
      </trkpt>
      <trkpt lat="47.30299" lon="-2.34839">
        <ele>22.60000038147</ele>
        <time>2021-09-30T07:26:43.000Z</time>
      </trkpt>
      <trkpt lat="47.30318" lon="-2.34813">
        <ele>22.60000038147</ele>
        <time>2021-09-30T07:26:48.000Z</time>
      </trkpt>
      <trkpt lat="47.30321" lon="-2.34806">
        <ele>22.60000038147</ele>
        <time>2021-09-30T07:26:49.000Z</time>
      </trkpt>
      <trkpt lat="47.30333" lon="-2.34783">
        <ele>22.60000038147</ele>
        <time>2021-09-30T07:26:53.000Z</time>
      </trkpt>
      <trkpt lat="47.30337" lon="-2.34778">
        <ele>22.60000038147</ele>
        <time>2021-09-30T07:26:54.000Z</time>
      </trkpt>
      <trkpt lat="47.30341" lon="-2.34774">
        <ele>22.60000038147</ele>
        <time>2021-09-30T07:26:55.000Z</time>
      </trkpt>
      <trkpt lat="47.30355" lon="-2.34765">
        <ele>22.60000038147</ele>
        <time>2021-09-30T07:26:58.000Z</time>
      </trkpt>
      <trkpt lat="47.3039" lon="-2.34744">
        <ele>22.60000038147</ele>
        <time>2021-09-30T07:27:05.000Z</time>
      </trkpt>
      <trkpt lat="47.30421" lon="-2.34723">
        <ele>22.60000038147</ele>
        <time>2021-09-30T07:27:11.000Z</time>
      </trkpt>
      <trkpt lat="47.30426" lon="-2.34719">
        <ele>22.60000038147</ele>
        <time>2021-09-30T07:27:12.000Z</time>
      </trkpt>
      <trkpt lat="47.30448" lon="-2.34693">
        <ele>22.60000038147</ele>
        <time>2021-09-30T07:27:17.000Z</time>
      </trkpt>
      <trkpt lat="47.30478" lon="-2.34661">
        <ele>22.60000038147</ele>
        <time>2021-09-30T07:27:23.000Z</time>
      </trkpt>
      <trkpt lat="47.30492" lon="-2.34645">
        <ele>22.60000038147</ele>
        <time>2021-09-30T07:27:26.000Z</time>
      </trkpt>
      <trkpt lat="47.30499" lon="-2.34633">
        <ele>22.60000038147</ele>
        <time>2021-09-30T07:27:28.000Z</time>
      </trkpt>
      <trkpt lat="47.30512" lon="-2.34612">
        <ele>22.60000038147</ele>
        <time>2021-09-30T07:27:32.000Z</time>
      </trkpt>
      <trkpt lat="47.30521" lon="-2.34602">
        <ele>22.60000038147</ele>
        <time>2021-09-30T07:27:34.000Z</time>
      </trkpt>
      <trkpt lat="47.30533" lon="-2.34586">
        <ele>22.60000038147</ele>
        <time>2021-09-30T07:27:37.000Z</time>
      </trkpt>
      <trkpt lat="47.3054" lon="-2.34573">
        <ele>22.60000038147</ele>
        <time>2021-09-30T07:27:39.000Z</time>
      </trkpt>
      <trkpt lat="47.30565" lon="-2.34536">
        <ele>22.60000038147</ele>
        <time>2021-09-30T07:27:46.000Z</time>
      </trkpt>
      <trkpt lat="47.30571" lon="-2.34525">
        <ele>22.60000038147</ele>
        <time>2021-09-30T07:27:48.000Z</time>
      </trkpt>
      <trkpt lat="47.30583" lon="-2.34503">
        <ele>22.60000038147</ele>
        <time>2021-09-30T07:27:52.000Z</time>
      </trkpt>
      <trkpt lat="47.30595" lon="-2.34479">
        <ele>23</ele>
        <time>2021-09-30T07:27:56.000Z</time>
      </trkpt>
      <trkpt lat="47.30598" lon="-2.34473">
        <ele>23.39999961853</ele>
        <time>2021-09-30T07:27:57.000Z</time>
      </trkpt>
      <trkpt lat="47.30601" lon="-2.34467">
        <ele>23.799999237061</ele>
        <time>2021-09-30T07:27:58.000Z</time>
      </trkpt>
      <trkpt lat="47.30604" lon="-2.34462">
        <ele>24.200000762939</ele>
        <time>2021-09-30T07:27:59.000Z</time>
      </trkpt>
      <trkpt lat="47.30608" lon="-2.34456">
        <ele>24.799999237061</ele>
        <time>2021-09-30T07:28:00.000Z</time>
      </trkpt>
      <trkpt lat="47.30618" lon="-2.34441">
        <ele>24.799999237061</ele>
        <time>2021-09-30T07:28:03.000Z</time>
      </trkpt>
      <trkpt lat="47.30628" lon="-2.34431">
        <ele>24.799999237061</ele>
        <time>2021-09-30T07:28:05.000Z</time>
      </trkpt>
      <trkpt lat="47.30651" lon="-2.344">
        <ele>24.799999237061</ele>
        <time>2021-09-30T07:28:11.000Z</time>
      </trkpt>
      <trkpt lat="47.30654" lon="-2.34395">
        <ele>24.799999237061</ele>
        <time>2021-09-30T07:28:12.000Z</time>
      </trkpt>
      <trkpt lat="47.30676" lon="-2.34361">
        <ele>24.799999237061</ele>
        <time>2021-09-30T07:28:18.000Z</time>
      </trkpt>
      <trkpt lat="47.30683" lon="-2.34348">
        <ele>24.799999237061</ele>
        <time>2021-09-30T07:28:20.000Z</time>
      </trkpt>
      <trkpt lat="47.30696" lon="-2.34321">
        <ele>24.799999237061</ele>
        <time>2021-09-30T07:28:24.000Z</time>
      </trkpt>
      <trkpt lat="47.30718" lon="-2.34272">
        <ele>24.799999237061</ele>
        <time>2021-09-30T07:28:30.000Z</time>
      </trkpt>
      <trkpt lat="47.30724" lon="-2.34239">
        <ele>24.799999237061</ele>
        <time>2021-09-30T07:28:34.000Z</time>
      </trkpt>
      <trkpt lat="47.30727" lon="-2.34231">
        <ele>24.799999237061</ele>
        <time>2021-09-30T07:28:35.000Z</time>
      </trkpt>
      <trkpt lat="47.30735" lon="-2.34226">
        <ele>24.799999237061</ele>
        <time>2021-09-30T07:28:37.000Z</time>
      </trkpt>
      <trkpt lat="47.30761" lon="-2.34219">
        <ele>24.799999237061</ele>
        <time>2021-09-30T07:28:42.000Z</time>
      </trkpt>
      <trkpt lat="47.30767" lon="-2.34205">
        <ele>24.799999237061</ele>
        <time>2021-09-30T07:28:44.000Z</time>
      </trkpt>
      <trkpt lat="47.30769" lon="-2.34183">
        <ele>24.799999237061</ele>
        <time>2021-09-30T07:28:47.000Z</time>
      </trkpt>
      <trkpt lat="47.30769" lon="-2.34175">
        <ele>24.799999237061</ele>
        <time>2021-09-30T07:28:48.000Z</time>
      </trkpt>
      <trkpt lat="47.30775" lon="-2.34115">
        <ele>24.799999237061</ele>
        <time>2021-09-30T07:28:55.000Z</time>
      </trkpt>
      <trkpt lat="47.30779" lon="-2.34074">
        <ele>24.200000762939</ele>
        <time>2021-09-30T07:29:00.000Z</time>
      </trkpt>
      <trkpt lat="47.3078" lon="-2.34065">
        <ele>23.799999237061</ele>
        <time>2021-09-30T07:29:01.000Z</time>
      </trkpt>
      <trkpt lat="47.30781" lon="-2.34057">
        <ele>23.39999961853</ele>
        <time>2021-09-30T07:29:02.000Z</time>
      </trkpt>
      <trkpt lat="47.30781" lon="-2.34048">
        <ele>23</ele>
        <time>2021-09-30T07:29:03.000Z</time>
      </trkpt>
      <trkpt lat="47.30781" lon="-2.34039">
        <ele>22.60000038147</ele>
        <time>2021-09-30T07:29:04.000Z</time>
      </trkpt>
      <trkpt lat="47.30784" lon="-2.33998">
        <ele>22.60000038147</ele>
        <time>2021-09-30T07:29:09.000Z</time>
      </trkpt>
      <trkpt lat="47.30787" lon="-2.33976">
        <ele>22.60000038147</ele>
        <time>2021-09-30T07:29:13.000Z</time>
      </trkpt>
      <trkpt lat="47.308" lon="-2.33965">
        <ele>22.60000038147</ele>
        <time>2021-09-30T07:29:17.000Z</time>
      </trkpt>
      <trkpt lat="47.3083" lon="-2.33954">
        <ele>22.60000038147</ele>
        <time>2021-09-30T07:29:23.000Z</time>
      </trkpt>
      <trkpt lat="47.3087" lon="-2.33949">
        <ele>22.60000038147</ele>
        <time>2021-09-30T07:29:30.000Z</time>
      </trkpt>
      <trkpt lat="47.30903" lon="-2.33946">
        <ele>22.60000038147</ele>
        <time>2021-09-30T07:29:36.000Z</time>
      </trkpt>
      <trkpt lat="47.30933" lon="-2.33948">
        <ele>22.60000038147</ele>
        <time>2021-09-30T07:29:41.000Z</time>
      </trkpt>
      <trkpt lat="47.30975" lon="-2.33955">
        <ele>22.60000038147</ele>
        <time>2021-09-30T07:29:48.000Z</time>
      </trkpt>
      <trkpt lat="47.3102" lon="-2.33953">
        <ele>22.60000038147</ele>
        <time>2021-09-30T07:29:55.000Z</time>
      </trkpt>
      <trkpt lat="47.31055" lon="-2.33947">
        <ele>22.200000762939</ele>
        <time>2021-09-30T07:30:01.000Z</time>
      </trkpt>
      <trkpt lat="47.31058" lon="-2.33948">
        <ele>21.799999237061</ele>
        <time>2021-09-30T07:30:02.000Z</time>
      </trkpt>
      <trkpt lat="47.3106" lon="-2.33949">
        <ele>21.39999961853</ele>
        <time>2021-09-30T07:30:03.000Z</time>
      </trkpt>
      <trkpt lat="47.31062" lon="-2.33953">
        <ele>21</ele>
        <time>2021-09-30T07:30:04.000Z</time>
      </trkpt>
      <trkpt lat="47.31064" lon="-2.33957">
        <ele>20.60000038147</ele>
        <time>2021-09-30T07:30:05.000Z</time>
      </trkpt>
      <trkpt lat="47.31068" lon="-2.33975">
        <ele>20.60000038147</ele>
        <time>2021-09-30T07:30:08.000Z</time>
      </trkpt>
      <trkpt lat="47.31068" lon="-2.33998">
        <ele>20.60000038147</ele>
        <time>2021-09-30T07:30:11.000Z</time>
      </trkpt>
      <trkpt lat="47.31069" lon="-2.34015">
        <ele>20.60000038147</ele>
        <time>2021-09-30T07:30:13.000Z</time>
      </trkpt>
      <trkpt lat="47.31075" lon="-2.34071">
        <ele>20.60000038147</ele>
        <time>2021-09-30T07:30:19.000Z</time>
      </trkpt>
      <trkpt lat="47.3108" lon="-2.34089">
        <ele>20.200000762939</ele>
        <time>2021-09-30T07:30:21.000Z</time>
      </trkpt>
      <trkpt lat="47.31083" lon="-2.34099">
        <ele>19.799999237061</ele>
        <time>2021-09-30T07:30:22.000Z</time>
      </trkpt>
      <trkpt lat="47.31086" lon="-2.34108">
        <ele>19.39999961853</ele>
        <time>2021-09-30T07:30:23.000Z</time>
      </trkpt>
      <trkpt lat="47.3109" lon="-2.34117">
        <ele>19</ele>
        <time>2021-09-30T07:30:24.000Z</time>
      </trkpt>
      <trkpt lat="47.31095" lon="-2.34127">
        <ele>18.39999961853</ele>
        <time>2021-09-30T07:30:25.000Z</time>
      </trkpt>
      <trkpt lat="47.31116" lon="-2.34165">
        <ele>18</ele>
        <time>2021-09-30T07:30:29.000Z</time>
      </trkpt>
      <trkpt lat="47.31122" lon="-2.34176">
        <ele>17.60000038147</ele>
        <time>2021-09-30T07:30:30.000Z</time>
      </trkpt>
      <trkpt lat="47.31127" lon="-2.34186">
        <ele>17.200000762939</ele>
        <time>2021-09-30T07:30:31.000Z</time>
      </trkpt>
      <trkpt lat="47.31133" lon="-2.34197">
        <ele>16.60000038147</ele>
        <time>2021-09-30T07:30:32.000Z</time>
      </trkpt>
      <trkpt lat="47.3114" lon="-2.34208">
        <ele>16.200000762939</ele>
        <time>2021-09-30T07:30:33.000Z</time>
      </trkpt>
      <trkpt lat="47.31145" lon="-2.34219">
        <ele>15.199999809265</ele>
        <time>2021-09-30T07:30:34.000Z</time>
      </trkpt>
      <trkpt lat="47.31151" lon="-2.3423">
        <ele>14.800000190735</ele>
        <time>2021-09-30T07:30:35.000Z</time>
      </trkpt>
      <trkpt lat="47.31156" lon="-2.34241">
        <ele>14.199999809265</ele>
        <time>2021-09-30T07:30:36.000Z</time>
      </trkpt>
      <trkpt lat="47.31162" lon="-2.34252">
        <ele>13.800000190735</ele>
        <time>2021-09-30T07:30:37.000Z</time>
      </trkpt>
      <trkpt lat="47.31168" lon="-2.34263">
        <ele>13.199999809265</ele>
        <time>2021-09-30T07:30:38.000Z</time>
      </trkpt>
      <trkpt lat="47.31173" lon="-2.34275">
        <ele>12.800000190735</ele>
        <time>2021-09-30T07:30:39.000Z</time>
      </trkpt>
      <trkpt lat="47.31178" lon="-2.34286">
        <ele>12.199999809265</ele>
        <time>2021-09-30T07:30:40.000Z</time>
      </trkpt>
      <trkpt lat="47.31184" lon="-2.34298">
        <ele>11.800000190735</ele>
        <time>2021-09-30T07:30:41.000Z</time>
      </trkpt>
      <trkpt lat="47.31188" lon="-2.34309">
        <ele>11.199999809265</ele>
        <time>2021-09-30T07:30:42.000Z</time>
      </trkpt>
      <trkpt lat="47.31199" lon="-2.34328">
        <ele>11.199999809265</ele>
        <time>2021-09-30T07:30:44.000Z</time>
      </trkpt>
      <trkpt lat="47.31205" lon="-2.34336">
        <ele>11.199999809265</ele>
        <time>2021-09-30T07:30:45.000Z</time>
      </trkpt>
      <trkpt lat="47.3122" lon="-2.34346">
        <ele>11.199999809265</ele>
        <time>2021-09-30T07:30:47.000Z</time>
      </trkpt>
      <trkpt lat="47.31235" lon="-2.34353">
        <ele>11.199999809265</ele>
        <time>2021-09-30T07:30:49.000Z</time>
      </trkpt>
      <trkpt lat="47.31255" lon="-2.34364">
        <ele>11.199999809265</ele>
        <time>2021-09-30T07:30:52.000Z</time>
      </trkpt>
      <trkpt lat="47.31266" lon="-2.34375">
        <ele>11.199999809265</ele>
        <time>2021-09-30T07:30:54.000Z</time>
      </trkpt>
      <trkpt lat="47.31272" lon="-2.34392">
        <ele>11.199999809265</ele>
        <time>2021-09-30T07:30:56.000Z</time>
      </trkpt>
      <trkpt lat="47.31275" lon="-2.34427">
        <ele>11.60000038147</ele>
        <time>2021-09-30T07:31:00.000Z</time>
      </trkpt>
      <trkpt lat="47.31275" lon="-2.34436">
        <ele>12.199999809265</ele>
        <time>2021-09-30T07:31:01.000Z</time>
      </trkpt>
      <trkpt lat="47.31276" lon="-2.34444">
        <ele>12.60000038147</ele>
        <time>2021-09-30T07:31:02.000Z</time>
      </trkpt>
      <trkpt lat="47.31277" lon="-2.34454">
        <ele>13</ele>
        <time>2021-09-30T07:31:03.000Z</time>
      </trkpt>
      <trkpt lat="47.31278" lon="-2.34462">
        <ele>13.39999961853</ele>
        <time>2021-09-30T07:31:04.000Z</time>
      </trkpt>
      <trkpt lat="47.31282" lon="-2.34498">
        <ele>13.39999961853</ele>
        <time>2021-09-30T07:31:08.000Z</time>
      </trkpt>
      <trkpt lat="47.31283" lon="-2.34516">
        <ele>13.800000190735</ele>
        <time>2021-09-30T07:31:10.000Z</time>
      </trkpt>
      <trkpt lat="47.31284" lon="-2.34525">
        <ele>14.199999809265</ele>
        <time>2021-09-30T07:31:11.000Z</time>
      </trkpt>
      <trkpt lat="47.31285" lon="-2.34534">
        <ele>14.60000038147</ele>
        <time>2021-09-30T07:31:12.000Z</time>
      </trkpt>
      <trkpt lat="47.31285" lon="-2.34543">
        <ele>15</ele>
        <time>2021-09-30T07:31:13.000Z</time>
      </trkpt>
      <trkpt lat="47.31286" lon="-2.34551">
        <ele>15.60000038147</ele>
        <time>2021-09-30T07:31:14.000Z</time>
      </trkpt>
      <trkpt lat="47.31287" lon="-2.3456">
        <ele>15.60000038147</ele>
        <time>2021-09-30T07:31:15.000Z</time>
      </trkpt>
      <trkpt lat="47.31293" lon="-2.34617">
        <ele>15.60000038147</ele>
        <time>2021-09-30T07:31:22.000Z</time>
      </trkpt>
      <trkpt lat="47.31293" lon="-2.34625">
        <ele>16</ele>
        <time>2021-09-30T07:31:23.000Z</time>
      </trkpt>
      <trkpt lat="47.31294" lon="-2.34632">
        <ele>16.39999961853</ele>
        <time>2021-09-30T07:31:24.000Z</time>
      </trkpt>
      <trkpt lat="47.31294" lon="-2.3464">
        <ele>16.799999237061</ele>
        <time>2021-09-30T07:31:25.000Z</time>
      </trkpt>
      <trkpt lat="47.31295" lon="-2.34647">
        <ele>17.200000762939</ele>
        <time>2021-09-30T07:31:26.000Z</time>
      </trkpt>
      <trkpt lat="47.31295" lon="-2.34653">
        <ele>17.60000038147</ele>
        <time>2021-09-30T07:31:27.000Z</time>
      </trkpt>
      <trkpt lat="47.31295" lon="-2.34666">
        <ele>17.60000038147</ele>
        <time>2021-09-30T07:31:29.000Z</time>
      </trkpt>
      <trkpt lat="47.31288" lon="-2.3469">
        <ele>17.60000038147</ele>
        <time>2021-09-30T07:31:33.000Z</time>
      </trkpt>
      <trkpt lat="47.31281" lon="-2.347">
        <ele>18</ele>
        <time>2021-09-30T07:31:35.000Z</time>
      </trkpt>
      <trkpt lat="47.3128" lon="-2.34706">
        <ele>18.39999961853</ele>
        <time>2021-09-30T07:31:36.000Z</time>
      </trkpt>
      <trkpt lat="47.31279" lon="-2.34713">
        <ele>19</ele>
        <time>2021-09-30T07:31:37.000Z</time>
      </trkpt>
      <trkpt lat="47.31279" lon="-2.3472">
        <ele>19.39999961853</ele>
        <time>2021-09-30T07:31:38.000Z</time>
      </trkpt>
      <trkpt lat="47.3128" lon="-2.34727">
        <ele>19.799999237061</ele>
        <time>2021-09-30T07:31:39.000Z</time>
      </trkpt>
      <trkpt lat="47.31282" lon="-2.34741">
        <ele>19.799999237061</ele>
        <time>2021-09-30T07:31:41.000Z</time>
      </trkpt>
      <trkpt lat="47.31283" lon="-2.34748">
        <ele>19.799999237061</ele>
        <time>2021-09-30T07:31:42.000Z</time>
      </trkpt>
      <trkpt lat="47.31294" lon="-2.34803">
        <ele>19.799999237061</ele>
        <time>2021-09-30T07:31:50.000Z</time>
      </trkpt>
      <trkpt lat="47.31309" lon="-2.34872">
        <ele>19.799999237061</ele>
        <time>2021-09-30T07:32:00.000Z</time>
      </trkpt>
      <trkpt lat="47.31324" lon="-2.34917">
        <ele>19.799999237061</ele>
        <time>2021-09-30T07:32:06.000Z</time>
      </trkpt>
      <trkpt lat="47.31336" lon="-2.34969">
        <ele>19.799999237061</ele>
        <time>2021-09-30T07:32:12.000Z</time>
      </trkpt>
      <trkpt lat="47.31345" lon="-2.35018">
        <ele>19.799999237061</ele>
        <time>2021-09-30T07:32:18.000Z</time>
      </trkpt>
      <trkpt lat="47.31346" lon="-2.35035">
        <ele>19.799999237061</ele>
        <time>2021-09-30T07:32:20.000Z</time>
      </trkpt>
      <trkpt lat="47.31346" lon="-2.35071">
        <ele>19.799999237061</ele>
        <time>2021-09-30T07:32:24.000Z</time>
      </trkpt>
      <trkpt lat="47.31345" lon="-2.3514">
        <ele>19.799999237061</ele>
        <time>2021-09-30T07:32:32.000Z</time>
      </trkpt>
      <trkpt lat="47.31341" lon="-2.35212">
        <ele>19.799999237061</ele>
        <time>2021-09-30T07:32:40.000Z</time>
      </trkpt>
      <trkpt lat="47.31339" lon="-2.35284">
        <ele>19.799999237061</ele>
        <time>2021-09-30T07:32:48.000Z</time>
      </trkpt>
      <trkpt lat="47.31337" lon="-2.35364">
        <ele>19.799999237061</ele>
        <time>2021-09-30T07:32:57.000Z</time>
      </trkpt>
      <trkpt lat="47.31335" lon="-2.35414">
        <ele>19.799999237061</ele>
        <time>2021-09-30T07:33:03.000Z</time>
      </trkpt>
      <trkpt lat="47.31333" lon="-2.35472">
        <ele>19.799999237061</ele>
        <time>2021-09-30T07:33:10.000Z</time>
      </trkpt>
      <trkpt lat="47.31332" lon="-2.35514">
        <ele>19.799999237061</ele>
        <time>2021-09-30T07:33:16.000Z</time>
      </trkpt>
      <trkpt lat="47.31329" lon="-2.35568">
        <ele>19.799999237061</ele>
        <time>2021-09-30T07:33:24.000Z</time>
      </trkpt>
      <trkpt lat="47.31331" lon="-2.35617">
        <ele>19.799999237061</ele>
        <time>2021-09-30T07:33:30.000Z</time>
      </trkpt>
      <trkpt lat="47.31331" lon="-2.35633">
        <ele>20.200000762939</ele>
        <time>2021-09-30T07:33:32.000Z</time>
      </trkpt>
      <trkpt lat="47.31331" lon="-2.35642">
        <ele>20.60000038147</ele>
        <time>2021-09-30T07:33:33.000Z</time>
      </trkpt>
      <trkpt lat="47.31331" lon="-2.35649">
        <ele>21</ele>
        <time>2021-09-30T07:33:34.000Z</time>
      </trkpt>
      <trkpt lat="47.31332" lon="-2.35657">
        <ele>21.39999961853</ele>
        <time>2021-09-30T07:33:35.000Z</time>
      </trkpt>
      <trkpt lat="47.31332" lon="-2.35665">
        <ele>22</ele>
        <time>2021-09-30T07:33:36.000Z</time>
      </trkpt>
      <trkpt lat="47.31332" lon="-2.35715">
        <ele>22</ele>
        <time>2021-09-30T07:33:42.000Z</time>
      </trkpt>
      <trkpt lat="47.31331" lon="-2.35762">
        <ele>22</ele>
        <time>2021-09-30T07:33:48.000Z</time>
      </trkpt>
      <trkpt lat="47.31332" lon="-2.3577">
        <ele>22</ele>
        <time>2021-09-30T07:33:49.000Z</time>
      </trkpt>
      <trkpt lat="47.31335" lon="-2.35801">
        <ele>22</ele>
        <time>2021-09-30T07:33:53.000Z</time>
      </trkpt>
      <trkpt lat="47.31341" lon="-2.35857">
        <ele>22</ele>
        <time>2021-09-30T07:34:00.000Z</time>
      </trkpt>
      <trkpt lat="47.31343" lon="-2.35865">
        <ele>22</ele>
        <time>2021-09-30T07:34:01.000Z</time>
      </trkpt>
      <trkpt lat="47.31352" lon="-2.35891">
        <ele>22</ele>
        <time>2021-09-30T07:34:04.000Z</time>
      </trkpt>
      <trkpt lat="47.31359" lon="-2.35907">
        <ele>22</ele>
        <time>2021-09-30T07:34:06.000Z</time>
      </trkpt>
      <trkpt lat="47.31363" lon="-2.35915">
        <ele>21.39999961853</ele>
        <time>2021-09-30T07:34:07.000Z</time>
      </trkpt>
      <trkpt lat="47.31367" lon="-2.35923">
        <ele>21</ele>
        <time>2021-09-30T07:34:08.000Z</time>
      </trkpt>
      <trkpt lat="47.31371" lon="-2.35931">
        <ele>20.60000038147</ele>
        <time>2021-09-30T07:34:09.000Z</time>
      </trkpt>
      <trkpt lat="47.31376" lon="-2.35939">
        <ele>20</ele>
        <time>2021-09-30T07:34:10.000Z</time>
      </trkpt>
      <trkpt lat="47.3138" lon="-2.35946">
        <ele>19.60000038147</ele>
        <time>2021-09-30T07:34:11.000Z</time>
      </trkpt>
      <trkpt lat="47.31389" lon="-2.35962">
        <ele>19.60000038147</ele>
        <time>2021-09-30T07:34:13.000Z</time>
      </trkpt>
      <trkpt lat="47.31392" lon="-2.3597">
        <ele>19.60000038147</ele>
        <time>2021-09-30T07:34:14.000Z</time>
      </trkpt>
      <trkpt lat="47.31404" lon="-2.35999">
        <ele>19.60000038147</ele>
        <time>2021-09-30T07:34:18.000Z</time>
      </trkpt>
      <trkpt lat="47.31414" lon="-2.36024">
        <ele>20</ele>
        <time>2021-09-30T07:34:22.000Z</time>
      </trkpt>
      <trkpt lat="47.31416" lon="-2.36031">
        <ele>20.39999961853</ele>
        <time>2021-09-30T07:34:23.000Z</time>
      </trkpt>
      <trkpt lat="47.31418" lon="-2.36038">
        <ele>20.799999237061</ele>
        <time>2021-09-30T07:34:24.000Z</time>
      </trkpt>
      <trkpt lat="47.3142" lon="-2.36045">
        <ele>21.200000762939</ele>
        <time>2021-09-30T07:34:25.000Z</time>
      </trkpt>
      <trkpt lat="47.31423" lon="-2.36052">
        <ele>21.60000038147</ele>
        <time>2021-09-30T07:34:26.000Z</time>
      </trkpt>
      <trkpt lat="47.31432" lon="-2.36083">
        <ele>21.60000038147</ele>
        <time>2021-09-30T07:34:31.000Z</time>
      </trkpt>
      <trkpt lat="47.3144" lon="-2.36107">
        <ele>22</ele>
        <time>2021-09-30T07:34:35.000Z</time>
      </trkpt>
      <trkpt lat="47.31443" lon="-2.36112">
        <ele>22.60000038147</ele>
        <time>2021-09-30T07:34:36.000Z</time>
      </trkpt>
      <trkpt lat="47.31445" lon="-2.36118">
        <ele>23</ele>
        <time>2021-09-30T07:34:37.000Z</time>
      </trkpt>
      <trkpt lat="47.31447" lon="-2.36124">
        <ele>23.799999237061</ele>
        <time>2021-09-30T07:34:38.000Z</time>
      </trkpt>
      <trkpt lat="47.3146" lon="-2.36166">
        <ele>23.799999237061</ele>
        <time>2021-09-30T07:34:45.000Z</time>
      </trkpt>
      <trkpt lat="47.31464" lon="-2.36167">
        <ele>23.799999237061</ele>
        <time>2021-09-30T07:34:46.000Z</time>
      </trkpt>
      <trkpt lat="47.31472" lon="-2.36163">
        <ele>23.799999237061</ele>
        <time>2021-09-30T07:34:48.000Z</time>
      </trkpt>
      <trkpt lat="47.31483" lon="-2.3615">
        <ele>23.799999237061</ele>
        <time>2021-09-30T07:34:51.000Z</time>
      </trkpt>
      <trkpt lat="47.31487" lon="-2.36145">
        <ele>23.799999237061</ele>
        <time>2021-09-30T07:34:52.000Z</time>
      </trkpt>
      <trkpt lat="47.31513" lon="-2.36111">
        <ele>23.799999237061</ele>
        <time>2021-09-30T07:34:59.000Z</time>
      </trkpt>
      <trkpt lat="47.31539" lon="-2.36083">
        <ele>23.799999237061</ele>
        <time>2021-09-30T07:35:05.000Z</time>
      </trkpt>
      <trkpt lat="47.31579" lon="-2.36048">
        <ele>23.799999237061</ele>
        <time>2021-09-30T07:35:13.000Z</time>
      </trkpt>
      <trkpt lat="47.31609" lon="-2.36019">
        <ele>23.799999237061</ele>
        <time>2021-09-30T07:35:19.000Z</time>
      </trkpt>
      <trkpt lat="47.31614" lon="-2.36013">
        <ele>23.799999237061</ele>
        <time>2021-09-30T07:35:20.000Z</time>
      </trkpt>
      <trkpt lat="47.31624" lon="-2.36002">
        <ele>23.39999961853</ele>
        <time>2021-09-30T07:35:22.000Z</time>
      </trkpt>
      <trkpt lat="47.31629" lon="-2.35996">
        <ele>23</ele>
        <time>2021-09-30T07:35:23.000Z</time>
      </trkpt>
      <trkpt lat="47.31633" lon="-2.35992">
        <ele>22.60000038147</ele>
        <time>2021-09-30T07:35:24.000Z</time>
      </trkpt>
      <trkpt lat="47.31638" lon="-2.35985">
        <ele>22.200000762939</ele>
        <time>2021-09-30T07:35:25.000Z</time>
      </trkpt>
      <trkpt lat="47.31643" lon="-2.3598">
        <ele>21.799999237061</ele>
        <time>2021-09-30T07:35:26.000Z</time>
      </trkpt>
      <trkpt lat="47.31649" lon="-2.35975">
        <ele>21.799999237061</ele>
        <time>2021-09-30T07:35:27.000Z</time>
      </trkpt>
      <trkpt lat="47.31674" lon="-2.3596">
        <ele>21.799999237061</ele>
        <time>2021-09-30T07:35:31.000Z</time>
      </trkpt>
      <trkpt lat="47.31718" lon="-2.35938">
        <ele>21.799999237061</ele>
        <time>2021-09-30T07:35:37.000Z</time>
      </trkpt>
      <trkpt lat="47.31725" lon="-2.35934">
        <ele>21.39999961853</ele>
        <time>2021-09-30T07:35:38.000Z</time>
      </trkpt>
      <trkpt lat="47.31732" lon="-2.35931">
        <ele>20.799999237061</ele>
        <time>2021-09-30T07:35:39.000Z</time>
      </trkpt>
      <trkpt lat="47.31738" lon="-2.35926">
        <ele>20.39999961853</ele>
        <time>2021-09-30T07:35:40.000Z</time>
      </trkpt>
      <trkpt lat="47.31744" lon="-2.35922">
        <ele>20</ele>
        <time>2021-09-30T07:35:41.000Z</time>
      </trkpt>
      <trkpt lat="47.31751" lon="-2.35918">
        <ele>19.60000038147</ele>
        <time>2021-09-30T07:35:42.000Z</time>
      </trkpt>
      <trkpt lat="47.31764" lon="-2.35911">
        <ele>19.60000038147</ele>
        <time>2021-09-30T07:35:44.000Z</time>
      </trkpt>
      <trkpt lat="47.31788" lon="-2.35897">
        <ele>19.200000762939</ele>
        <time>2021-09-30T07:35:48.000Z</time>
      </trkpt>
      <trkpt lat="47.31793" lon="-2.35894">
        <ele>18.799999237061</ele>
        <time>2021-09-30T07:35:49.000Z</time>
      </trkpt>
      <trkpt lat="47.31799" lon="-2.35892">
        <ele>18.200000762939</ele>
        <time>2021-09-30T07:35:50.000Z</time>
      </trkpt>
      <trkpt lat="47.31804" lon="-2.3589">
        <ele>17.799999237061</ele>
        <time>2021-09-30T07:35:51.000Z</time>
      </trkpt>
      <trkpt lat="47.31809" lon="-2.35887">
        <ele>17.39999961853</ele>
        <time>2021-09-30T07:35:52.000Z</time>
      </trkpt>
      <trkpt lat="47.31822" lon="-2.35876">
        <ele>17.39999961853</ele>
        <time>2021-09-30T07:35:55.000Z</time>
      </trkpt>
      <trkpt lat="47.31824" lon="-2.35869">
        <ele>17.39999961853</ele>
        <time>2021-09-30T07:35:56.000Z</time>
      </trkpt>
      <trkpt lat="47.3182" lon="-2.3585">
        <ele>17.39999961853</ele>
        <time>2021-09-30T07:35:59.000Z</time>
      </trkpt>
      <trkpt lat="47.31813" lon="-2.35834">
        <ele>17.39999961853</ele>
        <time>2021-09-30T07:36:02.000Z</time>
      </trkpt>
      <trkpt lat="47.3181" lon="-2.35829">
        <ele>17.39999961853</ele>
        <time>2021-09-30T07:36:03.000Z</time>
      </trkpt>
      <trkpt lat="47.31807" lon="-2.35824">
        <ele>17.39999961853</ele>
        <time>2021-09-30T07:36:04.000Z</time>
      </trkpt>
      <trkpt lat="47.31803" lon="-2.3582">
        <ele>17.39999961853</ele>
        <time>2021-09-30T07:36:05.000Z</time>
      </trkpt>
      <trkpt lat="47.31789" lon="-2.35804">
        <ele>17.39999961853</ele>
        <time>2021-09-30T07:36:09.000Z</time>
      </trkpt>
      <trkpt lat="47.31783" lon="-2.35776">
        <ele>17.39999961853</ele>
        <time>2021-09-30T07:36:13.000Z</time>
      </trkpt>
      <trkpt lat="47.31782" lon="-2.35768">
        <ele>17.39999961853</ele>
        <time>2021-09-30T07:36:14.000Z</time>
      </trkpt>
      <trkpt lat="47.31781" lon="-2.35726">
        <ele>17</ele>
        <time>2021-09-30T07:36:19.000Z</time>
      </trkpt>
      <trkpt lat="47.3178" lon="-2.35717">
        <ele>16.60000038147</ele>
        <time>2021-09-30T07:36:20.000Z</time>
      </trkpt>
      <trkpt lat="47.31779" lon="-2.35707">
        <ele>16.200000762939</ele>
        <time>2021-09-30T07:36:21.000Z</time>
      </trkpt>
      <trkpt lat="47.31779" lon="-2.35698">
        <ele>15.800000190735</ele>
        <time>2021-09-30T07:36:22.000Z</time>
      </trkpt>
      <trkpt lat="47.31779" lon="-2.35687">
        <ele>15.39999961853</ele>
        <time>2021-09-30T07:36:23.000Z</time>
      </trkpt>
      <trkpt lat="47.31781" lon="-2.35666">
        <ele>15.39999961853</ele>
        <time>2021-09-30T07:36:25.000Z</time>
      </trkpt>
      <trkpt lat="47.31786" lon="-2.35637">
        <ele>14.800000190735</ele>
        <time>2021-09-30T07:36:28.000Z</time>
      </trkpt>
      <trkpt lat="47.31789" lon="-2.35626">
        <ele>14.39999961853</ele>
        <time>2021-09-30T07:36:29.000Z</time>
      </trkpt>
      <trkpt lat="47.31793" lon="-2.35617">
        <ele>14</ele>
        <time>2021-09-30T07:36:30.000Z</time>
      </trkpt>
      <trkpt lat="47.31796" lon="-2.35609">
        <ele>13.60000038147</ele>
        <time>2021-09-30T07:36:31.000Z</time>
      </trkpt>
      <trkpt lat="47.318" lon="-2.35602">
        <ele>13</ele>
        <time>2021-09-30T07:36:32.000Z</time>
      </trkpt>
      <trkpt lat="47.31811" lon="-2.35577">
        <ele>13</ele>
        <time>2021-09-30T07:36:35.000Z</time>
      </trkpt>
      <trkpt lat="47.31814" lon="-2.35572">
        <ele>13</ele>
        <time>2021-09-30T07:36:36.000Z</time>
      </trkpt>
      <trkpt lat="47.31826" lon="-2.35562">
        <ele>12.60000038147</ele>
        <time>2021-09-30T07:36:39.000Z</time>
      </trkpt>
      <trkpt lat="47.3183" lon="-2.35558">
        <ele>11.800000190735</ele>
        <time>2021-09-30T07:36:40.000Z</time>
      </trkpt>
      <trkpt lat="47.31833" lon="-2.35552">
        <ele>11.39999961853</ele>
        <time>2021-09-30T07:36:41.000Z</time>
      </trkpt>
      <trkpt lat="47.31835" lon="-2.35546">
        <ele>10.800000190735</ele>
        <time>2021-09-30T07:36:42.000Z</time>
      </trkpt>
      <trkpt lat="47.31836" lon="-2.3554">
        <ele>10.800000190735</ele>
        <time>2021-09-30T07:36:43.000Z</time>
      </trkpt>
      <trkpt lat="47.31831" lon="-2.35523">
        <ele>10.800000190735</ele>
        <time>2021-09-30T07:36:46.000Z</time>
      </trkpt>
      <trkpt lat="47.31829" lon="-2.35517">
        <ele>10.800000190735</ele>
        <time>2021-09-30T07:36:47.000Z</time>
      </trkpt>
      <trkpt lat="47.31821" lon="-2.35498">
        <ele>10.800000190735</ele>
        <time>2021-09-30T07:36:50.000Z</time>
      </trkpt>
      <trkpt lat="47.31812" lon="-2.35481">
        <ele>10.800000190735</ele>
        <time>2021-09-30T07:36:53.000Z</time>
      </trkpt>
      <trkpt lat="47.318" lon="-2.35459">
        <ele>10.800000190735</ele>
        <time>2021-09-30T07:36:58.000Z</time>
      </trkpt>
      <trkpt lat="47.31784" lon="-2.35435">
        <ele>10.800000190735</ele>
        <time>2021-09-30T07:37:03.000Z</time>
      </trkpt>
      <trkpt lat="47.31777" lon="-2.35425">
        <ele>10.800000190735</ele>
        <time>2021-09-30T07:37:05.000Z</time>
      </trkpt>
      <trkpt lat="47.31774" lon="-2.3542">
        <ele>11.199999809265</ele>
        <time>2021-09-30T07:37:06.000Z</time>
      </trkpt>
      <trkpt lat="47.31771" lon="-2.35417">
        <ele>11.60000038147</ele>
        <time>2021-09-30T07:37:07.000Z</time>
      </trkpt>
      <trkpt lat="47.31769" lon="-2.35411">
        <ele>12</ele>
        <time>2021-09-30T07:37:08.000Z</time>
      </trkpt>
      <trkpt lat="47.31766" lon="-2.35406">
        <ele>12.39999961853</ele>
        <time>2021-09-30T07:37:09.000Z</time>
      </trkpt>
      <trkpt lat="47.31763" lon="-2.35401">
        <ele>12.800000190735</ele>
        <time>2021-09-30T07:37:10.000Z</time>
      </trkpt>
      <trkpt lat="47.3175" lon="-2.35374">
        <ele>12.800000190735</ele>
        <time>2021-09-30T07:37:16.000Z</time>
      </trkpt>
      <trkpt lat="47.31751" lon="-2.35372">
        <ele>12.800000190735</ele>
        <time>2021-09-30T07:37:17.000Z</time>
      </trkpt>
      <trkpt lat="47.31756" lon="-2.35368">
        <ele>12.800000190735</ele>
        <time>2021-09-30T07:37:19.000Z</time>
      </trkpt>
      <trkpt lat="47.31777" lon="-2.35347">
        <ele>12.800000190735</ele>
        <time>2021-09-30T07:37:25.000Z</time>
      </trkpt>
      <trkpt lat="47.31804" lon="-2.35327">
        <ele>12.800000190735</ele>
        <time>2021-09-30T07:37:31.000Z</time>
      </trkpt>
      <trkpt lat="47.31826" lon="-2.3531">
        <ele>12.800000190735</ele>
        <time>2021-09-30T07:37:35.000Z</time>
      </trkpt>
      <trkpt lat="47.31834" lon="-2.35301">
        <ele>12.800000190735</ele>
        <time>2021-09-30T07:37:37.000Z</time>
      </trkpt>
      <trkpt lat="47.31843" lon="-2.35292">
        <ele>12.39999961853</ele>
        <time>2021-09-30T07:37:39.000Z</time>
      </trkpt>
      <trkpt lat="47.31848" lon="-2.35287">
        <ele>12</ele>
        <time>2021-09-30T07:37:40.000Z</time>
      </trkpt>
      <trkpt lat="47.31854" lon="-2.35282">
        <ele>11.60000038147</ele>
        <time>2021-09-30T07:37:41.000Z</time>
      </trkpt>
      <trkpt lat="47.31859" lon="-2.35277">
        <ele>11.199999809265</ele>
        <time>2021-09-30T07:37:42.000Z</time>
      </trkpt>
      <trkpt lat="47.31865" lon="-2.35272">
        <ele>10.800000190735</ele>
        <time>2021-09-30T07:37:43.000Z</time>
      </trkpt>
      <trkpt lat="47.31872" lon="-2.35266">
        <ele>10.800000190735</ele>
        <time>2021-09-30T07:37:44.000Z</time>
      </trkpt>
      <trkpt lat="47.31902" lon="-2.35237">
        <ele>10.800000190735</ele>
        <time>2021-09-30T07:37:49.000Z</time>
      </trkpt>
      <trkpt lat="47.3191" lon="-2.35229">
        <ele>10.800000190735</ele>
        <time>2021-09-30T07:37:51.000Z</time>
      </trkpt>
      <trkpt lat="47.31929" lon="-2.3521">
        <ele>10.39999961853</ele>
        <time>2021-09-30T07:37:55.000Z</time>
      </trkpt>
      <trkpt lat="47.31935" lon="-2.35205">
        <ele>10</ele>
        <time>2021-09-30T07:37:56.000Z</time>
      </trkpt>
      <trkpt lat="47.31941" lon="-2.352">
        <ele>9.6000003814697</ele>
        <time>2021-09-30T07:37:57.000Z</time>
      </trkpt>
      <trkpt lat="47.31945" lon="-2.35196">
        <ele>9.1999998092651</ele>
        <time>2021-09-30T07:37:58.000Z</time>
      </trkpt>
      <trkpt lat="47.31948" lon="-2.35192">
        <ele>8.8000001907349</ele>
        <time>2021-09-30T07:37:59.000Z</time>
      </trkpt>
      <trkpt lat="47.3198" lon="-2.35165">
        <ele>8.8000001907349</ele>
        <time>2021-09-30T07:38:05.000Z</time>
      </trkpt>
      <trkpt lat="47.32017" lon="-2.35132">
        <ele>8.8000001907349</ele>
        <time>2021-09-30T07:38:12.000Z</time>
      </trkpt>
      <trkpt lat="47.32029" lon="-2.35106">
        <ele>8.8000001907349</ele>
        <time>2021-09-30T07:38:16.000Z</time>
      </trkpt>
      <trkpt lat="47.3203" lon="-2.35087">
        <ele>8.8000001907349</ele>
        <time>2021-09-30T07:38:20.000Z</time>
      </trkpt>
      <trkpt lat="47.32029" lon="-2.35072">
        <ele>8.8000001907349</ele>
        <time>2021-09-30T07:38:24.000Z</time>
      </trkpt>
      <trkpt lat="47.32032" lon="-2.35067">
        <ele>8.8000001907349</ele>
        <time>2021-09-30T07:38:25.000Z</time>
      </trkpt>
      <trkpt lat="47.3204" lon="-2.35062">
        <ele>8.8000001907349</ele>
        <time>2021-09-30T07:38:28.000Z</time>
      </trkpt>
      <trkpt lat="47.32048" lon="-2.35062">
        <ele>8.8000001907349</ele>
        <time>2021-09-30T07:38:31.000Z</time>
      </trkpt>
      <trkpt lat="47.32056" lon="-2.35062">
        <ele>8.8000001907349</ele>
        <time>2021-09-30T07:38:34.000Z</time>
      </trkpt>
      <trkpt lat="47.32074" lon="-2.35064">
        <ele>8.8000001907349</ele>
        <time>2021-09-30T07:38:39.000Z</time>
      </trkpt>
      <trkpt lat="47.32103" lon="-2.35065">
        <ele>8.8000001907349</ele>
        <time>2021-09-30T07:38:47.000Z</time>
      </trkpt>
      <trkpt lat="47.32131" lon="-2.35064">
        <ele>8.8000001907349</ele>
        <time>2021-09-30T07:38:54.000Z</time>
      </trkpt>
      <trkpt lat="47.32156" lon="-2.35062">
        <ele>8.8000001907349</ele>
        <time>2021-09-30T07:39:00.000Z</time>
      </trkpt>
      <trkpt lat="47.32184" lon="-2.3506">
        <ele>8.8000001907349</ele>
        <time>2021-09-30T07:39:06.000Z</time>
      </trkpt>
      <trkpt lat="47.32212" lon="-2.35054">
        <ele>8.8000001907349</ele>
        <time>2021-09-30T07:39:11.000Z</time>
      </trkpt>
      <trkpt lat="47.32239" lon="-2.35051">
        <ele>8.8000001907349</ele>
        <time>2021-09-30T07:39:17.000Z</time>
      </trkpt>
      <trkpt lat="47.32269" lon="-2.3505">
        <ele>8.8000001907349</ele>
        <time>2021-09-30T07:39:23.000Z</time>
      </trkpt>
      <trkpt lat="47.3231" lon="-2.35051">
        <ele>8.8000001907349</ele>
        <time>2021-09-30T07:39:32.000Z</time>
      </trkpt>
      <trkpt lat="47.32325" lon="-2.35049">
        <ele>9.6000003814697</ele>
        <time>2021-09-30T07:39:35.000Z</time>
      </trkpt>
      <trkpt lat="47.32329" lon="-2.35049">
        <ele>10</ele>
        <time>2021-09-30T07:39:36.000Z</time>
      </trkpt>
      <trkpt lat="47.32334" lon="-2.35049">
        <ele>10.39999961853</ele>
        <time>2021-09-30T07:39:37.000Z</time>
      </trkpt>
      <trkpt lat="47.32339" lon="-2.35049">
        <ele>11</ele>
        <time>2021-09-30T07:39:38.000Z</time>
      </trkpt>
      <trkpt lat="47.32366" lon="-2.3505">
        <ele>11</ele>
        <time>2021-09-30T07:39:43.000Z</time>
      </trkpt>
      <trkpt lat="47.32395" lon="-2.35049">
        <ele>11</ele>
        <time>2021-09-30T07:39:49.000Z</time>
      </trkpt>
      <trkpt lat="47.32411" lon="-2.35049">
        <ele>11.39999961853</ele>
        <time>2021-09-30T07:39:52.000Z</time>
      </trkpt>
      <trkpt lat="47.32416" lon="-2.35048">
        <ele>11.800000190735</ele>
        <time>2021-09-30T07:39:53.000Z</time>
      </trkpt>
      <trkpt lat="47.3242" lon="-2.35047">
        <ele>12.199999809265</ele>
        <time>2021-09-30T07:39:54.000Z</time>
      </trkpt>
      <trkpt lat="47.32425" lon="-2.35046">
        <ele>12.60000038147</ele>
        <time>2021-09-30T07:39:55.000Z</time>
      </trkpt>
      <trkpt lat="47.3243" lon="-2.35046">
        <ele>13</ele>
        <time>2021-09-30T07:39:56.000Z</time>
      </trkpt>
      <trkpt lat="47.32445" lon="-2.35043">
        <ele>13</ele>
        <time>2021-09-30T07:39:59.000Z</time>
      </trkpt>
      <trkpt lat="47.3246" lon="-2.35039">
        <ele>13</ele>
        <time>2021-09-30T07:40:02.000Z</time>
      </trkpt>
      <trkpt lat="47.3249" lon="-2.35032">
        <ele>13</ele>
        <time>2021-09-30T07:40:08.000Z</time>
      </trkpt>
      <trkpt lat="47.32509" lon="-2.35027">
        <ele>13</ele>
        <time>2021-09-30T07:40:12.000Z</time>
      </trkpt>
      <trkpt lat="47.3252" lon="-2.35023">
        <ele>13</ele>
        <time>2021-09-30T07:40:14.000Z</time>
      </trkpt>
      <trkpt lat="47.32555" lon="-2.35011">
        <ele>13</ele>
        <time>2021-09-30T07:40:21.000Z</time>
      </trkpt>
      <trkpt lat="47.3256" lon="-2.35008">
        <ele>12.60000038147</ele>
        <time>2021-09-30T07:40:22.000Z</time>
      </trkpt>
      <trkpt lat="47.32566" lon="-2.35006">
        <ele>12.199999809265</ele>
        <time>2021-09-30T07:40:23.000Z</time>
      </trkpt>
      <trkpt lat="47.32572" lon="-2.35004">
        <ele>11.199999809265</ele>
        <time>2021-09-30T07:40:24.000Z</time>
      </trkpt>
      <trkpt lat="47.32578" lon="-2.35002">
        <ele>10.800000190735</ele>
        <time>2021-09-30T07:40:25.000Z</time>
      </trkpt>
      <trkpt lat="47.3259" lon="-2.34997">
        <ele>10.800000190735</ele>
        <time>2021-09-30T07:40:27.000Z</time>
      </trkpt>
      <trkpt lat="47.3262" lon="-2.34981">
        <ele>10.800000190735</ele>
        <time>2021-09-30T07:40:33.000Z</time>
      </trkpt>
      <trkpt lat="47.32646" lon="-2.34966">
        <ele>10.39999961853</ele>
        <time>2021-09-30T07:40:40.000Z</time>
      </trkpt>
      <trkpt lat="47.32649" lon="-2.34964">
        <ele>10</ele>
        <time>2021-09-30T07:40:41.000Z</time>
      </trkpt>
      <trkpt lat="47.32652" lon="-2.34962">
        <ele>9.6000003814697</ele>
        <time>2021-09-30T07:40:42.000Z</time>
      </trkpt>
      <trkpt lat="47.32656" lon="-2.3496">
        <ele>9.1999998092651</ele>
        <time>2021-09-30T07:40:43.000Z</time>
      </trkpt>
      <trkpt lat="47.3266" lon="-2.34958">
        <ele>8.8000001907349</ele>
        <time>2021-09-30T07:40:44.000Z</time>
      </trkpt>
      <trkpt lat="47.32664" lon="-2.34956">
        <ele>8.8000001907349</ele>
        <time>2021-09-30T07:40:45.000Z</time>
      </trkpt>
      <trkpt lat="47.3269" lon="-2.34935">
        <ele>8.8000001907349</ele>
        <time>2021-09-30T07:40:51.000Z</time>
      </trkpt>
      <trkpt lat="47.32721" lon="-2.34912">
        <ele>8.8000001907349</ele>
        <time>2021-09-30T07:40:57.000Z</time>
      </trkpt>
      <trkpt lat="47.32761" lon="-2.34883">
        <ele>8.8000001907349</ele>
        <time>2021-09-30T07:41:04.000Z</time>
      </trkpt>
      <trkpt lat="47.32794" lon="-2.34858">
        <ele>8.3999996185303</ele>
        <time>2021-09-30T07:41:10.000Z</time>
      </trkpt>
      <trkpt lat="47.328" lon="-2.34853">
        <ele>8</ele>
        <time>2021-09-30T07:41:11.000Z</time>
      </trkpt>
      <trkpt lat="47.32805" lon="-2.34848">
        <ele>7.5999999046326</ele>
        <time>2021-09-30T07:41:12.000Z</time>
      </trkpt>
      <trkpt lat="47.32811" lon="-2.34844">
        <ele>7.1999998092651</ele>
        <time>2021-09-30T07:41:13.000Z</time>
      </trkpt>
      <trkpt lat="47.32817" lon="-2.3484">
        <ele>6.8000001907349</ele>
        <time>2021-09-30T07:41:14.000Z</time>
      </trkpt>
      <trkpt lat="47.32828" lon="-2.34832">
        <ele>6.8000001907349</ele>
        <time>2021-09-30T07:41:16.000Z</time>
      </trkpt>
      <trkpt lat="47.3284" lon="-2.34825">
        <ele>6.8000001907349</ele>
        <time>2021-09-30T07:41:18.000Z</time>
      </trkpt>
      <trkpt lat="47.32884" lon="-2.34795">
        <ele>6.8000001907349</ele>
        <time>2021-09-30T07:41:26.000Z</time>
      </trkpt>
      <trkpt lat="47.329" lon="-2.34784">
        <ele>6.4000000953674</ele>
        <time>2021-09-30T07:41:29.000Z</time>
      </trkpt>
      <trkpt lat="47.32904" lon="-2.34781">
        <ele>6</ele>
        <time>2021-09-30T07:41:30.000Z</time>
      </trkpt>
      <trkpt lat="47.32907" lon="-2.34779">
        <ele>5.5999999046326</ele>
        <time>2021-09-30T07:41:31.000Z</time>
      </trkpt>
      <trkpt lat="47.3291" lon="-2.34777">
        <ele>5.1999998092651</ele>
        <time>2021-09-30T07:41:32.000Z</time>
      </trkpt>
      <trkpt lat="47.32912" lon="-2.34775">
        <ele>4.8000001907349</ele>
        <time>2021-09-30T07:41:33.000Z</time>
      </trkpt>
      <trkpt lat="47.3293" lon="-2.34763">
        <ele>4.8000001907349</ele>
        <time>2021-09-30T07:41:38.000Z</time>
      </trkpt>
      <trkpt lat="47.32956" lon="-2.34748">
        <ele>4.8000001907349</ele>
        <time>2021-09-30T07:41:43.000Z</time>
      </trkpt>
      <trkpt lat="47.32973" lon="-2.34736">
        <ele>4.4000000953674</ele>
        <time>2021-09-30T07:41:46.000Z</time>
      </trkpt>
      <trkpt lat="47.32978" lon="-2.34731">
        <ele>4</ele>
        <time>2021-09-30T07:41:47.000Z</time>
      </trkpt>
      <trkpt lat="47.32984" lon="-2.34726">
        <ele>3.5999999046326</ele>
        <time>2021-09-30T07:41:48.000Z</time>
      </trkpt>
      <trkpt lat="47.3299" lon="-2.34722">
        <ele>3.2000000476837</ele>
        <time>2021-09-30T07:41:49.000Z</time>
      </trkpt>
      <trkpt lat="47.32997" lon="-2.34717">
        <ele>2.7999999523163</ele>
        <time>2021-09-30T07:41:50.000Z</time>
      </trkpt>
      <trkpt lat="47.33038" lon="-2.34681">
        <ele>2.7999999523163</ele>
        <time>2021-09-30T07:41:57.000Z</time>
      </trkpt>
      <trkpt lat="47.33073" lon="-2.34647">
        <ele>2</ele>
        <time>2021-09-30T07:42:03.000Z</time>
      </trkpt>
      <trkpt lat="47.33079" lon="-2.34641">
        <ele>1.6000000238419</ele>
        <time>2021-09-30T07:42:04.000Z</time>
      </trkpt>
      <trkpt lat="47.33085" lon="-2.34636">
        <ele>1.2000000476837</ele>
        <time>2021-09-30T07:42:05.000Z</time>
      </trkpt>
      <trkpt lat="47.33091" lon="-2.3463">
        <ele>0.80000001192093</ele>
        <time>2021-09-30T07:42:06.000Z</time>
      </trkpt>
      <trkpt lat="47.3312" lon="-2.34598">
        <ele>0.80000001192093</ele>
        <time>2021-09-30T07:42:11.000Z</time>
      </trkpt>
      <trkpt lat="47.33154" lon="-2.34564">
        <ele>0.80000001192093</ele>
        <time>2021-09-30T07:42:17.000Z</time>
      </trkpt>
      <trkpt lat="47.33191" lon="-2.34526">
        <ele>0.80000001192093</ele>
        <time>2021-09-30T07:42:24.000Z</time>
      </trkpt>
      <trkpt lat="47.3323" lon="-2.34488">
        <ele>0.80000001192093</ele>
        <time>2021-09-30T07:42:32.000Z</time>
      </trkpt>
      <trkpt lat="47.33241" lon="-2.34479">
        <ele>0.80000001192093</ele>
        <time>2021-09-30T07:42:34.000Z</time>
      </trkpt>
      <trkpt lat="47.33252" lon="-2.34474">
        <ele>0.80000001192093</ele>
        <time>2021-09-30T07:42:36.000Z</time>
      </trkpt>
      <trkpt lat="47.33269" lon="-2.34478">
        <ele>0.80000001192093</ele>
        <time>2021-09-30T07:42:39.000Z</time>
      </trkpt>
      <trkpt lat="47.33274" lon="-2.34481">
        <ele>0.80000001192093</ele>
        <time>2021-09-30T07:42:40.000Z</time>
      </trkpt>
      <trkpt lat="47.333" lon="-2.34494">
        <ele>0.80000001192093</ele>
        <time>2021-09-30T07:42:45.000Z</time>
      </trkpt>
      <trkpt lat="47.33319" lon="-2.34504">
        <ele>0.80000001192093</ele>
        <time>2021-09-30T07:42:50.000Z</time>
      </trkpt>
      <trkpt lat="47.33334" lon="-2.34516">
        <ele>0.80000001192093</ele>
        <time>2021-09-30T07:42:56.000Z</time>
      </trkpt>
      <trkpt lat="47.33337" lon="-2.34524">
        <ele>0.80000001192093</ele>
        <time>2021-09-30T07:42:58.000Z</time>
      </trkpt>
      <trkpt lat="47.33337" lon="-2.34529">
        <ele>0.80000001192093</ele>
        <time>2021-09-30T07:43:00.000Z</time>
      </trkpt>
      <trkpt lat="47.33333" lon="-2.34551">
        <ele>0.80000001192093</ele>
        <time>2021-09-30T07:43:07.000Z</time>
      </trkpt>
      <trkpt lat="47.33324" lon="-2.34579">
        <ele>0.80000001192093</ele>
        <time>2021-09-30T07:43:13.000Z</time>
      </trkpt>
      <trkpt lat="47.33313" lon="-2.34612">
        <ele>0.80000001192093</ele>
        <time>2021-09-30T07:43:19.000Z</time>
      </trkpt>
      <trkpt lat="47.333" lon="-2.34646">
        <ele>0.80000001192093</ele>
        <time>2021-09-30T07:43:25.000Z</time>
      </trkpt>
      <trkpt lat="47.33293" lon="-2.34662">
        <ele>0.80000001192093</ele>
        <time>2021-09-30T07:43:29.000Z</time>
      </trkpt>
      <trkpt lat="47.33283" lon="-2.34691">
        <ele>0.80000001192093</ele>
        <time>2021-09-30T07:43:35.000Z</time>
      </trkpt>
      <trkpt lat="47.33267" lon="-2.34729">
        <ele>0.80000001192093</ele>
        <time>2021-09-30T07:43:42.000Z</time>
      </trkpt>
      <trkpt lat="47.33262" lon="-2.34743">
        <ele>0.80000001192093</ele>
        <time>2021-09-30T07:43:44.000Z</time>
      </trkpt>
      <trkpt lat="47.33256" lon="-2.34766">
        <ele>0.80000001192093</ele>
        <time>2021-09-30T07:43:47.000Z</time>
      </trkpt>
      <trkpt lat="47.33254" lon="-2.34774">
        <ele>1.2000000476837</ele>
        <time>2021-09-30T07:43:48.000Z</time>
      </trkpt>
      <trkpt lat="47.33251" lon="-2.34781">
        <ele>1.6000000238419</ele>
        <time>2021-09-30T07:43:49.000Z</time>
      </trkpt>
      <trkpt lat="47.33248" lon="-2.34787">
        <ele>2</ele>
        <time>2021-09-30T07:43:50.000Z</time>
      </trkpt>
      <trkpt lat="47.33246" lon="-2.34795">
        <ele>2.4000000953674</ele>
        <time>2021-09-30T07:43:51.000Z</time>
      </trkpt>
      <trkpt lat="47.33244" lon="-2.34801">
        <ele>2.7999999523163</ele>
        <time>2021-09-30T07:43:52.000Z</time>
      </trkpt>
      <trkpt lat="47.33241" lon="-2.34808">
        <ele>2.7999999523163</ele>
        <time>2021-09-30T07:43:53.000Z</time>
      </trkpt>
      <trkpt lat="47.33229" lon="-2.34842">
        <ele>2.7999999523163</ele>
        <time>2021-09-30T07:43:59.000Z</time>
      </trkpt>
      <trkpt lat="47.33214" lon="-2.3488">
        <ele>2.7999999523163</ele>
        <time>2021-09-30T07:44:05.000Z</time>
      </trkpt>
      <trkpt lat="47.33192" lon="-2.34924">
        <ele>3.2000000476837</ele>
        <time>2021-09-30T07:44:13.000Z</time>
      </trkpt>
      <trkpt lat="47.3319" lon="-2.3493">
        <ele>3.5999999046326</ele>
        <time>2021-09-30T07:44:14.000Z</time>
      </trkpt>
      <trkpt lat="47.33187" lon="-2.34936">
        <ele>4</ele>
        <time>2021-09-30T07:44:15.000Z</time>
      </trkpt>
      <trkpt lat="47.33185" lon="-2.34941">
        <ele>4.4000000953674</ele>
        <time>2021-09-30T07:44:16.000Z</time>
      </trkpt>
      <trkpt lat="47.33182" lon="-2.34947">
        <ele>4.8000001907349</ele>
        <time>2021-09-30T07:44:17.000Z</time>
      </trkpt>
      <trkpt lat="47.33177" lon="-2.34958">
        <ele>4.8000001907349</ele>
        <time>2021-09-30T07:44:19.000Z</time>
      </trkpt>
      <trkpt lat="47.33165" lon="-2.34988">
        <ele>4.8000001907349</ele>
        <time>2021-09-30T07:44:25.000Z</time>
      </trkpt>
      <trkpt lat="47.33163" lon="-2.34998">
        <ele>4.8000001907349</ele>
        <time>2021-09-30T07:44:27.000Z</time>
      </trkpt>
      <trkpt lat="47.33163" lon="-2.35007">
        <ele>4.8000001907349</ele>
        <time>2021-09-30T07:44:29.000Z</time>
      </trkpt>
      <trkpt lat="47.33168" lon="-2.35016">
        <ele>4.8000001907349</ele>
        <time>2021-09-30T07:44:32.000Z</time>
      </trkpt>
      <trkpt lat="47.3317" lon="-2.35017">
        <ele>4.8000001907349</ele>
        <time>2021-09-30T07:44:33.000Z</time>
      </trkpt>
      <trkpt lat="47.3318" lon="-2.35005">
        <ele>4.8000001907349</ele>
        <time>2021-09-30T07:44:37.000Z</time>
      </trkpt>
      <trkpt lat="47.33183" lon="-2.35001">
        <ele>4.8000001907349</ele>
        <time>2021-09-30T07:44:38.000Z</time>
      </trkpt>
      <trkpt lat="47.33198" lon="-2.34977">
        <ele>4.8000001907349</ele>
        <time>2021-09-30T07:44:44.000Z</time>
      </trkpt>
      <trkpt lat="47.3322" lon="-2.34959">
        <ele>4.8000001907349</ele>
        <time>2021-09-30T07:44:49.000Z</time>
      </trkpt>
      <trkpt lat="47.33245" lon="-2.34951">
        <ele>4.8000001907349</ele>
        <time>2021-09-30T07:44:54.000Z</time>
      </trkpt>
      <trkpt lat="47.33265" lon="-2.34946">
        <ele>4.8000001907349</ele>
        <time>2021-09-30T07:44:59.000Z</time>
      </trkpt>
      <trkpt lat="47.33288" lon="-2.34943">
        <ele>4.8000001907349</ele>
        <time>2021-09-30T07:45:05.000Z</time>
      </trkpt>
      <trkpt lat="47.33304" lon="-2.34943">
        <ele>5.1999998092651</ele>
        <time>2021-09-30T07:45:09.000Z</time>
      </trkpt>
      <trkpt lat="47.33308" lon="-2.34942">
        <ele>5.8000001907349</ele>
        <time>2021-09-30T07:45:10.000Z</time>
      </trkpt>
      <trkpt lat="47.33311" lon="-2.34942">
        <ele>6.1999998092651</ele>
        <time>2021-09-30T07:45:11.000Z</time>
      </trkpt>
      <trkpt lat="47.33314" lon="-2.34942">
        <ele>6.5999999046326</ele>
        <time>2021-09-30T07:45:12.000Z</time>
      </trkpt>
      <trkpt lat="47.33315" lon="-2.34943">
        <ele>7</ele>
        <time>2021-09-30T07:45:13.000Z</time>
      </trkpt>
      <trkpt lat="47.33321" lon="-2.34943">
        <ele>7</ele>
        <time>2021-09-30T07:45:17.000Z</time>
      </trkpt>
      <trkpt lat="47.33322" lon="-2.34943">
        <ele>7</ele>
        <time>2021-09-30T07:45:18.000Z</time>
      </trkpt>
      <trkpt lat="47.33326" lon="-2.3494">
        <ele>7</ele>
        <time>2021-09-30T07:45:21.000Z</time>
      </trkpt>
      <trkpt lat="47.33331" lon="-2.34939">
        <ele>7</ele>
        <time>2021-09-30T07:45:24.000Z</time>
      </trkpt>
      <trkpt lat="47.33344" lon="-2.34938">
        <ele>7</ele>
        <time>2021-09-30T07:45:30.000Z</time>
      </trkpt>
      <trkpt lat="47.33363" lon="-2.34932">
        <ele>7</ele>
        <time>2021-09-30T07:45:36.000Z</time>
      </trkpt>
      <trkpt lat="47.33382" lon="-2.34932">
        <ele>7</ele>
        <time>2021-09-30T07:45:41.000Z</time>
      </trkpt>
      <trkpt lat="47.33408" lon="-2.34925">
        <ele>7.4000000953674</ele>
        <time>2021-09-30T07:45:48.000Z</time>
      </trkpt>
      <trkpt lat="47.33412" lon="-2.34922">
        <ele>7.8000001907349</ele>
        <time>2021-09-30T07:45:49.000Z</time>
      </trkpt>
      <trkpt lat="47.33416" lon="-2.3492">
        <ele>8.1999998092651</ele>
        <time>2021-09-30T07:45:50.000Z</time>
      </trkpt>
      <trkpt lat="47.33421" lon="-2.34918">
        <ele>8.6000003814697</ele>
        <time>2021-09-30T07:45:51.000Z</time>
      </trkpt>
      <trkpt lat="47.33425" lon="-2.34916">
        <ele>9</ele>
        <time>2021-09-30T07:45:52.000Z</time>
      </trkpt>
      <trkpt lat="47.33439" lon="-2.3491">
        <ele>9</ele>
        <time>2021-09-30T07:45:55.000Z</time>
      </trkpt>
      <trkpt lat="47.33465" lon="-2.349">
        <ele>9</ele>
        <time>2021-09-30T07:46:02.000Z</time>
      </trkpt>
      <trkpt lat="47.3349" lon="-2.34894">
        <ele>9</ele>
        <time>2021-09-30T07:46:08.000Z</time>
      </trkpt>
      <trkpt lat="47.33512" lon="-2.34899">
        <ele>9</ele>
        <time>2021-09-30T07:46:13.000Z</time>
      </trkpt>
      <trkpt lat="47.33537" lon="-2.34912">
        <ele>9</ele>
        <time>2021-09-30T07:46:19.000Z</time>
      </trkpt>
      <trkpt lat="47.33561" lon="-2.3492">
        <ele>9</ele>
        <time>2021-09-30T07:46:25.000Z</time>
      </trkpt>
      <trkpt lat="47.33575" lon="-2.34929">
        <ele>9</ele>
        <time>2021-09-30T07:46:28.000Z</time>
      </trkpt>
      <trkpt lat="47.33592" lon="-2.34935">
        <ele>9</ele>
        <time>2021-09-30T07:46:31.000Z</time>
      </trkpt>
      <trkpt lat="47.33618" lon="-2.3495">
        <ele>8.6000003814697</ele>
        <time>2021-09-30T07:46:36.000Z</time>
      </trkpt>
      <trkpt lat="47.33623" lon="-2.34953">
        <ele>8.1999998092651</ele>
        <time>2021-09-30T07:46:37.000Z</time>
      </trkpt>
      <trkpt lat="47.33627" lon="-2.34956">
        <ele>7.8000001907349</ele>
        <time>2021-09-30T07:46:38.000Z</time>
      </trkpt>
      <trkpt lat="47.33632" lon="-2.34958">
        <ele>7.4000000953674</ele>
        <time>2021-09-30T07:46:39.000Z</time>
      </trkpt>
      <trkpt lat="47.33636" lon="-2.34961">
        <ele>7</ele>
        <time>2021-09-30T07:46:40.000Z</time>
      </trkpt>
      <trkpt lat="47.33645" lon="-2.34965">
        <ele>7</ele>
        <time>2021-09-30T07:46:42.000Z</time>
      </trkpt>
      <trkpt lat="47.33662" lon="-2.34964">
        <ele>7</ele>
        <time>2021-09-30T07:46:45.000Z</time>
      </trkpt>
      <trkpt lat="47.33668" lon="-2.34966">
        <ele>7</ele>
        <time>2021-09-30T07:46:46.000Z</time>
      </trkpt>
      <trkpt lat="47.33689" lon="-2.34982">
        <ele>7</ele>
        <time>2021-09-30T07:46:50.000Z</time>
      </trkpt>
      <trkpt lat="47.33705" lon="-2.35004">
        <ele>7</ele>
        <time>2021-09-30T07:46:55.000Z</time>
      </trkpt>
      <trkpt lat="47.33708" lon="-2.35008">
        <ele>6.5999999046326</ele>
        <time>2021-09-30T07:46:57.000Z</time>
      </trkpt>
      <trkpt lat="47.33709" lon="-2.35008">
        <ele>6.1999998092651</ele>
        <time>2021-09-30T07:46:58.000Z</time>
      </trkpt>
      <trkpt lat="47.3371" lon="-2.35009">
        <ele>5.1999998092651</ele>
        <time>2021-09-30T07:46:59.000Z</time>
      </trkpt>
      <trkpt lat="47.33711" lon="-2.3501">
        <ele>4.8000001907349</ele>
        <time>2021-09-30T07:47:00.000Z</time>
      </trkpt>
      <trkpt lat="47.33713" lon="-2.35011">
        <ele>4.8000001907349</ele>
        <time>2021-09-30T07:47:01.000Z</time>
      </trkpt>
      <trkpt lat="47.33717" lon="-2.35021">
        <ele>4.8000001907349</ele>
        <time>2021-09-30T07:47:05.000Z</time>
      </trkpt>
      <trkpt lat="47.33728" lon="-2.35038">
        <ele>4.8000001907349</ele>
        <time>2021-09-30T07:47:10.000Z</time>
      </trkpt>
      <trkpt lat="47.33738" lon="-2.35051">
        <ele>4.8000001907349</ele>
        <time>2021-09-30T07:47:13.000Z</time>
      </trkpt>
      <trkpt lat="47.33745" lon="-2.35059">
        <ele>4.8000001907349</ele>
        <time>2021-09-30T07:47:15.000Z</time>
      </trkpt>
      <trkpt lat="47.33753" lon="-2.35066">
        <ele>4.8000001907349</ele>
        <time>2021-09-30T07:47:17.000Z</time>
      </trkpt>
      <trkpt lat="47.33776" lon="-2.35082">
        <ele>4.8000001907349</ele>
        <time>2021-09-30T07:47:22.000Z</time>
      </trkpt>
      <trkpt lat="47.3381" lon="-2.35101">
        <ele>4.8000001907349</ele>
        <time>2021-09-30T07:47:29.000Z</time>
      </trkpt>
      <trkpt lat="47.33839" lon="-2.3512">
        <ele>5.1999998092651</ele>
        <time>2021-09-30T07:47:35.000Z</time>
      </trkpt>
      <trkpt lat="47.33844" lon="-2.35123">
        <ele>5.5999999046326</ele>
        <time>2021-09-30T07:47:36.000Z</time>
      </trkpt>
      <trkpt lat="47.33849" lon="-2.35126">
        <ele>6</ele>
        <time>2021-09-30T07:47:37.000Z</time>
      </trkpt>
      <trkpt lat="47.33854" lon="-2.35129">
        <ele>6.4000000953674</ele>
        <time>2021-09-30T07:47:38.000Z</time>
      </trkpt>
      <trkpt lat="47.33859" lon="-2.35133">
        <ele>7</ele>
        <time>2021-09-30T07:47:39.000Z</time>
      </trkpt>
      <trkpt lat="47.33864" lon="-2.35137">
        <ele>7</ele>
        <time>2021-09-30T07:47:40.000Z</time>
      </trkpt>
      <trkpt lat="47.33883" lon="-2.35155">
        <ele>7</ele>
        <time>2021-09-30T07:47:44.000Z</time>
      </trkpt>
      <trkpt lat="47.33913" lon="-2.3518">
        <ele>7</ele>
        <time>2021-09-30T07:47:50.000Z</time>
      </trkpt>
      <trkpt lat="47.33922" lon="-2.35191">
        <ele>7</ele>
        <time>2021-09-30T07:47:52.000Z</time>
      </trkpt>
      <trkpt lat="47.33941" lon="-2.35222">
        <ele>7</ele>
        <time>2021-09-30T07:47:57.000Z</time>
      </trkpt>
      <trkpt lat="47.33944" lon="-2.3523">
        <ele>7</ele>
        <time>2021-09-30T07:47:58.000Z</time>
      </trkpt>
      <trkpt lat="47.33948" lon="-2.35245">
        <ele>7</ele>
        <time>2021-09-30T07:48:00.000Z</time>
      </trkpt>
      <trkpt lat="47.33949" lon="-2.35259">
        <ele>7</ele>
        <time>2021-09-30T07:48:02.000Z</time>
      </trkpt>
      <trkpt lat="47.33941" lon="-2.35278">
        <ele>7</ele>
        <time>2021-09-30T07:48:05.000Z</time>
      </trkpt>
      <trkpt lat="47.33927" lon="-2.35289">
        <ele>7</ele>
        <time>2021-09-30T07:48:08.000Z</time>
      </trkpt>
      <trkpt lat="47.33915" lon="-2.35294">
        <ele>7</ele>
        <time>2021-09-30T07:48:10.000Z</time>
      </trkpt>
      <trkpt lat="47.3389" lon="-2.35303">
        <ele>7</ele>
        <time>2021-09-30T07:48:14.000Z</time>
      </trkpt>
      <trkpt lat="47.33858" lon="-2.35322">
        <ele>7</ele>
        <time>2021-09-30T07:48:20.000Z</time>
      </trkpt>
      <trkpt lat="47.33826" lon="-2.35346">
        <ele>7</ele>
        <time>2021-09-30T07:48:26.000Z</time>
      </trkpt>
      <trkpt lat="47.33796" lon="-2.35355">
        <ele>7</ele>
        <time>2021-09-30T07:48:31.000Z</time>
      </trkpt>
      <trkpt lat="47.3376" lon="-2.35359">
        <ele>7</ele>
        <time>2021-09-30T07:48:37.000Z</time>
      </trkpt>
      <trkpt lat="47.33719" lon="-2.35361">
        <ele>7</ele>
        <time>2021-09-30T07:48:44.000Z</time>
      </trkpt>
      <trkpt lat="47.33678" lon="-2.35364">
        <ele>7</ele>
        <time>2021-09-30T07:48:51.000Z</time>
      </trkpt>
      <trkpt lat="47.3364" lon="-2.35367">
        <ele>7</ele>
        <time>2021-09-30T07:48:57.000Z</time>
      </trkpt>
      <trkpt lat="47.33593" lon="-2.35377">
        <ele>7</ele>
        <time>2021-09-30T07:49:04.000Z</time>
      </trkpt>
      <trkpt lat="47.33558" lon="-2.3539">
        <ele>7</ele>
        <time>2021-09-30T07:49:10.000Z</time>
      </trkpt>
      <trkpt lat="47.3351" lon="-2.35414">
        <ele>7</ele>
        <time>2021-09-30T07:49:18.000Z</time>
      </trkpt>
      <trkpt lat="47.33491" lon="-2.35424">
        <ele>7</ele>
        <time>2021-09-30T07:49:23.000Z</time>
      </trkpt>
      <trkpt lat="47.33478" lon="-2.35426">
        <ele>7</ele>
        <time>2021-09-30T07:49:29.000Z</time>
      </trkpt>
      <trkpt lat="47.33462" lon="-2.35434">
        <ele>7</ele>
        <time>2021-09-30T07:49:34.000Z</time>
      </trkpt>
      <trkpt lat="47.3344" lon="-2.35448">
        <ele>7</ele>
        <time>2021-09-30T07:49:40.000Z</time>
      </trkpt>
      <trkpt lat="47.33416" lon="-2.35458">
        <ele>7</ele>
        <time>2021-09-30T07:49:46.000Z</time>
      </trkpt>
      <trkpt lat="47.33395" lon="-2.35469">
        <ele>7</ele>
        <time>2021-09-30T07:49:53.000Z</time>
      </trkpt>
      <trkpt lat="47.33386" lon="-2.35475">
        <ele>7</ele>
        <time>2021-09-30T07:49:59.000Z</time>
      </trkpt>
      <trkpt lat="47.33382" lon="-2.35477">
        <ele>7</ele>
        <time>2021-09-30T07:50:02.000Z</time>
      </trkpt>
      <trkpt lat="47.33379" lon="-2.35478">
        <ele>7</ele>
        <time>2021-09-30T07:50:19.000Z</time>
      </trkpt>
      <trkpt lat="47.33376" lon="-2.35479">
        <ele>7</ele>
        <time>2021-09-30T07:50:20.000Z</time>
      </trkpt>
      <trkpt lat="47.33359" lon="-2.35488">
        <ele>7</ele>
        <time>2021-09-30T07:50:25.000Z</time>
      </trkpt>
      <trkpt lat="47.33344" lon="-2.35499">
        <ele>7</ele>
        <time>2021-09-30T07:50:29.000Z</time>
      </trkpt>
      <trkpt lat="47.33336" lon="-2.35504">
        <ele>7</ele>
        <time>2021-09-30T07:50:31.000Z</time>
      </trkpt>
      <trkpt lat="47.33311" lon="-2.35517">
        <ele>7.4000000953674</ele>
        <time>2021-09-30T07:50:37.000Z</time>
      </trkpt>
      <trkpt lat="47.33307" lon="-2.3552">
        <ele>7.8000001907349</ele>
        <time>2021-09-30T07:50:38.000Z</time>
      </trkpt>
      <trkpt lat="47.33302" lon="-2.35524">
        <ele>8.1999998092651</ele>
        <time>2021-09-30T07:50:39.000Z</time>
      </trkpt>
      <trkpt lat="47.33298" lon="-2.35527">
        <ele>8.6000003814697</ele>
        <time>2021-09-30T07:50:40.000Z</time>
      </trkpt>
      <trkpt lat="47.33294" lon="-2.35532">
        <ele>9</ele>
        <time>2021-09-30T07:50:41.000Z</time>
      </trkpt>
      <trkpt lat="47.33279" lon="-2.3555">
        <ele>9</ele>
        <time>2021-09-30T07:50:45.000Z</time>
      </trkpt>
      <trkpt lat="47.33274" lon="-2.35555">
        <ele>9</ele>
        <time>2021-09-30T07:50:46.000Z</time>
      </trkpt>
      <trkpt lat="47.33257" lon="-2.35573">
        <ele>9</ele>
        <time>2021-09-30T07:50:50.000Z</time>
      </trkpt>
      <trkpt lat="47.33217" lon="-2.35605">
        <ele>9</ele>
        <time>2021-09-30T07:50:58.000Z</time>
      </trkpt>
      <trkpt lat="47.33181" lon="-2.3563">
        <ele>9</ele>
        <time>2021-09-30T07:51:05.000Z</time>
      </trkpt>
      <trkpt lat="47.33144" lon="-2.3564">
        <ele>9</ele>
        <time>2021-09-30T07:51:11.000Z</time>
      </trkpt>
      <trkpt lat="47.33124" lon="-2.35643">
        <ele>8.6000003814697</ele>
        <time>2021-09-30T07:51:14.000Z</time>
      </trkpt>
      <trkpt lat="47.33117" lon="-2.35644">
        <ele>8</ele>
        <time>2021-09-30T07:51:15.000Z</time>
      </trkpt>
      <trkpt lat="47.33111" lon="-2.35645">
        <ele>7.5999999046326</ele>
        <time>2021-09-30T07:51:16.000Z</time>
      </trkpt>
      <trkpt lat="47.33104" lon="-2.35647">
        <ele>7.1999998092651</ele>
        <time>2021-09-30T07:51:17.000Z</time>
      </trkpt>
      <trkpt lat="47.33097" lon="-2.35648">
        <ele>6.5999999046326</ele>
        <time>2021-09-30T07:51:18.000Z</time>
      </trkpt>
      <trkpt lat="47.3309" lon="-2.35649">
        <ele>6.5999999046326</ele>
        <time>2021-09-30T07:51:19.000Z</time>
      </trkpt>
      <trkpt lat="47.33069" lon="-2.35652">
        <ele>6.1999998092651</ele>
        <time>2021-09-30T07:51:22.000Z</time>
      </trkpt>
      <trkpt lat="47.33062" lon="-2.35654">
        <ele>5.8000001907349</ele>
        <time>2021-09-30T07:51:23.000Z</time>
      </trkpt>
      <trkpt lat="47.33055" lon="-2.35655">
        <ele>5.4000000953674</ele>
        <time>2021-09-30T07:51:24.000Z</time>
      </trkpt>
      <trkpt lat="47.33049" lon="-2.35655">
        <ele>5</ele>
        <time>2021-09-30T07:51:25.000Z</time>
      </trkpt>
      <trkpt lat="47.33041" lon="-2.35657">
        <ele>4.4000000953674</ele>
        <time>2021-09-30T07:51:26.000Z</time>
      </trkpt>
      <trkpt lat="47.33035" lon="-2.35658">
        <ele>4.4000000953674</ele>
        <time>2021-09-30T07:51:27.000Z</time>
      </trkpt>
      <trkpt lat="47.33024" lon="-2.35661">
        <ele>4</ele>
        <time>2021-09-30T07:51:29.000Z</time>
      </trkpt>
      <trkpt lat="47.3302" lon="-2.35664">
        <ele>3.5999999046326</ele>
        <time>2021-09-30T07:51:30.000Z</time>
      </trkpt>
      <trkpt lat="47.33016" lon="-2.3567">
        <ele>2.7999999523163</ele>
        <time>2021-09-30T07:51:31.000Z</time>
      </trkpt>
      <trkpt lat="47.33014" lon="-2.35677">
        <ele>2.4000000953674</ele>
        <time>2021-09-30T07:51:32.000Z</time>
      </trkpt>
      <trkpt lat="47.33011" lon="-2.35694">
        <ele>2.4000000953674</ele>
        <time>2021-09-30T07:51:34.000Z</time>
      </trkpt>
      <trkpt lat="47.33008" lon="-2.35732">
        <ele>2</ele>
        <time>2021-09-30T07:51:38.000Z</time>
      </trkpt>
      <trkpt lat="47.33008" lon="-2.35741">
        <ele>1.6000000238419</ele>
        <time>2021-09-30T07:51:39.000Z</time>
      </trkpt>
      <trkpt lat="47.33008" lon="-2.3575">
        <ele>1.2000000476837</ele>
        <time>2021-09-30T07:51:40.000Z</time>
      </trkpt>
      <trkpt lat="47.3301" lon="-2.35759">
        <ele>0.80000001192093</ele>
        <time>2021-09-30T07:51:41.000Z</time>
      </trkpt>
      <trkpt lat="47.33011" lon="-2.35768">
        <ele>0.40000000596046</ele>
        <time>2021-09-30T07:51:42.000Z</time>
      </trkpt>
      <trkpt lat="47.33014" lon="-2.35777">
        <ele>0.40000000596046</ele>
        <time>2021-09-30T07:51:43.000Z</time>
      </trkpt>
      <trkpt lat="47.33029" lon="-2.35801">
        <ele>0.40000000596046</ele>
        <time>2021-09-30T07:51:47.000Z</time>
      </trkpt>
      <trkpt lat="47.33034" lon="-2.35805">
        <ele>0.40000000596046</ele>
        <time>2021-09-30T07:51:48.000Z</time>
      </trkpt>
      <trkpt lat="47.33039" lon="-2.35808">
        <ele>0.40000000596046</ele>
        <time>2021-09-30T07:51:49.000Z</time>
      </trkpt>
      <trkpt lat="47.33051" lon="-2.35809">
        <ele>0.40000000596046</ele>
        <time>2021-09-30T07:51:51.000Z</time>
      </trkpt>
      <trkpt lat="47.33067" lon="-2.35809">
        <ele>0.80000001192093</ele>
        <time>2021-09-30T07:51:54.000Z</time>
      </trkpt>
      <trkpt lat="47.33073" lon="-2.35809">
        <ele>1.6000000238419</ele>
        <time>2021-09-30T07:51:55.000Z</time>
      </trkpt>
      <trkpt lat="47.33079" lon="-2.35809">
        <ele>2</ele>
        <time>2021-09-30T07:51:56.000Z</time>
      </trkpt>
      <trkpt lat="47.33084" lon="-2.35809">
        <ele>2.4000000953674</ele>
        <time>2021-09-30T07:51:57.000Z</time>
      </trkpt>
      <trkpt lat="47.3309" lon="-2.35808">
        <ele>2.4000000953674</ele>
        <time>2021-09-30T07:51:58.000Z</time>
      </trkpt>
      <trkpt lat="47.33137" lon="-2.35809">
        <ele>2.4000000953674</ele>
        <time>2021-09-30T07:52:06.000Z</time>
      </trkpt>
      <trkpt lat="47.33143" lon="-2.3581">
        <ele>2.7999999523163</ele>
        <time>2021-09-30T07:52:07.000Z</time>
      </trkpt>
      <trkpt lat="47.33149" lon="-2.3581">
        <ele>3.2000000476837</ele>
        <time>2021-09-30T07:52:08.000Z</time>
      </trkpt>
      <trkpt lat="47.33155" lon="-2.35811">
        <ele>3.5999999046326</ele>
        <time>2021-09-30T07:52:09.000Z</time>
      </trkpt>
      <trkpt lat="47.33161" lon="-2.35812">
        <ele>4</ele>
        <time>2021-09-30T07:52:10.000Z</time>
      </trkpt>
      <trkpt lat="47.33168" lon="-2.35814">
        <ele>4.4000000953674</ele>
        <time>2021-09-30T07:52:11.000Z</time>
      </trkpt>
      <trkpt lat="47.3318" lon="-2.35816">
        <ele>4.4000000953674</ele>
        <time>2021-09-30T07:52:13.000Z</time>
      </trkpt>
      <trkpt lat="47.33221" lon="-2.35825">
        <ele>4.4000000953674</ele>
        <time>2021-09-30T07:52:20.000Z</time>
      </trkpt>
      <trkpt lat="47.33245" lon="-2.35838">
        <ele>4.8000001907349</ele>
        <time>2021-09-30T07:52:25.000Z</time>
      </trkpt>
      <trkpt lat="47.3325" lon="-2.35842">
        <ele>5.1999998092651</ele>
        <time>2021-09-30T07:52:26.000Z</time>
      </trkpt>
      <trkpt lat="47.33254" lon="-2.35846">
        <ele>5.8000001907349</ele>
        <time>2021-09-30T07:52:27.000Z</time>
      </trkpt>
      <trkpt lat="47.33258" lon="-2.3585">
        <ele>6.1999998092651</ele>
        <time>2021-09-30T07:52:28.000Z</time>
      </trkpt>
      <trkpt lat="47.33262" lon="-2.35855">
        <ele>6.5999999046326</ele>
        <time>2021-09-30T07:52:29.000Z</time>
      </trkpt>
      <trkpt lat="47.33273" lon="-2.35867">
        <ele>7</ele>
        <time>2021-09-30T07:52:32.000Z</time>
      </trkpt>
      <trkpt lat="47.33277" lon="-2.35871">
        <ele>7.4000000953674</ele>
        <time>2021-09-30T07:52:33.000Z</time>
      </trkpt>
      <trkpt lat="47.33281" lon="-2.35876">
        <ele>7.8000001907349</ele>
        <time>2021-09-30T07:52:34.000Z</time>
      </trkpt>
      <trkpt lat="47.33285" lon="-2.35879">
        <ele>8.3999996185303</ele>
        <time>2021-09-30T07:52:35.000Z</time>
      </trkpt>
      <trkpt lat="47.33289" lon="-2.35882">
        <ele>8.8000001907349</ele>
        <time>2021-09-30T07:52:36.000Z</time>
      </trkpt>
      <trkpt lat="47.33301" lon="-2.3589">
        <ele>8.8000001907349</ele>
        <time>2021-09-30T07:52:39.000Z</time>
      </trkpt>
      <trkpt lat="47.33305" lon="-2.35894">
        <ele>8.8000001907349</ele>
        <time>2021-09-30T07:52:40.000Z</time>
      </trkpt>
      <trkpt lat="47.3331" lon="-2.35903">
        <ele>9.1999998092651</ele>
        <time>2021-09-30T07:52:42.000Z</time>
      </trkpt>
      <trkpt lat="47.33312" lon="-2.35908">
        <ele>9.6000003814697</ele>
        <time>2021-09-30T07:52:43.000Z</time>
      </trkpt>
      <trkpt lat="47.33314" lon="-2.35913">
        <ele>10</ele>
        <time>2021-09-30T07:52:44.000Z</time>
      </trkpt>
      <trkpt lat="47.33317" lon="-2.35918">
        <ele>10.800000190735</ele>
        <time>2021-09-30T07:52:45.000Z</time>
      </trkpt>
      <trkpt lat="47.33323" lon="-2.35941">
        <ele>10.800000190735</ele>
        <time>2021-09-30T07:52:49.000Z</time>
      </trkpt>
      <trkpt lat="47.33323" lon="-2.35967">
        <ele>10.800000190735</ele>
        <time>2021-09-30T07:52:53.000Z</time>
      </trkpt>
      <trkpt lat="47.33319" lon="-2.35987">
        <ele>10.800000190735</ele>
        <time>2021-09-30T07:52:56.000Z</time>
      </trkpt>
      <trkpt lat="47.33315" lon="-2.36009">
        <ele>10.800000190735</ele>
        <time>2021-09-30T07:52:59.000Z</time>
      </trkpt>
      <trkpt lat="47.3331" lon="-2.3606">
        <ele>10.800000190735</ele>
        <time>2021-09-30T07:53:06.000Z</time>
      </trkpt>
      <trkpt lat="47.33309" lon="-2.36104">
        <ele>10.800000190735</ele>
        <time>2021-09-30T07:53:12.000Z</time>
      </trkpt>
      <trkpt lat="47.3331" lon="-2.36179">
        <ele>10.800000190735</ele>
        <time>2021-09-30T07:53:21.000Z</time>
      </trkpt>
      <trkpt lat="47.3331" lon="-2.36209">
        <ele>10.800000190735</ele>
        <time>2021-09-30T07:53:25.000Z</time>
      </trkpt>
      <trkpt lat="47.33316" lon="-2.36217">
        <ele>10.800000190735</ele>
        <time>2021-09-30T07:53:27.000Z</time>
      </trkpt>
      <trkpt lat="47.33327" lon="-2.36212">
        <ele>10.800000190735</ele>
        <time>2021-09-30T07:53:30.000Z</time>
      </trkpt>
      <trkpt lat="47.33357" lon="-2.3619">
        <ele>10.800000190735</ele>
        <time>2021-09-30T07:53:37.000Z</time>
      </trkpt>
      <trkpt lat="47.33393" lon="-2.36167">
        <ele>10.800000190735</ele>
        <time>2021-09-30T07:53:45.000Z</time>
      </trkpt>
      <trkpt lat="47.33406" lon="-2.36163">
        <ele>10.800000190735</ele>
        <time>2021-09-30T07:53:48.000Z</time>
      </trkpt>
      <trkpt lat="47.3341" lon="-2.36166">
        <ele>10.800000190735</ele>
        <time>2021-09-30T07:53:49.000Z</time>
      </trkpt>
      <trkpt lat="47.33415" lon="-2.36186">
        <ele>10.800000190735</ele>
        <time>2021-09-30T07:53:52.000Z</time>
      </trkpt>
      <trkpt lat="47.33413" lon="-2.36228">
        <ele>10.800000190735</ele>
        <time>2021-09-30T07:53:57.000Z</time>
      </trkpt>
      <trkpt lat="47.33412" lon="-2.36237">
        <ele>10.800000190735</ele>
        <time>2021-09-30T07:53:58.000Z</time>
      </trkpt>
      <trkpt lat="47.33411" lon="-2.36274">
        <ele>10.800000190735</ele>
        <time>2021-09-30T07:54:02.000Z</time>
      </trkpt>
      <trkpt lat="47.33414" lon="-2.36292">
        <ele>10.800000190735</ele>
        <time>2021-09-30T07:54:04.000Z</time>
      </trkpt>
      <trkpt lat="47.3342" lon="-2.36318">
        <ele>10.800000190735</ele>
        <time>2021-09-30T07:54:07.000Z</time>
      </trkpt>
      <trkpt lat="47.33431" lon="-2.3635">
        <ele>10.39999961853</ele>
        <time>2021-09-30T07:54:11.000Z</time>
      </trkpt>
      <trkpt lat="47.33434" lon="-2.36358">
        <ele>10</ele>
        <time>2021-09-30T07:54:12.000Z</time>
      </trkpt>
      <trkpt lat="47.33437" lon="-2.36366">
        <ele>9.6000003814697</ele>
        <time>2021-09-30T07:54:13.000Z</time>
      </trkpt>
      <trkpt lat="47.33439" lon="-2.36374">
        <ele>9.1999998092651</ele>
        <time>2021-09-30T07:54:14.000Z</time>
      </trkpt>
      <trkpt lat="47.33441" lon="-2.36381">
        <ele>8.8000001907349</ele>
        <time>2021-09-30T07:54:15.000Z</time>
      </trkpt>
      <trkpt lat="47.33446" lon="-2.36395">
        <ele>8.8000001907349</ele>
        <time>2021-09-30T07:54:17.000Z</time>
      </trkpt>
      <trkpt lat="47.33449" lon="-2.36407">
        <ele>8.8000001907349</ele>
        <time>2021-09-30T07:54:19.000Z</time>
      </trkpt>
      <trkpt lat="47.33454" lon="-2.36416">
        <ele>8.1999998092651</ele>
        <time>2021-09-30T07:54:21.000Z</time>
      </trkpt>
      <trkpt lat="47.3346" lon="-2.36419">
        <ele>7.8000001907349</ele>
        <time>2021-09-30T07:54:22.000Z</time>
      </trkpt>
      <trkpt lat="47.33465" lon="-2.3642">
        <ele>7.4000000953674</ele>
        <time>2021-09-30T07:54:23.000Z</time>
      </trkpt>
      <trkpt lat="47.33469" lon="-2.36422">
        <ele>6.4000000953674</ele>
        <time>2021-09-30T07:54:24.000Z</time>
      </trkpt>
      <trkpt lat="47.33473" lon="-2.36425">
        <ele>6.4000000953674</ele>
        <time>2021-09-30T07:54:25.000Z</time>
      </trkpt>
      <trkpt lat="47.33474" lon="-2.36433">
        <ele>6.4000000953674</ele>
        <time>2021-09-30T07:54:27.000Z</time>
      </trkpt>
      <trkpt lat="47.33474" lon="-2.36446">
        <ele>6.4000000953674</ele>
        <time>2021-09-30T07:54:29.000Z</time>
      </trkpt>
      <trkpt lat="47.33473" lon="-2.3647">
        <ele>6.4000000953674</ele>
        <time>2021-09-30T07:54:32.000Z</time>
      </trkpt>
      <trkpt lat="47.33472" lon="-2.36522">
        <ele>6.4000000953674</ele>
        <time>2021-09-30T07:54:38.000Z</time>
      </trkpt>
      <trkpt lat="47.33471" lon="-2.36548">
        <ele>6</ele>
        <time>2021-09-30T07:54:41.000Z</time>
      </trkpt>
      <trkpt lat="47.33471" lon="-2.36556">
        <ele>5.5999999046326</ele>
        <time>2021-09-30T07:54:42.000Z</time>
      </trkpt>
      <trkpt lat="47.3347" lon="-2.36565">
        <ele>5.1999998092651</ele>
        <time>2021-09-30T07:54:43.000Z</time>
      </trkpt>
      <trkpt lat="47.3347" lon="-2.36573">
        <ele>4.8000001907349</ele>
        <time>2021-09-30T07:54:44.000Z</time>
      </trkpt>
      <trkpt lat="47.3347" lon="-2.3658">
        <ele>4.4000000953674</ele>
        <time>2021-09-30T07:54:45.000Z</time>
      </trkpt>
      <trkpt lat="47.33471" lon="-2.36586">
        <ele>4.4000000953674</ele>
        <time>2021-09-30T07:54:46.000Z</time>
      </trkpt>
      <trkpt lat="47.33477" lon="-2.36591">
        <ele>4.4000000953674</ele>
        <time>2021-09-30T07:54:48.000Z</time>
      </trkpt>
      <trkpt lat="47.33486" lon="-2.36592">
        <ele>4.4000000953674</ele>
        <time>2021-09-30T07:54:50.000Z</time>
      </trkpt>
      <trkpt lat="47.33499" lon="-2.36596">
        <ele>4.4000000953674</ele>
        <time>2021-09-30T07:54:53.000Z</time>
      </trkpt>
      <trkpt lat="47.33525" lon="-2.36613">
        <ele>4.4000000953674</ele>
        <time>2021-09-30T07:54:59.000Z</time>
      </trkpt>
      <trkpt lat="47.33529" lon="-2.36616">
        <ele>4</ele>
        <time>2021-09-30T07:55:00.000Z</time>
      </trkpt>
      <trkpt lat="47.33531" lon="-2.3662">
        <ele>3.5999999046326</ele>
        <time>2021-09-30T07:55:01.000Z</time>
      </trkpt>
      <trkpt lat="47.33534" lon="-2.36623">
        <ele>3</ele>
        <time>2021-09-30T07:55:02.000Z</time>
      </trkpt>
      <trkpt lat="47.33537" lon="-2.36627">
        <ele>2.5999999046326</ele>
        <time>2021-09-30T07:55:03.000Z</time>
      </trkpt>
      <trkpt lat="47.3354" lon="-2.3663">
        <ele>2</ele>
        <time>2021-09-30T07:55:04.000Z</time>
      </trkpt>
      <trkpt lat="47.33541" lon="-2.36633">
        <ele>1.3999999761581</ele>
        <time>2021-09-30T07:55:05.000Z</time>
      </trkpt>
      <trkpt lat="47.33541" lon="-2.36638">
        <ele>0.80000001192093</ele>
        <time>2021-09-30T07:55:06.000Z</time>
      </trkpt>
      <trkpt lat="47.33538" lon="-2.36644">
        <ele>0.20000000298023</ele>
        <time>2021-09-30T07:55:07.000Z</time>
      </trkpt>
      <trkpt lat="47.33535" lon="-2.36649">
        <ele>-0.60000002384186</ele>
        <time>2021-09-30T07:55:08.000Z</time>
      </trkpt>
      <trkpt lat="47.33531" lon="-2.36654">
        <ele>-1.3999999761581</ele>
        <time>2021-09-30T07:55:09.000Z</time>
      </trkpt>
      <trkpt lat="47.33527" lon="-2.36658">
        <ele>-2</ele>
        <time>2021-09-30T07:55:10.000Z</time>
      </trkpt>
      <trkpt lat="47.33523" lon="-2.36662">
        <ele>-2.7999999523163</ele>
        <time>2021-09-30T07:55:11.000Z</time>
      </trkpt>
      <trkpt lat="47.33508" lon="-2.36686">
        <ele>-2.7999999523163</ele>
        <time>2021-09-30T07:55:15.000Z</time>
      </trkpt>
      <trkpt lat="47.33505" lon="-2.36692">
        <ele>-2.7999999523163</ele>
        <time>2021-09-30T07:55:16.000Z</time>
      </trkpt>
      <trkpt lat="47.3349" lon="-2.3672">
        <ele>-2.7999999523163</ele>
        <time>2021-09-30T07:55:21.000Z</time>
      </trkpt>
      <trkpt lat="47.33488" lon="-2.36726">
        <ele>-2.7999999523163</ele>
        <time>2021-09-30T07:55:22.000Z</time>
      </trkpt>
      <trkpt lat="47.33476" lon="-2.36757">
        <ele>-2.7999999523163</ele>
        <time>2021-09-30T07:55:27.000Z</time>
      </trkpt>
      <trkpt lat="47.33474" lon="-2.36764">
        <ele>-2.7999999523163</ele>
        <time>2021-09-30T07:55:28.000Z</time>
      </trkpt>
      <trkpt lat="47.33472" lon="-2.36771">
        <ele>-2.7999999523163</ele>
        <time>2021-09-30T07:55:29.000Z</time>
      </trkpt>
      <trkpt lat="47.33469" lon="-2.36797">
        <ele>-2.7999999523163</ele>
        <time>2021-09-30T07:55:32.000Z</time>
      </trkpt>
      <trkpt lat="47.33465" lon="-2.36828">
        <ele>-2.7999999523163</ele>
        <time>2021-09-30T07:55:36.000Z</time>
      </trkpt>
      <trkpt lat="47.33463" lon="-2.36836">
        <ele>-2.7999999523163</ele>
        <time>2021-09-30T07:55:37.000Z</time>
      </trkpt>
      <trkpt lat="47.33455" lon="-2.36847">
        <ele>-2.7999999523163</ele>
        <time>2021-09-30T07:55:40.000Z</time>
      </trkpt>
      <trkpt lat="47.3345" lon="-2.36857">
        <ele>-2.7999999523163</ele>
        <time>2021-09-30T07:55:42.000Z</time>
      </trkpt>
      <trkpt lat="47.33449" lon="-2.3686">
        <ele>-2.7999999523163</ele>
        <time>2021-09-30T07:55:43.000Z</time>
      </trkpt>
      <trkpt lat="47.33446" lon="-2.36866">
        <ele>-2.7999999523163</ele>
        <time>2021-09-30T07:55:45.000Z</time>
      </trkpt>
      <trkpt lat="47.33446" lon="-2.36869">
        <ele>-2.4000000953674</ele>
        <time>2021-09-30T07:55:46.000Z</time>
      </trkpt>
      <trkpt lat="47.33446" lon="-2.36873">
        <ele>-1.7999999523163</ele>
        <time>2021-09-30T07:55:47.000Z</time>
      </trkpt>
      <trkpt lat="47.33446" lon="-2.36877">
        <ele>-1.3999999761581</ele>
        <time>2021-09-30T07:55:48.000Z</time>
      </trkpt>
      <trkpt lat="47.33445" lon="-2.36882">
        <ele>-1</ele>
        <time>2021-09-30T07:55:49.000Z</time>
      </trkpt>
      <trkpt lat="47.33446" lon="-2.36886">
        <ele>-0.40000000596046</ele>
        <time>2021-09-30T07:55:50.000Z</time>
      </trkpt>
      <trkpt lat="47.33446" lon="-2.36891">
        <ele>-0.40000000596046</ele>
        <time>2021-09-30T07:55:51.000Z</time>
      </trkpt>
      <trkpt lat="47.33447" lon="-2.36896">
        <ele>-0.40000000596046</ele>
        <time>2021-09-30T07:55:52.000Z</time>
      </trkpt>
      <trkpt lat="47.33448" lon="-2.36929">
        <ele>-0.40000000596046</ele>
        <time>2021-09-30T07:55:58.000Z</time>
      </trkpt>
      <trkpt lat="47.3345" lon="-2.36963">
        <ele>-0.40000000596046</ele>
        <time>2021-09-30T07:56:03.000Z</time>
      </trkpt>
      <trkpt lat="47.33452" lon="-2.36971">
        <ele>-0.40000000596046</ele>
        <time>2021-09-30T07:56:04.000Z</time>
      </trkpt>
      <trkpt lat="47.33463" lon="-2.36989">
        <ele>-0.40000000596046</ele>
        <time>2021-09-30T07:56:08.000Z</time>
      </trkpt>
      <trkpt lat="47.33466" lon="-2.36995">
        <ele>-0.40000000596046</ele>
        <time>2021-09-30T07:56:10.000Z</time>
      </trkpt>
      <trkpt lat="47.33467" lon="-2.37002">
        <ele>-0.40000000596046</ele>
        <time>2021-09-30T07:56:12.000Z</time>
      </trkpt>
      <trkpt lat="47.33466" lon="-2.37018">
        <ele>-0.40000000596046</ele>
        <time>2021-09-30T07:56:18.000Z</time>
      </trkpt>
      <trkpt lat="47.33467" lon="-2.37022">
        <ele>-0.40000000596046</ele>
        <time>2021-09-30T07:56:20.000Z</time>
      </trkpt>
      <trkpt lat="47.33467" lon="-2.37024">
        <ele>-0.40000000596046</ele>
        <time>2021-09-30T07:56:22.000Z</time>
      </trkpt>
      <trkpt lat="47.33469" lon="-2.37031">
        <ele>-0.40000000596046</ele>
        <time>2021-09-30T07:57:07.000Z</time>
      </trkpt>
      <trkpt lat="47.33468" lon="-2.37035">
        <ele>-0.40000000596046</ele>
        <time>2021-09-30T07:57:08.000Z</time>
      </trkpt>
      <trkpt lat="47.33467" lon="-2.37051">
        <ele>-0.40000000596046</ele>
        <time>2021-09-30T07:57:12.000Z</time>
      </trkpt>
      <trkpt lat="47.3347" lon="-2.37083">
        <ele>-0.40000000596046</ele>
        <time>2021-09-30T07:57:19.000Z</time>
      </trkpt>
      <trkpt lat="47.33475" lon="-2.37113">
        <ele>-0.40000000596046</ele>
        <time>2021-09-30T07:57:26.000Z</time>
      </trkpt>
      <trkpt lat="47.33478" lon="-2.37129">
        <ele>23.9</ele>
        <time>2021-09-30T07:57:30.000Z</time>
      </trkpt>
      <trkpt lat="47.33479" lon="-2.37134">
        <ele>0.40000000596046</ele>
        <time>2021-09-30T07:57:31.000Z</time>
      </trkpt>
      <trkpt lat="47.33479" lon="-2.37138">
        <ele>0.80000001192093</ele>
        <time>2021-09-30T07:57:32.000Z</time>
      </trkpt>
      <trkpt lat="47.3348" lon="-2.37143">
        <ele>1.2000000476837</ele>
        <time>2021-09-30T07:57:33.000Z</time>
      </trkpt>
      <trkpt lat="47.3348" lon="-2.37147">
        <ele>1.6000000238419</ele>
        <time>2021-09-30T07:57:34.000Z</time>
      </trkpt>
      <trkpt lat="47.33482" lon="-2.37164">
        <ele>1.6000000238419</ele>
        <time>2021-09-30T07:57:38.000Z</time>
      </trkpt>
      <trkpt lat="47.33487" lon="-2.37193">
        <ele>1.6000000238419</ele>
        <time>2021-09-30T07:57:45.000Z</time>
      </trkpt>
      <trkpt lat="47.33495" lon="-2.37219">
        <ele>2</ele>
        <time>2021-09-30T07:57:50.000Z</time>
      </trkpt>
      <trkpt lat="47.33497" lon="-2.37223">
        <ele>2.4000000953674</ele>
        <time>2021-09-30T07:57:51.000Z</time>
      </trkpt>
      <trkpt lat="47.33499" lon="-2.37226">
        <ele>2.7999999523163</ele>
        <time>2021-09-30T07:57:52.000Z</time>
      </trkpt>
      <trkpt lat="47.33502" lon="-2.37227">
        <ele>3.2000000476837</ele>
        <time>2021-09-30T07:57:53.000Z</time>
      </trkpt>
      <trkpt lat="47.33506" lon="-2.37228">
        <ele>3.5999999046326</ele>
        <time>2021-09-30T07:57:54.000Z</time>
      </trkpt>
      <trkpt lat="47.33508" lon="-2.37229">
        <ele>3.5999999046326</ele>
        <time>2021-09-30T07:57:55.000Z</time>
      </trkpt>
      <trkpt lat="47.33531" lon="-2.37232">
        <ele>3.5999999046326</ele>
        <time>2021-09-30T07:58:03.000Z</time>
      </trkpt>
      <trkpt lat="47.33536" lon="-2.37233">
        <ele>4</ele>
        <time>2021-09-30T07:58:05.000Z</time>
      </trkpt>
      <trkpt lat="47.33539" lon="-2.37232">
        <ele>4.4000000953674</ele>
        <time>2021-09-30T07:58:06.000Z</time>
      </trkpt>
      <trkpt lat="47.33542" lon="-2.37232">
        <ele>5.1999998092651</ele>
        <time>2021-09-30T07:58:07.000Z</time>
      </trkpt>
      <trkpt lat="47.33545" lon="-2.37232">
        <ele>5.5999999046326</ele>
        <time>2021-09-30T07:58:08.000Z</time>
      </trkpt>
      <trkpt lat="47.3355" lon="-2.37231">
        <ele>5.5999999046326</ele>
        <time>2021-09-30T07:58:10.000Z</time>
      </trkpt>
      <trkpt lat="47.3357" lon="-2.37233">
        <ele>5.5999999046326</ele>
        <time>2021-09-30T07:58:17.000Z</time>
      </trkpt>
      <trkpt lat="47.33588" lon="-2.37233">
        <ele>5.5999999046326</ele>
        <time>2021-09-30T07:58:23.000Z</time>
      </trkpt>
      <trkpt lat="47.33596" lon="-2.37228">
        <ele>5.5999999046326</ele>
        <time>2021-09-30T07:58:26.000Z</time>
      </trkpt>
      <trkpt lat="47.33597" lon="-2.37224">
        <ele>5.5999999046326</ele>
        <time>2021-09-30T07:58:27.000Z</time>
      </trkpt>
      <trkpt lat="47.33597" lon="-2.37207">
        <ele>5.5999999046326</ele>
        <time>2021-09-30T07:58:30.000Z</time>
      </trkpt>
      <trkpt lat="47.33597" lon="-2.372">
        <ele>5.5999999046326</ele>
        <time>2021-09-30T07:58:31.000Z</time>
      </trkpt>
      <trkpt lat="47.336" lon="-2.3716">
        <ele>5.5999999046326</ele>
        <time>2021-09-30T07:58:37.000Z</time>
      </trkpt>
      <trkpt lat="47.33601" lon="-2.37138">
        <ele>5.5999999046326</ele>
        <time>2021-09-30T07:58:40.000Z</time>
      </trkpt>
      <trkpt lat="47.33601" lon="-2.37117">
        <ele>5.5999999046326</ele>
        <time>2021-09-30T07:58:43.000Z</time>
      </trkpt>
      <trkpt lat="47.33601" lon="-2.37068">
        <ele>5.5999999046326</ele>
        <time>2021-09-30T07:58:51.000Z</time>
      </trkpt>
      <trkpt lat="47.33601" lon="-2.37036">
        <ele>5.5999999046326</ele>
        <time>2021-09-30T07:58:58.000Z</time>
      </trkpt>
      <trkpt lat="47.336" lon="-2.37012">
        <ele>5.5999999046326</ele>
        <time>2021-09-30T07:59:04.000Z</time>
      </trkpt>
      <trkpt lat="47.336" lon="-2.36981">
        <ele>5.5999999046326</ele>
        <time>2021-09-30T07:59:10.000Z</time>
      </trkpt>
      <trkpt lat="47.33606" lon="-2.36951">
        <ele>5.5999999046326</ele>
        <time>2021-09-30T07:59:16.000Z</time>
      </trkpt>
      <trkpt lat="47.33617" lon="-2.36928">
        <ele>5.5999999046326</ele>
        <time>2021-09-30T07:59:22.000Z</time>
      </trkpt>
      <trkpt lat="47.33638" lon="-2.369">
        <ele>5.5999999046326</ele>
        <time>2021-09-30T07:59:29.000Z</time>
      </trkpt>
      <trkpt lat="47.33645" lon="-2.36893">
        <ele>5.5999999046326</ele>
        <time>2021-09-30T07:59:31.000Z</time>
      </trkpt>
      <trkpt lat="47.33657" lon="-2.36878">
        <ele>5.5999999046326</ele>
        <time>2021-09-30T07:59:35.000Z</time>
      </trkpt>
      <trkpt lat="47.33673" lon="-2.36859">
        <ele>5.5999999046326</ele>
        <time>2021-09-30T07:59:41.000Z</time>
      </trkpt>
      <trkpt lat="47.33687" lon="-2.36843">
        <ele>6</ele>
        <time>2021-09-30T07:59:46.000Z</time>
      </trkpt>
      <trkpt lat="47.33689" lon="-2.36841">
        <ele>6.4000000953674</ele>
        <time>2021-09-30T07:59:47.000Z</time>
      </trkpt>
      <trkpt lat="47.33692" lon="-2.36838">
        <ele>6.8000001907349</ele>
        <time>2021-09-30T07:59:48.000Z</time>
      </trkpt>
      <trkpt lat="47.33696" lon="-2.36835">
        <ele>7.4000000953674</ele>
        <time>2021-09-30T07:59:49.000Z</time>
      </trkpt>
      <trkpt lat="47.33699" lon="-2.36832">
        <ele>7.8000001907349</ele>
        <time>2021-09-30T07:59:50.000Z</time>
      </trkpt>
      <trkpt lat="47.33713" lon="-2.36821">
        <ele>7.8000001907349</ele>
        <time>2021-09-30T07:59:54.000Z</time>
      </trkpt>
      <trkpt lat="47.33725" lon="-2.36815">
        <ele>7.8000001907349</ele>
        <time>2021-09-30T07:59:57.000Z</time>
      </trkpt>
      <trkpt lat="47.33738" lon="-2.36806">
        <ele>7.8000001907349</ele>
        <time>2021-09-30T08:00:00.000Z</time>
      </trkpt>
      <trkpt lat="47.33747" lon="-2.36801">
        <ele>7.8000001907349</ele>
        <time>2021-09-30T08:00:02.000Z</time>
      </trkpt>
      <trkpt lat="47.33764" lon="-2.36796">
        <ele>7.8000001907349</ele>
        <time>2021-09-30T08:00:05.000Z</time>
      </trkpt>
      <trkpt lat="47.33808" lon="-2.36781">
        <ele>7.8000001907349</ele>
        <time>2021-09-30T08:00:12.000Z</time>
      </trkpt>
      <trkpt lat="47.3386" lon="-2.36769">
        <ele>7.8000001907349</ele>
        <time>2021-09-30T08:00:21.000Z</time>
      </trkpt>
      <trkpt lat="47.33893" lon="-2.36761">
        <ele>7.8000001907349</ele>
        <time>2021-09-30T08:00:27.000Z</time>
      </trkpt>
      <trkpt lat="47.33898" lon="-2.3676">
        <ele>7.8000001907349</ele>
        <time>2021-09-30T08:00:28.000Z</time>
      </trkpt>
      <trkpt lat="47.33905" lon="-2.36759">
        <ele>7.8000001907349</ele>
        <time>2021-09-30T08:00:31.000Z</time>
      </trkpt>
      <trkpt lat="47.33909" lon="-2.36756">
        <ele>7.8000001907349</ele>
        <time>2021-09-30T08:00:36.000Z</time>
      </trkpt>
      <trkpt lat="47.33911" lon="-2.36751">
        <ele>7.8000001907349</ele>
        <time>2021-09-30T08:00:56.000Z</time>
      </trkpt>
      <trkpt lat="47.33911" lon="-2.36744">
        <ele>7.8000001907349</ele>
        <time>2021-09-30T08:00:58.000Z</time>
      </trkpt>
      <trkpt lat="47.3391" lon="-2.36714">
        <ele>7.8000001907349</ele>
        <time>2021-09-30T08:01:03.000Z</time>
      </trkpt>
      <trkpt lat="47.33909" lon="-2.36662">
        <ele>7.8000001907349</ele>
        <time>2021-09-30T08:01:10.000Z</time>
      </trkpt>
      <trkpt lat="47.33906" lon="-2.36592">
        <ele>7.8000001907349</ele>
        <time>2021-09-30T08:01:19.000Z</time>
      </trkpt>
      <trkpt lat="47.33906" lon="-2.36567">
        <ele>7.4000000953674</ele>
        <time>2021-09-30T08:01:22.000Z</time>
      </trkpt>
      <trkpt lat="47.33906" lon="-2.36559">
        <ele>6.8000001907349</ele>
        <time>2021-09-30T08:01:23.000Z</time>
      </trkpt>
      <trkpt lat="47.33906" lon="-2.36551">
        <ele>6.4000000953674</ele>
        <time>2021-09-30T08:01:24.000Z</time>
      </trkpt>
      <trkpt lat="47.33905" lon="-2.36543">
        <ele>5.5999999046326</ele>
        <time>2021-09-30T08:01:25.000Z</time>
      </trkpt>
      <trkpt lat="47.33905" lon="-2.36526">
        <ele>5.5999999046326</ele>
        <time>2021-09-30T08:01:27.000Z</time>
      </trkpt>
      <trkpt lat="47.33903" lon="-2.3644">
        <ele>5.5999999046326</ele>
        <time>2021-09-30T08:01:37.000Z</time>
      </trkpt>
      <trkpt lat="47.33902" lon="-2.36414">
        <ele>5.1999998092651</ele>
        <time>2021-09-30T08:01:40.000Z</time>
      </trkpt>
      <trkpt lat="47.33901" lon="-2.36406">
        <ele>4.8000001907349</ele>
        <time>2021-09-30T08:01:41.000Z</time>
      </trkpt>
      <trkpt lat="47.33901" lon="-2.36397">
        <ele>4.4000000953674</ele>
        <time>2021-09-30T08:01:42.000Z</time>
      </trkpt>
      <trkpt lat="47.33901" lon="-2.36388">
        <ele>4</ele>
        <time>2021-09-30T08:01:43.000Z</time>
      </trkpt>
      <trkpt lat="47.339" lon="-2.36379">
        <ele>3.5999999046326</ele>
        <time>2021-09-30T08:01:44.000Z</time>
      </trkpt>
      <trkpt lat="47.339" lon="-2.36369">
        <ele>3.5999999046326</ele>
        <time>2021-09-30T08:01:45.000Z</time>
      </trkpt>
      <trkpt lat="47.33901" lon="-2.36329">
        <ele>3.5999999046326</ele>
        <time>2021-09-30T08:01:49.000Z</time>
      </trkpt>
      <trkpt lat="47.33903" lon="-2.36319">
        <ele>3.5999999046326</ele>
        <time>2021-09-30T08:01:50.000Z</time>
      </trkpt>
      <trkpt lat="47.33918" lon="-2.36295">
        <ele>3.5999999046326</ele>
        <time>2021-09-30T08:01:53.000Z</time>
      </trkpt>
      <trkpt lat="47.33931" lon="-2.36287">
        <ele>3.2000000476837</ele>
        <time>2021-09-30T08:01:55.000Z</time>
      </trkpt>
      <trkpt lat="47.33938" lon="-2.36284">
        <ele>2.7999999523163</ele>
        <time>2021-09-30T08:01:56.000Z</time>
      </trkpt>
      <trkpt lat="47.33945" lon="-2.36282">
        <ele>2.4000000953674</ele>
        <time>2021-09-30T08:01:57.000Z</time>
      </trkpt>
      <trkpt lat="47.33952" lon="-2.3628">
        <ele>2</ele>
        <time>2021-09-30T08:01:58.000Z</time>
      </trkpt>
      <trkpt lat="47.33959" lon="-2.36277">
        <ele>1.6000000238419</ele>
        <time>2021-09-30T08:01:59.000Z</time>
      </trkpt>
      <trkpt lat="47.33987" lon="-2.36269">
        <ele>1.6000000238419</ele>
        <time>2021-09-30T08:02:03.000Z</time>
      </trkpt>
      <trkpt lat="47.34034" lon="-2.36255">
        <ele>1.6000000238419</ele>
        <time>2021-09-30T08:02:10.000Z</time>
      </trkpt>
      <trkpt lat="47.34087" lon="-2.36237">
        <ele>1.6000000238419</ele>
        <time>2021-09-30T08:02:18.000Z</time>
      </trkpt>
      <trkpt lat="47.34093" lon="-2.36234">
        <ele>1.6000000238419</ele>
        <time>2021-09-30T08:02:19.000Z</time>
      </trkpt>
      <trkpt lat="47.34107" lon="-2.36225">
        <ele>1.2000000476837</ele>
        <time>2021-09-30T08:02:21.000Z</time>
      </trkpt>
      <trkpt lat="47.34113" lon="-2.3622">
        <ele>0.80000001192093</ele>
        <time>2021-09-30T08:02:22.000Z</time>
      </trkpt>
      <trkpt lat="47.34119" lon="-2.36215">
        <ele>0.40000000596046</ele>
        <time>2021-09-30T08:02:23.000Z</time>
      </trkpt>
      <trkpt lat="47.34124" lon="-2.36208">
        <ele>21</ele>
        <time>2021-09-30T08:02:24.000Z</time>
      </trkpt>
      <trkpt lat="47.34129" lon="-2.36202">
        <ele>-0.40000000596046</ele>
        <time>2021-09-30T08:02:25.000Z</time>
      </trkpt>
      <trkpt lat="47.34156" lon="-2.36165">
        <ele>-0.40000000596046</ele>
        <time>2021-09-30T08:02:31.000Z</time>
      </trkpt>
      <trkpt lat="47.34187" lon="-2.36125">
        <ele>-1</ele>
        <time>2021-09-30T08:02:37.000Z</time>
      </trkpt>
      <trkpt lat="47.34193" lon="-2.36117">
        <ele>-1.3999999761581</ele>
        <time>2021-09-30T08:02:38.000Z</time>
      </trkpt>
      <trkpt lat="47.34199" lon="-2.3611">
        <ele>-2.2000000476837</ele>
        <time>2021-09-30T08:02:39.000Z</time>
      </trkpt>
      <trkpt lat="47.34205" lon="-2.36102">
        <ele>-2.5999999046326</ele>
        <time>2021-09-30T08:02:40.000Z</time>
      </trkpt>
      <trkpt lat="47.34216" lon="-2.36085">
        <ele>-3</ele>
        <time>2021-09-30T08:02:42.000Z</time>
      </trkpt>
      <trkpt lat="47.3422" lon="-2.36076">
        <ele>-3.4000000953674</ele>
        <time>2021-09-30T08:02:43.000Z</time>
      </trkpt>
      <trkpt lat="47.34224" lon="-2.36066">
        <ele>-3.7999999523163</ele>
        <time>2021-09-30T08:02:44.000Z</time>
      </trkpt>
      <trkpt lat="47.34226" lon="-2.36055">
        <ele>-4.1999998092651</ele>
        <time>2021-09-30T08:02:45.000Z</time>
      </trkpt>
      <trkpt lat="47.34228" lon="-2.36042">
        <ele>-4.5999999046326</ele>
        <time>2021-09-30T08:02:46.000Z</time>
      </trkpt>
      <trkpt lat="47.34229" lon="-2.36031">
        <ele>-4.5999999046326</ele>
        <time>2021-09-30T08:02:47.000Z</time>
      </trkpt>
      <trkpt lat="47.3423" lon="-2.36018">
        <ele>-5.1999998092651</ele>
        <time>2021-09-30T08:02:48.000Z</time>
      </trkpt>
      <trkpt lat="47.34232" lon="-2.36007">
        <ele>-5.5999999046326</ele>
        <time>2021-09-30T08:02:49.000Z</time>
      </trkpt>
      <trkpt lat="47.34233" lon="-2.35996">
        <ele>-6</ele>
        <time>2021-09-30T08:02:50.000Z</time>
      </trkpt>
      <trkpt lat="47.34235" lon="-2.35985">
        <ele>-6.4000000953674</ele>
        <time>2021-09-30T08:02:51.000Z</time>
      </trkpt>
      <trkpt lat="47.34236" lon="-2.35975">
        <ele>-6.8000001907349</ele>
        <time>2021-09-30T08:02:52.000Z</time>
      </trkpt>
      <trkpt lat="47.34237" lon="-2.35965">
        <ele>-6.8000001907349</ele>
        <time>2021-09-30T08:02:53.000Z</time>
      </trkpt>
      <trkpt lat="47.34241" lon="-2.35949">
        <ele>-6.8000001907349</ele>
        <time>2021-09-30T08:02:55.000Z</time>
      </trkpt>
      <trkpt lat="47.34244" lon="-2.35945">
        <ele>-6.8000001907349</ele>
        <time>2021-09-30T08:02:56.000Z</time>
      </trkpt>
      <trkpt lat="47.34255" lon="-2.3594">
        <ele>-6.8000001907349</ele>
        <time>2021-09-30T08:02:59.000Z</time>
      </trkpt>
      <trkpt lat="47.34278" lon="-2.35943">
        <ele>-6.8000001907349</ele>
        <time>2021-09-30T08:03:03.000Z</time>
      </trkpt>
      <trkpt lat="47.34298" lon="-2.35948">
        <ele>-6.8000001907349</ele>
        <time>2021-09-30T08:03:07.000Z</time>
      </trkpt>
      <trkpt lat="47.34303" lon="-2.35949">
        <ele>-6.4000000953674</ele>
        <time>2021-09-30T08:03:08.000Z</time>
      </trkpt>
      <trkpt lat="47.34308" lon="-2.35951">
        <ele>-6</ele>
        <time>2021-09-30T08:03:09.000Z</time>
      </trkpt>
      <trkpt lat="47.34313" lon="-2.35952">
        <ele>-5.5999999046326</ele>
        <time>2021-09-30T08:03:10.000Z</time>
      </trkpt>
      <trkpt lat="47.34318" lon="-2.35954">
        <ele>-5.1999998092651</ele>
        <time>2021-09-30T08:03:11.000Z</time>
      </trkpt>
      <trkpt lat="47.34323" lon="-2.35957">
        <ele>-4.8000001907349</ele>
        <time>2021-09-30T08:03:12.000Z</time>
      </trkpt>
      <trkpt lat="47.34345" lon="-2.35969">
        <ele>-4.8000001907349</ele>
        <time>2021-09-30T08:03:16.000Z</time>
      </trkpt>
      <trkpt lat="47.3435" lon="-2.35971">
        <ele>-4.4000000953674</ele>
        <time>2021-09-30T08:03:17.000Z</time>
      </trkpt>
      <trkpt lat="47.34356" lon="-2.35973">
        <ele>-4</ele>
        <time>2021-09-30T08:03:18.000Z</time>
      </trkpt>
      <trkpt lat="47.34361" lon="-2.35976">
        <ele>-3.4000000953674</ele>
        <time>2021-09-30T08:03:19.000Z</time>
      </trkpt>
      <trkpt lat="47.34366" lon="-2.35978">
        <ele>-3</ele>
        <time>2021-09-30T08:03:20.000Z</time>
      </trkpt>
      <trkpt lat="47.34372" lon="-2.35981">
        <ele>-2.5999999046326</ele>
        <time>2021-09-30T08:03:21.000Z</time>
      </trkpt>
      <trkpt lat="47.34388" lon="-2.35988">
        <ele>-2.5999999046326</ele>
        <time>2021-09-30T08:03:24.000Z</time>
      </trkpt>
      <trkpt lat="47.34406" lon="-2.35994">
        <ele>-2.5999999046326</ele>
        <time>2021-09-30T08:03:27.000Z</time>
      </trkpt>
      <trkpt lat="47.34412" lon="-2.3599">
        <ele>-2.5999999046326</ele>
        <time>2021-09-30T08:03:28.000Z</time>
      </trkpt>
      <trkpt lat="47.34424" lon="-2.35983">
        <ele>-2.5999999046326</ele>
        <time>2021-09-30T08:03:30.000Z</time>
      </trkpt>
      <trkpt lat="47.34441" lon="-2.35969">
        <ele>-2.5999999046326</ele>
        <time>2021-09-30T08:03:33.000Z</time>
      </trkpt>
      <trkpt lat="47.34476" lon="-2.35942">
        <ele>-3.2000000476837</ele>
        <time>2021-09-30T08:03:39.000Z</time>
      </trkpt>
      <trkpt lat="47.34482" lon="-2.35939">
        <ele>-3.5999999046326</ele>
        <time>2021-09-30T08:03:40.000Z</time>
      </trkpt>
      <trkpt lat="47.34488" lon="-2.35936">
        <ele>-4</ele>
        <time>2021-09-30T08:03:41.000Z</time>
      </trkpt>
      <trkpt lat="47.34495" lon="-2.35933">
        <ele>-4.4000000953674</ele>
        <time>2021-09-30T08:03:42.000Z</time>
      </trkpt>
      <trkpt lat="47.34501" lon="-2.3593">
        <ele>-4.8000001907349</ele>
        <time>2021-09-30T08:03:43.000Z</time>
      </trkpt>
      <trkpt lat="47.34514" lon="-2.35925">
        <ele>-4.8000001907349</ele>
        <time>2021-09-30T08:03:45.000Z</time>
      </trkpt>
      <trkpt lat="47.3452" lon="-2.35923">
        <ele>-5.1999998092651</ele>
        <time>2021-09-30T08:03:46.000Z</time>
      </trkpt>
      <trkpt lat="47.34527" lon="-2.3592">
        <ele>-5.5999999046326</ele>
        <time>2021-09-30T08:03:47.000Z</time>
      </trkpt>
      <trkpt lat="47.34533" lon="-2.35918">
        <ele>-6.1999998092651</ele>
        <time>2021-09-30T08:03:48.000Z</time>
      </trkpt>
      <trkpt lat="47.3454" lon="-2.35916">
        <ele>-6.5999999046326</ele>
        <time>2021-09-30T08:03:49.000Z</time>
      </trkpt>
      <trkpt lat="47.34546" lon="-2.35913">
        <ele>-7</ele>
        <time>2021-09-30T08:03:50.000Z</time>
      </trkpt>
      <trkpt lat="47.34565" lon="-2.35903">
        <ele>-7</ele>
        <time>2021-09-30T08:03:53.000Z</time>
      </trkpt>
      <trkpt lat="47.34602" lon="-2.35876">
        <ele>-7.4000000953674</ele>
        <time>2021-09-30T08:03:59.000Z</time>
      </trkpt>
      <trkpt lat="47.34607" lon="-2.35871">
        <ele>-7.8000001907349</ele>
        <time>2021-09-30T08:04:00.000Z</time>
      </trkpt>
      <trkpt lat="47.34613" lon="-2.35866">
        <ele>-8.1999998092651</ele>
        <time>2021-09-30T08:04:01.000Z</time>
      </trkpt>
      <trkpt lat="47.34619" lon="-2.35861">
        <ele>-8.6000003814697</ele>
        <time>2021-09-30T08:04:02.000Z</time>
      </trkpt>
      <trkpt lat="47.34624" lon="-2.35857">
        <ele>-9</ele>
        <time>2021-09-30T08:04:03.000Z</time>
      </trkpt>
      <trkpt lat="47.34634" lon="-2.35849">
        <ele>-9</ele>
        <time>2021-09-30T08:04:05.000Z</time>
      </trkpt>
      <trkpt lat="47.34662" lon="-2.35829">
        <ele>-9</ele>
        <time>2021-09-30T08:04:11.000Z</time>
      </trkpt>
      <trkpt lat="47.347" lon="-2.35797">
        <ele>-9</ele>
        <time>2021-09-30T08:04:19.000Z</time>
      </trkpt>
      <trkpt lat="47.34727" lon="-2.35774">
        <ele>-9</ele>
        <time>2021-09-30T08:04:25.000Z</time>
      </trkpt>
      <trkpt lat="47.34745" lon="-2.35762">
        <ele>-9</ele>
        <time>2021-09-30T08:04:30.000Z</time>
      </trkpt>
      <trkpt lat="47.34773" lon="-2.35747">
        <ele>-9</ele>
        <time>2021-09-30T08:04:38.000Z</time>
      </trkpt>
      <trkpt lat="47.34794" lon="-2.35737">
        <ele>-9</ele>
        <time>2021-09-30T08:04:44.000Z</time>
      </trkpt>
      <trkpt lat="47.34815" lon="-2.35726">
        <ele>-9</ele>
        <time>2021-09-30T08:04:50.000Z</time>
      </trkpt>
      <trkpt lat="47.34831" lon="-2.35722">
        <ele>-9</ele>
        <time>2021-09-30T08:04:54.000Z</time>
      </trkpt>
      <trkpt lat="47.34843" lon="-2.35704">
        <ele>-9</ele>
        <time>2021-09-30T08:04:58.000Z</time>
      </trkpt>
      <trkpt lat="47.34845" lon="-2.35698">
        <ele>-9</ele>
        <time>2021-09-30T08:04:59.000Z</time>
      </trkpt>
      <trkpt lat="47.34853" lon="-2.35677">
        <ele>-9</ele>
        <time>2021-09-30T08:05:03.000Z</time>
      </trkpt>
      <trkpt lat="47.34855" lon="-2.3567">
        <ele>-9</ele>
        <time>2021-09-30T08:05:05.000Z</time>
      </trkpt>
      <trkpt lat="47.34852" lon="-2.35665">
        <ele>-9</ele>
        <time>2021-09-30T08:05:07.000Z</time>
      </trkpt>
      <trkpt lat="47.34836" lon="-2.35655">
        <ele>-9</ele>
        <time>2021-09-30T08:05:11.000Z</time>
      </trkpt>
      <trkpt lat="47.34831" lon="-2.35652">
        <ele>-9</ele>
        <time>2021-09-30T08:05:12.000Z</time>
      </trkpt>
      <trkpt lat="47.34807" lon="-2.35634">
        <ele>-9</ele>
        <time>2021-09-30T08:05:17.000Z</time>
      </trkpt>
      <trkpt lat="47.34786" lon="-2.35613">
        <ele>-9</ele>
        <time>2021-09-30T08:05:22.000Z</time>
      </trkpt>
      <trkpt lat="47.34779" lon="-2.35609">
        <ele>-9</ele>
        <time>2021-09-30T08:05:26.000Z</time>
      </trkpt>
      <trkpt lat="47.34777" lon="-2.3561">
        <ele>-9</ele>
        <time>2021-09-30T08:05:29.000Z</time>
      </trkpt>
      <trkpt lat="47.34775" lon="-2.35607">
        <ele>-9</ele>
        <time>2021-09-30T08:07:13.000Z</time>
      </trkpt>
      <trkpt lat="47.34772" lon="-2.35595">
        <ele>-9</ele>
        <time>2021-09-30T08:07:17.000Z</time>
      </trkpt>
      <trkpt lat="47.34763" lon="-2.35584">
        <ele>-9</ele>
        <time>2021-09-30T08:07:20.000Z</time>
      </trkpt>
      <trkpt lat="47.3476" lon="-2.3558">
        <ele>-9</ele>
        <time>2021-09-30T08:07:21.000Z</time>
      </trkpt>
      <trkpt lat="47.34737" lon="-2.35548">
        <ele>-9</ele>
        <time>2021-09-30T08:07:27.000Z</time>
      </trkpt>
      <trkpt lat="47.34707" lon="-2.355">
        <ele>-9</ele>
        <time>2021-09-30T08:07:35.000Z</time>
      </trkpt>
      <trkpt lat="47.3468" lon="-2.35455">
        <ele>-9.3999996185303</ele>
        <time>2021-09-30T08:07:43.000Z</time>
      </trkpt>
      <trkpt lat="47.34677" lon="-2.3545">
        <ele>-9.8000001907349</ele>
        <time>2021-09-30T08:07:44.000Z</time>
      </trkpt>
      <trkpt lat="47.34674" lon="-2.35444">
        <ele>-10.199999809265</ele>
        <time>2021-09-30T08:07:45.000Z</time>
      </trkpt>
      <trkpt lat="47.3467" lon="-2.35439">
        <ele>-10.60000038147</ele>
        <time>2021-09-30T08:07:46.000Z</time>
      </trkpt>
      <trkpt lat="47.34667" lon="-2.35434">
        <ele>-11.199999809265</ele>
        <time>2021-09-30T08:07:47.000Z</time>
      </trkpt>
      <trkpt lat="47.34655" lon="-2.35416">
        <ele>-11.199999809265</ele>
        <time>2021-09-30T08:07:51.000Z</time>
      </trkpt>
      <trkpt lat="47.3465" lon="-2.35405">
        <ele>-11.199999809265</ele>
        <time>2021-09-30T08:07:54.000Z</time>
      </trkpt>
      <trkpt lat="47.34652" lon="-2.35403">
        <ele>-11.199999809265</ele>
        <time>2021-09-30T08:07:55.000Z</time>
      </trkpt>
      <trkpt lat="47.34659" lon="-2.35404">
        <ele>-11.199999809265</ele>
        <time>2021-09-30T08:07:58.000Z</time>
      </trkpt>
      <trkpt lat="47.34667" lon="-2.35404">
        <ele>-11.199999809265</ele>
        <time>2021-09-30T08:08:01.000Z</time>
      </trkpt>
      <trkpt lat="47.3467" lon="-2.35403">
        <ele>-11.199999809265</ele>
        <time>2021-09-30T08:08:02.000Z</time>
      </trkpt>
      <trkpt lat="47.34673" lon="-2.35402">
        <ele>-11.199999809265</ele>
        <time>2021-09-30T08:08:03.000Z</time>
      </trkpt>
      <trkpt lat="47.34688" lon="-2.35402">
        <ele>-11.199999809265</ele>
        <time>2021-09-30T08:08:07.000Z</time>
      </trkpt>
      <trkpt lat="47.34693" lon="-2.35397">
        <ele>-11.199999809265</ele>
        <time>2021-09-30T08:08:09.000Z</time>
      </trkpt>
      <trkpt lat="47.34696" lon="-2.35395">
        <ele>-11.199999809265</ele>
        <time>2021-09-30T08:08:10.000Z</time>
      </trkpt>
      <trkpt lat="47.34709" lon="-2.35378">
        <ele>-11.199999809265</ele>
        <time>2021-09-30T08:08:16.000Z</time>
      </trkpt>
      <trkpt lat="47.34719" lon="-2.35359">
        <ele>-11.199999809265</ele>
        <time>2021-09-30T08:08:21.000Z</time>
      </trkpt>
      <trkpt lat="47.34722" lon="-2.3534">
        <ele>-11.199999809265</ele>
        <time>2021-09-30T08:08:26.000Z</time>
      </trkpt>
      <trkpt lat="47.34724" lon="-2.35317">
        <ele>-11.199999809265</ele>
        <time>2021-09-30T08:08:32.000Z</time>
      </trkpt>
      <trkpt lat="47.34737" lon="-2.35291">
        <ele>-11.199999809265</ele>
        <time>2021-09-30T08:08:37.000Z</time>
      </trkpt>
      <trkpt lat="47.3474" lon="-2.35273">
        <ele>-11.199999809265</ele>
        <time>2021-09-30T08:08:40.000Z</time>
      </trkpt>
      <trkpt lat="47.34751" lon="-2.35234">
        <ele>-11.199999809265</ele>
        <time>2021-09-30T08:08:45.000Z</time>
      </trkpt>
      <trkpt lat="47.34753" lon="-2.35227">
        <ele>-11.199999809265</ele>
        <time>2021-09-30T08:08:46.000Z</time>
      </trkpt>
      <trkpt lat="47.34754" lon="-2.35205">
        <ele>-11.199999809265</ele>
        <time>2021-09-30T08:08:49.000Z</time>
      </trkpt>
      <trkpt lat="47.34757" lon="-2.3519">
        <ele>-11.199999809265</ele>
        <time>2021-09-30T08:08:51.000Z</time>
      </trkpt>
      <trkpt lat="47.34759" lon="-2.35175">
        <ele>-11.199999809265</ele>
        <time>2021-09-30T08:08:53.000Z</time>
      </trkpt>
      <trkpt lat="47.34754" lon="-2.3515">
        <ele>-11.199999809265</ele>
        <time>2021-09-30T08:08:57.000Z</time>
      </trkpt>
      <trkpt lat="47.34752" lon="-2.35145">
        <ele>-11.199999809265</ele>
        <time>2021-09-30T08:08:58.000Z</time>
      </trkpt>
      <trkpt lat="47.34741" lon="-2.35132">
        <ele>-11.199999809265</ele>
        <time>2021-09-30T08:09:02.000Z</time>
      </trkpt>
      <trkpt lat="47.34732" lon="-2.35113">
        <ele>-11.199999809265</ele>
        <time>2021-09-30T08:09:06.000Z</time>
      </trkpt>
      <trkpt lat="47.3472" lon="-2.35089">
        <ele>-11.199999809265</ele>
        <time>2021-09-30T08:09:11.000Z</time>
      </trkpt>
      <trkpt lat="47.34701" lon="-2.35067">
        <ele>-11.199999809265</ele>
        <time>2021-09-30T08:09:17.000Z</time>
      </trkpt>
      <trkpt lat="47.34682" lon="-2.35046">
        <ele>-11.199999809265</ele>
        <time>2021-09-30T08:09:23.000Z</time>
      </trkpt>
      <trkpt lat="47.34657" lon="-2.3504">
        <ele>-11.199999809265</ele>
        <time>2021-09-30T08:09:28.000Z</time>
      </trkpt>
      <trkpt lat="47.34641" lon="-2.35028">
        <ele>-11.199999809265</ele>
        <time>2021-09-30T08:09:32.000Z</time>
      </trkpt>
      <trkpt lat="47.34625" lon="-2.35003">
        <ele>-11.199999809265</ele>
        <time>2021-09-30T08:09:37.000Z</time>
      </trkpt>
      <trkpt lat="47.34622" lon="-2.34995">
        <ele>-11.199999809265</ele>
        <time>2021-09-30T08:09:38.000Z</time>
      </trkpt>
      <trkpt lat="47.34619" lon="-2.3499">
        <ele>-11.199999809265</ele>
        <time>2021-09-30T08:09:39.000Z</time>
      </trkpt>
      <trkpt lat="47.34603" lon="-2.34964">
        <ele>-11.199999809265</ele>
        <time>2021-09-30T08:09:44.000Z</time>
      </trkpt>
      <trkpt lat="47.34586" lon="-2.34925">
        <ele>-11.199999809265</ele>
        <time>2021-09-30T08:09:51.000Z</time>
      </trkpt>
      <trkpt lat="47.34581" lon="-2.3491">
        <ele>-11.199999809265</ele>
        <time>2021-09-30T08:09:56.000Z</time>
      </trkpt>
      <trkpt lat="47.34585" lon="-2.34887">
        <ele>-11.199999809265</ele>
        <time>2021-09-30T08:10:00.000Z</time>
      </trkpt>
      <trkpt lat="47.3459" lon="-2.34866">
        <ele>-11.199999809265</ele>
        <time>2021-09-30T08:10:03.000Z</time>
      </trkpt>
      <trkpt lat="47.34599" lon="-2.34843">
        <ele>-11.199999809265</ele>
        <time>2021-09-30T08:10:06.000Z</time>
      </trkpt>
      <trkpt lat="47.34625" lon="-2.34783">
        <ele>-11.199999809265</ele>
        <time>2021-09-30T08:10:15.000Z</time>
      </trkpt>
      <trkpt lat="47.34631" lon="-2.34762">
        <ele>-11.199999809265</ele>
        <time>2021-09-30T08:10:18.000Z</time>
      </trkpt>
      <trkpt lat="47.34634" lon="-2.34746">
        <ele>-11.199999809265</ele>
        <time>2021-09-30T08:10:20.000Z</time>
      </trkpt>
      <trkpt lat="47.34635" lon="-2.3473">
        <ele>-11.199999809265</ele>
        <time>2021-09-30T08:10:22.000Z</time>
      </trkpt>
      <trkpt lat="47.34636" lon="-2.34716">
        <ele>-11.199999809265</ele>
        <time>2021-09-30T08:10:24.000Z</time>
      </trkpt>
      <trkpt lat="47.34636" lon="-2.34708">
        <ele>-11.199999809265</ele>
        <time>2021-09-30T08:10:25.000Z</time>
      </trkpt>
      <trkpt lat="47.34635" lon="-2.34701">
        <ele>-11.199999809265</ele>
        <time>2021-09-30T08:10:26.000Z</time>
      </trkpt>
      <trkpt lat="47.34632" lon="-2.34688">
        <ele>-11.199999809265</ele>
        <time>2021-09-30T08:10:28.000Z</time>
      </trkpt>
      <trkpt lat="47.3463" lon="-2.34674">
        <ele>-11.199999809265</ele>
        <time>2021-09-30T08:10:30.000Z</time>
      </trkpt>
      <trkpt lat="47.34621" lon="-2.34632">
        <ele>-11.199999809265</ele>
        <time>2021-09-30T08:10:37.000Z</time>
      </trkpt>
      <trkpt lat="47.3462" lon="-2.3462">
        <ele>-10.60000038147</ele>
        <time>2021-09-30T08:10:39.000Z</time>
      </trkpt>
      <trkpt lat="47.34619" lon="-2.34615">
        <ele>-10.199999809265</ele>
        <time>2021-09-30T08:10:40.000Z</time>
      </trkpt>
      <trkpt lat="47.34618" lon="-2.34609">
        <ele>-9.8000001907349</ele>
        <time>2021-09-30T08:10:41.000Z</time>
      </trkpt>
      <trkpt lat="47.34617" lon="-2.34602">
        <ele>-9.3999996185303</ele>
        <time>2021-09-30T08:10:42.000Z</time>
      </trkpt>
      <trkpt lat="47.34616" lon="-2.34595">
        <ele>-9</ele>
        <time>2021-09-30T08:10:43.000Z</time>
      </trkpt>
      <trkpt lat="47.34615" lon="-2.34589">
        <ele>-9</ele>
        <time>2021-09-30T08:10:44.000Z</time>
      </trkpt>
      <trkpt lat="47.34612" lon="-2.34569">
        <ele>-8.3999996185303</ele>
        <time>2021-09-30T08:10:47.000Z</time>
      </trkpt>
      <trkpt lat="47.34611" lon="-2.34563">
        <ele>-8</ele>
        <time>2021-09-30T08:10:48.000Z</time>
      </trkpt>
      <trkpt lat="47.34611" lon="-2.34557">
        <ele>-7.5999999046326</ele>
        <time>2021-09-30T08:10:49.000Z</time>
      </trkpt>
      <trkpt lat="47.3461" lon="-2.34552">
        <ele>-7.1999998092651</ele>
        <time>2021-09-30T08:10:50.000Z</time>
      </trkpt>
      <trkpt lat="47.3461" lon="-2.34546">
        <ele>-6.8000001907349</ele>
        <time>2021-09-30T08:10:51.000Z</time>
      </trkpt>
      <trkpt lat="47.34613" lon="-2.34529">
        <ele>-6.8000001907349</ele>
        <time>2021-09-30T08:10:55.000Z</time>
      </trkpt>
      <trkpt lat="47.34617" lon="-2.34528">
        <ele>-6.8000001907349</ele>
        <time>2021-09-30T08:10:56.000Z</time>
      </trkpt>
      <trkpt lat="47.34638" lon="-2.34523">
        <ele>-6.8000001907349</ele>
        <time>2021-09-30T08:11:02.000Z</time>
      </trkpt>
      <trkpt lat="47.34664" lon="-2.34513">
        <ele>-6.8000001907349</ele>
        <time>2021-09-30T08:11:09.000Z</time>
      </trkpt>
      <trkpt lat="47.34693" lon="-2.34504">
        <ele>-6.8000001907349</ele>
        <time>2021-09-30T08:11:16.000Z</time>
      </trkpt>
      <trkpt lat="47.34719" lon="-2.34492">
        <ele>-6.8000001907349</ele>
        <time>2021-09-30T08:11:22.000Z</time>
      </trkpt>
      <trkpt lat="47.34722" lon="-2.34489">
        <ele>-6.8000001907349</ele>
        <time>2021-09-30T08:11:23.000Z</time>
      </trkpt>
      <trkpt lat="47.34733" lon="-2.34487">
        <ele>-6.8000001907349</ele>
        <time>2021-09-30T08:11:26.000Z</time>
      </trkpt>
      <trkpt lat="47.34744" lon="-2.34482">
        <ele>-7.1999998092651</ele>
        <time>2021-09-30T08:11:29.000Z</time>
      </trkpt>
      <trkpt lat="47.34747" lon="-2.34478">
        <ele>-7.5999999046326</ele>
        <time>2021-09-30T08:11:30.000Z</time>
      </trkpt>
      <trkpt lat="47.3475" lon="-2.34474">
        <ele>-8</ele>
        <time>2021-09-30T08:11:31.000Z</time>
      </trkpt>
      <trkpt lat="47.34752" lon="-2.34469">
        <ele>-8.3999996185303</ele>
        <time>2021-09-30T08:11:32.000Z</time>
      </trkpt>
      <trkpt lat="47.34752" lon="-2.34464">
        <ele>-8.8000001907349</ele>
        <time>2021-09-30T08:11:33.000Z</time>
      </trkpt>
      <trkpt lat="47.34753" lon="-2.34455">
        <ele>-8.8000001907349</ele>
        <time>2021-09-30T08:11:35.000Z</time>
      </trkpt>
      <trkpt lat="47.34757" lon="-2.34442">
        <ele>-8.8000001907349</ele>
        <time>2021-09-30T08:11:38.000Z</time>
      </trkpt>
      <trkpt lat="47.34761" lon="-2.34433">
        <ele>-8.8000001907349</ele>
        <time>2021-09-30T08:11:40.000Z</time>
      </trkpt>
      <trkpt lat="47.34772" lon="-2.34411">
        <ele>-8.8000001907349</ele>
        <time>2021-09-30T08:11:46.000Z</time>
      </trkpt>
      <trkpt lat="47.34784" lon="-2.34385">
        <ele>-8.8000001907349</ele>
        <time>2021-09-30T08:11:53.000Z</time>
      </trkpt>
      <trkpt lat="47.34799" lon="-2.34383">
        <ele>-8.8000001907349</ele>
        <time>2021-09-30T08:11:57.000Z</time>
      </trkpt>
      <trkpt lat="47.34802" lon="-2.34383">
        <ele>-8.3999996185303</ele>
        <time>2021-09-30T08:11:58.000Z</time>
      </trkpt>
      <trkpt lat="47.34806" lon="-2.34384">
        <ele>-8</ele>
        <time>2021-09-30T08:11:59.000Z</time>
      </trkpt>
      <trkpt lat="47.3481" lon="-2.34383">
        <ele>-7.5999999046326</ele>
        <time>2021-09-30T08:12:00.000Z</time>
      </trkpt>
      <trkpt lat="47.34814" lon="-2.34383">
        <ele>-7.1999998092651</ele>
        <time>2021-09-30T08:12:01.000Z</time>
      </trkpt>
      <trkpt lat="47.34819" lon="-2.34382">
        <ele>-6.8000001907349</ele>
        <time>2021-09-30T08:12:02.000Z</time>
      </trkpt>
      <trkpt lat="47.34843" lon="-2.34378">
        <ele>-6.8000001907349</ele>
        <time>2021-09-30T08:12:08.000Z</time>
      </trkpt>
      <trkpt lat="47.34864" lon="-2.34374">
        <ele>-6.8000001907349</ele>
        <time>2021-09-30T08:12:14.000Z</time>
      </trkpt>
      <trkpt lat="47.34889" lon="-2.34378">
        <ele>-6.8000001907349</ele>
        <time>2021-09-30T08:12:20.000Z</time>
      </trkpt>
      <trkpt lat="47.34903" lon="-2.34378">
        <ele>-6.8000001907349</ele>
        <time>2021-09-30T08:12:23.000Z</time>
      </trkpt>
      <trkpt lat="47.34917" lon="-2.34373">
        <ele>-6.8000001907349</ele>
        <time>2021-09-30T08:12:26.000Z</time>
      </trkpt>
      <trkpt lat="47.34931" lon="-2.34371">
        <ele>-6.8000001907349</ele>
        <time>2021-09-30T08:12:29.000Z</time>
      </trkpt>
      <trkpt lat="47.34947" lon="-2.34374">
        <ele>-7.5999999046326</ele>
        <time>2021-09-30T08:12:32.000Z</time>
      </trkpt>
      <trkpt lat="47.34954" lon="-2.34373">
        <ele>-8</ele>
        <time>2021-09-30T08:12:33.000Z</time>
      </trkpt>
      <trkpt lat="47.34959" lon="-2.34373">
        <ele>-8.6000003814697</ele>
        <time>2021-09-30T08:12:34.000Z</time>
      </trkpt>
      <trkpt lat="47.34964" lon="-2.34373">
        <ele>-9</ele>
        <time>2021-09-30T08:12:35.000Z</time>
      </trkpt>
      <trkpt lat="47.34974" lon="-2.34373">
        <ele>-9</ele>
        <time>2021-09-30T08:12:37.000Z</time>
      </trkpt>
      <trkpt lat="47.35006" lon="-2.34366">
        <ele>-9</ele>
        <time>2021-09-30T08:12:43.000Z</time>
      </trkpt>
      <trkpt lat="47.35012" lon="-2.34363">
        <ele>-9.3999996185303</ele>
        <time>2021-09-30T08:12:45.000Z</time>
      </trkpt>
      <trkpt lat="47.35015" lon="-2.34361">
        <ele>-9.8000001907349</ele>
        <time>2021-09-30T08:12:46.000Z</time>
      </trkpt>
      <trkpt lat="47.35017" lon="-2.3436">
        <ele>-10.39999961853</ele>
        <time>2021-09-30T08:12:47.000Z</time>
      </trkpt>
      <trkpt lat="47.35018" lon="-2.34358">
        <ele>-10.800000190735</ele>
        <time>2021-09-30T08:12:48.000Z</time>
      </trkpt>
      <trkpt lat="47.35018" lon="-2.34355">
        <ele>-11.199999809265</ele>
        <time>2021-09-30T08:12:49.000Z</time>
      </trkpt>
      <trkpt lat="47.35018" lon="-2.34351">
        <ele>-11.199999809265</ele>
        <time>2021-09-30T08:12:51.000Z</time>
      </trkpt>
      <trkpt lat="47.35012" lon="-2.34335">
        <ele>-11.199999809265</ele>
        <time>2021-09-30T08:12:55.000Z</time>
      </trkpt>
      <trkpt lat="47.35002" lon="-2.34304">
        <ele>-10.800000190735</ele>
        <time>2021-09-30T08:13:02.000Z</time>
      </trkpt>
      <trkpt lat="47.35" lon="-2.34299">
        <ele>-10.39999961853</ele>
        <time>2021-09-30T08:13:03.000Z</time>
      </trkpt>
      <trkpt lat="47.34999" lon="-2.34295">
        <ele>-10</ele>
        <time>2021-09-30T08:13:04.000Z</time>
      </trkpt>
      <trkpt lat="47.34998" lon="-2.3429">
        <ele>-9.6000003814697</ele>
        <time>2021-09-30T08:13:05.000Z</time>
      </trkpt>
      <trkpt lat="47.34997" lon="-2.34285">
        <ele>-9.1999998092651</ele>
        <time>2021-09-30T08:13:06.000Z</time>
      </trkpt>
      <trkpt lat="47.34991" lon="-2.34265">
        <ele>-9.1999998092651</ele>
        <time>2021-09-30T08:13:10.000Z</time>
      </trkpt>
      <trkpt lat="47.34989" lon="-2.34261">
        <ele>-8.8000001907349</ele>
        <time>2021-09-30T08:13:11.000Z</time>
      </trkpt>
      <trkpt lat="47.34988" lon="-2.34255">
        <ele>-8.3999996185303</ele>
        <time>2021-09-30T08:13:12.000Z</time>
      </trkpt>
      <trkpt lat="47.34987" lon="-2.34249">
        <ele>-7.8000001907349</ele>
        <time>2021-09-30T08:13:13.000Z</time>
      </trkpt>
      <trkpt lat="47.34985" lon="-2.34244">
        <ele>-7.4000000953674</ele>
        <time>2021-09-30T08:13:14.000Z</time>
      </trkpt>
      <trkpt lat="47.34984" lon="-2.34239">
        <ele>-7</ele>
        <time>2021-09-30T08:13:15.000Z</time>
      </trkpt>
      <trkpt lat="47.34983" lon="-2.34234">
        <ele>-7</ele>
        <time>2021-09-30T08:13:16.000Z</time>
      </trkpt>
      <trkpt lat="47.34977" lon="-2.34213">
        <ele>-6.1999998092651</ele>
        <time>2021-09-30T08:13:21.000Z</time>
      </trkpt>
      <trkpt lat="47.34976" lon="-2.34211">
        <ele>-5.8000001907349</ele>
        <time>2021-09-30T08:13:22.000Z</time>
      </trkpt>
      <trkpt lat="47.34974" lon="-2.34209">
        <ele>-5.4000000953674</ele>
        <time>2021-09-30T08:13:23.000Z</time>
      </trkpt>
      <trkpt lat="47.34973" lon="-2.34207">
        <ele>-5</ele>
        <time>2021-09-30T08:13:24.000Z</time>
      </trkpt>
      <trkpt lat="47.34961" lon="-2.34199">
        <ele>-5</ele>
        <time>2021-09-30T08:13:29.000Z</time>
      </trkpt>
      <trkpt lat="47.34954" lon="-2.34199">
        <ele>-4.5999999046326</ele>
        <time>2021-09-30T08:13:32.000Z</time>
      </trkpt>
      <trkpt lat="47.34953" lon="-2.34199">
        <ele>-4.1999998092651</ele>
        <time>2021-09-30T08:13:33.000Z</time>
      </trkpt>
      <trkpt lat="47.34951" lon="-2.34199">
        <ele>-3.7999999523163</ele>
        <time>2021-09-30T08:13:34.000Z</time>
      </trkpt>
      <trkpt lat="47.34948" lon="-2.34199">
        <ele>-3.4000000953674</ele>
        <time>2021-09-30T08:13:35.000Z</time>
      </trkpt>
      <trkpt lat="47.34946" lon="-2.34199">
        <ele>-3</ele>
        <time>2021-09-30T08:13:36.000Z</time>
      </trkpt>
      <trkpt lat="47.34933" lon="-2.34206">
        <ele>-3</ele>
        <time>2021-09-30T08:13:41.000Z</time>
      </trkpt>
      <trkpt lat="47.34924" lon="-2.34211">
        <ele>-2.5999999046326</ele>
        <time>2021-09-30T08:13:45.000Z</time>
      </trkpt>
      <trkpt lat="47.34921" lon="-2.34211">
        <ele>-1.7999999523163</ele>
        <time>2021-09-30T08:13:46.000Z</time>
      </trkpt>
      <trkpt lat="47.34919" lon="-2.34211">
        <ele>-1.3999999761581</ele>
        <time>2021-09-30T08:13:47.000Z</time>
      </trkpt>
      <trkpt lat="47.34916" lon="-2.3421">
        <ele>-0.80000001192093</ele>
        <time>2021-09-30T08:13:48.000Z</time>
      </trkpt>
      <trkpt lat="47.34906" lon="-2.34209">
        <ele>-0.80000001192093</ele>
        <time>2021-09-30T08:13:52.000Z</time>
      </trkpt>
      <trkpt lat="47.34902" lon="-2.34207">
        <ele>-0.40000000596046</ele>
        <time>2021-09-30T08:13:54.000Z</time>
      </trkpt>
      <trkpt lat="47.349" lon="-2.34207">
        <ele>24.8</ele>
        <time>2021-09-30T08:13:55.000Z</time>
      </trkpt>
      <trkpt lat="47.34899" lon="-2.34205">
        <ele>0.40000000596046</ele>
        <time>2021-09-30T08:13:56.000Z</time>
      </trkpt>
      <trkpt lat="47.34897" lon="-2.34205">
        <ele>0.80000001192093</ele>
        <time>2021-09-30T08:13:57.000Z</time>
      </trkpt>
      <trkpt lat="47.34895" lon="-2.34205">
        <ele>1.2000000476837</ele>
        <time>2021-09-30T08:13:58.000Z</time>
      </trkpt>
      <trkpt lat="47.3489" lon="-2.34205">
        <ele>1.2000000476837</ele>
        <time>2021-09-30T08:14:03.000Z</time>
      </trkpt>
      <trkpt lat="47.3489" lon="-2.34205">
        <ele>1.2000000476837</ele>
        <time>2021-09-30T08:14:04.000Z</time>
      </trkpt>
      <trkpt lat="47.34885" lon="-2.34211">
        <ele>1.2000000476837</ele>
        <time>2021-09-30T08:14:32.000Z</time>
      </trkpt>
      <trkpt lat="47.34883" lon="-2.34212">
        <ele>1.2000000476837</ele>
        <time>2021-09-30T08:14:33.000Z</time>
      </trkpt>
      <trkpt lat="47.34878" lon="-2.34213">
        <ele>1.2000000476837</ele>
        <time>2021-09-30T08:14:35.000Z</time>
      </trkpt>
      <trkpt lat="47.34874" lon="-2.34219">
        <ele>1.2000000476837</ele>
        <time>2021-09-30T08:14:37.000Z</time>
      </trkpt>
      <trkpt lat="47.34868" lon="-2.34229">
        <ele>1.2000000476837</ele>
        <time>2021-09-30T08:14:42.000Z</time>
      </trkpt>
      <trkpt lat="47.34866" lon="-2.34237">
        <ele>0.80000001192093</ele>
        <time>2021-09-30T08:14:48.000Z</time>
      </trkpt>
      <trkpt lat="47.34867" lon="-2.34239">
        <ele>0.40000000596046</ele>
        <time>2021-09-30T08:14:49.000Z</time>
      </trkpt>
      <trkpt lat="47.34868" lon="-2.34239">
        <ele>22.4</ele>
        <time>2021-09-30T08:14:50.000Z</time>
      </trkpt>
      <trkpt lat="47.3487" lon="-2.3424">
        <ele>-0.40000000596046</ele>
        <time>2021-09-30T08:14:51.000Z</time>
      </trkpt>
      <trkpt lat="47.34872" lon="-2.34239">
        <ele>-0.80000001192093</ele>
        <time>2021-09-30T08:14:52.000Z</time>
      </trkpt>
      <trkpt lat="47.34875" lon="-2.34239">
        <ele>-0.80000001192093</ele>
        <time>2021-09-30T08:14:53.000Z</time>
      </trkpt>
      <trkpt lat="47.34889" lon="-2.34236">
        <ele>-0.80000001192093</ele>
        <time>2021-09-30T08:14:59.000Z</time>
      </trkpt>
      <trkpt lat="47.34909" lon="-2.34224">
        <ele>-0.80000001192093</ele>
        <time>2021-09-30T08:15:06.000Z</time>
      </trkpt>
      <trkpt lat="47.34937" lon="-2.34204">
        <ele>-0.80000001192093</ele>
        <time>2021-09-30T08:15:13.000Z</time>
      </trkpt>
      <trkpt lat="47.34957" lon="-2.34195">
        <ele>-0.80000001192093</ele>
        <time>2021-09-30T08:15:17.000Z</time>
      </trkpt>
      <trkpt lat="47.34961" lon="-2.34195">
        <ele>-0.80000001192093</ele>
        <time>2021-09-30T08:15:18.000Z</time>
      </trkpt>
      <trkpt lat="47.34968" lon="-2.34191">
        <ele>-0.80000001192093</ele>
        <time>2021-09-30T08:15:20.000Z</time>
      </trkpt>
      <trkpt lat="47.34976" lon="-2.34184">
        <ele>-0.80000001192093</ele>
        <time>2021-09-30T08:15:22.000Z</time>
      </trkpt>
      <trkpt lat="47.34979" lon="-2.34179">
        <ele>-1.3999999761581</ele>
        <time>2021-09-30T08:15:23.000Z</time>
      </trkpt>
      <trkpt lat="47.34982" lon="-2.34174">
        <ele>-2.2000000476837</ele>
        <time>2021-09-30T08:15:24.000Z</time>
      </trkpt>
      <trkpt lat="47.34984" lon="-2.34168">
        <ele>-2.5999999046326</ele>
        <time>2021-09-30T08:15:25.000Z</time>
      </trkpt>
      <trkpt lat="47.34987" lon="-2.34162">
        <ele>-3</ele>
        <time>2021-09-30T08:15:26.000Z</time>
      </trkpt>
      <trkpt lat="47.3499" lon="-2.34157">
        <ele>-3</ele>
        <time>2021-09-30T08:15:27.000Z</time>
      </trkpt>
      <trkpt lat="47.34993" lon="-2.34152">
        <ele>-3.4000000953674</ele>
        <time>2021-09-30T08:15:28.000Z</time>
      </trkpt>
      <trkpt lat="47.34997" lon="-2.34147">
        <ele>-3.7999999523163</ele>
        <time>2021-09-30T08:15:29.000Z</time>
      </trkpt>
      <trkpt lat="47.35001" lon="-2.34142">
        <ele>-4.1999998092651</ele>
        <time>2021-09-30T08:15:30.000Z</time>
      </trkpt>
      <trkpt lat="47.35005" lon="-2.34138">
        <ele>-4.5999999046326</ele>
        <time>2021-09-30T08:15:31.000Z</time>
      </trkpt>
      <trkpt lat="47.3501" lon="-2.34134">
        <ele>-5</ele>
        <time>2021-09-30T08:15:32.000Z</time>
      </trkpt>
      <trkpt lat="47.35018" lon="-2.34131">
        <ele>-5</ele>
        <time>2021-09-30T08:15:34.000Z</time>
      </trkpt>
      <trkpt lat="47.35022" lon="-2.34131">
        <ele>-5.5999999046326</ele>
        <time>2021-09-30T08:15:35.000Z</time>
      </trkpt>
      <trkpt lat="47.35026" lon="-2.34131">
        <ele>-6</ele>
        <time>2021-09-30T08:15:36.000Z</time>
      </trkpt>
      <trkpt lat="47.35029" lon="-2.34132">
        <ele>-6.4000000953674</ele>
        <time>2021-09-30T08:15:37.000Z</time>
      </trkpt>
      <trkpt lat="47.35033" lon="-2.34132">
        <ele>-7</ele>
        <time>2021-09-30T08:15:38.000Z</time>
      </trkpt>
      <trkpt lat="47.35036" lon="-2.34132">
        <ele>-7.4000000953674</ele>
        <time>2021-09-30T08:15:39.000Z</time>
      </trkpt>
      <trkpt lat="47.35064" lon="-2.34128">
        <ele>-7.4000000953674</ele>
        <time>2021-09-30T08:15:45.000Z</time>
      </trkpt>
      <trkpt lat="47.35104" lon="-2.34124">
        <ele>-7.4000000953674</ele>
        <time>2021-09-30T08:15:53.000Z</time>
      </trkpt>
      <trkpt lat="47.35109" lon="-2.34123">
        <ele>-7.4000000953674</ele>
        <time>2021-09-30T08:15:54.000Z</time>
      </trkpt>
      <trkpt lat="47.35126" lon="-2.34115">
        <ele>-7.4000000953674</ele>
        <time>2021-09-30T08:15:58.000Z</time>
      </trkpt>
      <trkpt lat="47.35138" lon="-2.34108">
        <ele>-7.4000000953674</ele>
        <time>2021-09-30T08:16:01.000Z</time>
      </trkpt>
      <trkpt lat="47.35152" lon="-2.34104">
        <ele>-7.4000000953674</ele>
        <time>2021-09-30T08:16:04.000Z</time>
      </trkpt>
      <trkpt lat="47.35161" lon="-2.34102">
        <ele>-7.4000000953674</ele>
        <time>2021-09-30T08:16:06.000Z</time>
      </trkpt>
      <trkpt lat="47.35169" lon="-2.34099">
        <ele>-7.4000000953674</ele>
        <time>2021-09-30T08:16:08.000Z</time>
      </trkpt>
      <trkpt lat="47.35173" lon="-2.34096">
        <ele>-7.4000000953674</ele>
        <time>2021-09-30T08:16:09.000Z</time>
      </trkpt>
      <trkpt lat="47.35182" lon="-2.3408">
        <ele>-7.4000000953674</ele>
        <time>2021-09-30T08:16:12.000Z</time>
      </trkpt>
      <trkpt lat="47.35184" lon="-2.34073">
        <ele>-7.8000001907349</ele>
        <time>2021-09-30T08:16:13.000Z</time>
      </trkpt>
      <trkpt lat="47.35186" lon="-2.34066">
        <ele>-8.8000001907349</ele>
        <time>2021-09-30T08:16:14.000Z</time>
      </trkpt>
      <trkpt lat="47.35188" lon="-2.34059">
        <ele>-9.1999998092651</ele>
        <time>2021-09-30T08:16:15.000Z</time>
      </trkpt>
      <trkpt lat="47.35191" lon="-2.34052">
        <ele>-9.8000001907349</ele>
        <time>2021-09-30T08:16:16.000Z</time>
      </trkpt>
      <trkpt lat="47.35193" lon="-2.34044">
        <ele>-10.199999809265</ele>
        <time>2021-09-30T08:16:17.000Z</time>
      </trkpt>
      <trkpt lat="47.35196" lon="-2.34036">
        <ele>-10.800000190735</ele>
        <time>2021-09-30T08:16:18.000Z</time>
      </trkpt>
      <trkpt lat="47.35199" lon="-2.34028">
        <ele>-11.199999809265</ele>
        <time>2021-09-30T08:16:19.000Z</time>
      </trkpt>
      <trkpt lat="47.35203" lon="-2.3402">
        <ele>-11.800000190735</ele>
        <time>2021-09-30T08:16:20.000Z</time>
      </trkpt>
      <trkpt lat="47.35207" lon="-2.34014">
        <ele>-12.199999809265</ele>
        <time>2021-09-30T08:16:21.000Z</time>
      </trkpt>
      <trkpt lat="47.35216" lon="-2.34004">
        <ele>-12.199999809265</ele>
        <time>2021-09-30T08:16:23.000Z</time>
      </trkpt>
      <trkpt lat="47.35222" lon="-2.34001">
        <ele>-12.60000038147</ele>
        <time>2021-09-30T08:16:24.000Z</time>
      </trkpt>
      <trkpt lat="47.35227" lon="-2.33998">
        <ele>-13</ele>
        <time>2021-09-30T08:16:25.000Z</time>
      </trkpt>
      <trkpt lat="47.35233" lon="-2.33996">
        <ele>-13.39999961853</ele>
        <time>2021-09-30T08:16:26.000Z</time>
      </trkpt>
      <trkpt lat="47.35239" lon="-2.33995">
        <ele>-13.800000190735</ele>
        <time>2021-09-30T08:16:27.000Z</time>
      </trkpt>
      <trkpt lat="47.35245" lon="-2.33993">
        <ele>-14.199999809265</ele>
        <time>2021-09-30T08:16:28.000Z</time>
      </trkpt>
      <trkpt lat="47.35256" lon="-2.33988">
        <ele>-14.800000190735</ele>
        <time>2021-09-30T08:16:31.000Z</time>
      </trkpt>
      <trkpt lat="47.35258" lon="-2.33986">
        <ele>-15.199999809265</ele>
        <time>2021-09-30T08:16:32.000Z</time>
      </trkpt>
      <trkpt lat="47.35259" lon="-2.33983">
        <ele>-15.800000190735</ele>
        <time>2021-09-30T08:16:33.000Z</time>
      </trkpt>
      <trkpt lat="47.3526" lon="-2.33981">
        <ele>-16.200000762939</ele>
        <time>2021-09-30T08:16:34.000Z</time>
      </trkpt>
      <trkpt lat="47.3526" lon="-2.33979">
        <ele>-16.799999237061</ele>
        <time>2021-09-30T08:16:35.000Z</time>
      </trkpt>
      <trkpt lat="47.35262" lon="-2.33971">
        <ele>-16.799999237061</ele>
        <time>2021-09-30T08:16:38.000Z</time>
      </trkpt>
      <trkpt lat="47.35267" lon="-2.33969">
        <ele>-16.799999237061</ele>
        <time>2021-09-30T08:16:40.000Z</time>
      </trkpt>
      <trkpt lat="47.35275" lon="-2.33969">
        <ele>-16.799999237061</ele>
        <time>2021-09-30T08:16:42.000Z</time>
      </trkpt>
      <trkpt lat="47.35285" lon="-2.33971">
        <ele>-16.799999237061</ele>
        <time>2021-09-30T08:16:44.000Z</time>
      </trkpt>
      <trkpt lat="47.35318" lon="-2.33976">
        <ele>-16.799999237061</ele>
        <time>2021-09-30T08:16:50.000Z</time>
      </trkpt>
      <trkpt lat="47.35334" lon="-2.33976">
        <ele>-16.799999237061</ele>
        <time>2021-09-30T08:16:53.000Z</time>
      </trkpt>
      <trkpt lat="47.35344" lon="-2.33977">
        <ele>-16.799999237061</ele>
        <time>2021-09-30T08:16:55.000Z</time>
      </trkpt>
      <trkpt lat="47.35372" lon="-2.33981">
        <ele>-16.799999237061</ele>
        <time>2021-09-30T08:17:00.000Z</time>
      </trkpt>
      <trkpt lat="47.35377" lon="-2.33981">
        <ele>-16.799999237061</ele>
        <time>2021-09-30T08:17:01.000Z</time>
      </trkpt>
      <trkpt lat="47.35417" lon="-2.33989">
        <ele>-16.799999237061</ele>
        <time>2021-09-30T08:17:09.000Z</time>
      </trkpt>
      <trkpt lat="47.35435" lon="-2.33998">
        <ele>-16.39999961853</ele>
        <time>2021-09-30T08:17:13.000Z</time>
      </trkpt>
      <trkpt lat="47.35438" lon="-2.34002">
        <ele>-16</ele>
        <time>2021-09-30T08:17:14.000Z</time>
      </trkpt>
      <trkpt lat="47.35442" lon="-2.34007">
        <ele>-15.60000038147</ele>
        <time>2021-09-30T08:17:15.000Z</time>
      </trkpt>
      <trkpt lat="47.35445" lon="-2.34012">
        <ele>-15.199999809265</ele>
        <time>2021-09-30T08:17:16.000Z</time>
      </trkpt>
      <trkpt lat="47.35449" lon="-2.34017">
        <ele>-14.800000190735</ele>
        <time>2021-09-30T08:17:17.000Z</time>
      </trkpt>
      <trkpt lat="47.35462" lon="-2.34041">
        <ele>-14.800000190735</ele>
        <time>2021-09-30T08:17:21.000Z</time>
      </trkpt>
      <trkpt lat="47.35478" lon="-2.34073">
        <ele>-14.800000190735</ele>
        <time>2021-09-30T08:17:26.000Z</time>
      </trkpt>
      <trkpt lat="47.35483" lon="-2.34088">
        <ele>-14.800000190735</ele>
        <time>2021-09-30T08:17:28.000Z</time>
      </trkpt>
      <trkpt lat="47.35488" lon="-2.34119">
        <ele>-14.800000190735</ele>
        <time>2021-09-30T08:17:32.000Z</time>
      </trkpt>
      <trkpt lat="47.35493" lon="-2.34134">
        <ele>-14.800000190735</ele>
        <time>2021-09-30T08:17:34.000Z</time>
      </trkpt>
      <trkpt lat="47.35504" lon="-2.34152">
        <ele>-14.199999809265</ele>
        <time>2021-09-30T08:17:37.000Z</time>
      </trkpt>
      <trkpt lat="47.35509" lon="-2.34156">
        <ele>-13.800000190735</ele>
        <time>2021-09-30T08:17:38.000Z</time>
      </trkpt>
      <trkpt lat="47.35514" lon="-2.34159">
        <ele>-13.39999961853</ele>
        <time>2021-09-30T08:17:39.000Z</time>
      </trkpt>
      <trkpt lat="47.35519" lon="-2.34162">
        <ele>-13</ele>
        <time>2021-09-30T08:17:40.000Z</time>
      </trkpt>
      <trkpt lat="47.35525" lon="-2.34165">
        <ele>-12.60000038147</ele>
        <time>2021-09-30T08:17:41.000Z</time>
      </trkpt>
      <trkpt lat="47.35546" lon="-2.34174">
        <ele>-12.60000038147</ele>
        <time>2021-09-30T08:17:45.000Z</time>
      </trkpt>
      <trkpt lat="47.3559" lon="-2.34186">
        <ele>-12.60000038147</ele>
        <time>2021-09-30T08:17:53.000Z</time>
      </trkpt>
      <trkpt lat="47.35613" lon="-2.34188">
        <ele>-12.199999809265</ele>
        <time>2021-09-30T08:17:57.000Z</time>
      </trkpt>
      <trkpt lat="47.35618" lon="-2.34189">
        <ele>-11.800000190735</ele>
        <time>2021-09-30T08:17:58.000Z</time>
      </trkpt>
      <trkpt lat="47.35624" lon="-2.34189">
        <ele>-11.39999961853</ele>
        <time>2021-09-30T08:17:59.000Z</time>
      </trkpt>
      <trkpt lat="47.35629" lon="-2.3419">
        <ele>-11</ele>
        <time>2021-09-30T08:18:00.000Z</time>
      </trkpt>
      <trkpt lat="47.35635" lon="-2.34191">
        <ele>-10.60000038147</ele>
        <time>2021-09-30T08:18:01.000Z</time>
      </trkpt>
      <trkpt lat="47.35656" lon="-2.34197">
        <ele>-10.60000038147</ele>
        <time>2021-09-30T08:18:05.000Z</time>
      </trkpt>
      <trkpt lat="47.35686" lon="-2.34205">
        <ele>-10.199999809265</ele>
        <time>2021-09-30T08:18:11.000Z</time>
      </trkpt>
      <trkpt lat="47.35691" lon="-2.34206">
        <ele>-9.6000003814697</ele>
        <time>2021-09-30T08:18:12.000Z</time>
      </trkpt>
      <trkpt lat="47.35695" lon="-2.34208">
        <ele>-9.1999998092651</ele>
        <time>2021-09-30T08:18:13.000Z</time>
      </trkpt>
      <trkpt lat="47.357" lon="-2.34209">
        <ele>-8.8000001907349</ele>
        <time>2021-09-30T08:18:14.000Z</time>
      </trkpt>
      <trkpt lat="47.35704" lon="-2.3421">
        <ele>-8.3999996185303</ele>
        <time>2021-09-30T08:18:15.000Z</time>
      </trkpt>
      <trkpt lat="47.35709" lon="-2.3421">
        <ele>-8.3999996185303</ele>
        <time>2021-09-30T08:18:16.000Z</time>
      </trkpt>
      <trkpt lat="47.35719" lon="-2.3421">
        <ele>-8.3999996185303</ele>
        <time>2021-09-30T08:18:18.000Z</time>
      </trkpt>
      <trkpt lat="47.35733" lon="-2.34207">
        <ele>-8</ele>
        <time>2021-09-30T08:18:21.000Z</time>
      </trkpt>
      <trkpt lat="47.35737" lon="-2.34206">
        <ele>-7.5999999046326</ele>
        <time>2021-09-30T08:18:22.000Z</time>
      </trkpt>
      <trkpt lat="47.35741" lon="-2.34205">
        <ele>-7.1999998092651</ele>
        <time>2021-09-30T08:18:23.000Z</time>
      </trkpt>
      <trkpt lat="47.35746" lon="-2.34204">
        <ele>-6.8000001907349</ele>
        <time>2021-09-30T08:18:24.000Z</time>
      </trkpt>
      <trkpt lat="47.3575" lon="-2.34203">
        <ele>-6.4000000953674</ele>
        <time>2021-09-30T08:18:25.000Z</time>
      </trkpt>
      <trkpt lat="47.35758" lon="-2.34204">
        <ele>-6.4000000953674</ele>
        <time>2021-09-30T08:18:27.000Z</time>
      </trkpt>
      <trkpt lat="47.35762" lon="-2.34206">
        <ele>-6.4000000953674</ele>
        <time>2021-09-30T08:18:28.000Z</time>
      </trkpt>
      <trkpt lat="47.35768" lon="-2.34222">
        <ele>-6.4000000953674</ele>
        <time>2021-09-30T08:18:31.000Z</time>
      </trkpt>
      <trkpt lat="47.35766" lon="-2.34244">
        <ele>-6.4000000953674</ele>
        <time>2021-09-30T08:18:34.000Z</time>
      </trkpt>
      <trkpt lat="47.35765" lon="-2.34261">
        <ele>-6.4000000953674</ele>
        <time>2021-09-30T08:18:36.000Z</time>
      </trkpt>
      <trkpt lat="47.35767" lon="-2.34305">
        <ele>-6.4000000953674</ele>
        <time>2021-09-30T08:18:41.000Z</time>
      </trkpt>
      <trkpt lat="47.35774" lon="-2.34375">
        <ele>-6.4000000953674</ele>
        <time>2021-09-30T08:18:48.000Z</time>
      </trkpt>
      <trkpt lat="47.35782" lon="-2.34437">
        <ele>-6.8000001907349</ele>
        <time>2021-09-30T08:18:54.000Z</time>
      </trkpt>
      <trkpt lat="47.35783" lon="-2.34447">
        <ele>-7.1999998092651</ele>
        <time>2021-09-30T08:18:55.000Z</time>
      </trkpt>
      <trkpt lat="47.35784" lon="-2.34458">
        <ele>-7.5999999046326</ele>
        <time>2021-09-30T08:18:56.000Z</time>
      </trkpt>
      <trkpt lat="47.35786" lon="-2.34468">
        <ele>-8</ele>
        <time>2021-09-30T08:18:57.000Z</time>
      </trkpt>
      <trkpt lat="47.35787" lon="-2.34478">
        <ele>-8.3999996185303</ele>
        <time>2021-09-30T08:18:58.000Z</time>
      </trkpt>
      <trkpt lat="47.35797" lon="-2.34558">
        <ele>-8.3999996185303</ele>
        <time>2021-09-30T08:19:06.000Z</time>
      </trkpt>
      <trkpt lat="47.35801" lon="-2.34577">
        <ele>-8.3999996185303</ele>
        <time>2021-09-30T08:19:08.000Z</time>
      </trkpt>
      <trkpt lat="47.35811" lon="-2.34604">
        <ele>-8.3999996185303</ele>
        <time>2021-09-30T08:19:11.000Z</time>
      </trkpt>
      <trkpt lat="47.35814" lon="-2.34613">
        <ele>-8.3999996185303</ele>
        <time>2021-09-30T08:19:12.000Z</time>
      </trkpt>
      <trkpt lat="47.35833" lon="-2.34662">
        <ele>-8.3999996185303</ele>
        <time>2021-09-30T08:19:18.000Z</time>
      </trkpt>
      <trkpt lat="47.35857" lon="-2.3472">
        <ele>-8.3999996185303</ele>
        <time>2021-09-30T08:19:25.000Z</time>
      </trkpt>
      <trkpt lat="47.35886" lon="-2.34787">
        <ele>-8.3999996185303</ele>
        <time>2021-09-30T08:19:33.000Z</time>
      </trkpt>
      <trkpt lat="47.35916" lon="-2.34853">
        <ele>-8.3999996185303</ele>
        <time>2021-09-30T08:19:41.000Z</time>
      </trkpt>
      <trkpt lat="47.35921" lon="-2.3486">
        <ele>-8.3999996185303</ele>
        <time>2021-09-30T08:19:42.000Z</time>
      </trkpt>
      <trkpt lat="47.35939" lon="-2.34869">
        <ele>-8.3999996185303</ele>
        <time>2021-09-30T08:19:45.000Z</time>
      </trkpt>
      <trkpt lat="47.35966" lon="-2.3487">
        <ele>-8.3999996185303</ele>
        <time>2021-09-30T08:19:49.000Z</time>
      </trkpt>
      <trkpt lat="47.35972" lon="-2.34871">
        <ele>-8.3999996185303</ele>
        <time>2021-09-30T08:19:50.000Z</time>
      </trkpt>
      <trkpt lat="47.3601" lon="-2.34873">
        <ele>-8.3999996185303</ele>
        <time>2021-09-30T08:19:56.000Z</time>
      </trkpt>
      <trkpt lat="47.36051" lon="-2.34877">
        <ele>-8.3999996185303</ele>
        <time>2021-09-30T08:20:03.000Z</time>
      </trkpt>
      <trkpt lat="47.36067" lon="-2.34877">
        <ele>-8.8000001907349</ele>
        <time>2021-09-30T08:20:06.000Z</time>
      </trkpt>
      <trkpt lat="47.36072" lon="-2.34878">
        <ele>-9.1999998092651</ele>
        <time>2021-09-30T08:20:07.000Z</time>
      </trkpt>
      <trkpt lat="47.36076" lon="-2.34879">
        <ele>-9.6000003814697</ele>
        <time>2021-09-30T08:20:08.000Z</time>
      </trkpt>
      <trkpt lat="47.36081" lon="-2.34881">
        <ele>-10</ele>
        <time>2021-09-30T08:20:09.000Z</time>
      </trkpt>
      <trkpt lat="47.36084" lon="-2.34885">
        <ele>-10.39999961853</ele>
        <time>2021-09-30T08:20:10.000Z</time>
      </trkpt>
      <trkpt lat="47.36089" lon="-2.34903">
        <ele>-10.39999961853</ele>
        <time>2021-09-30T08:20:13.000Z</time>
      </trkpt>
      <trkpt lat="47.36089" lon="-2.34911">
        <ele>-10.39999961853</ele>
        <time>2021-09-30T08:20:14.000Z</time>
      </trkpt>
      <trkpt lat="47.36092" lon="-2.34945">
        <ele>-10.39999961853</ele>
        <time>2021-09-30T08:20:18.000Z</time>
      </trkpt>
      <trkpt lat="47.36099" lon="-2.34994">
        <ele>-10.39999961853</ele>
        <time>2021-09-30T08:20:24.000Z</time>
      </trkpt>
      <trkpt lat="47.361" lon="-2.35049">
        <ele>-10.39999961853</ele>
        <time>2021-09-30T08:20:31.000Z</time>
      </trkpt>
      <trkpt lat="47.361" lon="-2.35057">
        <ele>-10.39999961853</ele>
        <time>2021-09-30T08:20:32.000Z</time>
      </trkpt>
      <trkpt lat="47.36097" lon="-2.35093">
        <ele>-10.39999961853</ele>
        <time>2021-09-30T08:20:37.000Z</time>
      </trkpt>
      <trkpt lat="47.36094" lon="-2.3513">
        <ele>-10.39999961853</ele>
        <time>2021-09-30T08:20:42.000Z</time>
      </trkpt>
      <trkpt lat="47.36092" lon="-2.35144">
        <ele>-10.39999961853</ele>
        <time>2021-09-30T08:20:44.000Z</time>
      </trkpt>
      <trkpt lat="47.36091" lon="-2.35157">
        <ele>-10.39999961853</ele>
        <time>2021-09-30T08:20:46.000Z</time>
      </trkpt>
      <trkpt lat="47.36091" lon="-2.35163">
        <ele>-10.39999961853</ele>
        <time>2021-09-30T08:20:47.000Z</time>
      </trkpt>
      <trkpt lat="47.361" lon="-2.35172">
        <ele>-10.39999961853</ele>
        <time>2021-09-30T08:20:50.000Z</time>
      </trkpt>
      <trkpt lat="47.36109" lon="-2.35164">
        <ele>-10.39999961853</ele>
        <time>2021-09-30T08:20:53.000Z</time>
      </trkpt>
      <trkpt lat="47.36112" lon="-2.3516">
        <ele>-10.39999961853</ele>
        <time>2021-09-30T08:20:54.000Z</time>
      </trkpt>
      <trkpt lat="47.3613" lon="-2.35136">
        <ele>-10.39999961853</ele>
        <time>2021-09-30T08:20:59.000Z</time>
      </trkpt>
      <trkpt lat="47.36138" lon="-2.35124">
        <ele>-10.39999961853</ele>
        <time>2021-09-30T08:21:01.000Z</time>
      </trkpt>
      <trkpt lat="47.36158" lon="-2.35101">
        <ele>-10.39999961853</ele>
        <time>2021-09-30T08:21:06.000Z</time>
      </trkpt>
      <trkpt lat="47.3617" lon="-2.35089">
        <ele>-10.39999961853</ele>
        <time>2021-09-30T08:21:09.000Z</time>
      </trkpt>
      <trkpt lat="47.36186" lon="-2.35073">
        <ele>-10.39999961853</ele>
        <time>2021-09-30T08:21:13.000Z</time>
      </trkpt>
      <trkpt lat="47.36208" lon="-2.35049">
        <ele>-10.39999961853</ele>
        <time>2021-09-30T08:21:18.000Z</time>
      </trkpt>
      <trkpt lat="47.36234" lon="-2.35008">
        <ele>-10.39999961853</ele>
        <time>2021-09-30T08:21:24.000Z</time>
      </trkpt>
      <trkpt lat="47.3625" lon="-2.34974">
        <ele>-10.39999961853</ele>
        <time>2021-09-30T08:21:29.000Z</time>
      </trkpt>
      <trkpt lat="47.36265" lon="-2.34944">
        <ele>-10.39999961853</ele>
        <time>2021-09-30T08:21:35.000Z</time>
      </trkpt>
      <trkpt lat="47.36278" lon="-2.34928">
        <ele>-10.39999961853</ele>
        <time>2021-09-30T08:21:41.000Z</time>
      </trkpt>
      <trkpt lat="47.36286" lon="-2.34943">
        <ele>-10.39999961853</ele>
        <time>2021-09-30T08:21:44.000Z</time>
      </trkpt>
      <trkpt lat="47.36288" lon="-2.34949">
        <ele>-10.39999961853</ele>
        <time>2021-09-30T08:21:45.000Z</time>
      </trkpt>
      <trkpt lat="47.36291" lon="-2.34963">
        <ele>-10.39999961853</ele>
        <time>2021-09-30T08:21:47.000Z</time>
      </trkpt>
      <trkpt lat="47.36292" lon="-2.3497">
        <ele>-10.800000190735</ele>
        <time>2021-09-30T08:21:48.000Z</time>
      </trkpt>
      <trkpt lat="47.36293" lon="-2.34977">
        <ele>-11.199999809265</ele>
        <time>2021-09-30T08:21:49.000Z</time>
      </trkpt>
      <trkpt lat="47.36294" lon="-2.34984">
        <ele>-11.60000038147</ele>
        <time>2021-09-30T08:21:50.000Z</time>
      </trkpt>
      <trkpt lat="47.36295" lon="-2.34991">
        <ele>-12</ele>
        <time>2021-09-30T08:21:51.000Z</time>
      </trkpt>
      <trkpt lat="47.36296" lon="-2.34995">
        <ele>-12.39999961853</ele>
        <time>2021-09-30T08:21:52.000Z</time>
      </trkpt>
      <trkpt lat="47.36298" lon="-2.35002">
        <ele>-12.39999961853</ele>
        <time>2021-09-30T08:21:54.000Z</time>
      </trkpt>
      <trkpt lat="47.36298" lon="-2.35003">
        <ele>-12.39999961853</ele>
        <time>2021-09-30T08:21:55.000Z</time>
      </trkpt>
      <trkpt lat="47.36304" lon="-2.35005">
        <ele>-12.39999961853</ele>
        <time>2021-09-30T08:21:58.000Z</time>
      </trkpt>
      <trkpt lat="47.36321" lon="-2.34998">
        <ele>-12.39999961853</ele>
        <time>2021-09-30T08:22:03.000Z</time>
      </trkpt>
      <trkpt lat="47.36327" lon="-2.34991">
        <ele>-12.39999961853</ele>
        <time>2021-09-30T08:22:05.000Z</time>
      </trkpt>
      <trkpt lat="47.3634" lon="-2.34979">
        <ele>-12.39999961853</ele>
        <time>2021-09-30T08:22:09.000Z</time>
      </trkpt>
      <trkpt lat="47.36344" lon="-2.34976">
        <ele>-12.39999961853</ele>
        <time>2021-09-30T08:22:13.000Z</time>
      </trkpt>
      <trkpt lat="47.36345" lon="-2.34977">
        <ele>-12.39999961853</ele>
        <time>2021-09-30T08:22:14.000Z</time>
      </trkpt>
      <trkpt lat="47.36352" lon="-2.34984">
        <ele>-12.39999961853</ele>
        <time>2021-09-30T08:22:17.000Z</time>
      </trkpt>
      <trkpt lat="47.36368" lon="-2.35009">
        <ele>-12.39999961853</ele>
        <time>2021-09-30T08:22:24.000Z</time>
      </trkpt>
      <trkpt lat="47.36379" lon="-2.35041">
        <ele>-12.39999961853</ele>
        <time>2021-09-30T08:22:31.000Z</time>
      </trkpt>
      <trkpt lat="47.36391" lon="-2.35072">
        <ele>-12.39999961853</ele>
        <time>2021-09-30T08:22:38.000Z</time>
      </trkpt>
      <trkpt lat="47.36393" lon="-2.35075">
        <ele>-12.39999961853</ele>
        <time>2021-09-30T08:22:39.000Z</time>
      </trkpt>
      <trkpt lat="47.36399" lon="-2.35074">
        <ele>-12.39999961853</ele>
        <time>2021-09-30T08:22:41.000Z</time>
      </trkpt>
      <trkpt lat="47.36407" lon="-2.35073">
        <ele>-12.800000190735</ele>
        <time>2021-09-30T08:22:46.000Z</time>
      </trkpt>
      <trkpt lat="47.36407" lon="-2.35073">
        <ele>-13.199999809265</ele>
        <time>2021-09-30T08:22:47.000Z</time>
      </trkpt>
      <trkpt lat="47.36408" lon="-2.35073">
        <ele>-13.800000190735</ele>
        <time>2021-09-30T08:22:48.000Z</time>
      </trkpt>
      <trkpt lat="47.36423" lon="-2.35068">
        <ele>-14.60000038147</ele>
        <time>2021-09-30T08:23:30.000Z</time>
      </trkpt>
      <trkpt lat="47.36426" lon="-2.35069">
        <ele>-14.60000038147</ele>
        <time>2021-09-30T08:23:31.000Z</time>
      </trkpt>
      <trkpt lat="47.36441" lon="-2.35076">
        <ele>-14.60000038147</ele>
        <time>2021-09-30T08:23:35.000Z</time>
      </trkpt>
      <trkpt lat="47.3647" lon="-2.35092">
        <ele>-14.60000038147</ele>
        <time>2021-09-30T08:23:42.000Z</time>
      </trkpt>
      <trkpt lat="47.3649" lon="-2.35107">
        <ele>-14.60000038147</ele>
        <time>2021-09-30T08:23:48.000Z</time>
      </trkpt>
      <trkpt lat="47.36502" lon="-2.3511">
        <ele>-14.60000038147</ele>
        <time>2021-09-30T08:23:53.000Z</time>
      </trkpt>
      <trkpt lat="47.36508" lon="-2.35109">
        <ele>-14.60000038147</ele>
        <time>2021-09-30T08:23:58.000Z</time>
      </trkpt>
      <trkpt lat="47.36509" lon="-2.3511">
        <ele>-14.60000038147</ele>
        <time>2021-09-30T08:24:00.000Z</time>
      </trkpt>
      <trkpt lat="47.36517" lon="-2.35103">
        <ele>-14.60000038147</ele>
        <time>2021-09-30T08:24:17.000Z</time>
      </trkpt>
      <trkpt lat="47.36522" lon="-2.35102">
        <ele>-14.60000038147</ele>
        <time>2021-09-30T08:24:19.000Z</time>
      </trkpt>
      <trkpt lat="47.36537" lon="-2.351">
        <ele>-14.60000038147</ele>
        <time>2021-09-30T08:24:24.000Z</time>
      </trkpt>
      <trkpt lat="47.36549" lon="-2.35099">
        <ele>-14.60000038147</ele>
        <time>2021-09-30T08:24:30.000Z</time>
      </trkpt>
      <trkpt lat="47.3655" lon="-2.35097">
        <ele>-14.60000038147</ele>
        <time>2021-09-30T08:24:32.000Z</time>
      </trkpt>
      <trkpt lat="47.36548" lon="-2.35087">
        <ele>-14.60000038147</ele>
        <time>2021-09-30T08:24:36.000Z</time>
      </trkpt>
      <trkpt lat="47.36537" lon="-2.35067">
        <ele>-14.60000038147</ele>
        <time>2021-09-30T08:24:41.000Z</time>
      </trkpt>
      <trkpt lat="47.3652" lon="-2.3504">
        <ele>-14.60000038147</ele>
        <time>2021-09-30T08:24:48.000Z</time>
      </trkpt>
      <trkpt lat="47.36503" lon="-2.35011">
        <ele>-14.60000038147</ele>
        <time>2021-09-30T08:24:55.000Z</time>
      </trkpt>
      <trkpt lat="47.36494" lon="-2.34995">
        <ele>-14.60000038147</ele>
        <time>2021-09-30T08:25:00.000Z</time>
      </trkpt>
      <trkpt lat="47.36494" lon="-2.34989">
        <ele>-14.60000038147</ele>
        <time>2021-09-30T08:25:02.000Z</time>
      </trkpt>
      <trkpt lat="47.36499" lon="-2.34988">
        <ele>-14.60000038147</ele>
        <time>2021-09-30T08:25:04.000Z</time>
      </trkpt>
      <trkpt lat="47.3651" lon="-2.35002">
        <ele>-14.60000038147</ele>
        <time>2021-09-30T08:25:08.000Z</time>
      </trkpt>
      <trkpt lat="47.36513" lon="-2.35007">
        <ele>-14.60000038147</ele>
        <time>2021-09-30T08:25:09.000Z</time>
      </trkpt>
      <trkpt lat="47.36532" lon="-2.35038">
        <ele>-14.60000038147</ele>
        <time>2021-09-30T08:25:14.000Z</time>
      </trkpt>
      <trkpt lat="47.36561" lon="-2.35089">
        <ele>-14.60000038147</ele>
        <time>2021-09-30T08:25:21.000Z</time>
      </trkpt>
      <trkpt lat="47.36592" lon="-2.35145">
        <ele>-14.60000038147</ele>
        <time>2021-09-30T08:25:28.000Z</time>
      </trkpt>
      <trkpt lat="47.36624" lon="-2.35202">
        <ele>-14.60000038147</ele>
        <time>2021-09-30T08:25:35.000Z</time>
      </trkpt>
      <trkpt lat="47.36637" lon="-2.35223">
        <ele>-14.60000038147</ele>
        <time>2021-09-30T08:25:38.000Z</time>
      </trkpt>
      <trkpt lat="47.36639" lon="-2.35239">
        <ele>-14.60000038147</ele>
        <time>2021-09-30T08:25:40.000Z</time>
      </trkpt>
      <trkpt lat="47.36629" lon="-2.35259">
        <ele>-14.60000038147</ele>
        <time>2021-09-30T08:25:43.000Z</time>
      </trkpt>
      <trkpt lat="47.36625" lon="-2.35266">
        <ele>-14.60000038147</ele>
        <time>2021-09-30T08:25:44.000Z</time>
      </trkpt>
      <trkpt lat="47.36603" lon="-2.35302">
        <ele>-14.60000038147</ele>
        <time>2021-09-30T08:25:49.000Z</time>
      </trkpt>
      <trkpt lat="47.36569" lon="-2.35358">
        <ele>-14.60000038147</ele>
        <time>2021-09-30T08:25:57.000Z</time>
      </trkpt>
      <trkpt lat="47.36547" lon="-2.35399">
        <ele>-14.60000038147</ele>
        <time>2021-09-30T08:26:03.000Z</time>
      </trkpt>
      <trkpt lat="47.36516" lon="-2.3545">
        <ele>-14.60000038147</ele>
        <time>2021-09-30T08:26:11.000Z</time>
      </trkpt>
      <trkpt lat="47.3649" lon="-2.35493">
        <ele>-14.60000038147</ele>
        <time>2021-09-30T08:26:18.000Z</time>
      </trkpt>
      <trkpt lat="47.3648" lon="-2.35511">
        <ele>-14.60000038147</ele>
        <time>2021-09-30T08:26:21.000Z</time>
      </trkpt>
      <trkpt lat="47.36479" lon="-2.35526">
        <ele>-14.60000038147</ele>
        <time>2021-09-30T08:26:23.000Z</time>
      </trkpt>
      <trkpt lat="47.36489" lon="-2.35555">
        <ele>-14.60000038147</ele>
        <time>2021-09-30T08:26:27.000Z</time>
      </trkpt>
      <trkpt lat="47.36492" lon="-2.35562">
        <ele>-14.60000038147</ele>
        <time>2021-09-30T08:26:28.000Z</time>
      </trkpt>
      <trkpt lat="47.36507" lon="-2.35609">
        <ele>-14.60000038147</ele>
        <time>2021-09-30T08:26:34.000Z</time>
      </trkpt>
      <trkpt lat="47.36526" lon="-2.35663">
        <ele>-14.60000038147</ele>
        <time>2021-09-30T08:26:41.000Z</time>
      </trkpt>
      <trkpt lat="47.3655" lon="-2.35733">
        <ele>-14.60000038147</ele>
        <time>2021-09-30T08:26:50.000Z</time>
      </trkpt>
      <trkpt lat="47.36569" lon="-2.35792">
        <ele>-14.60000038147</ele>
        <time>2021-09-30T08:26:57.000Z</time>
      </trkpt>
      <trkpt lat="47.36579" lon="-2.35842">
        <ele>-14.60000038147</ele>
        <time>2021-09-30T08:27:03.000Z</time>
      </trkpt>
      <trkpt lat="47.36584" lon="-2.35881">
        <ele>-14.60000038147</ele>
        <time>2021-09-30T08:27:08.000Z</time>
      </trkpt>
      <trkpt lat="47.36583" lon="-2.35888">
        <ele>-14.60000038147</ele>
        <time>2021-09-30T08:27:09.000Z</time>
      </trkpt>
      <trkpt lat="47.36573" lon="-2.35907">
        <ele>-14.60000038147</ele>
        <time>2021-09-30T08:27:12.000Z</time>
      </trkpt>
      <trkpt lat="47.36569" lon="-2.35912">
        <ele>-14.60000038147</ele>
        <time>2021-09-30T08:27:13.000Z</time>
      </trkpt>
      <trkpt lat="47.36548" lon="-2.35942">
        <ele>-14.60000038147</ele>
        <time>2021-09-30T08:27:18.000Z</time>
      </trkpt>
      <trkpt lat="47.36528" lon="-2.35969">
        <ele>-14.199999809265</ele>
        <time>2021-09-30T08:27:23.000Z</time>
      </trkpt>
      <trkpt lat="47.36523" lon="-2.35974">
        <ele>-13.60000038147</ele>
        <time>2021-09-30T08:27:24.000Z</time>
      </trkpt>
      <trkpt lat="47.36519" lon="-2.35979">
        <ele>-13.199999809265</ele>
        <time>2021-09-30T08:27:25.000Z</time>
      </trkpt>
      <trkpt lat="47.36515" lon="-2.35983">
        <ele>-12.800000190735</ele>
        <time>2021-09-30T08:27:26.000Z</time>
      </trkpt>
      <trkpt lat="47.36511" lon="-2.35988">
        <ele>-12.39999961853</ele>
        <time>2021-09-30T08:27:27.000Z</time>
      </trkpt>
      <trkpt lat="47.36488" lon="-2.36015">
        <ele>-12.39999961853</ele>
        <time>2021-09-30T08:27:33.000Z</time>
      </trkpt>
      <trkpt lat="47.36473" lon="-2.36033">
        <ele>-12</ele>
        <time>2021-09-30T08:27:37.000Z</time>
      </trkpt>
      <trkpt lat="47.36469" lon="-2.36039">
        <ele>-11.60000038147</ele>
        <time>2021-09-30T08:27:38.000Z</time>
      </trkpt>
      <trkpt lat="47.36466" lon="-2.36045">
        <ele>-10.60000038147</ele>
        <time>2021-09-30T08:27:39.000Z</time>
      </trkpt>
      <trkpt lat="47.36463" lon="-2.36051">
        <ele>-10.199999809265</ele>
        <time>2021-09-30T08:27:40.000Z</time>
      </trkpt>
      <trkpt lat="47.36455" lon="-2.36067">
        <ele>-10.199999809265</ele>
        <time>2021-09-30T08:27:43.000Z</time>
      </trkpt>
      <trkpt lat="47.36449" lon="-2.36078">
        <ele>-9.8000001907349</ele>
        <time>2021-09-30T08:27:45.000Z</time>
      </trkpt>
      <trkpt lat="47.36447" lon="-2.36083">
        <ele>-9.3999996185303</ele>
        <time>2021-09-30T08:27:46.000Z</time>
      </trkpt>
      <trkpt lat="47.36444" lon="-2.36088">
        <ele>-9</ele>
        <time>2021-09-30T08:27:47.000Z</time>
      </trkpt>
      <trkpt lat="47.36442" lon="-2.36093">
        <ele>-8.3999996185303</ele>
        <time>2021-09-30T08:27:48.000Z</time>
      </trkpt>
      <trkpt lat="47.36441" lon="-2.36097">
        <ele>-8</ele>
        <time>2021-09-30T08:27:49.000Z</time>
      </trkpt>
      <trkpt lat="47.3644" lon="-2.361">
        <ele>-8</ele>
        <time>2021-09-30T08:27:50.000Z</time>
      </trkpt>
      <trkpt lat="47.36437" lon="-2.36103">
        <ele>-8</ele>
        <time>2021-09-30T08:27:52.000Z</time>
      </trkpt>
      <trkpt lat="47.36434" lon="-2.36102">
        <ele>-8</ele>
        <time>2021-09-30T08:27:54.000Z</time>
      </trkpt>
      <trkpt lat="47.3643" lon="-2.3609">
        <ele>-8</ele>
        <time>2021-09-30T08:27:58.000Z</time>
      </trkpt>
      <trkpt lat="47.36429" lon="-2.36087">
        <ele>-8</ele>
        <time>2021-09-30T08:27:59.000Z</time>
      </trkpt>
      <trkpt lat="47.36419" lon="-2.36082">
        <ele>-8</ele>
        <time>2021-09-30T08:28:03.000Z</time>
      </trkpt>
      <trkpt lat="47.36405" lon="-2.36091">
        <ele>-8</ele>
        <time>2021-09-30T08:28:08.000Z</time>
      </trkpt>
      <trkpt lat="47.36374" lon="-2.36108">
        <ele>-8</ele>
        <time>2021-09-30T08:28:16.000Z</time>
      </trkpt>
      <trkpt lat="47.36335" lon="-2.36134">
        <ele>-8</ele>
        <time>2021-09-30T08:28:25.000Z</time>
      </trkpt>
      <trkpt lat="47.36317" lon="-2.36156">
        <ele>-8</ele>
        <time>2021-09-30T08:28:31.000Z</time>
      </trkpt>
      <trkpt lat="47.36307" lon="-2.36172">
        <ele>-8</ele>
        <time>2021-09-30T08:28:38.000Z</time>
      </trkpt>
      <trkpt lat="47.36307" lon="-2.36174">
        <ele>-8</ele>
        <time>2021-09-30T08:28:40.000Z</time>
      </trkpt>
      <trkpt lat="47.36304" lon="-2.36173">
        <ele>-6</ele>
        <time>2021-09-30T08:30:32.000Z</time>
      </trkpt>
      <trkpt lat="47.36302" lon="-2.36173">
        <ele>-6</ele>
        <time>2021-09-30T08:30:33.000Z</time>
      </trkpt>
      <trkpt lat="47.36295" lon="-2.3618">
        <ele>-6</ele>
        <time>2021-09-30T08:30:37.000Z</time>
      </trkpt>
      <trkpt lat="47.36278" lon="-2.36202">
        <ele>-6</ele>
        <time>2021-09-30T08:30:45.000Z</time>
      </trkpt>
      <trkpt lat="47.3626" lon="-2.36221">
        <ele>-6</ele>
        <time>2021-09-30T08:30:53.000Z</time>
      </trkpt>
      <trkpt lat="47.36258" lon="-2.3622">
        <ele>-6</ele>
        <time>2021-09-30T08:30:55.000Z</time>
      </trkpt>
      <trkpt lat="47.36258" lon="-2.3622">
        <ele>-6</ele>
        <time>2021-09-30T08:30:56.000Z</time>
      </trkpt>
      <trkpt lat="47.36255" lon="-2.3622">
        <ele>-6</ele>
        <time>2021-09-30T08:31:16.000Z</time>
      </trkpt>
      <trkpt lat="47.36253" lon="-2.36217">
        <ele>-6</ele>
        <time>2021-09-30T08:31:18.000Z</time>
      </trkpt>
      <trkpt lat="47.36256" lon="-2.36213">
        <ele>-6</ele>
        <time>2021-09-30T08:31:22.000Z</time>
      </trkpt>
      <trkpt lat="47.3626" lon="-2.36217">
        <ele>-6</ele>
        <time>2021-09-30T08:31:27.000Z</time>
      </trkpt>
      <trkpt lat="47.3626" lon="-2.3622">
        <ele>-6</ele>
        <time>2021-09-30T08:31:30.000Z</time>
      </trkpt>
      <trkpt lat="47.3626" lon="-2.36222">
        <ele>-6</ele>
        <time>2021-09-30T08:31:31.000Z</time>
      </trkpt>
      <trkpt lat="47.36253" lon="-2.36233">
        <ele>-6</ele>
        <time>2021-09-30T08:31:37.000Z</time>
      </trkpt>
      <trkpt lat="47.36245" lon="-2.36242">
        <ele>-6.4000000953674</ele>
        <time>2021-09-30T08:31:43.000Z</time>
      </trkpt>
      <trkpt lat="47.36245" lon="-2.36242">
        <ele>-6.8000001907349</ele>
        <time>2021-09-30T08:31:44.000Z</time>
      </trkpt>
      <trkpt lat="47.36247" lon="-2.36238">
        <ele>-8</ele>
        <time>2021-09-30T08:31:52.000Z</time>
      </trkpt>
      <trkpt lat="47.36251" lon="-2.36233">
        <ele>-8</ele>
        <time>2021-09-30T08:31:55.000Z</time>
      </trkpt>
      <trkpt lat="47.36254" lon="-2.3623">
        <ele>-8</ele>
        <time>2021-09-30T08:31:57.000Z</time>
      </trkpt>
      <trkpt lat="47.36259" lon="-2.36222">
        <ele>-8</ele>
        <time>2021-09-30T08:32:02.000Z</time>
      </trkpt>
      <trkpt lat="47.36266" lon="-2.36216">
        <ele>-8</ele>
        <time>2021-09-30T08:32:08.000Z</time>
      </trkpt>
      <trkpt lat="47.36267" lon="-2.36214">
        <ele>-8</ele>
        <time>2021-09-30T08:32:09.000Z</time>
      </trkpt>
      <trkpt lat="47.36271" lon="-2.3621">
        <ele>-8</ele>
        <time>2021-09-30T08:32:12.000Z</time>
      </trkpt>
      <trkpt lat="47.36277" lon="-2.36202">
        <ele>-8</ele>
        <time>2021-09-30T08:32:16.000Z</time>
      </trkpt>
      <trkpt lat="47.36292" lon="-2.36184">
        <ele>-8</ele>
        <time>2021-09-30T08:32:25.000Z</time>
      </trkpt>
      <trkpt lat="47.36301" lon="-2.36173">
        <ele>-8</ele>
        <time>2021-09-30T08:32:31.000Z</time>
      </trkpt>
      <trkpt lat="47.36307" lon="-2.3617">
        <ele>-8</ele>
        <time>2021-09-30T08:32:35.000Z</time>
      </trkpt>
      <trkpt lat="47.36308" lon="-2.36171">
        <ele>-8</ele>
        <time>2021-09-30T08:32:37.000Z</time>
      </trkpt>
      <trkpt lat="47.36309" lon="-2.36171">
        <ele>-8</ele>
        <time>2021-09-30T08:32:38.000Z</time>
      </trkpt>
      <trkpt lat="47.36311" lon="-2.36167">
        <ele>-8</ele>
        <time>2021-09-30T08:34:52.000Z</time>
      </trkpt>
      <trkpt lat="47.36314" lon="-2.36162">
        <ele>-8</ele>
        <time>2021-09-30T08:34:54.000Z</time>
      </trkpt>
      <trkpt lat="47.36326" lon="-2.36145">
        <ele>-8</ele>
        <time>2021-09-30T08:34:59.000Z</time>
      </trkpt>
      <trkpt lat="47.36346" lon="-2.36124">
        <ele>-8</ele>
        <time>2021-09-30T08:35:05.000Z</time>
      </trkpt>
      <trkpt lat="47.36371" lon="-2.36108">
        <ele>-8</ele>
        <time>2021-09-30T08:35:12.000Z</time>
      </trkpt>
      <trkpt lat="47.36397" lon="-2.36095">
        <ele>-8</ele>
        <time>2021-09-30T08:35:19.000Z</time>
      </trkpt>
      <trkpt lat="47.3642" lon="-2.3608">
        <ele>-8</ele>
        <time>2021-09-30T08:35:26.000Z</time>
      </trkpt>
      <trkpt lat="47.36434" lon="-2.36085">
        <ele>-8</ele>
        <time>2021-09-30T08:35:30.000Z</time>
      </trkpt>
      <trkpt lat="47.3644" lon="-2.36107">
        <ele>-8</ele>
        <time>2021-09-30T08:35:34.000Z</time>
      </trkpt>
      <trkpt lat="47.36454" lon="-2.36147">
        <ele>-8</ele>
        <time>2021-09-30T08:35:41.000Z</time>
      </trkpt>
      <trkpt lat="47.36467" lon="-2.36195">
        <ele>-8</ele>
        <time>2021-09-30T08:35:49.000Z</time>
      </trkpt>
      <trkpt lat="47.36474" lon="-2.3622">
        <ele>-8</ele>
        <time>2021-09-30T08:35:53.000Z</time>
      </trkpt>
      <trkpt lat="47.36479" lon="-2.36238">
        <ele>-8</ele>
        <time>2021-09-30T08:35:56.000Z</time>
      </trkpt>
      <trkpt lat="47.36489" lon="-2.36271">
        <ele>-8</ele>
        <time>2021-09-30T08:36:01.000Z</time>
      </trkpt>
      <trkpt lat="47.36493" lon="-2.36285">
        <ele>-8</ele>
        <time>2021-09-30T08:36:03.000Z</time>
      </trkpt>
      <trkpt lat="47.36503" lon="-2.36313">
        <ele>-8.6000003814697</ele>
        <time>2021-09-30T08:36:07.000Z</time>
      </trkpt>
      <trkpt lat="47.36505" lon="-2.3632">
        <ele>-9</ele>
        <time>2021-09-30T08:36:08.000Z</time>
      </trkpt>
      <trkpt lat="47.36508" lon="-2.36327">
        <ele>-9.3999996185303</ele>
        <time>2021-09-30T08:36:09.000Z</time>
      </trkpt>
      <trkpt lat="47.36511" lon="-2.36334">
        <ele>-9.8000001907349</ele>
        <time>2021-09-30T08:36:10.000Z</time>
      </trkpt>
      <trkpt lat="47.36513" lon="-2.36342">
        <ele>-10.199999809265</ele>
        <time>2021-09-30T08:36:11.000Z</time>
      </trkpt>
      <trkpt lat="47.36525" lon="-2.36382">
        <ele>-10.199999809265</ele>
        <time>2021-09-30T08:36:16.000Z</time>
      </trkpt>
      <trkpt lat="47.36544" lon="-2.36442">
        <ele>-10.199999809265</ele>
        <time>2021-09-30T08:36:24.000Z</time>
      </trkpt>
      <trkpt lat="47.36549" lon="-2.36453">
        <ele>-10.199999809265</ele>
        <time>2021-09-30T08:36:26.000Z</time>
      </trkpt>
      <trkpt lat="47.36553" lon="-2.36464">
        <ele>-10.199999809265</ele>
        <time>2021-09-30T08:36:28.000Z</time>
      </trkpt>
      <trkpt lat="47.36569" lon="-2.36511">
        <ele>-10.199999809265</ele>
        <time>2021-09-30T08:36:37.000Z</time>
      </trkpt>
      <trkpt lat="47.36573" lon="-2.36522">
        <ele>-10.199999809265</ele>
        <time>2021-09-30T08:36:42.000Z</time>
      </trkpt>
      <trkpt lat="47.36574" lon="-2.36524">
        <ele>-10.199999809265</ele>
        <time>2021-09-30T08:36:45.000Z</time>
      </trkpt>
      <trkpt lat="47.36577" lon="-2.36522">
        <ele>-10.199999809265</ele>
        <time>2021-09-30T08:37:11.000Z</time>
      </trkpt>
      <trkpt lat="47.36579" lon="-2.3652">
        <ele>-10.199999809265</ele>
        <time>2021-09-30T08:37:12.000Z</time>
      </trkpt>
      <trkpt lat="47.36596" lon="-2.36507">
        <ele>-10.199999809265</ele>
        <time>2021-09-30T08:37:17.000Z</time>
      </trkpt>
      <trkpt lat="47.36634" lon="-2.36484">
        <ele>-10.199999809265</ele>
        <time>2021-09-30T08:37:25.000Z</time>
      </trkpt>
      <trkpt lat="47.36644" lon="-2.36478">
        <ele>-10.60000038147</ele>
        <time>2021-09-30T08:37:27.000Z</time>
      </trkpt>
      <trkpt lat="47.36649" lon="-2.36474">
        <ele>-11</ele>
        <time>2021-09-30T08:37:28.000Z</time>
      </trkpt>
      <trkpt lat="47.36655" lon="-2.36471">
        <ele>-11.39999961853</ele>
        <time>2021-09-30T08:37:29.000Z</time>
      </trkpt>
      <trkpt lat="47.3666" lon="-2.36467">
        <ele>-11.800000190735</ele>
        <time>2021-09-30T08:37:30.000Z</time>
      </trkpt>
      <trkpt lat="47.36665" lon="-2.36464">
        <ele>-12.199999809265</ele>
        <time>2021-09-30T08:37:31.000Z</time>
      </trkpt>
      <trkpt lat="47.36676" lon="-2.36456">
        <ele>-12.199999809265</ele>
        <time>2021-09-30T08:37:33.000Z</time>
      </trkpt>
      <trkpt lat="47.36697" lon="-2.36439">
        <ele>-12.60000038147</ele>
        <time>2021-09-30T08:37:37.000Z</time>
      </trkpt>
      <trkpt lat="47.36702" lon="-2.36435">
        <ele>-13</ele>
        <time>2021-09-30T08:37:38.000Z</time>
      </trkpt>
      <trkpt lat="47.36707" lon="-2.3643">
        <ele>-13.39999961853</ele>
        <time>2021-09-30T08:37:39.000Z</time>
      </trkpt>
      <trkpt lat="47.36712" lon="-2.36425">
        <ele>-13.800000190735</ele>
        <time>2021-09-30T08:37:40.000Z</time>
      </trkpt>
      <trkpt lat="47.36716" lon="-2.3642">
        <ele>-14.199999809265</ele>
        <time>2021-09-30T08:37:41.000Z</time>
      </trkpt>
      <trkpt lat="47.36744" lon="-2.36384">
        <ele>-14.199999809265</ele>
        <time>2021-09-30T08:37:48.000Z</time>
      </trkpt>
      <trkpt lat="47.36752" lon="-2.36377">
        <ele>-14.199999809265</ele>
        <time>2021-09-30T08:37:50.000Z</time>
      </trkpt>
      <trkpt lat="47.36767" lon="-2.36373">
        <ele>-14.199999809265</ele>
        <time>2021-09-30T08:37:53.000Z</time>
      </trkpt>
      <trkpt lat="47.36779" lon="-2.36374">
        <ele>-14.199999809265</ele>
        <time>2021-09-30T08:37:55.000Z</time>
      </trkpt>
      <trkpt lat="47.36796" lon="-2.36372">
        <ele>-14.199999809265</ele>
        <time>2021-09-30T08:37:58.000Z</time>
      </trkpt>
      <trkpt lat="47.36837" lon="-2.36371">
        <ele>-14.199999809265</ele>
        <time>2021-09-30T08:38:05.000Z</time>
      </trkpt>
      <trkpt lat="47.36842" lon="-2.3637">
        <ele>-14.60000038147</ele>
        <time>2021-09-30T08:38:06.000Z</time>
      </trkpt>
      <trkpt lat="47.36848" lon="-2.3637">
        <ele>-15</ele>
        <time>2021-09-30T08:38:07.000Z</time>
      </trkpt>
      <trkpt lat="47.36854" lon="-2.3637">
        <ele>-15.39999961853</ele>
        <time>2021-09-30T08:38:08.000Z</time>
      </trkpt>
      <trkpt lat="47.3686" lon="-2.36369">
        <ele>-15.800000190735</ele>
        <time>2021-09-30T08:38:09.000Z</time>
      </trkpt>
      <trkpt lat="47.36866" lon="-2.36369">
        <ele>-16.200000762939</ele>
        <time>2021-09-30T08:38:10.000Z</time>
      </trkpt>
      <trkpt lat="47.36872" lon="-2.3637">
        <ele>-16.200000762939</ele>
        <time>2021-09-30T08:38:11.000Z</time>
      </trkpt>
      <trkpt lat="47.36913" lon="-2.36369">
        <ele>-16.200000762939</ele>
        <time>2021-09-30T08:38:18.000Z</time>
      </trkpt>
      <trkpt lat="47.36965" lon="-2.36368">
        <ele>-16.200000762939</ele>
        <time>2021-09-30T08:38:27.000Z</time>
      </trkpt>
      <trkpt lat="47.37006" lon="-2.36366">
        <ele>-16.200000762939</ele>
        <time>2021-09-30T08:38:34.000Z</time>
      </trkpt>
      <trkpt lat="47.3705" lon="-2.36366">
        <ele>-16.200000762939</ele>
        <time>2021-09-30T08:38:42.000Z</time>
      </trkpt>
      <trkpt lat="47.37072" lon="-2.36361">
        <ele>-16.200000762939</ele>
        <time>2021-09-30T08:38:46.000Z</time>
      </trkpt>
      <trkpt lat="47.37077" lon="-2.36356">
        <ele>-16.200000762939</ele>
        <time>2021-09-30T08:38:47.000Z</time>
      </trkpt>
      <trkpt lat="47.37091" lon="-2.3633">
        <ele>-16.200000762939</ele>
        <time>2021-09-30T08:38:51.000Z</time>
      </trkpt>
      <trkpt lat="47.37113" lon="-2.36282">
        <ele>-16.200000762939</ele>
        <time>2021-09-30T08:38:58.000Z</time>
      </trkpt>
      <trkpt lat="47.37145" lon="-2.36218">
        <ele>-16.200000762939</ele>
        <time>2021-09-30T08:39:07.000Z</time>
      </trkpt>
      <trkpt lat="47.37154" lon="-2.36196">
        <ele>-17</ele>
        <time>2021-09-30T08:39:10.000Z</time>
      </trkpt>
      <trkpt lat="47.37158" lon="-2.36189">
        <ele>-17.39999961853</ele>
        <time>2021-09-30T08:39:11.000Z</time>
      </trkpt>
      <trkpt lat="47.37161" lon="-2.36182">
        <ele>-17.799999237061</ele>
        <time>2021-09-30T08:39:12.000Z</time>
      </trkpt>
      <trkpt lat="47.37164" lon="-2.36175">
        <ele>-18.200000762939</ele>
        <time>2021-09-30T08:39:13.000Z</time>
      </trkpt>
      <trkpt lat="47.37167" lon="-2.36167">
        <ele>-18.200000762939</ele>
        <time>2021-09-30T08:39:14.000Z</time>
      </trkpt>
      <trkpt lat="47.37195" lon="-2.36111">
        <ele>-18.200000762939</ele>
        <time>2021-09-30T08:39:22.000Z</time>
      </trkpt>
      <trkpt lat="47.37204" lon="-2.36094">
        <ele>-18.200000762939</ele>
        <time>2021-09-30T08:39:25.000Z</time>
      </trkpt>
      <trkpt lat="47.37211" lon="-2.36089">
        <ele>-18.200000762939</ele>
        <time>2021-09-30T08:39:27.000Z</time>
      </trkpt>
      <trkpt lat="47.37218" lon="-2.36093">
        <ele>-18.799999237061</ele>
        <time>2021-09-30T08:39:29.000Z</time>
      </trkpt>
      <trkpt lat="47.3722" lon="-2.36095">
        <ele>-19.200000762939</ele>
        <time>2021-09-30T08:39:30.000Z</time>
      </trkpt>
      <trkpt lat="47.37222" lon="-2.36096">
        <ele>-19.60000038147</ele>
        <time>2021-09-30T08:39:31.000Z</time>
      </trkpt>
      <trkpt lat="47.37224" lon="-2.36097">
        <ele>-20</ele>
        <time>2021-09-30T08:39:32.000Z</time>
      </trkpt>
      <trkpt lat="47.37225" lon="-2.36097">
        <ele>-20.39999961853</ele>
        <time>2021-09-30T08:39:33.000Z</time>
      </trkpt>
      <trkpt lat="47.37227" lon="-2.36096">
        <ele>-20.39999961853</ele>
        <time>2021-09-30T08:39:34.000Z</time>
      </trkpt>
      <trkpt lat="47.3723" lon="-2.36091">
        <ele>-20.39999961853</ele>
        <time>2021-09-30T08:39:38.000Z</time>
      </trkpt>
      <trkpt lat="47.3723" lon="-2.36092">
        <ele>-22.39999961853</ele>
        <time>2021-09-30T08:53:19.000Z</time>
      </trkpt>
      <trkpt lat="47.3724" lon="-2.36102">
        <ele>-22.39999961853</ele>
        <time>2021-09-30T08:53:26.000Z</time>
      </trkpt>
      <trkpt lat="47.3724" lon="-2.36104">
        <ele>-22.39999961853</ele>
        <time>2021-09-30T08:53:28.000Z</time>
      </trkpt>
      <trkpt lat="47.37269" lon="-2.36125">
        <ele>-24.60000038147</ele>
        <time>2021-09-30T08:54:52.000Z</time>
      </trkpt>
      <trkpt lat="47.37271" lon="-2.36126">
        <ele>-24.60000038147</ele>
        <time>2021-09-30T08:54:53.000Z</time>
      </trkpt>
      <trkpt lat="47.3728" lon="-2.36134">
        <ele>-24.60000038147</ele>
        <time>2021-09-30T08:54:57.000Z</time>
      </trkpt>
      <trkpt lat="47.37283" lon="-2.36133">
        <ele>-24.60000038147</ele>
        <time>2021-09-30T08:54:58.000Z</time>
      </trkpt>
      <trkpt lat="47.37289" lon="-2.36126">
        <ele>-24.60000038147</ele>
        <time>2021-09-30T08:55:01.000Z</time>
      </trkpt>
      <trkpt lat="47.37293" lon="-2.36121">
        <ele>-24.60000038147</ele>
        <time>2021-09-30T08:55:03.000Z</time>
      </trkpt>
      <trkpt lat="47.37297" lon="-2.36119">
        <ele>-24.60000038147</ele>
        <time>2021-09-30T08:55:04.000Z</time>
      </trkpt>
      <trkpt lat="47.3731" lon="-2.36119">
        <ele>-24.60000038147</ele>
        <time>2021-09-30T08:55:07.000Z</time>
      </trkpt>
      <trkpt lat="47.37335" lon="-2.36121">
        <ele>-24.60000038147</ele>
        <time>2021-09-30T08:55:13.000Z</time>
      </trkpt>
      <trkpt lat="47.37348" lon="-2.36127">
        <ele>-24.60000038147</ele>
        <time>2021-09-30T08:55:16.000Z</time>
      </trkpt>
      <trkpt lat="47.37356" lon="-2.36127">
        <ele>-24.60000038147</ele>
        <time>2021-09-30T08:55:18.000Z</time>
      </trkpt>
      <trkpt lat="47.37363" lon="-2.3612">
        <ele>-24.60000038147</ele>
        <time>2021-09-30T08:55:20.000Z</time>
      </trkpt>
      <trkpt lat="47.37367" lon="-2.36116">
        <ele>-24.60000038147</ele>
        <time>2021-09-30T08:55:21.000Z</time>
      </trkpt>
      <trkpt lat="47.37371" lon="-2.36113">
        <ele>-24.60000038147</ele>
        <time>2021-09-30T08:55:22.000Z</time>
      </trkpt>
      <trkpt lat="47.37379" lon="-2.36108">
        <ele>-24.60000038147</ele>
        <time>2021-09-30T08:55:24.000Z</time>
      </trkpt>
      <trkpt lat="47.37389" lon="-2.36109">
        <ele>-24.60000038147</ele>
        <time>2021-09-30T08:55:26.000Z</time>
      </trkpt>
      <trkpt lat="47.37399" lon="-2.36122">
        <ele>-24.60000038147</ele>
        <time>2021-09-30T08:55:29.000Z</time>
      </trkpt>
      <trkpt lat="47.3742" lon="-2.3614">
        <ele>-24.60000038147</ele>
        <time>2021-09-30T08:55:35.000Z</time>
      </trkpt>
      <trkpt lat="47.37427" lon="-2.36137">
        <ele>-24.60000038147</ele>
        <time>2021-09-30T08:55:37.000Z</time>
      </trkpt>
      <trkpt lat="47.3744" lon="-2.36127">
        <ele>-24.60000038147</ele>
        <time>2021-09-30T08:55:40.000Z</time>
      </trkpt>
      <trkpt lat="47.37443" lon="-2.36124">
        <ele>-24</ele>
        <time>2021-09-30T08:55:41.000Z</time>
      </trkpt>
      <trkpt lat="47.37447" lon="-2.36122">
        <ele>-23.60000038147</ele>
        <time>2021-09-30T08:55:42.000Z</time>
      </trkpt>
      <trkpt lat="47.37451" lon="-2.36119">
        <ele>-23.200000762939</ele>
        <time>2021-09-30T08:55:43.000Z</time>
      </trkpt>
      <trkpt lat="47.37455" lon="-2.36116">
        <ele>-22.799999237061</ele>
        <time>2021-09-30T08:55:44.000Z</time>
      </trkpt>
      <trkpt lat="47.37459" lon="-2.36113">
        <ele>-22.39999961853</ele>
        <time>2021-09-30T08:55:45.000Z</time>
      </trkpt>
      <trkpt lat="47.37467" lon="-2.36109">
        <ele>-22.39999961853</ele>
        <time>2021-09-30T08:55:47.000Z</time>
      </trkpt>
      <trkpt lat="47.3747" lon="-2.36107">
        <ele>-22</ele>
        <time>2021-09-30T08:55:48.000Z</time>
      </trkpt>
      <trkpt lat="47.37474" lon="-2.36105">
        <ele>-21.60000038147</ele>
        <time>2021-09-30T08:55:49.000Z</time>
      </trkpt>
      <trkpt lat="47.37478" lon="-2.36102">
        <ele>-21</ele>
        <time>2021-09-30T08:55:50.000Z</time>
      </trkpt>
      <trkpt lat="47.37481" lon="-2.361">
        <ele>-20.60000038147</ele>
        <time>2021-09-30T08:55:51.000Z</time>
      </trkpt>
      <trkpt lat="47.37485" lon="-2.36098">
        <ele>-20.200000762939</ele>
        <time>2021-09-30T08:55:52.000Z</time>
      </trkpt>
      <trkpt lat="47.37488" lon="-2.36096">
        <ele>-20.200000762939</ele>
        <time>2021-09-30T08:55:53.000Z</time>
      </trkpt>
      <trkpt lat="47.37515" lon="-2.36081">
        <ele>-20.200000762939</ele>
        <time>2021-09-30T08:56:00.000Z</time>
      </trkpt>
      <trkpt lat="47.37523" lon="-2.36077">
        <ele>-19.799999237061</ele>
        <time>2021-09-30T08:56:02.000Z</time>
      </trkpt>
      <trkpt lat="47.37528" lon="-2.36075">
        <ele>-19.39999961853</ele>
        <time>2021-09-30T08:56:03.000Z</time>
      </trkpt>
      <trkpt lat="47.37532" lon="-2.36074">
        <ele>-19</ele>
        <time>2021-09-30T08:56:04.000Z</time>
      </trkpt>
      <trkpt lat="47.37536" lon="-2.36072">
        <ele>-18.60000038147</ele>
        <time>2021-09-30T08:56:05.000Z</time>
      </trkpt>
      <trkpt lat="47.3754" lon="-2.36071">
        <ele>-18.200000762939</ele>
        <time>2021-09-30T08:56:06.000Z</time>
      </trkpt>
      <trkpt lat="47.37545" lon="-2.3607">
        <ele>-18.200000762939</ele>
        <time>2021-09-30T08:56:07.000Z</time>
      </trkpt>
      <trkpt lat="47.37575" lon="-2.36058">
        <ele>-18.200000762939</ele>
        <time>2021-09-30T08:56:14.000Z</time>
      </trkpt>
      <trkpt lat="47.37599" lon="-2.3605">
        <ele>-18.200000762939</ele>
        <time>2021-09-30T08:56:20.000Z</time>
      </trkpt>
      <trkpt lat="47.37615" lon="-2.36049">
        <ele>-18.200000762939</ele>
        <time>2021-09-30T08:56:24.000Z</time>
      </trkpt>
      <trkpt lat="47.37624" lon="-2.36047">
        <ele>-18.200000762939</ele>
        <time>2021-09-30T08:56:26.000Z</time>
      </trkpt>
      <trkpt lat="47.37639" lon="-2.36038">
        <ele>-18.200000762939</ele>
        <time>2021-09-30T08:56:30.000Z</time>
      </trkpt>
      <trkpt lat="47.3764" lon="-2.36032">
        <ele>-18.200000762939</ele>
        <time>2021-09-30T08:56:31.000Z</time>
      </trkpt>
      <trkpt lat="47.37646" lon="-2.36006">
        <ele>-18.200000762939</ele>
        <time>2021-09-30T08:56:36.000Z</time>
      </trkpt>
      <trkpt lat="47.3765" lon="-2.36005">
        <ele>-18.200000762939</ele>
        <time>2021-09-30T08:56:37.000Z</time>
      </trkpt>
      <trkpt lat="47.37668" lon="-2.3601">
        <ele>-18.200000762939</ele>
        <time>2021-09-30T08:56:42.000Z</time>
      </trkpt>
      <trkpt lat="47.37693" lon="-2.3602">
        <ele>-18.200000762939</ele>
        <time>2021-09-30T08:56:49.000Z</time>
      </trkpt>
      <trkpt lat="47.37713" lon="-2.3603">
        <ele>-18.200000762939</ele>
        <time>2021-09-30T08:56:56.000Z</time>
      </trkpt>
      <trkpt lat="47.37737" lon="-2.36047">
        <ele>-18.200000762939</ele>
        <time>2021-09-30T08:57:02.000Z</time>
      </trkpt>
      <trkpt lat="47.37764" lon="-2.36065">
        <ele>-18.200000762939</ele>
        <time>2021-09-30T08:57:09.000Z</time>
      </trkpt>
      <trkpt lat="47.37794" lon="-2.36081">
        <ele>-18.200000762939</ele>
        <time>2021-09-30T08:57:17.000Z</time>
      </trkpt>
      <trkpt lat="47.3782" lon="-2.36094">
        <ele>-18.200000762939</ele>
        <time>2021-09-30T08:57:24.000Z</time>
      </trkpt>
      <trkpt lat="47.37845" lon="-2.36107">
        <ele>-18.200000762939</ele>
        <time>2021-09-30T08:57:31.000Z</time>
      </trkpt>
      <trkpt lat="47.37868" lon="-2.36119">
        <ele>-18.200000762939</ele>
        <time>2021-09-30T08:57:37.000Z</time>
      </trkpt>
      <trkpt lat="47.37896" lon="-2.36128">
        <ele>-18.200000762939</ele>
        <time>2021-09-30T08:57:44.000Z</time>
      </trkpt>
      <trkpt lat="47.37915" lon="-2.36122">
        <ele>-18.200000762939</ele>
        <time>2021-09-30T08:57:48.000Z</time>
      </trkpt>
      <trkpt lat="47.3792" lon="-2.3612">
        <ele>-18.200000762939</ele>
        <time>2021-09-30T08:57:49.000Z</time>
      </trkpt>
      <trkpt lat="47.37953" lon="-2.36102">
        <ele>-18.200000762939</ele>
        <time>2021-09-30T08:57:56.000Z</time>
      </trkpt>
      <trkpt lat="47.37997" lon="-2.36077">
        <ele>-18.200000762939</ele>
        <time>2021-09-30T08:58:05.000Z</time>
      </trkpt>
      <trkpt lat="47.38031" lon="-2.36065">
        <ele>-18.200000762939</ele>
        <time>2021-09-30T08:58:11.000Z</time>
      </trkpt>
      <trkpt lat="47.38066" lon="-2.36054">
        <ele>-18.200000762939</ele>
        <time>2021-09-30T08:58:17.000Z</time>
      </trkpt>
      <trkpt lat="47.38115" lon="-2.36038">
        <ele>-18.200000762939</ele>
        <time>2021-09-30T08:58:25.000Z</time>
      </trkpt>
      <trkpt lat="47.38151" lon="-2.36018">
        <ele>-18.200000762939</ele>
        <time>2021-09-30T08:58:31.000Z</time>
      </trkpt>
      <trkpt lat="47.38192" lon="-2.35988">
        <ele>-18.200000762939</ele>
        <time>2021-09-30T08:58:38.000Z</time>
      </trkpt>
      <trkpt lat="47.38215" lon="-2.35973">
        <ele>-18.60000038147</ele>
        <time>2021-09-30T08:58:42.000Z</time>
      </trkpt>
      <trkpt lat="47.38221" lon="-2.3597">
        <ele>-19</ele>
        <time>2021-09-30T08:58:43.000Z</time>
      </trkpt>
      <trkpt lat="47.38227" lon="-2.35966">
        <ele>-19.39999961853</ele>
        <time>2021-09-30T08:58:44.000Z</time>
      </trkpt>
      <trkpt lat="47.38234" lon="-2.35962">
        <ele>-19.799999237061</ele>
        <time>2021-09-30T08:58:45.000Z</time>
      </trkpt>
      <trkpt lat="47.3824" lon="-2.35958">
        <ele>-20.200000762939</ele>
        <time>2021-09-30T08:58:46.000Z</time>
      </trkpt>
      <trkpt lat="47.38264" lon="-2.3594">
        <ele>-20.200000762939</ele>
        <time>2021-09-30T08:58:50.000Z</time>
      </trkpt>
      <trkpt lat="47.38285" lon="-2.35928">
        <ele>-20.200000762939</ele>
        <time>2021-09-30T08:58:54.000Z</time>
      </trkpt>
      <trkpt lat="47.38289" lon="-2.35927">
        <ele>-20.200000762939</ele>
        <time>2021-09-30T08:58:55.000Z</time>
      </trkpt>
      <trkpt lat="47.38294" lon="-2.35934">
        <ele>-21</ele>
        <time>2021-09-30T08:58:57.000Z</time>
      </trkpt>
      <trkpt lat="47.38296" lon="-2.35939">
        <ele>-21.39999961853</ele>
        <time>2021-09-30T08:58:58.000Z</time>
      </trkpt>
      <trkpt lat="47.38298" lon="-2.35943">
        <ele>-21.799999237061</ele>
        <time>2021-09-30T08:58:59.000Z</time>
      </trkpt>
      <trkpt lat="47.38299" lon="-2.35949">
        <ele>-22.39999961853</ele>
        <time>2021-09-30T08:59:00.000Z</time>
      </trkpt>
      <trkpt lat="47.38302" lon="-2.35961">
        <ele>-22.39999961853</ele>
        <time>2021-09-30T08:59:02.000Z</time>
      </trkpt>
      <trkpt lat="47.38304" lon="-2.35967">
        <ele>-22.39999961853</ele>
        <time>2021-09-30T08:59:03.000Z</time>
      </trkpt>
      <trkpt lat="47.38309" lon="-2.35987">
        <ele>-22.39999961853</ele>
        <time>2021-09-30T08:59:06.000Z</time>
      </trkpt>
      <trkpt lat="47.38312" lon="-2.36002">
        <ele>-22.39999961853</ele>
        <time>2021-09-30T08:59:08.000Z</time>
      </trkpt>
      <trkpt lat="47.38313" lon="-2.3601">
        <ele>-22.39999961853</ele>
        <time>2021-09-30T08:59:09.000Z</time>
      </trkpt>
      <trkpt lat="47.38317" lon="-2.36041">
        <ele>-22.39999961853</ele>
        <time>2021-09-30T08:59:13.000Z</time>
      </trkpt>
      <trkpt lat="47.38319" lon="-2.36048">
        <ele>-22.39999961853</ele>
        <time>2021-09-30T08:59:14.000Z</time>
      </trkpt>
      <trkpt lat="47.38327" lon="-2.36068">
        <ele>-22.39999961853</ele>
        <time>2021-09-30T08:59:17.000Z</time>
      </trkpt>
      <trkpt lat="47.38343" lon="-2.36111">
        <ele>-22.39999961853</ele>
        <time>2021-09-30T08:59:23.000Z</time>
      </trkpt>
      <trkpt lat="47.38346" lon="-2.36117">
        <ele>-22.39999961853</ele>
        <time>2021-09-30T08:59:24.000Z</time>
      </trkpt>
      <trkpt lat="47.38356" lon="-2.36143">
        <ele>-22.39999961853</ele>
        <time>2021-09-30T08:59:28.000Z</time>
      </trkpt>
      <trkpt lat="47.38357" lon="-2.36151">
        <ele>-22.39999961853</ele>
        <time>2021-09-30T08:59:29.000Z</time>
      </trkpt>
      <trkpt lat="47.38364" lon="-2.36173">
        <ele>-22.39999961853</ele>
        <time>2021-09-30T08:59:32.000Z</time>
      </trkpt>
      <trkpt lat="47.38368" lon="-2.36178">
        <ele>-22.39999961853</ele>
        <time>2021-09-30T08:59:33.000Z</time>
      </trkpt>
      <trkpt lat="47.38381" lon="-2.36191">
        <ele>-22.39999961853</ele>
        <time>2021-09-30T08:59:36.000Z</time>
      </trkpt>
      <trkpt lat="47.38391" lon="-2.36195">
        <ele>-22.39999961853</ele>
        <time>2021-09-30T08:59:38.000Z</time>
      </trkpt>
      <trkpt lat="47.38405" lon="-2.36198">
        <ele>-22.39999961853</ele>
        <time>2021-09-30T08:59:41.000Z</time>
      </trkpt>
      <trkpt lat="47.38413" lon="-2.36201">
        <ele>-22.39999961853</ele>
        <time>2021-09-30T08:59:43.000Z</time>
      </trkpt>
      <trkpt lat="47.38425" lon="-2.36203">
        <ele>-22.39999961853</ele>
        <time>2021-09-30T08:59:47.000Z</time>
      </trkpt>
      <trkpt lat="47.38426" lon="-2.36205">
        <ele>-22.39999961853</ele>
        <time>2021-09-30T08:59:48.000Z</time>
      </trkpt>
      <trkpt lat="47.38427" lon="-2.3621">
        <ele>-22.39999961853</ele>
        <time>2021-09-30T08:59:50.000Z</time>
      </trkpt>
      <trkpt lat="47.3843" lon="-2.36217">
        <ele>-22.39999961853</ele>
        <time>2021-09-30T08:59:52.000Z</time>
      </trkpt>
      <trkpt lat="47.38439" lon="-2.36226">
        <ele>-22.39999961853</ele>
        <time>2021-09-30T08:59:55.000Z</time>
      </trkpt>
      <trkpt lat="47.38454" lon="-2.36244">
        <ele>-22.39999961853</ele>
        <time>2021-09-30T09:00:00.000Z</time>
      </trkpt>
      <trkpt lat="47.38464" lon="-2.36258">
        <ele>-22.39999961853</ele>
        <time>2021-09-30T09:00:05.000Z</time>
      </trkpt>
      <trkpt lat="47.38467" lon="-2.36259">
        <ele>-22.39999961853</ele>
        <time>2021-09-30T09:00:07.000Z</time>
      </trkpt>
      <trkpt lat="47.38471" lon="-2.36256">
        <ele>-22.39999961853</ele>
        <time>2021-09-30T09:00:09.000Z</time>
      </trkpt>
      <trkpt lat="47.38484" lon="-2.36246">
        <ele>-22.39999961853</ele>
        <time>2021-09-30T09:00:14.000Z</time>
      </trkpt>
      <trkpt lat="47.38496" lon="-2.36248">
        <ele>-22.39999961853</ele>
        <time>2021-09-30T09:00:18.000Z</time>
      </trkpt>
      <trkpt lat="47.38498" lon="-2.36249">
        <ele>-22.39999961853</ele>
        <time>2021-09-30T09:00:19.000Z</time>
      </trkpt>
      <trkpt lat="47.38508" lon="-2.36254">
        <ele>-22.39999961853</ele>
        <time>2021-09-30T09:00:26.000Z</time>
      </trkpt>
      <trkpt lat="47.38514" lon="-2.36256">
        <ele>-22.39999961853</ele>
        <time>2021-09-30T09:00:30.000Z</time>
      </trkpt>
      <trkpt lat="47.38523" lon="-2.36256">
        <ele>-22.39999961853</ele>
        <time>2021-09-30T09:01:37.000Z</time>
      </trkpt>
      <trkpt lat="47.38525" lon="-2.36257">
        <ele>-22.39999961853</ele>
        <time>2021-09-30T09:01:38.000Z</time>
      </trkpt>
      <trkpt lat="47.38551" lon="-2.36259">
        <ele>-22.39999961853</ele>
        <time>2021-09-30T09:01:45.000Z</time>
      </trkpt>
      <trkpt lat="47.38574" lon="-2.36257">
        <ele>-22.39999961853</ele>
        <time>2021-09-30T09:01:51.000Z</time>
      </trkpt>
      <trkpt lat="47.38603" lon="-2.36264">
        <ele>-22.39999961853</ele>
        <time>2021-09-30T09:01:58.000Z</time>
      </trkpt>
      <trkpt lat="47.38619" lon="-2.36283">
        <ele>-22.39999961853</ele>
        <time>2021-09-30T09:02:03.000Z</time>
      </trkpt>
      <trkpt lat="47.3862" lon="-2.36291">
        <ele>-22.39999961853</ele>
        <time>2021-09-30T09:02:04.000Z</time>
      </trkpt>
      <trkpt lat="47.38621" lon="-2.36304">
        <ele>-22.39999961853</ele>
        <time>2021-09-30T09:02:06.000Z</time>
      </trkpt>
      <trkpt lat="47.38621" lon="-2.36312">
        <ele>-22.39999961853</ele>
        <time>2021-09-30T09:02:07.000Z</time>
      </trkpt>
      <trkpt lat="47.38617" lon="-2.36334">
        <ele>-22.39999961853</ele>
        <time>2021-09-30T09:02:10.000Z</time>
      </trkpt>
      <trkpt lat="47.38614" lon="-2.36347">
        <ele>-22.39999961853</ele>
        <time>2021-09-30T09:02:12.000Z</time>
      </trkpt>
      <trkpt lat="47.38611" lon="-2.36354">
        <ele>-22.39999961853</ele>
        <time>2021-09-30T09:02:13.000Z</time>
      </trkpt>
      <trkpt lat="47.38594" lon="-2.36393">
        <ele>-22.39999961853</ele>
        <time>2021-09-30T09:02:19.000Z</time>
      </trkpt>
      <trkpt lat="47.3857" lon="-2.36448">
        <ele>-22.39999961853</ele>
        <time>2021-09-30T09:02:27.000Z</time>
      </trkpt>
      <trkpt lat="47.38546" lon="-2.365">
        <ele>-22.39999961853</ele>
        <time>2021-09-30T09:02:34.000Z</time>
      </trkpt>
      <trkpt lat="47.38538" lon="-2.36514">
        <ele>-22.39999961853</ele>
        <time>2021-09-30T09:02:36.000Z</time>
      </trkpt>
      <trkpt lat="47.3852" lon="-2.36537">
        <ele>-22.39999961853</ele>
        <time>2021-09-30T09:02:40.000Z</time>
      </trkpt>
      <trkpt lat="47.38493" lon="-2.36562">
        <ele>-22.39999961853</ele>
        <time>2021-09-30T09:02:45.000Z</time>
      </trkpt>
      <trkpt lat="47.38487" lon="-2.36565">
        <ele>-22.39999961853</ele>
        <time>2021-09-30T09:02:46.000Z</time>
      </trkpt>
      <trkpt lat="47.3847" lon="-2.36571">
        <ele>-22.39999961853</ele>
        <time>2021-09-30T09:02:49.000Z</time>
      </trkpt>
      <trkpt lat="47.38458" lon="-2.36577">
        <ele>-22.39999961853</ele>
        <time>2021-09-30T09:02:51.000Z</time>
      </trkpt>
      <trkpt lat="47.38436" lon="-2.36587">
        <ele>-22.39999961853</ele>
        <time>2021-09-30T09:02:55.000Z</time>
      </trkpt>
      <trkpt lat="47.38425" lon="-2.36596">
        <ele>-22.39999961853</ele>
        <time>2021-09-30T09:02:57.000Z</time>
      </trkpt>
      <trkpt lat="47.38409" lon="-2.36623">
        <ele>-22.39999961853</ele>
        <time>2021-09-30T09:03:01.000Z</time>
      </trkpt>
      <trkpt lat="47.38405" lon="-2.36631">
        <ele>-22.39999961853</ele>
        <time>2021-09-30T09:03:02.000Z</time>
      </trkpt>
      <trkpt lat="47.38399" lon="-2.36647">
        <ele>-22.39999961853</ele>
        <time>2021-09-30T09:03:04.000Z</time>
      </trkpt>
      <trkpt lat="47.38393" lon="-2.36662">
        <ele>-22.39999961853</ele>
        <time>2021-09-30T09:03:06.000Z</time>
      </trkpt>
      <trkpt lat="47.38387" lon="-2.36685">
        <ele>-22.39999961853</ele>
        <time>2021-09-30T09:03:09.000Z</time>
      </trkpt>
      <trkpt lat="47.38381" lon="-2.36698">
        <ele>-22.39999961853</ele>
        <time>2021-09-30T09:03:11.000Z</time>
      </trkpt>
      <trkpt lat="47.38367" lon="-2.36743">
        <ele>-22.39999961853</ele>
        <time>2021-09-30T09:03:17.000Z</time>
      </trkpt>
      <trkpt lat="47.38357" lon="-2.36764">
        <ele>-22.39999961853</ele>
        <time>2021-09-30T09:03:20.000Z</time>
      </trkpt>
      <trkpt lat="47.38352" lon="-2.3677">
        <ele>-22.39999961853</ele>
        <time>2021-09-30T09:03:21.000Z</time>
      </trkpt>
      <trkpt lat="47.38332" lon="-2.36783">
        <ele>-22.39999961853</ele>
        <time>2021-09-30T09:03:25.000Z</time>
      </trkpt>
      <trkpt lat="47.38327" lon="-2.36785">
        <ele>-22.39999961853</ele>
        <time>2021-09-30T09:03:26.000Z</time>
      </trkpt>
      <trkpt lat="47.38298" lon="-2.36795">
        <ele>-22.39999961853</ele>
        <time>2021-09-30T09:03:31.000Z</time>
      </trkpt>
      <trkpt lat="47.38292" lon="-2.36797">
        <ele>-22.39999961853</ele>
        <time>2021-09-30T09:03:32.000Z</time>
      </trkpt>
      <trkpt lat="47.3827" lon="-2.36806">
        <ele>-22.39999961853</ele>
        <time>2021-09-30T09:03:36.000Z</time>
      </trkpt>
      <trkpt lat="47.38242" lon="-2.3682">
        <ele>-22.39999961853</ele>
        <time>2021-09-30T09:03:41.000Z</time>
      </trkpt>
      <trkpt lat="47.38211" lon="-2.36837">
        <ele>-22.39999961853</ele>
        <time>2021-09-30T09:03:47.000Z</time>
      </trkpt>
      <trkpt lat="47.38197" lon="-2.36846">
        <ele>-21.799999237061</ele>
        <time>2021-09-30T09:03:50.000Z</time>
      </trkpt>
      <trkpt lat="47.38193" lon="-2.36849">
        <ele>-21.39999961853</ele>
        <time>2021-09-30T09:03:51.000Z</time>
      </trkpt>
      <trkpt lat="47.38189" lon="-2.36851">
        <ele>-21</ele>
        <time>2021-09-30T09:03:52.000Z</time>
      </trkpt>
      <trkpt lat="47.38185" lon="-2.36854">
        <ele>-20</ele>
        <time>2021-09-30T09:03:53.000Z</time>
      </trkpt>
      <trkpt lat="47.38181" lon="-2.36855">
        <ele>-20</ele>
        <time>2021-09-30T09:03:54.000Z</time>
      </trkpt>
      <trkpt lat="47.38173" lon="-2.3686">
        <ele>-20</ele>
        <time>2021-09-30T09:03:56.000Z</time>
      </trkpt>
      <trkpt lat="47.38157" lon="-2.3687">
        <ele>-20</ele>
        <time>2021-09-30T09:04:00.000Z</time>
      </trkpt>
      <trkpt lat="47.38153" lon="-2.36872">
        <ele>-19.60000038147</ele>
        <time>2021-09-30T09:04:01.000Z</time>
      </trkpt>
      <trkpt lat="47.38148" lon="-2.36875">
        <ele>-19.200000762939</ele>
        <time>2021-09-30T09:04:02.000Z</time>
      </trkpt>
      <trkpt lat="47.38144" lon="-2.36877">
        <ele>-18.799999237061</ele>
        <time>2021-09-30T09:04:03.000Z</time>
      </trkpt>
      <trkpt lat="47.38139" lon="-2.36879">
        <ele>-18.39999961853</ele>
        <time>2021-09-30T09:04:04.000Z</time>
      </trkpt>
      <trkpt lat="47.38135" lon="-2.36881">
        <ele>-18</ele>
        <time>2021-09-30T09:04:05.000Z</time>
      </trkpt>
      <trkpt lat="47.38127" lon="-2.36886">
        <ele>-18</ele>
        <time>2021-09-30T09:04:07.000Z</time>
      </trkpt>
      <trkpt lat="47.38108" lon="-2.36902">
        <ele>-18</ele>
        <time>2021-09-30T09:04:13.000Z</time>
      </trkpt>
      <trkpt lat="47.38111" lon="-2.36916">
        <ele>-18</ele>
        <time>2021-09-30T09:04:17.000Z</time>
      </trkpt>
      <trkpt lat="47.38114" lon="-2.36923">
        <ele>-18</ele>
        <time>2021-09-30T09:04:19.000Z</time>
      </trkpt>
      <trkpt lat="47.38122" lon="-2.36947">
        <ele>-18</ele>
        <time>2021-09-30T09:04:24.000Z</time>
      </trkpt>
      <trkpt lat="47.38135" lon="-2.36983">
        <ele>-18</ele>
        <time>2021-09-30T09:04:31.000Z</time>
      </trkpt>
      <trkpt lat="47.38148" lon="-2.37015">
        <ele>-18</ele>
        <time>2021-09-30T09:04:37.000Z</time>
      </trkpt>
      <trkpt lat="47.38163" lon="-2.37045">
        <ele>-18</ele>
        <time>2021-09-30T09:04:42.000Z</time>
      </trkpt>
      <trkpt lat="47.38184" lon="-2.37087">
        <ele>-18</ele>
        <time>2021-09-30T09:04:48.000Z</time>
      </trkpt>
      <trkpt lat="47.38205" lon="-2.3713">
        <ele>-18</ele>
        <time>2021-09-30T09:04:53.000Z</time>
      </trkpt>
      <trkpt lat="47.38219" lon="-2.37159">
        <ele>-18.39999961853</ele>
        <time>2021-09-30T09:04:56.000Z</time>
      </trkpt>
      <trkpt lat="47.38224" lon="-2.37168">
        <ele>-18.799999237061</ele>
        <time>2021-09-30T09:04:57.000Z</time>
      </trkpt>
      <trkpt lat="47.38229" lon="-2.37178">
        <ele>-19.39999961853</ele>
        <time>2021-09-30T09:04:58.000Z</time>
      </trkpt>
      <trkpt lat="47.38233" lon="-2.37187">
        <ele>-19.799999237061</ele>
        <time>2021-09-30T09:04:59.000Z</time>
      </trkpt>
      <trkpt lat="47.38237" lon="-2.37195">
        <ele>-20.39999961853</ele>
        <time>2021-09-30T09:05:00.000Z</time>
      </trkpt>
      <trkpt lat="47.38242" lon="-2.37208">
        <ele>-20.39999961853</ele>
        <time>2021-09-30T09:05:02.000Z</time>
      </trkpt>
      <trkpt lat="47.38244" lon="-2.37213">
        <ele>-20.39999961853</ele>
        <time>2021-09-30T09:05:03.000Z</time>
      </trkpt>
      <trkpt lat="47.38245" lon="-2.37216">
        <ele>-20.799999237061</ele>
        <time>2021-09-30T09:05:04.000Z</time>
      </trkpt>
      <trkpt lat="47.38246" lon="-2.37218">
        <ele>-21.200000762939</ele>
        <time>2021-09-30T09:05:05.000Z</time>
      </trkpt>
      <trkpt lat="47.38246" lon="-2.37219">
        <ele>-21.60000038147</ele>
        <time>2021-09-30T09:05:06.000Z</time>
      </trkpt>
      <trkpt lat="47.38247" lon="-2.3722">
        <ele>-22.39999961853</ele>
        <time>2021-09-30T09:05:07.000Z</time>
      </trkpt>
      <trkpt lat="47.38249" lon="-2.37223">
        <ele>-22.39999961853</ele>
        <time>2021-09-30T09:05:10.000Z</time>
      </trkpt>
      <trkpt lat="47.38255" lon="-2.37221">
        <ele>-22.39999961853</ele>
        <time>2021-09-30T09:05:13.000Z</time>
      </trkpt>
      <trkpt lat="47.38257" lon="-2.3722">
        <ele>-22.39999961853</ele>
        <time>2021-09-30T09:05:14.000Z</time>
      </trkpt>
      <trkpt lat="47.38267" lon="-2.37219">
        <ele>-22.39999961853</ele>
        <time>2021-09-30T09:05:19.000Z</time>
      </trkpt>
      <trkpt lat="47.38272" lon="-2.37221">
        <ele>-22.39999961853</ele>
        <time>2021-09-30T09:05:24.000Z</time>
      </trkpt>
      <trkpt lat="47.38272" lon="-2.37221">
        <ele>-22.39999961853</ele>
        <time>2021-09-30T09:05:25.000Z</time>
      </trkpt>
      <trkpt lat="47.38288" lon="-2.37231">
        <ele>-22.39999961853</ele>
        <time>2021-09-30T09:05:41.000Z</time>
      </trkpt>
      <trkpt lat="47.38292" lon="-2.37236">
        <ele>-22.39999961853</ele>
        <time>2021-09-30T09:05:43.000Z</time>
      </trkpt>
      <trkpt lat="47.38309" lon="-2.37264">
        <ele>-22.39999961853</ele>
        <time>2021-09-30T09:05:53.000Z</time>
      </trkpt>
      <trkpt lat="47.38319" lon="-2.37283">
        <ele>-22.39999961853</ele>
        <time>2021-09-30T09:06:00.000Z</time>
      </trkpt>
      <trkpt lat="47.38329" lon="-2.37304">
        <ele>-22.39999961853</ele>
        <time>2021-09-30T09:06:07.000Z</time>
      </trkpt>
      <trkpt lat="47.38334" lon="-2.37323">
        <ele>-22.39999961853</ele>
        <time>2021-09-30T09:06:13.000Z</time>
      </trkpt>
      <trkpt lat="47.38334" lon="-2.37337">
        <ele>-22.39999961853</ele>
        <time>2021-09-30T09:06:20.000Z</time>
      </trkpt>
      <trkpt lat="47.38334" lon="-2.37348">
        <ele>-22.39999961853</ele>
        <time>2021-09-30T09:06:24.000Z</time>
      </trkpt>
      <trkpt lat="47.38335" lon="-2.37353">
        <ele>-22.39999961853</ele>
        <time>2021-09-30T09:06:26.000Z</time>
      </trkpt>
      <trkpt lat="47.38336" lon="-2.37379">
        <ele>-22.39999961853</ele>
        <time>2021-09-30T09:06:32.000Z</time>
      </trkpt>
      <trkpt lat="47.3834" lon="-2.37409">
        <ele>-22.39999961853</ele>
        <time>2021-09-30T09:06:38.000Z</time>
      </trkpt>
      <trkpt lat="47.38348" lon="-2.37444">
        <ele>-22.39999961853</ele>
        <time>2021-09-30T09:06:44.000Z</time>
      </trkpt>
      <trkpt lat="47.38356" lon="-2.37471">
        <ele>-22.39999961853</ele>
        <time>2021-09-30T09:06:48.000Z</time>
      </trkpt>
      <trkpt lat="47.38359" lon="-2.37502">
        <ele>-22.39999961853</ele>
        <time>2021-09-30T09:06:53.000Z</time>
      </trkpt>
      <trkpt lat="47.38359" lon="-2.37515">
        <ele>-22</ele>
        <time>2021-09-30T09:06:55.000Z</time>
      </trkpt>
      <trkpt lat="47.38359" lon="-2.37522">
        <ele>-21.60000038147</ele>
        <time>2021-09-30T09:06:56.000Z</time>
      </trkpt>
      <trkpt lat="47.38358" lon="-2.37528">
        <ele>-21.200000762939</ele>
        <time>2021-09-30T09:06:57.000Z</time>
      </trkpt>
      <trkpt lat="47.38358" lon="-2.37535">
        <ele>-20.799999237061</ele>
        <time>2021-09-30T09:06:58.000Z</time>
      </trkpt>
      <trkpt lat="47.38358" lon="-2.37542">
        <ele>-20.39999961853</ele>
        <time>2021-09-30T09:06:59.000Z</time>
      </trkpt>
      <trkpt lat="47.38357" lon="-2.37548">
        <ele>-20.39999961853</ele>
        <time>2021-09-30T09:07:00.000Z</time>
      </trkpt>
      <trkpt lat="47.38352" lon="-2.37579">
        <ele>-20.39999961853</ele>
        <time>2021-09-30T09:07:05.000Z</time>
      </trkpt>
      <trkpt lat="47.38349" lon="-2.37584">
        <ele>-20.39999961853</ele>
        <time>2021-09-30T09:07:06.000Z</time>
      </trkpt>
      <trkpt lat="47.38326" lon="-2.37597">
        <ele>-20.39999961853</ele>
        <time>2021-09-30T09:07:11.000Z</time>
      </trkpt>
      <trkpt lat="47.38308" lon="-2.37605">
        <ele>-20</ele>
        <time>2021-09-30T09:07:15.000Z</time>
      </trkpt>
      <trkpt lat="47.38303" lon="-2.37607">
        <ele>-19.60000038147</ele>
        <time>2021-09-30T09:07:16.000Z</time>
      </trkpt>
      <trkpt lat="47.38299" lon="-2.3761">
        <ele>-19.200000762939</ele>
        <time>2021-09-30T09:07:17.000Z</time>
      </trkpt>
      <trkpt lat="47.38294" lon="-2.37611">
        <ele>-18.60000038147</ele>
        <time>2021-09-30T09:07:18.000Z</time>
      </trkpt>
      <trkpt lat="47.3829" lon="-2.37613">
        <ele>-18.200000762939</ele>
        <time>2021-09-30T09:07:19.000Z</time>
      </trkpt>
      <trkpt lat="47.38276" lon="-2.37618">
        <ele>-18.200000762939</ele>
        <time>2021-09-30T09:07:24.000Z</time>
      </trkpt>
      <trkpt lat="47.38265" lon="-2.37618">
        <ele>-18.200000762939</ele>
        <time>2021-09-30T09:07:29.000Z</time>
      </trkpt>
      <trkpt lat="47.38253" lon="-2.37627">
        <ele>-18.200000762939</ele>
        <time>2021-09-30T09:07:34.000Z</time>
      </trkpt>
      <trkpt lat="47.38233" lon="-2.37637">
        <ele>-18.200000762939</ele>
        <time>2021-09-30T09:07:39.000Z</time>
      </trkpt>
      <trkpt lat="47.38215" lon="-2.37652">
        <ele>-17.799999237061</ele>
        <time>2021-09-30T09:07:44.000Z</time>
      </trkpt>
      <trkpt lat="47.38211" lon="-2.37655">
        <ele>-17.39999961853</ele>
        <time>2021-09-30T09:07:45.000Z</time>
      </trkpt>
      <trkpt lat="47.38207" lon="-2.37658">
        <ele>-17</ele>
        <time>2021-09-30T09:07:46.000Z</time>
      </trkpt>
      <trkpt lat="47.38203" lon="-2.37662">
        <ele>-16.60000038147</ele>
        <time>2021-09-30T09:07:47.000Z</time>
      </trkpt>
      <trkpt lat="47.38199" lon="-2.37667">
        <ele>-16.200000762939</ele>
        <time>2021-09-30T09:07:48.000Z</time>
      </trkpt>
      <trkpt lat="47.38194" lon="-2.3767">
        <ele>-16.200000762939</ele>
        <time>2021-09-30T09:07:49.000Z</time>
      </trkpt>
      <trkpt lat="47.3819" lon="-2.37673">
        <ele>-16.200000762939</ele>
        <time>2021-09-30T09:07:50.000Z</time>
      </trkpt>
      <trkpt lat="47.38155" lon="-2.37704">
        <ele>-16.200000762939</ele>
        <time>2021-09-30T09:07:58.000Z</time>
      </trkpt>
      <trkpt lat="47.38143" lon="-2.37715">
        <ele>-15.800000190735</ele>
        <time>2021-09-30T09:08:01.000Z</time>
      </trkpt>
      <trkpt lat="47.38139" lon="-2.37719">
        <ele>-15.39999961853</ele>
        <time>2021-09-30T09:08:02.000Z</time>
      </trkpt>
      <trkpt lat="47.38134" lon="-2.37722">
        <ele>-14.800000190735</ele>
        <time>2021-09-30T09:08:03.000Z</time>
      </trkpt>
      <trkpt lat="47.3813" lon="-2.37726">
        <ele>-14.39999961853</ele>
        <time>2021-09-30T09:08:04.000Z</time>
      </trkpt>
      <trkpt lat="47.38126" lon="-2.3773">
        <ele>-14</ele>
        <time>2021-09-30T09:08:05.000Z</time>
      </trkpt>
      <trkpt lat="47.38122" lon="-2.37733">
        <ele>-14</ele>
        <time>2021-09-30T09:08:06.000Z</time>
      </trkpt>
      <trkpt lat="47.38097" lon="-2.37752">
        <ele>-14</ele>
        <time>2021-09-30T09:08:12.000Z</time>
      </trkpt>
      <trkpt lat="47.38075" lon="-2.37771">
        <ele>-13.60000038147</ele>
        <time>2021-09-30T09:08:18.000Z</time>
      </trkpt>
      <trkpt lat="47.38071" lon="-2.37773">
        <ele>-13.199999809265</ele>
        <time>2021-09-30T09:08:19.000Z</time>
      </trkpt>
      <trkpt lat="47.38068" lon="-2.37775">
        <ele>-12.800000190735</ele>
        <time>2021-09-30T09:08:20.000Z</time>
      </trkpt>
      <trkpt lat="47.38064" lon="-2.37779">
        <ele>-12.39999961853</ele>
        <time>2021-09-30T09:08:21.000Z</time>
      </trkpt>
      <trkpt lat="47.3806" lon="-2.37782">
        <ele>-12</ele>
        <time>2021-09-30T09:08:22.000Z</time>
      </trkpt>
      <trkpt lat="47.38056" lon="-2.37785">
        <ele>-12</ele>
        <time>2021-09-30T09:08:23.000Z</time>
      </trkpt>
      <trkpt lat="47.38031" lon="-2.37804">
        <ele>-12</ele>
        <time>2021-09-30T09:08:29.000Z</time>
      </trkpt>
      <trkpt lat="47.38012" lon="-2.37818">
        <ele>-11.60000038147</ele>
        <time>2021-09-30T09:08:33.000Z</time>
      </trkpt>
      <trkpt lat="47.38008" lon="-2.37821">
        <ele>-11.199999809265</ele>
        <time>2021-09-30T09:08:34.000Z</time>
      </trkpt>
      <trkpt lat="47.38003" lon="-2.37824">
        <ele>-10.800000190735</ele>
        <time>2021-09-30T09:08:35.000Z</time>
      </trkpt>
      <trkpt lat="47.37999" lon="-2.37827">
        <ele>-10.39999961853</ele>
        <time>2021-09-30T09:08:36.000Z</time>
      </trkpt>
      <trkpt lat="47.37995" lon="-2.3783">
        <ele>-9.8000001907349</ele>
        <time>2021-09-30T09:08:37.000Z</time>
      </trkpt>
      <trkpt lat="47.37964" lon="-2.37852">
        <ele>-9.8000001907349</ele>
        <time>2021-09-30T09:08:44.000Z</time>
      </trkpt>
      <trkpt lat="47.37938" lon="-2.37873">
        <ele>-9.8000001907349</ele>
        <time>2021-09-30T09:08:50.000Z</time>
      </trkpt>
      <trkpt lat="47.37904" lon="-2.379">
        <ele>-9.8000001907349</ele>
        <time>2021-09-30T09:08:58.000Z</time>
      </trkpt>
      <trkpt lat="47.3787" lon="-2.37928">
        <ele>-9.8000001907349</ele>
        <time>2021-09-30T09:09:05.000Z</time>
      </trkpt>
      <trkpt lat="47.37823" lon="-2.37962">
        <ele>-9.8000001907349</ele>
        <time>2021-09-30T09:09:14.000Z</time>
      </trkpt>
      <trkpt lat="47.37776" lon="-2.37993">
        <ele>-9.8000001907349</ele>
        <time>2021-09-30T09:09:23.000Z</time>
      </trkpt>
      <trkpt lat="47.37739" lon="-2.38017">
        <ele>-9.8000001907349</ele>
        <time>2021-09-30T09:09:30.000Z</time>
      </trkpt>
      <trkpt lat="47.37709" lon="-2.38035">
        <ele>-9.8000001907349</ele>
        <time>2021-09-30T09:09:36.000Z</time>
      </trkpt>
      <trkpt lat="47.37699" lon="-2.38047">
        <ele>-9.8000001907349</ele>
        <time>2021-09-30T09:09:40.000Z</time>
      </trkpt>
      <trkpt lat="47.37686" lon="-2.38063">
        <ele>-10.199999809265</ele>
        <time>2021-09-30T09:09:43.000Z</time>
      </trkpt>
      <trkpt lat="47.37682" lon="-2.38068">
        <ele>-10.800000190735</ele>
        <time>2021-09-30T09:09:44.000Z</time>
      </trkpt>
      <trkpt lat="47.37677" lon="-2.38074">
        <ele>-11.199999809265</ele>
        <time>2021-09-30T09:09:45.000Z</time>
      </trkpt>
      <trkpt lat="47.37672" lon="-2.38079">
        <ele>-11.60000038147</ele>
        <time>2021-09-30T09:09:46.000Z</time>
      </trkpt>
      <trkpt lat="47.37666" lon="-2.38085">
        <ele>-12</ele>
        <time>2021-09-30T09:09:47.000Z</time>
      </trkpt>
      <trkpt lat="47.37647" lon="-2.381">
        <ele>-12</ele>
        <time>2021-09-30T09:09:50.000Z</time>
      </trkpt>
      <trkpt lat="47.37601" lon="-2.38128">
        <ele>-12</ele>
        <time>2021-09-30T09:09:57.000Z</time>
      </trkpt>
      <trkpt lat="47.37588" lon="-2.38136">
        <ele>-12.39999961853</ele>
        <time>2021-09-30T09:09:59.000Z</time>
      </trkpt>
      <trkpt lat="47.37582" lon="-2.3814">
        <ele>-12.800000190735</ele>
        <time>2021-09-30T09:10:00.000Z</time>
      </trkpt>
      <trkpt lat="47.37576" lon="-2.38143">
        <ele>-13.199999809265</ele>
        <time>2021-09-30T09:10:01.000Z</time>
      </trkpt>
      <trkpt lat="47.3757" lon="-2.38147">
        <ele>-13.60000038147</ele>
        <time>2021-09-30T09:10:02.000Z</time>
      </trkpt>
      <trkpt lat="47.37564" lon="-2.3815">
        <ele>-14</ele>
        <time>2021-09-30T09:10:03.000Z</time>
      </trkpt>
      <trkpt lat="47.37552" lon="-2.38158">
        <ele>-14</ele>
        <time>2021-09-30T09:10:05.000Z</time>
      </trkpt>
      <trkpt lat="47.37515" lon="-2.38181">
        <ele>-14</ele>
        <time>2021-09-30T09:10:12.000Z</time>
      </trkpt>
      <trkpt lat="47.37499" lon="-2.38193">
        <ele>-14</ele>
        <time>2021-09-30T09:10:15.000Z</time>
      </trkpt>
      <trkpt lat="47.37482" lon="-2.38203">
        <ele>-14</ele>
        <time>2021-09-30T09:10:18.000Z</time>
      </trkpt>
      <trkpt lat="47.37443" lon="-2.38225">
        <ele>-14</ele>
        <time>2021-09-30T09:10:25.000Z</time>
      </trkpt>
      <trkpt lat="47.37407" lon="-2.38247">
        <ele>-14</ele>
        <time>2021-09-30T09:10:32.000Z</time>
      </trkpt>
      <trkpt lat="47.37382" lon="-2.38261">
        <ele>-13.60000038147</ele>
        <time>2021-09-30T09:10:37.000Z</time>
      </trkpt>
      <trkpt lat="47.37377" lon="-2.38263">
        <ele>-13.199999809265</ele>
        <time>2021-09-30T09:10:38.000Z</time>
      </trkpt>
      <trkpt lat="47.37372" lon="-2.38266">
        <ele>-12.800000190735</ele>
        <time>2021-09-30T09:10:39.000Z</time>
      </trkpt>
      <trkpt lat="47.37367" lon="-2.38268">
        <ele>-12.39999961853</ele>
        <time>2021-09-30T09:10:40.000Z</time>
      </trkpt>
      <trkpt lat="47.37362" lon="-2.38271">
        <ele>-12</ele>
        <time>2021-09-30T09:10:41.000Z</time>
      </trkpt>
      <trkpt lat="47.37339" lon="-2.38287">
        <ele>-12</ele>
        <time>2021-09-30T09:10:46.000Z</time>
      </trkpt>
      <trkpt lat="47.37306" lon="-2.38307">
        <ele>-12</ele>
        <time>2021-09-30T09:10:52.000Z</time>
      </trkpt>
      <trkpt lat="47.37272" lon="-2.38329">
        <ele>-12</ele>
        <time>2021-09-30T09:10:58.000Z</time>
      </trkpt>
      <trkpt lat="47.37239" lon="-2.38348">
        <ele>-12</ele>
        <time>2021-09-30T09:11:04.000Z</time>
      </trkpt>
      <trkpt lat="47.37207" lon="-2.38353">
        <ele>-12</ele>
        <time>2021-09-30T09:11:09.000Z</time>
      </trkpt>
      <trkpt lat="47.37168" lon="-2.38358">
        <ele>-12.39999961853</ele>
        <time>2021-09-30T09:11:15.000Z</time>
      </trkpt>
      <trkpt lat="47.37161" lon="-2.3836">
        <ele>-12.800000190735</ele>
        <time>2021-09-30T09:11:16.000Z</time>
      </trkpt>
      <trkpt lat="47.37155" lon="-2.38362">
        <ele>-13.199999809265</ele>
        <time>2021-09-30T09:11:17.000Z</time>
      </trkpt>
      <trkpt lat="47.37148" lon="-2.38364">
        <ele>-14</ele>
        <time>2021-09-30T09:11:18.000Z</time>
      </trkpt>
      <trkpt lat="47.37116" lon="-2.38375">
        <ele>-14</ele>
        <time>2021-09-30T09:11:23.000Z</time>
      </trkpt>
      <trkpt lat="47.37103" lon="-2.3838">
        <ele>-14.39999961853</ele>
        <time>2021-09-30T09:11:25.000Z</time>
      </trkpt>
      <trkpt lat="47.37097" lon="-2.38384">
        <ele>-15</ele>
        <time>2021-09-30T09:11:26.000Z</time>
      </trkpt>
      <trkpt lat="47.3709" lon="-2.3839">
        <ele>-15.39999961853</ele>
        <time>2021-09-30T09:11:27.000Z</time>
      </trkpt>
      <trkpt lat="47.37084" lon="-2.38396">
        <ele>-15.800000190735</ele>
        <time>2021-09-30T09:11:28.000Z</time>
      </trkpt>
      <trkpt lat="47.3708" lon="-2.38402">
        <ele>-16.200000762939</ele>
        <time>2021-09-30T09:11:29.000Z</time>
      </trkpt>
      <trkpt lat="47.37071" lon="-2.38418">
        <ele>-16.200000762939</ele>
        <time>2021-09-30T09:11:31.000Z</time>
      </trkpt>
      <trkpt lat="47.37067" lon="-2.38427">
        <ele>-16.200000762939</ele>
        <time>2021-09-30T09:11:32.000Z</time>
      </trkpt>
      <trkpt lat="47.37064" lon="-2.38435">
        <ele>-16.200000762939</ele>
        <time>2021-09-30T09:11:33.000Z</time>
      </trkpt>
      <trkpt lat="47.37057" lon="-2.3845">
        <ele>-16.200000762939</ele>
        <time>2021-09-30T09:11:36.000Z</time>
      </trkpt>
      <trkpt lat="47.37057" lon="-2.38449">
        <ele>-16.60000038147</ele>
        <time>2021-09-30T09:11:37.000Z</time>
      </trkpt>
      <trkpt lat="47.37057" lon="-2.38449">
        <ele>-17</ele>
        <time>2021-09-30T09:11:38.000Z</time>
      </trkpt>
      <trkpt lat="47.37057" lon="-2.38456">
        <ele>-18.200000762939</ele>
        <time>2021-09-30T09:11:43.000Z</time>
      </trkpt>
      <trkpt lat="47.37058" lon="-2.3846">
        <ele>-18.200000762939</ele>
        <time>2021-09-30T09:11:46.000Z</time>
      </trkpt>
      <trkpt lat="47.37061" lon="-2.38464">
        <ele>-18.200000762939</ele>
        <time>2021-09-30T09:12:03.000Z</time>
      </trkpt>
      <trkpt lat="47.37071" lon="-2.38471">
        <ele>-18.200000762939</ele>
        <time>2021-09-30T09:12:09.000Z</time>
      </trkpt>
      <trkpt lat="47.37088" lon="-2.38485">
        <ele>-17.799999237061</ele>
        <time>2021-09-30T09:12:16.000Z</time>
      </trkpt>
      <trkpt lat="47.37091" lon="-2.38487">
        <ele>-17.39999961853</ele>
        <time>2021-09-30T09:12:17.000Z</time>
      </trkpt>
      <trkpt lat="47.37094" lon="-2.3849">
        <ele>-17</ele>
        <time>2021-09-30T09:12:18.000Z</time>
      </trkpt>
      <trkpt lat="47.37097" lon="-2.38492">
        <ele>-16.60000038147</ele>
        <time>2021-09-30T09:12:19.000Z</time>
      </trkpt>
      <trkpt lat="47.371" lon="-2.38494">
        <ele>-16.200000762939</ele>
        <time>2021-09-30T09:12:20.000Z</time>
      </trkpt>
      <trkpt lat="47.3711" lon="-2.38501">
        <ele>-16.200000762939</ele>
        <time>2021-09-30T09:12:23.000Z</time>
      </trkpt>
      <trkpt lat="47.37131" lon="-2.38517">
        <ele>-15.800000190735</ele>
        <time>2021-09-30T09:12:29.000Z</time>
      </trkpt>
      <trkpt lat="47.37135" lon="-2.38521">
        <ele>-15.39999961853</ele>
        <time>2021-09-30T09:12:30.000Z</time>
      </trkpt>
      <trkpt lat="47.37139" lon="-2.38524">
        <ele>-15</ele>
        <time>2021-09-30T09:12:31.000Z</time>
      </trkpt>
      <trkpt lat="47.37143" lon="-2.38528">
        <ele>-14</ele>
        <time>2021-09-30T09:12:32.000Z</time>
      </trkpt>
      <trkpt lat="47.37146" lon="-2.38532">
        <ele>-14</ele>
        <time>2021-09-30T09:12:33.000Z</time>
      </trkpt>
      <trkpt lat="47.37157" lon="-2.38547">
        <ele>-14</ele>
        <time>2021-09-30T09:12:36.000Z</time>
      </trkpt>
      <trkpt lat="47.3716" lon="-2.38552">
        <ele>-14</ele>
        <time>2021-09-30T09:12:37.000Z</time>
      </trkpt>
      <trkpt lat="47.3717" lon="-2.38577">
        <ele>-14</ele>
        <time>2021-09-30T09:12:41.000Z</time>
      </trkpt>
      <trkpt lat="47.37191" lon="-2.38628">
        <ele>-14</ele>
        <time>2021-09-30T09:12:48.000Z</time>
      </trkpt>
      <trkpt lat="47.37194" lon="-2.38636">
        <ele>-13.60000038147</ele>
        <time>2021-09-30T09:12:49.000Z</time>
      </trkpt>
      <trkpt lat="47.37196" lon="-2.38643">
        <ele>-13.199999809265</ele>
        <time>2021-09-30T09:12:50.000Z</time>
      </trkpt>
      <trkpt lat="47.372" lon="-2.38652">
        <ele>-12.800000190735</ele>
        <time>2021-09-30T09:12:51.000Z</time>
      </trkpt>
      <trkpt lat="47.37203" lon="-2.3866">
        <ele>-12.39999961853</ele>
        <time>2021-09-30T09:12:52.000Z</time>
      </trkpt>
      <trkpt lat="47.37206" lon="-2.38668">
        <ele>-12</ele>
        <time>2021-09-30T09:12:53.000Z</time>
      </trkpt>
      <trkpt lat="47.37215" lon="-2.38693">
        <ele>-12</ele>
        <time>2021-09-30T09:12:56.000Z</time>
      </trkpt>
      <trkpt lat="47.37234" lon="-2.38742">
        <ele>-12</ele>
        <time>2021-09-30T09:13:02.000Z</time>
      </trkpt>
      <trkpt lat="47.37251" lon="-2.38784">
        <ele>-12</ele>
        <time>2021-09-30T09:13:07.000Z</time>
      </trkpt>
      <trkpt lat="47.37254" lon="-2.38793">
        <ele>-12</ele>
        <time>2021-09-30T09:13:08.000Z</time>
      </trkpt>
      <trkpt lat="47.37268" lon="-2.38835">
        <ele>-12</ele>
        <time>2021-09-30T09:13:13.000Z</time>
      </trkpt>
      <trkpt lat="47.37276" lon="-2.38862">
        <ele>-11.60000038147</ele>
        <time>2021-09-30T09:13:16.000Z</time>
      </trkpt>
      <trkpt lat="47.37279" lon="-2.3887">
        <ele>-11.199999809265</ele>
        <time>2021-09-30T09:13:17.000Z</time>
      </trkpt>
      <trkpt lat="47.37282" lon="-2.38879">
        <ele>-10.800000190735</ele>
        <time>2021-09-30T09:13:18.000Z</time>
      </trkpt>
      <trkpt lat="47.37285" lon="-2.38888">
        <ele>-10.39999961853</ele>
        <time>2021-09-30T09:13:19.000Z</time>
      </trkpt>
      <trkpt lat="47.37287" lon="-2.38896">
        <ele>-10</ele>
        <time>2021-09-30T09:13:20.000Z</time>
      </trkpt>
      <trkpt lat="47.37302" lon="-2.38951">
        <ele>-10</ele>
        <time>2021-09-30T09:13:26.000Z</time>
      </trkpt>
      <trkpt lat="47.37305" lon="-2.38981">
        <ele>-10</ele>
        <time>2021-09-30T09:13:29.000Z</time>
      </trkpt>
      <trkpt lat="47.37308" lon="-2.3901">
        <ele>-10</ele>
        <time>2021-09-30T09:13:32.000Z</time>
      </trkpt>
      <trkpt lat="47.37313" lon="-2.39067">
        <ele>-10</ele>
        <time>2021-09-30T09:13:38.000Z</time>
      </trkpt>
      <trkpt lat="47.37317" lon="-2.39118">
        <ele>-10</ele>
        <time>2021-09-30T09:13:44.000Z</time>
      </trkpt>
      <trkpt lat="47.37319" lon="-2.39146">
        <ele>-10</ele>
        <time>2021-09-30T09:13:49.000Z</time>
      </trkpt>
      <trkpt lat="47.37316" lon="-2.39155">
        <ele>-10</ele>
        <time>2021-09-30T09:13:51.000Z</time>
      </trkpt>
      <trkpt lat="47.37311" lon="-2.39159">
        <ele>-10</ele>
        <time>2021-09-30T09:13:53.000Z</time>
      </trkpt>
      <trkpt lat="47.373" lon="-2.39175">
        <ele>-10</ele>
        <time>2021-09-30T09:13:56.000Z</time>
      </trkpt>
      <trkpt lat="47.37296" lon="-2.3918">
        <ele>-10</ele>
        <time>2021-09-30T09:13:57.000Z</time>
      </trkpt>
      <trkpt lat="47.37268" lon="-2.39205">
        <ele>-10</ele>
        <time>2021-09-30T09:14:02.000Z</time>
      </trkpt>
      <trkpt lat="47.37233" lon="-2.39236">
        <ele>-10</ele>
        <time>2021-09-30T09:14:08.000Z</time>
      </trkpt>
      <trkpt lat="47.37192" lon="-2.3927">
        <ele>-10</ele>
        <time>2021-09-30T09:14:15.000Z</time>
      </trkpt>
      <trkpt lat="47.37149" lon="-2.39311">
        <ele>-10</ele>
        <time>2021-09-30T09:14:23.000Z</time>
      </trkpt>
      <trkpt lat="47.37138" lon="-2.39321">
        <ele>-10</ele>
        <time>2021-09-30T09:14:25.000Z</time>
      </trkpt>
      <trkpt lat="47.37117" lon="-2.3934">
        <ele>-10</ele>
        <time>2021-09-30T09:14:29.000Z</time>
      </trkpt>
      <trkpt lat="47.37071" lon="-2.39383">
        <ele>-10</ele>
        <time>2021-09-30T09:14:38.000Z</time>
      </trkpt>
      <trkpt lat="47.37038" lon="-2.39415">
        <ele>-10</ele>
        <time>2021-09-30T09:14:45.000Z</time>
      </trkpt>
      <trkpt lat="47.37003" lon="-2.39451">
        <ele>-10</ele>
        <time>2021-09-30T09:14:52.000Z</time>
      </trkpt>
      <trkpt lat="47.36957" lon="-2.39493">
        <ele>-10</ele>
        <time>2021-09-30T09:15:01.000Z</time>
      </trkpt>
      <trkpt lat="47.36938" lon="-2.39512">
        <ele>-10.39999961853</ele>
        <time>2021-09-30T09:15:05.000Z</time>
      </trkpt>
      <trkpt lat="47.36933" lon="-2.39519">
        <ele>-10.800000190735</ele>
        <time>2021-09-30T09:15:06.000Z</time>
      </trkpt>
      <trkpt lat="47.36929" lon="-2.39525">
        <ele>-11.199999809265</ele>
        <time>2021-09-30T09:15:07.000Z</time>
      </trkpt>
      <trkpt lat="47.36925" lon="-2.39531">
        <ele>-11.60000038147</ele>
        <time>2021-09-30T09:15:08.000Z</time>
      </trkpt>
      <trkpt lat="47.3692" lon="-2.39537">
        <ele>-12</ele>
        <time>2021-09-30T09:15:09.000Z</time>
      </trkpt>
      <trkpt lat="47.36897" lon="-2.39571">
        <ele>-12</ele>
        <time>2021-09-30T09:15:14.000Z</time>
      </trkpt>
      <trkpt lat="47.36857" lon="-2.39614">
        <ele>-12</ele>
        <time>2021-09-30T09:15:21.000Z</time>
      </trkpt>
      <trkpt lat="47.36827" lon="-2.39643">
        <ele>-12</ele>
        <time>2021-09-30T09:15:26.000Z</time>
      </trkpt>
      <trkpt lat="47.36816" lon="-2.39652">
        <ele>-12</ele>
        <time>2021-09-30T09:15:28.000Z</time>
      </trkpt>
      <trkpt lat="47.36802" lon="-2.39657">
        <ele>-12</ele>
        <time>2021-09-30T09:15:30.000Z</time>
      </trkpt>
      <trkpt lat="47.36786" lon="-2.39668">
        <ele>-12</ele>
        <time>2021-09-30T09:15:33.000Z</time>
      </trkpt>
      <trkpt lat="47.36781" lon="-2.39672">
        <ele>-12</ele>
        <time>2021-09-30T09:15:34.000Z</time>
      </trkpt>
      <trkpt lat="47.36766" lon="-2.39677">
        <ele>-12</ele>
        <time>2021-09-30T09:15:37.000Z</time>
      </trkpt>
      <trkpt lat="47.36757" lon="-2.39677">
        <ele>-12</ele>
        <time>2021-09-30T09:15:39.000Z</time>
      </trkpt>
      <trkpt lat="47.36753" lon="-2.39676">
        <ele>-12</ele>
        <time>2021-09-30T09:15:40.000Z</time>
      </trkpt>
      <trkpt lat="47.36738" lon="-2.39674">
        <ele>-12.39999961853</ele>
        <time>2021-09-30T09:15:43.000Z</time>
      </trkpt>
      <trkpt lat="47.36733" lon="-2.39673">
        <ele>-12.800000190735</ele>
        <time>2021-09-30T09:15:44.000Z</time>
      </trkpt>
      <trkpt lat="47.36727" lon="-2.39673">
        <ele>-13.199999809265</ele>
        <time>2021-09-30T09:15:45.000Z</time>
      </trkpt>
      <trkpt lat="47.36722" lon="-2.39672">
        <ele>-13.60000038147</ele>
        <time>2021-09-30T09:15:46.000Z</time>
      </trkpt>
      <trkpt lat="47.36716" lon="-2.3967">
        <ele>-14</ele>
        <time>2021-09-30T09:15:47.000Z</time>
      </trkpt>
      <trkpt lat="47.36711" lon="-2.39668">
        <ele>-14</ele>
        <time>2021-09-30T09:15:48.000Z</time>
      </trkpt>
      <trkpt lat="47.36705" lon="-2.39666">
        <ele>-14</ele>
        <time>2021-09-30T09:15:49.000Z</time>
      </trkpt>
      <trkpt lat="47.36689" lon="-2.39655">
        <ele>-14</ele>
        <time>2021-09-30T09:15:52.000Z</time>
      </trkpt>
      <trkpt lat="47.36668" lon="-2.39637">
        <ele>-14</ele>
        <time>2021-09-30T09:15:56.000Z</time>
      </trkpt>
      <trkpt lat="47.36663" lon="-2.39632">
        <ele>-14</ele>
        <time>2021-09-30T09:15:57.000Z</time>
      </trkpt>
      <trkpt lat="47.36654" lon="-2.39622">
        <ele>-14</ele>
        <time>2021-09-30T09:15:59.000Z</time>
      </trkpt>
      <trkpt lat="47.36646" lon="-2.39618">
        <ele>-14</ele>
        <time>2021-09-30T09:16:01.000Z</time>
      </trkpt>
      <trkpt lat="47.36627" lon="-2.39614">
        <ele>-14</ele>
        <time>2021-09-30T09:16:05.000Z</time>
      </trkpt>
      <trkpt lat="47.36622" lon="-2.39612">
        <ele>-14</ele>
        <time>2021-09-30T09:16:06.000Z</time>
      </trkpt>
      <trkpt lat="47.36613" lon="-2.39609">
        <ele>-14</ele>
        <time>2021-09-30T09:16:08.000Z</time>
      </trkpt>
      <trkpt lat="47.36597" lon="-2.39604">
        <ele>-13.60000038147</ele>
        <time>2021-09-30T09:16:11.000Z</time>
      </trkpt>
      <trkpt lat="47.36592" lon="-2.39602">
        <ele>-13.199999809265</ele>
        <time>2021-09-30T09:16:12.000Z</time>
      </trkpt>
      <trkpt lat="47.36586" lon="-2.39601">
        <ele>-12.39999961853</ele>
        <time>2021-09-30T09:16:13.000Z</time>
      </trkpt>
      <trkpt lat="47.36581" lon="-2.396">
        <ele>-12</ele>
        <time>2021-09-30T09:16:14.000Z</time>
      </trkpt>
      <trkpt lat="47.36559" lon="-2.39601">
        <ele>-12</ele>
        <time>2021-09-30T09:16:18.000Z</time>
      </trkpt>
      <trkpt lat="47.3653" lon="-2.3961">
        <ele>-12</ele>
        <time>2021-09-30T09:16:24.000Z</time>
      </trkpt>
      <trkpt lat="47.36492" lon="-2.39633">
        <ele>-12</ele>
        <time>2021-09-30T09:16:33.000Z</time>
      </trkpt>
      <trkpt lat="47.36478" lon="-2.39641">
        <ele>-12</ele>
        <time>2021-09-30T09:16:36.000Z</time>
      </trkpt>
      <trkpt lat="47.36463" lon="-2.39645">
        <ele>-12</ele>
        <time>2021-09-30T09:16:39.000Z</time>
      </trkpt>
      <trkpt lat="47.36454" lon="-2.39649">
        <ele>-12</ele>
        <time>2021-09-30T09:16:41.000Z</time>
      </trkpt>
      <trkpt lat="47.3645" lon="-2.39655">
        <ele>-12</ele>
        <time>2021-09-30T09:16:43.000Z</time>
      </trkpt>
      <trkpt lat="47.3645" lon="-2.39658">
        <ele>-12.39999961853</ele>
        <time>2021-09-30T09:16:44.000Z</time>
      </trkpt>
      <trkpt lat="47.3645" lon="-2.39662">
        <ele>-12.800000190735</ele>
        <time>2021-09-30T09:16:45.000Z</time>
      </trkpt>
      <trkpt lat="47.36451" lon="-2.39666">
        <ele>-13.199999809265</ele>
        <time>2021-09-30T09:16:46.000Z</time>
      </trkpt>
      <trkpt lat="47.36453" lon="-2.39671">
        <ele>-13.60000038147</ele>
        <time>2021-09-30T09:16:47.000Z</time>
      </trkpt>
      <trkpt lat="47.36454" lon="-2.39676">
        <ele>-14</ele>
        <time>2021-09-30T09:16:48.000Z</time>
      </trkpt>
      <trkpt lat="47.36463" lon="-2.39707">
        <ele>-14</ele>
        <time>2021-09-30T09:16:53.000Z</time>
      </trkpt>
      <trkpt lat="47.36472" lon="-2.39733">
        <ele>-14</ele>
        <time>2021-09-30T09:16:57.000Z</time>
      </trkpt>
      <trkpt lat="47.36479" lon="-2.39754">
        <ele>-14</ele>
        <time>2021-09-30T09:17:00.000Z</time>
      </trkpt>
      <trkpt lat="47.36492" lon="-2.39767">
        <ele>-14</ele>
        <time>2021-09-30T09:17:03.000Z</time>
      </trkpt>
      <trkpt lat="47.36497" lon="-2.3977">
        <ele>-14</ele>
        <time>2021-09-30T09:17:04.000Z</time>
      </trkpt>
      <trkpt lat="47.36507" lon="-2.39774">
        <ele>-14</ele>
        <time>2021-09-30T09:17:06.000Z</time>
      </trkpt>
      <trkpt lat="47.36515" lon="-2.39782">
        <ele>-14</ele>
        <time>2021-09-30T09:17:08.000Z</time>
      </trkpt>
      <trkpt lat="47.36526" lon="-2.39808">
        <ele>-14</ele>
        <time>2021-09-30T09:17:12.000Z</time>
      </trkpt>
      <trkpt lat="47.36531" lon="-2.39826">
        <ele>-14</ele>
        <time>2021-09-30T09:17:15.000Z</time>
      </trkpt>
      <trkpt lat="47.3654" lon="-2.39843">
        <ele>-14</ele>
        <time>2021-09-30T09:17:18.000Z</time>
      </trkpt>
      <trkpt lat="47.36548" lon="-2.39853">
        <ele>-14</ele>
        <time>2021-09-30T09:17:20.000Z</time>
      </trkpt>
      <trkpt lat="47.36559" lon="-2.39865">
        <ele>-14</ele>
        <time>2021-09-30T09:17:23.000Z</time>
      </trkpt>
      <trkpt lat="47.36575" lon="-2.39881">
        <ele>-14</ele>
        <time>2021-09-30T09:17:28.000Z</time>
      </trkpt>
      <trkpt lat="47.36578" lon="-2.39886">
        <ele>-14</ele>
        <time>2021-09-30T09:17:29.000Z</time>
      </trkpt>
      <trkpt lat="47.36582" lon="-2.39908">
        <ele>-14</ele>
        <time>2021-09-30T09:17:32.000Z</time>
      </trkpt>
      <trkpt lat="47.36578" lon="-2.39924">
        <ele>-14</ele>
        <time>2021-09-30T09:17:35.000Z</time>
      </trkpt>
      <trkpt lat="47.36572" lon="-2.39934">
        <ele>-14</ele>
        <time>2021-09-30T09:17:37.000Z</time>
      </trkpt>
      <trkpt lat="47.36564" lon="-2.39945">
        <ele>-14</ele>
        <time>2021-09-30T09:17:39.000Z</time>
      </trkpt>
      <trkpt lat="47.36537" lon="-2.39976">
        <ele>-14</ele>
        <time>2021-09-30T09:17:45.000Z</time>
      </trkpt>
      <trkpt lat="47.365" lon="-2.40017">
        <ele>-14</ele>
        <time>2021-09-30T09:17:53.000Z</time>
      </trkpt>
      <trkpt lat="47.3649" lon="-2.40026">
        <ele>-14</ele>
        <time>2021-09-30T09:17:55.000Z</time>
      </trkpt>
      <trkpt lat="47.36471" lon="-2.4004">
        <ele>-14</ele>
        <time>2021-09-30T09:17:59.000Z</time>
      </trkpt>
      <trkpt lat="47.3646" lon="-2.40047">
        <ele>-14</ele>
        <time>2021-09-30T09:18:01.000Z</time>
      </trkpt>
      <trkpt lat="47.36443" lon="-2.40056">
        <ele>-14</ele>
        <time>2021-09-30T09:18:04.000Z</time>
      </trkpt>
      <trkpt lat="47.36401" lon="-2.40071">
        <ele>-14</ele>
        <time>2021-09-30T09:18:11.000Z</time>
      </trkpt>
      <trkpt lat="47.36389" lon="-2.40076">
        <ele>-14</ele>
        <time>2021-09-30T09:18:13.000Z</time>
      </trkpt>
      <trkpt lat="47.36371" lon="-2.40082">
        <ele>-14</ele>
        <time>2021-09-30T09:18:16.000Z</time>
      </trkpt>
      <trkpt lat="47.36332" lon="-2.40098">
        <ele>-14</ele>
        <time>2021-09-30T09:18:23.000Z</time>
      </trkpt>
      <trkpt lat="47.36304" lon="-2.4011">
        <ele>-13.60000038147</ele>
        <time>2021-09-30T09:18:28.000Z</time>
      </trkpt>
      <trkpt lat="47.36297" lon="-2.40112">
        <ele>-13.199999809265</ele>
        <time>2021-09-30T09:18:29.000Z</time>
      </trkpt>
      <trkpt lat="47.36292" lon="-2.40114">
        <ele>-12.800000190735</ele>
        <time>2021-09-30T09:18:30.000Z</time>
      </trkpt>
      <trkpt lat="47.36286" lon="-2.40116">
        <ele>-12.39999961853</ele>
        <time>2021-09-30T09:18:31.000Z</time>
      </trkpt>
      <trkpt lat="47.36281" lon="-2.40119">
        <ele>-12</ele>
        <time>2021-09-30T09:18:32.000Z</time>
      </trkpt>
      <trkpt lat="47.36259" lon="-2.40125">
        <ele>-12</ele>
        <time>2021-09-30T09:18:36.000Z</time>
      </trkpt>
      <trkpt lat="47.36254" lon="-2.40127">
        <ele>-12</ele>
        <time>2021-09-30T09:18:37.000Z</time>
      </trkpt>
      <trkpt lat="47.36236" lon="-2.4014">
        <ele>-12</ele>
        <time>2021-09-30T09:18:41.000Z</time>
      </trkpt>
      <trkpt lat="47.36205" lon="-2.40166">
        <ele>-12</ele>
        <time>2021-09-30T09:18:48.000Z</time>
      </trkpt>
      <trkpt lat="47.36185" lon="-2.40185">
        <ele>-12</ele>
        <time>2021-09-30T09:18:53.000Z</time>
      </trkpt>
      <trkpt lat="47.36181" lon="-2.40189">
        <ele>-12</ele>
        <time>2021-09-30T09:18:54.000Z</time>
      </trkpt>
      <trkpt lat="47.36145" lon="-2.4022">
        <ele>-12</ele>
        <time>2021-09-30T09:19:02.000Z</time>
      </trkpt>
      <trkpt lat="47.3614" lon="-2.40224">
        <ele>-11.60000038147</ele>
        <time>2021-09-30T09:19:03.000Z</time>
      </trkpt>
      <trkpt lat="47.36135" lon="-2.40228">
        <ele>-11.199999809265</ele>
        <time>2021-09-30T09:19:04.000Z</time>
      </trkpt>
      <trkpt lat="47.3613" lon="-2.40232">
        <ele>-10.800000190735</ele>
        <time>2021-09-30T09:19:05.000Z</time>
      </trkpt>
      <trkpt lat="47.36125" lon="-2.40237">
        <ele>-10.199999809265</ele>
        <time>2021-09-30T09:19:06.000Z</time>
      </trkpt>
      <trkpt lat="47.3612" lon="-2.40241">
        <ele>-9.8000001907349</ele>
        <time>2021-09-30T09:19:07.000Z</time>
      </trkpt>
      <trkpt lat="47.3611" lon="-2.40249">
        <ele>-9.8000001907349</ele>
        <time>2021-09-30T09:19:09.000Z</time>
      </trkpt>
      <trkpt lat="47.36065" lon="-2.40287">
        <ele>-9.8000001907349</ele>
        <time>2021-09-30T09:19:18.000Z</time>
      </trkpt>
      <trkpt lat="47.36037" lon="-2.40317">
        <ele>-9.8000001907349</ele>
        <time>2021-09-30T09:19:24.000Z</time>
      </trkpt>
      <trkpt lat="47.36033" lon="-2.40323">
        <ele>-9.8000001907349</ele>
        <time>2021-09-30T09:19:25.000Z</time>
      </trkpt>
      <trkpt lat="47.36025" lon="-2.40346">
        <ele>-9.8000001907349</ele>
        <time>2021-09-30T09:19:28.000Z</time>
      </trkpt>
      <trkpt lat="47.36023" lon="-2.40373">
        <ele>-9.8000001907349</ele>
        <time>2021-09-30T09:19:31.000Z</time>
      </trkpt>
      <trkpt lat="47.36022" lon="-2.40391">
        <ele>-9.8000001907349</ele>
        <time>2021-09-30T09:19:33.000Z</time>
      </trkpt>
      <trkpt lat="47.36021" lon="-2.40418">
        <ele>-9.8000001907349</ele>
        <time>2021-09-30T09:19:36.000Z</time>
      </trkpt>
      <trkpt lat="47.36014" lon="-2.40439">
        <ele>-9.8000001907349</ele>
        <time>2021-09-30T09:19:39.000Z</time>
      </trkpt>
      <trkpt lat="47.3601" lon="-2.40445">
        <ele>-9.8000001907349</ele>
        <time>2021-09-30T09:19:40.000Z</time>
      </trkpt>
      <trkpt lat="47.35989" lon="-2.40472">
        <ele>-9.8000001907349</ele>
        <time>2021-09-30T09:19:45.000Z</time>
      </trkpt>
      <trkpt lat="47.35956" lon="-2.40514">
        <ele>-9.8000001907349</ele>
        <time>2021-09-30T09:19:53.000Z</time>
      </trkpt>
      <trkpt lat="47.35929" lon="-2.40553">
        <ele>-9.8000001907349</ele>
        <time>2021-09-30T09:20:00.000Z</time>
      </trkpt>
      <trkpt lat="47.35904" lon="-2.40594">
        <ele>-9.8000001907349</ele>
        <time>2021-09-30T09:20:07.000Z</time>
      </trkpt>
      <trkpt lat="47.35879" lon="-2.4064">
        <ele>-9.8000001907349</ele>
        <time>2021-09-30T09:20:14.000Z</time>
      </trkpt>
      <trkpt lat="47.35856" lon="-2.40691">
        <ele>-9.8000001907349</ele>
        <time>2021-09-30T09:20:21.000Z</time>
      </trkpt>
      <trkpt lat="47.35849" lon="-2.40732">
        <ele>-9.8000001907349</ele>
        <time>2021-09-30T09:20:26.000Z</time>
      </trkpt>
      <trkpt lat="47.35836" lon="-2.4076">
        <ele>-9.8000001907349</ele>
        <time>2021-09-30T09:20:30.000Z</time>
      </trkpt>
      <trkpt lat="47.35832" lon="-2.40766">
        <ele>-9.8000001907349</ele>
        <time>2021-09-30T09:20:31.000Z</time>
      </trkpt>
      <trkpt lat="47.35805" lon="-2.40805">
        <ele>-9.8000001907349</ele>
        <time>2021-09-30T09:20:37.000Z</time>
      </trkpt>
      <trkpt lat="47.35771" lon="-2.40852">
        <ele>-9.8000001907349</ele>
        <time>2021-09-30T09:20:44.000Z</time>
      </trkpt>
      <trkpt lat="47.35735" lon="-2.40902">
        <ele>-9.8000001907349</ele>
        <time>2021-09-30T09:20:52.000Z</time>
      </trkpt>
      <trkpt lat="47.3571" lon="-2.40937">
        <ele>-9.8000001907349</ele>
        <time>2021-09-30T09:20:58.000Z</time>
      </trkpt>
      <trkpt lat="47.35688" lon="-2.4097">
        <ele>-9.8000001907349</ele>
        <time>2021-09-30T09:21:04.000Z</time>
      </trkpt>
      <trkpt lat="47.35666" lon="-2.41004">
        <ele>-9.8000001907349</ele>
        <time>2021-09-30T09:21:10.000Z</time>
      </trkpt>
      <trkpt lat="47.35637" lon="-2.41044">
        <ele>-9.8000001907349</ele>
        <time>2021-09-30T09:21:17.000Z</time>
      </trkpt>
      <trkpt lat="47.35606" lon="-2.41078">
        <ele>-9.8000001907349</ele>
        <time>2021-09-30T09:21:24.000Z</time>
      </trkpt>
      <trkpt lat="47.35574" lon="-2.41114">
        <ele>-9.8000001907349</ele>
        <time>2021-09-30T09:21:31.000Z</time>
      </trkpt>
      <trkpt lat="47.35569" lon="-2.41118">
        <ele>-9.8000001907349</ele>
        <time>2021-09-30T09:21:32.000Z</time>
      </trkpt>
      <trkpt lat="47.35548" lon="-2.41135">
        <ele>-9.8000001907349</ele>
        <time>2021-09-30T09:21:36.000Z</time>
      </trkpt>
      <trkpt lat="47.35511" lon="-2.41165">
        <ele>-9.8000001907349</ele>
        <time>2021-09-30T09:21:43.000Z</time>
      </trkpt>
      <trkpt lat="47.35472" lon="-2.41196">
        <ele>-9.8000001907349</ele>
        <time>2021-09-30T09:21:50.000Z</time>
      </trkpt>
      <trkpt lat="47.35445" lon="-2.41222">
        <ele>-9.8000001907349</ele>
        <time>2021-09-30T09:21:55.000Z</time>
      </trkpt>
      <trkpt lat="47.3544" lon="-2.41228">
        <ele>-9.8000001907349</ele>
        <time>2021-09-30T09:21:56.000Z</time>
      </trkpt>
      <trkpt lat="47.35418" lon="-2.41261">
        <ele>-9.8000001907349</ele>
        <time>2021-09-30T09:22:01.000Z</time>
      </trkpt>
      <trkpt lat="47.35403" lon="-2.41275">
        <ele>-9.8000001907349</ele>
        <time>2021-09-30T09:22:04.000Z</time>
      </trkpt>
      <trkpt lat="47.35393" lon="-2.41283">
        <ele>-9.8000001907349</ele>
        <time>2021-09-30T09:22:06.000Z</time>
      </trkpt>
      <trkpt lat="47.35368" lon="-2.41306">
        <ele>-9.8000001907349</ele>
        <time>2021-09-30T09:22:11.000Z</time>
      </trkpt>
      <trkpt lat="47.35363" lon="-2.41311">
        <ele>-9.8000001907349</ele>
        <time>2021-09-30T09:22:12.000Z</time>
      </trkpt>
      <trkpt lat="47.35335" lon="-2.41353">
        <ele>-9.8000001907349</ele>
        <time>2021-09-30T09:22:19.000Z</time>
      </trkpt>
      <trkpt lat="47.35308" lon="-2.41396">
        <ele>-9.8000001907349</ele>
        <time>2021-09-30T09:22:26.000Z</time>
      </trkpt>
      <trkpt lat="47.35281" lon="-2.41432">
        <ele>-9.8000001907349</ele>
        <time>2021-09-30T09:22:33.000Z</time>
      </trkpt>
      <trkpt lat="47.35264" lon="-2.41444">
        <ele>-9.8000001907349</ele>
        <time>2021-09-30T09:22:37.000Z</time>
      </trkpt>
      <trkpt lat="47.35259" lon="-2.41445">
        <ele>-9.8000001907349</ele>
        <time>2021-09-30T09:22:38.000Z</time>
      </trkpt>
      <trkpt lat="47.35244" lon="-2.41436">
        <ele>-9.8000001907349</ele>
        <time>2021-09-30T09:22:41.000Z</time>
      </trkpt>
      <trkpt lat="47.35232" lon="-2.41418">
        <ele>-9.8000001907349</ele>
        <time>2021-09-30T09:22:44.000Z</time>
      </trkpt>
      <trkpt lat="47.35224" lon="-2.41405">
        <ele>-9.8000001907349</ele>
        <time>2021-09-30T09:22:46.000Z</time>
      </trkpt>
      <trkpt lat="47.35194" lon="-2.41363">
        <ele>-9.8000001907349</ele>
        <time>2021-09-30T09:22:53.000Z</time>
      </trkpt>
      <trkpt lat="47.35189" lon="-2.41359">
        <ele>-9.8000001907349</ele>
        <time>2021-09-30T09:22:54.000Z</time>
      </trkpt>
      <trkpt lat="47.35172" lon="-2.41356">
        <ele>-9.8000001907349</ele>
        <time>2021-09-30T09:22:57.000Z</time>
      </trkpt>
      <trkpt lat="47.35147" lon="-2.41365">
        <ele>-9.8000001907349</ele>
        <time>2021-09-30T09:23:02.000Z</time>
      </trkpt>
      <trkpt lat="47.35113" lon="-2.41386">
        <ele>-9.8000001907349</ele>
        <time>2021-09-30T09:23:09.000Z</time>
      </trkpt>
      <trkpt lat="47.35085" lon="-2.41402">
        <ele>-9.8000001907349</ele>
        <time>2021-09-30T09:23:15.000Z</time>
      </trkpt>
      <trkpt lat="47.35081" lon="-2.41401">
        <ele>-9.8000001907349</ele>
        <time>2021-09-30T09:23:16.000Z</time>
      </trkpt>
      <trkpt lat="47.35073" lon="-2.41392">
        <ele>-9.8000001907349</ele>
        <time>2021-09-30T09:23:18.000Z</time>
      </trkpt>
      <trkpt lat="47.35068" lon="-2.41379">
        <ele>-9.8000001907349</ele>
        <time>2021-09-30T09:23:20.000Z</time>
      </trkpt>
      <trkpt lat="47.3506" lon="-2.41361">
        <ele>-9.8000001907349</ele>
        <time>2021-09-30T09:23:23.000Z</time>
      </trkpt>
      <trkpt lat="47.35045" lon="-2.41323">
        <ele>-9.8000001907349</ele>
        <time>2021-09-30T09:23:29.000Z</time>
      </trkpt>
      <trkpt lat="47.35034" lon="-2.41298">
        <ele>-9.8000001907349</ele>
        <time>2021-09-30T09:23:33.000Z</time>
      </trkpt>
      <trkpt lat="47.35026" lon="-2.41277">
        <ele>-9.8000001907349</ele>
        <time>2021-09-30T09:23:36.000Z</time>
      </trkpt>
      <trkpt lat="47.35011" lon="-2.41239">
        <ele>-9.8000001907349</ele>
        <time>2021-09-30T09:23:42.000Z</time>
      </trkpt>
      <trkpt lat="47.35009" lon="-2.41232">
        <ele>-9.8000001907349</ele>
        <time>2021-09-30T09:23:43.000Z</time>
      </trkpt>
      <trkpt lat="47.34991" lon="-2.41185">
        <ele>-9.8000001907349</ele>
        <time>2021-09-30T09:23:50.000Z</time>
      </trkpt>
      <trkpt lat="47.34971" lon="-2.41142">
        <ele>-9.8000001907349</ele>
        <time>2021-09-30T09:23:56.000Z</time>
      </trkpt>
      <trkpt lat="47.34956" lon="-2.411">
        <ele>-9.8000001907349</ele>
        <time>2021-09-30T09:24:02.000Z</time>
      </trkpt>
      <trkpt lat="47.34953" lon="-2.41093">
        <ele>-9.8000001907349</ele>
        <time>2021-09-30T09:24:03.000Z</time>
      </trkpt>
      <trkpt lat="47.34938" lon="-2.41061">
        <ele>-9.3999996185303</ele>
        <time>2021-09-30T09:24:08.000Z</time>
      </trkpt>
      <trkpt lat="47.34935" lon="-2.41055">
        <ele>-9</ele>
        <time>2021-09-30T09:24:09.000Z</time>
      </trkpt>
      <trkpt lat="47.34933" lon="-2.41048">
        <ele>-8.6000003814697</ele>
        <time>2021-09-30T09:24:10.000Z</time>
      </trkpt>
      <trkpt lat="47.34931" lon="-2.4104">
        <ele>-8.1999998092651</ele>
        <time>2021-09-30T09:24:11.000Z</time>
      </trkpt>
      <trkpt lat="47.3493" lon="-2.41032">
        <ele>-7.8000001907349</ele>
        <time>2021-09-30T09:24:12.000Z</time>
      </trkpt>
      <trkpt lat="47.34929" lon="-2.41024">
        <ele>-7.8000001907349</ele>
        <time>2021-09-30T09:24:13.000Z</time>
      </trkpt>
      <trkpt lat="47.34931" lon="-2.40974">
        <ele>-7.8000001907349</ele>
        <time>2021-09-30T09:24:19.000Z</time>
      </trkpt>
      <trkpt lat="47.34929" lon="-2.40923">
        <ele>-7.8000001907349</ele>
        <time>2021-09-30T09:24:25.000Z</time>
      </trkpt>
      <trkpt lat="47.34927" lon="-2.40888">
        <ele>-7.8000001907349</ele>
        <time>2021-09-30T09:24:29.000Z</time>
      </trkpt>
      <trkpt lat="47.34925" lon="-2.40871">
        <ele>-7.8000001907349</ele>
        <time>2021-09-30T09:24:31.000Z</time>
      </trkpt>
      <trkpt lat="47.34923" lon="-2.40863">
        <ele>-7.8000001907349</ele>
        <time>2021-09-30T09:24:32.000Z</time>
      </trkpt>
      <trkpt lat="47.34916" lon="-2.40841">
        <ele>-7.8000001907349</ele>
        <time>2021-09-30T09:24:35.000Z</time>
      </trkpt>
      <trkpt lat="47.3491" lon="-2.40829">
        <ele>-7.8000001907349</ele>
        <time>2021-09-30T09:24:37.000Z</time>
      </trkpt>
      <trkpt lat="47.34902" lon="-2.40813">
        <ele>-7.8000001907349</ele>
        <time>2021-09-30T09:24:40.000Z</time>
      </trkpt>
      <trkpt lat="47.34885" lon="-2.40788">
        <ele>-7.8000001907349</ele>
        <time>2021-09-30T09:24:45.000Z</time>
      </trkpt>
      <trkpt lat="47.3488" lon="-2.40785">
        <ele>-7.8000001907349</ele>
        <time>2021-09-30T09:24:46.000Z</time>
      </trkpt>
      <trkpt lat="47.34875" lon="-2.40782">
        <ele>-7.8000001907349</ele>
        <time>2021-09-30T09:24:47.000Z</time>
      </trkpt>
      <trkpt lat="47.34859" lon="-2.40779">
        <ele>-7.8000001907349</ele>
        <time>2021-09-30T09:24:50.000Z</time>
      </trkpt>
      <trkpt lat="47.34854" lon="-2.40779">
        <ele>-7.8000001907349</ele>
        <time>2021-09-30T09:24:51.000Z</time>
      </trkpt>
      <trkpt lat="47.34836" lon="-2.40778">
        <ele>-7.8000001907349</ele>
        <time>2021-09-30T09:24:56.000Z</time>
      </trkpt>
      <trkpt lat="47.34827" lon="-2.40768">
        <ele>-7.8000001907349</ele>
        <time>2021-09-30T09:24:59.000Z</time>
      </trkpt>
      <trkpt lat="47.34822" lon="-2.40745">
        <ele>-7.8000001907349</ele>
        <time>2021-09-30T09:25:02.000Z</time>
      </trkpt>
      <trkpt lat="47.3482" lon="-2.40737">
        <ele>-7.8000001907349</ele>
        <time>2021-09-30T09:25:03.000Z</time>
      </trkpt>
      <trkpt lat="47.34819" lon="-2.40729">
        <ele>-7.8000001907349</ele>
        <time>2021-09-30T09:25:04.000Z</time>
      </trkpt>
      <trkpt lat="47.34818" lon="-2.40702">
        <ele>-7.8000001907349</ele>
        <time>2021-09-30T09:25:07.000Z</time>
      </trkpt>
      <trkpt lat="47.34821" lon="-2.40673">
        <ele>-7.8000001907349</ele>
        <time>2021-09-30T09:25:10.000Z</time>
      </trkpt>
      <trkpt lat="47.34825" lon="-2.40654">
        <ele>-7.8000001907349</ele>
        <time>2021-09-30T09:25:12.000Z</time>
      </trkpt>
      <trkpt lat="47.34833" lon="-2.40626">
        <ele>-8.1999998092651</ele>
        <time>2021-09-30T09:25:15.000Z</time>
      </trkpt>
      <trkpt lat="47.34836" lon="-2.40618">
        <ele>-8.6000003814697</ele>
        <time>2021-09-30T09:25:16.000Z</time>
      </trkpt>
      <trkpt lat="47.3484" lon="-2.4061">
        <ele>-9</ele>
        <time>2021-09-30T09:25:17.000Z</time>
      </trkpt>
      <trkpt lat="47.34844" lon="-2.40604">
        <ele>-9.8000001907349</ele>
        <time>2021-09-30T09:25:18.000Z</time>
      </trkpt>
      <trkpt lat="47.34859" lon="-2.40586">
        <ele>-9.8000001907349</ele>
        <time>2021-09-30T09:25:21.000Z</time>
      </trkpt>
      <trkpt lat="47.34879" lon="-2.40561">
        <ele>-9.8000001907349</ele>
        <time>2021-09-30T09:25:25.000Z</time>
      </trkpt>
      <trkpt lat="47.34883" lon="-2.40552">
        <ele>-9.8000001907349</ele>
        <time>2021-09-30T09:25:26.000Z</time>
      </trkpt>
      <trkpt lat="47.34886" lon="-2.4052">
        <ele>-9.8000001907349</ele>
        <time>2021-09-30T09:25:29.000Z</time>
      </trkpt>
      <trkpt lat="47.34883" lon="-2.40493">
        <ele>-9.8000001907349</ele>
        <time>2021-09-30T09:25:32.000Z</time>
      </trkpt>
      <trkpt lat="47.34881" lon="-2.40484">
        <ele>-9.8000001907349</ele>
        <time>2021-09-30T09:25:33.000Z</time>
      </trkpt>
      <trkpt lat="47.34872" lon="-2.40431">
        <ele>-9.8000001907349</ele>
        <time>2021-09-30T09:25:39.000Z</time>
      </trkpt>
      <trkpt lat="47.34863" lon="-2.40373">
        <ele>-9.3999996185303</ele>
        <time>2021-09-30T09:25:46.000Z</time>
      </trkpt>
      <trkpt lat="47.34861" lon="-2.40365">
        <ele>-9</ele>
        <time>2021-09-30T09:25:47.000Z</time>
      </trkpt>
      <trkpt lat="47.34859" lon="-2.40357">
        <ele>-8.6000003814697</ele>
        <time>2021-09-30T09:25:48.000Z</time>
      </trkpt>
      <trkpt lat="47.34857" lon="-2.40349">
        <ele>-8.1999998092651</ele>
        <time>2021-09-30T09:25:49.000Z</time>
      </trkpt>
      <trkpt lat="47.34856" lon="-2.40342">
        <ele>-7.8000001907349</ele>
        <time>2021-09-30T09:25:50.000Z</time>
      </trkpt>
      <trkpt lat="47.34849" lon="-2.4032">
        <ele>-7.8000001907349</ele>
        <time>2021-09-30T09:25:53.000Z</time>
      </trkpt>
      <trkpt lat="47.34846" lon="-2.40313">
        <ele>-7.8000001907349</ele>
        <time>2021-09-30T09:25:54.000Z</time>
      </trkpt>
      <trkpt lat="47.3484" lon="-2.403">
        <ele>-7.8000001907349</ele>
        <time>2021-09-30T09:25:56.000Z</time>
      </trkpt>
      <trkpt lat="47.34833" lon="-2.40287">
        <ele>-7.8000001907349</ele>
        <time>2021-09-30T09:25:58.000Z</time>
      </trkpt>
      <trkpt lat="47.34813" lon="-2.40248">
        <ele>-7.4000000953674</ele>
        <time>2021-09-30T09:26:04.000Z</time>
      </trkpt>
      <trkpt lat="47.3481" lon="-2.40241">
        <ele>-7</ele>
        <time>2021-09-30T09:26:05.000Z</time>
      </trkpt>
      <trkpt lat="47.34806" lon="-2.40234">
        <ele>-6.5999999046326</ele>
        <time>2021-09-30T09:26:06.000Z</time>
      </trkpt>
      <trkpt lat="47.34803" lon="-2.40228">
        <ele>-6.1999998092651</ele>
        <time>2021-09-30T09:26:07.000Z</time>
      </trkpt>
      <trkpt lat="47.34799" lon="-2.40223">
        <ele>-5.8000001907349</ele>
        <time>2021-09-30T09:26:08.000Z</time>
      </trkpt>
      <trkpt lat="47.34791" lon="-2.40217">
        <ele>-5.8000001907349</ele>
        <time>2021-09-30T09:26:10.000Z</time>
      </trkpt>
      <trkpt lat="47.34782" lon="-2.40212">
        <ele>-5.8000001907349</ele>
        <time>2021-09-30T09:26:12.000Z</time>
      </trkpt>
      <trkpt lat="47.34771" lon="-2.40197">
        <ele>-5.4000000953674</ele>
        <time>2021-09-30T09:26:15.000Z</time>
      </trkpt>
      <trkpt lat="47.34767" lon="-2.40192">
        <ele>-5</ele>
        <time>2021-09-30T09:26:16.000Z</time>
      </trkpt>
      <trkpt lat="47.34764" lon="-2.40187">
        <ele>-4.4000000953674</ele>
        <time>2021-09-30T09:26:17.000Z</time>
      </trkpt>
      <trkpt lat="47.3476" lon="-2.40182">
        <ele>-4</ele>
        <time>2021-09-30T09:26:18.000Z</time>
      </trkpt>
      <trkpt lat="47.34756" lon="-2.40177">
        <ele>-3.5999999046326</ele>
        <time>2021-09-30T09:26:19.000Z</time>
      </trkpt>
      <trkpt lat="47.34741" lon="-2.40157">
        <ele>-3.5999999046326</ele>
        <time>2021-09-30T09:26:23.000Z</time>
      </trkpt>
      <trkpt lat="47.34728" lon="-2.40143">
        <ele>-3.5999999046326</ele>
        <time>2021-09-30T09:26:26.000Z</time>
      </trkpt>
      <trkpt lat="47.34713" lon="-2.40133">
        <ele>-3.5999999046326</ele>
        <time>2021-09-30T09:26:29.000Z</time>
      </trkpt>
      <trkpt lat="47.34687" lon="-2.40124">
        <ele>-3.5999999046326</ele>
        <time>2021-09-30T09:26:34.000Z</time>
      </trkpt>
      <trkpt lat="47.34682" lon="-2.40123">
        <ele>-3.5999999046326</ele>
        <time>2021-09-30T09:26:35.000Z</time>
      </trkpt>
      <trkpt lat="47.34667" lon="-2.40116">
        <ele>-3.5999999046326</ele>
        <time>2021-09-30T09:26:38.000Z</time>
      </trkpt>
      <trkpt lat="47.34662" lon="-2.40112">
        <ele>-3.5999999046326</ele>
        <time>2021-09-30T09:26:39.000Z</time>
      </trkpt>
      <trkpt lat="47.34653" lon="-2.40103">
        <ele>-3.5999999046326</ele>
        <time>2021-09-30T09:26:41.000Z</time>
      </trkpt>
      <trkpt lat="47.34642" lon="-2.40087">
        <ele>-3.5999999046326</ele>
        <time>2021-09-30T09:26:44.000Z</time>
      </trkpt>
      <trkpt lat="47.34615" lon="-2.40043">
        <ele>-3.5999999046326</ele>
        <time>2021-09-30T09:26:52.000Z</time>
      </trkpt>
      <trkpt lat="47.34601" lon="-2.40018">
        <ele>-3.2000000476837</ele>
        <time>2021-09-30T09:26:57.000Z</time>
      </trkpt>
      <trkpt lat="47.34598" lon="-2.40013">
        <ele>-2.7999999523163</ele>
        <time>2021-09-30T09:26:58.000Z</time>
      </trkpt>
      <trkpt lat="47.34595" lon="-2.40008">
        <ele>-2.4000000953674</ele>
        <time>2021-09-30T09:26:59.000Z</time>
      </trkpt>
      <trkpt lat="47.34592" lon="-2.40004">
        <ele>-2</ele>
        <time>2021-09-30T09:27:00.000Z</time>
      </trkpt>
      <trkpt lat="47.34589" lon="-2.39999">
        <ele>-1.6000000238419</ele>
        <time>2021-09-30T09:27:01.000Z</time>
      </trkpt>
      <trkpt lat="47.3458" lon="-2.39986">
        <ele>-1.6000000238419</ele>
        <time>2021-09-30T09:27:06.000Z</time>
      </trkpt>
      <trkpt lat="47.34579" lon="-2.39986">
        <ele>-1.6000000238419</ele>
        <time>2021-09-30T09:27:07.000Z</time>
      </trkpt>
      <trkpt lat="47.34579" lon="-2.39981">
        <ele>-1.6000000238419</ele>
        <time>2021-09-30T09:27:12.000Z</time>
      </trkpt>
      <trkpt lat="47.34579" lon="-2.39978">
        <ele>-1.6000000238419</ele>
        <time>2021-09-30T09:27:13.000Z</time>
      </trkpt>
      <trkpt lat="47.34583" lon="-2.39962">
        <ele>-1.6000000238419</ele>
        <time>2021-09-30T09:27:16.000Z</time>
      </trkpt>
      <trkpt lat="47.34584" lon="-2.39955">
        <ele>-1.6000000238419</ele>
        <time>2021-09-30T09:27:17.000Z</time>
      </trkpt>
      <trkpt lat="47.34599" lon="-2.39913">
        <ele>-1.6000000238419</ele>
        <time>2021-09-30T09:27:23.000Z</time>
      </trkpt>
      <trkpt lat="47.34607" lon="-2.39889">
        <ele>-1.6000000238419</ele>
        <time>2021-09-30T09:27:26.000Z</time>
      </trkpt>
      <trkpt lat="47.34612" lon="-2.39872">
        <ele>-1.6000000238419</ele>
        <time>2021-09-30T09:27:28.000Z</time>
      </trkpt>
      <trkpt lat="47.34609" lon="-2.39859">
        <ele>-1.6000000238419</ele>
        <time>2021-09-30T09:27:30.000Z</time>
      </trkpt>
      <trkpt lat="47.34597" lon="-2.39853">
        <ele>-1.6000000238419</ele>
        <time>2021-09-30T09:27:33.000Z</time>
      </trkpt>
      <trkpt lat="47.34587" lon="-2.3985">
        <ele>-1.6000000238419</ele>
        <time>2021-09-30T09:27:37.000Z</time>
      </trkpt>
      <trkpt lat="47.34585" lon="-2.3985">
        <ele>-1.6000000238419</ele>
        <time>2021-09-30T09:27:38.000Z</time>
      </trkpt>
      <trkpt lat="47.34584" lon="-2.39851">
        <ele>-1.6000000238419</ele>
        <time>2021-09-30T09:27:40.000Z</time>
      </trkpt>
      <trkpt lat="47.34577" lon="-2.39844">
        <ele>-1.6000000238419</ele>
        <time>2021-09-30T09:32:04.000Z</time>
      </trkpt>
      <trkpt lat="47.3457" lon="-2.39839">
        <ele>-1.6000000238419</ele>
        <time>2021-09-30T09:32:09.000Z</time>
      </trkpt>
      <trkpt lat="47.3456" lon="-2.3983">
        <ele>-1.6000000238419</ele>
        <time>2021-09-30T09:32:15.000Z</time>
      </trkpt>
      <trkpt lat="47.34547" lon="-2.39818">
        <ele>-1.6000000238419</ele>
        <time>2021-09-30T09:32:23.000Z</time>
      </trkpt>
      <trkpt lat="47.34529" lon="-2.39801">
        <ele>-1.6000000238419</ele>
        <time>2021-09-30T09:32:32.000Z</time>
      </trkpt>
      <trkpt lat="47.3451" lon="-2.39785">
        <ele>-1.6000000238419</ele>
        <time>2021-09-30T09:32:40.000Z</time>
      </trkpt>
      <trkpt lat="47.34497" lon="-2.39779">
        <ele>-1.6000000238419</ele>
        <time>2021-09-30T09:32:46.000Z</time>
      </trkpt>
      <trkpt lat="47.34495" lon="-2.39779">
        <ele>-1.6000000238419</ele>
        <time>2021-09-30T09:32:47.000Z</time>
      </trkpt>
      <trkpt lat="47.34481" lon="-2.39773">
        <ele>-1.6000000238419</ele>
        <time>2021-09-30T09:32:54.000Z</time>
      </trkpt>
      <trkpt lat="47.34471" lon="-2.39769">
        <ele>-1.6000000238419</ele>
        <time>2021-09-30T09:32:59.000Z</time>
      </trkpt>
      <trkpt lat="47.34469" lon="-2.39763">
        <ele>-1.6000000238419</ele>
        <time>2021-09-30T09:33:01.000Z</time>
      </trkpt>
      <trkpt lat="47.34468" lon="-2.39747">
        <ele>-1.6000000238419</ele>
        <time>2021-09-30T09:33:04.000Z</time>
      </trkpt>
      <trkpt lat="47.34469" lon="-2.39741">
        <ele>-1.6000000238419</ele>
        <time>2021-09-30T09:33:05.000Z</time>
      </trkpt>
      <trkpt lat="47.34475" lon="-2.39695">
        <ele>-1.6000000238419</ele>
        <time>2021-09-30T09:33:12.000Z</time>
      </trkpt>
      <trkpt lat="47.34476" lon="-2.39688">
        <ele>-1.6000000238419</ele>
        <time>2021-09-30T09:33:13.000Z</time>
      </trkpt>
      <trkpt lat="47.34486" lon="-2.39663">
        <ele>-1.6000000238419</ele>
        <time>2021-09-30T09:33:17.000Z</time>
      </trkpt>
      <trkpt lat="47.34505" lon="-2.39629">
        <ele>-1.6000000238419</ele>
        <time>2021-09-30T09:33:23.000Z</time>
      </trkpt>
      <trkpt lat="47.34518" lon="-2.396">
        <ele>-1.6000000238419</ele>
        <time>2021-09-30T09:33:28.000Z</time>
      </trkpt>
      <trkpt lat="47.34529" lon="-2.39571">
        <ele>-1.6000000238419</ele>
        <time>2021-09-30T09:33:33.000Z</time>
      </trkpt>
      <trkpt lat="47.34537" lon="-2.39543">
        <ele>-1.6000000238419</ele>
        <time>2021-09-30T09:33:37.000Z</time>
      </trkpt>
      <trkpt lat="47.34539" lon="-2.39536">
        <ele>-1.6000000238419</ele>
        <time>2021-09-30T09:33:38.000Z</time>
      </trkpt>
      <trkpt lat="47.34548" lon="-2.39485">
        <ele>-1.6000000238419</ele>
        <time>2021-09-30T09:33:44.000Z</time>
      </trkpt>
      <trkpt lat="47.3455" lon="-2.39477">
        <ele>-1.6000000238419</ele>
        <time>2021-09-30T09:33:45.000Z</time>
      </trkpt>
      <trkpt lat="47.34553" lon="-2.39469">
        <ele>-1.6000000238419</ele>
        <time>2021-09-30T09:33:46.000Z</time>
      </trkpt>
      <trkpt lat="47.34567" lon="-2.39451">
        <ele>-1.6000000238419</ele>
        <time>2021-09-30T09:33:49.000Z</time>
      </trkpt>
      <trkpt lat="47.34572" lon="-2.39447">
        <ele>-1.6000000238419</ele>
        <time>2021-09-30T09:33:50.000Z</time>
      </trkpt>
      <trkpt lat="47.34596" lon="-2.39417">
        <ele>-1.6000000238419</ele>
        <time>2021-09-30T09:33:55.000Z</time>
      </trkpt>
      <trkpt lat="47.34607" lon="-2.39398">
        <ele>-2.5999999046326</ele>
        <time>2021-09-30T09:33:58.000Z</time>
      </trkpt>
      <trkpt lat="47.34611" lon="-2.39391">
        <ele>-3</ele>
        <time>2021-09-30T09:33:59.000Z</time>
      </trkpt>
      <trkpt lat="47.34615" lon="-2.39385">
        <ele>-3.4000000953674</ele>
        <time>2021-09-30T09:34:00.000Z</time>
      </trkpt>
      <trkpt lat="47.34619" lon="-2.39378">
        <ele>-3.7999999523163</ele>
        <time>2021-09-30T09:34:01.000Z</time>
      </trkpt>
      <trkpt lat="47.34622" lon="-2.39372">
        <ele>-3.7999999523163</ele>
        <time>2021-09-30T09:34:02.000Z</time>
      </trkpt>
      <trkpt lat="47.34653" lon="-2.39325">
        <ele>-3.7999999523163</ele>
        <time>2021-09-30T09:34:09.000Z</time>
      </trkpt>
      <trkpt lat="47.34655" lon="-2.39319">
        <ele>-4.1999998092651</ele>
        <time>2021-09-30T09:34:10.000Z</time>
      </trkpt>
      <trkpt lat="47.34656" lon="-2.39315">
        <ele>-4.5999999046326</ele>
        <time>2021-09-30T09:34:11.000Z</time>
      </trkpt>
      <trkpt lat="47.34656" lon="-2.3931">
        <ele>-5</ele>
        <time>2021-09-30T09:34:12.000Z</time>
      </trkpt>
      <trkpt lat="47.34653" lon="-2.39305">
        <ele>-5.4000000953674</ele>
        <time>2021-09-30T09:34:13.000Z</time>
      </trkpt>
      <trkpt lat="47.3465" lon="-2.393">
        <ele>-6</ele>
        <time>2021-09-30T09:34:14.000Z</time>
      </trkpt>
      <trkpt lat="47.34646" lon="-2.39296">
        <ele>-6</ele>
        <time>2021-09-30T09:34:15.000Z</time>
      </trkpt>
      <trkpt lat="47.34642" lon="-2.39291">
        <ele>-6</ele>
        <time>2021-09-30T09:34:16.000Z</time>
      </trkpt>
      <trkpt lat="47.34618" lon="-2.39271">
        <ele>-6</ele>
        <time>2021-09-30T09:34:21.000Z</time>
      </trkpt>
      <trkpt lat="47.34578" lon="-2.39245">
        <ele>-6</ele>
        <time>2021-09-30T09:34:29.000Z</time>
      </trkpt>
      <trkpt lat="47.34546" lon="-2.39232">
        <ele>-6</ele>
        <time>2021-09-30T09:34:36.000Z</time>
      </trkpt>
      <trkpt lat="47.34541" lon="-2.39231">
        <ele>-6</ele>
        <time>2021-09-30T09:34:37.000Z</time>
      </trkpt>
      <trkpt lat="47.3452" lon="-2.39229">
        <ele>-6</ele>
        <time>2021-09-30T09:34:42.000Z</time>
      </trkpt>
      <trkpt lat="47.3449" lon="-2.39232">
        <ele>-6</ele>
        <time>2021-09-30T09:34:49.000Z</time>
      </trkpt>
      <trkpt lat="47.34486" lon="-2.39234">
        <ele>-6</ele>
        <time>2021-09-30T09:34:50.000Z</time>
      </trkpt>
      <trkpt lat="47.34473" lon="-2.39238">
        <ele>-5.4000000953674</ele>
        <time>2021-09-30T09:34:53.000Z</time>
      </trkpt>
      <trkpt lat="47.34469" lon="-2.39238">
        <ele>-5</ele>
        <time>2021-09-30T09:34:54.000Z</time>
      </trkpt>
      <trkpt lat="47.34464" lon="-2.39239">
        <ele>-4.5999999046326</ele>
        <time>2021-09-30T09:34:55.000Z</time>
      </trkpt>
      <trkpt lat="47.3446" lon="-2.3924">
        <ele>-4.1999998092651</ele>
        <time>2021-09-30T09:34:56.000Z</time>
      </trkpt>
      <trkpt lat="47.34456" lon="-2.39242">
        <ele>-3.7999999523163</ele>
        <time>2021-09-30T09:34:57.000Z</time>
      </trkpt>
      <trkpt lat="47.34425" lon="-2.39251">
        <ele>-3.4000000953674</ele>
        <time>2021-09-30T09:35:05.000Z</time>
      </trkpt>
      <trkpt lat="47.34421" lon="-2.39252">
        <ele>-2.7999999523163</ele>
        <time>2021-09-30T09:35:06.000Z</time>
      </trkpt>
      <trkpt lat="47.34417" lon="-2.39253">
        <ele>-2.4000000953674</ele>
        <time>2021-09-30T09:35:07.000Z</time>
      </trkpt>
      <trkpt lat="47.34413" lon="-2.39255">
        <ele>-2</ele>
        <time>2021-09-30T09:35:08.000Z</time>
      </trkpt>
      <trkpt lat="47.34409" lon="-2.39256">
        <ele>-1.6000000238419</ele>
        <time>2021-09-30T09:35:09.000Z</time>
      </trkpt>
      <trkpt lat="47.34396" lon="-2.3926">
        <ele>-1.6000000238419</ele>
        <time>2021-09-30T09:35:12.000Z</time>
      </trkpt>
      <trkpt lat="47.34387" lon="-2.39263">
        <ele>-1.2000000476837</ele>
        <time>2021-09-30T09:35:14.000Z</time>
      </trkpt>
      <trkpt lat="47.34383" lon="-2.39265">
        <ele>-0.80000001192093</ele>
        <time>2021-09-30T09:35:15.000Z</time>
      </trkpt>
      <trkpt lat="47.34379" lon="-2.39267">
        <ele>-0.40000000596046</ele>
        <time>2021-09-30T09:35:16.000Z</time>
      </trkpt>
      <trkpt lat="47.34375" lon="-2.39269">
        <ele>27.9</ele>
        <time>2021-09-30T09:35:17.000Z</time>
      </trkpt>
      <trkpt lat="47.34371" lon="-2.39271">
        <ele>0.40000000596046</ele>
        <time>2021-09-30T09:35:18.000Z</time>
      </trkpt>
      <trkpt lat="47.34367" lon="-2.39273">
        <ele>0.40000000596046</ele>
        <time>2021-09-30T09:35:19.000Z</time>
      </trkpt>
      <trkpt lat="47.34355" lon="-2.3928">
        <ele>0.80000001192093</ele>
        <time>2021-09-30T09:35:22.000Z</time>
      </trkpt>
      <trkpt lat="47.34351" lon="-2.39282">
        <ele>1.2000000476837</ele>
        <time>2021-09-30T09:35:23.000Z</time>
      </trkpt>
      <trkpt lat="47.34346" lon="-2.39284">
        <ele>1.6000000238419</ele>
        <time>2021-09-30T09:35:24.000Z</time>
      </trkpt>
      <trkpt lat="47.34343" lon="-2.39286">
        <ele>2</ele>
        <time>2021-09-30T09:35:25.000Z</time>
      </trkpt>
      <trkpt lat="47.34338" lon="-2.39288">
        <ele>2.4000000953674</ele>
        <time>2021-09-30T09:35:26.000Z</time>
      </trkpt>
      <trkpt lat="47.34305" lon="-2.39306">
        <ele>2.7999999523163</ele>
        <time>2021-09-30T09:35:34.000Z</time>
      </trkpt>
      <trkpt lat="47.343" lon="-2.39309">
        <ele>3.2000000476837</ele>
        <time>2021-09-30T09:35:35.000Z</time>
      </trkpt>
      <trkpt lat="47.34296" lon="-2.39311">
        <ele>3.7999999523163</ele>
        <time>2021-09-30T09:35:36.000Z</time>
      </trkpt>
      <trkpt lat="47.34291" lon="-2.39313">
        <ele>4.5999999046326</ele>
        <time>2021-09-30T09:35:37.000Z</time>
      </trkpt>
      <trkpt lat="47.34274" lon="-2.39322">
        <ele>4.5999999046326</ele>
        <time>2021-09-30T09:35:41.000Z</time>
      </trkpt>
      <trkpt lat="47.34252" lon="-2.39336">
        <ele>4.5999999046326</ele>
        <time>2021-09-30T09:35:46.000Z</time>
      </trkpt>
      <trkpt lat="47.34244" lon="-2.39342">
        <ele>4.5999999046326</ele>
        <time>2021-09-30T09:35:48.000Z</time>
      </trkpt>
      <trkpt lat="47.34236" lon="-2.39348">
        <ele>4.5999999046326</ele>
        <time>2021-09-30T09:35:50.000Z</time>
      </trkpt>
      <trkpt lat="47.34216" lon="-2.39362">
        <ele>5</ele>
        <time>2021-09-30T09:35:55.000Z</time>
      </trkpt>
      <trkpt lat="47.34212" lon="-2.39364">
        <ele>5.4000000953674</ele>
        <time>2021-09-30T09:35:56.000Z</time>
      </trkpt>
      <trkpt lat="47.34208" lon="-2.39366">
        <ele>5.8000001907349</ele>
        <time>2021-09-30T09:35:57.000Z</time>
      </trkpt>
      <trkpt lat="47.34205" lon="-2.39368">
        <ele>6.1999998092651</ele>
        <time>2021-09-30T09:35:58.000Z</time>
      </trkpt>
      <trkpt lat="47.34201" lon="-2.39369">
        <ele>6.5999999046326</ele>
        <time>2021-09-30T09:35:59.000Z</time>
      </trkpt>
      <trkpt lat="47.34187" lon="-2.39377">
        <ele>6.5999999046326</ele>
        <time>2021-09-30T09:36:03.000Z</time>
      </trkpt>
      <trkpt lat="47.34174" lon="-2.39383">
        <ele>6.5999999046326</ele>
        <time>2021-09-30T09:36:06.000Z</time>
      </trkpt>
      <trkpt lat="47.34163" lon="-2.39391">
        <ele>6.5999999046326</ele>
        <time>2021-09-30T09:36:09.000Z</time>
      </trkpt>
      <trkpt lat="47.34159" lon="-2.39394">
        <ele>6.5999999046326</ele>
        <time>2021-09-30T09:36:10.000Z</time>
      </trkpt>
      <trkpt lat="47.34133" lon="-2.39413">
        <ele>6.5999999046326</ele>
        <time>2021-09-30T09:36:16.000Z</time>
      </trkpt>
      <trkpt lat="47.34106" lon="-2.39428">
        <ele>6.5999999046326</ele>
        <time>2021-09-30T09:36:21.000Z</time>
      </trkpt>
      <trkpt lat="47.341" lon="-2.39427">
        <ele>6.5999999046326</ele>
        <time>2021-09-30T09:36:22.000Z</time>
      </trkpt>
      <trkpt lat="47.3409" lon="-2.3941">
        <ele>6.5999999046326</ele>
        <time>2021-09-30T09:36:25.000Z</time>
      </trkpt>
      <trkpt lat="47.34086" lon="-2.39388">
        <ele>6.5999999046326</ele>
        <time>2021-09-30T09:36:28.000Z</time>
      </trkpt>
      <trkpt lat="47.34083" lon="-2.39373">
        <ele>6.5999999046326</ele>
        <time>2021-09-30T09:36:30.000Z</time>
      </trkpt>
      <trkpt lat="47.34072" lon="-2.39305">
        <ele>6.5999999046326</ele>
        <time>2021-09-30T09:36:38.000Z</time>
      </trkpt>
      <trkpt lat="47.34063" lon="-2.39265">
        <ele>6.5999999046326</ele>
        <time>2021-09-30T09:36:43.000Z</time>
      </trkpt>
      <trkpt lat="47.3406" lon="-2.39259">
        <ele>6.5999999046326</ele>
        <time>2021-09-30T09:36:44.000Z</time>
      </trkpt>
      <trkpt lat="47.34045" lon="-2.39255">
        <ele>6.5999999046326</ele>
        <time>2021-09-30T09:36:47.000Z</time>
      </trkpt>
      <trkpt lat="47.34039" lon="-2.39255">
        <ele>6.5999999046326</ele>
        <time>2021-09-30T09:36:48.000Z</time>
      </trkpt>
      <trkpt lat="47.34022" lon="-2.39254">
        <ele>6.5999999046326</ele>
        <time>2021-09-30T09:36:51.000Z</time>
      </trkpt>
      <trkpt lat="47.34012" lon="-2.39258">
        <ele>6.5999999046326</ele>
        <time>2021-09-30T09:36:53.000Z</time>
      </trkpt>
      <trkpt lat="47.33996" lon="-2.39261">
        <ele>6.5999999046326</ele>
        <time>2021-09-30T09:36:56.000Z</time>
      </trkpt>
      <trkpt lat="47.33985" lon="-2.39262">
        <ele>6.5999999046326</ele>
        <time>2021-09-30T09:36:58.000Z</time>
      </trkpt>
      <trkpt lat="47.33941" lon="-2.39272">
        <ele>6.5999999046326</ele>
        <time>2021-09-30T09:37:06.000Z</time>
      </trkpt>
      <trkpt lat="47.33899" lon="-2.3928">
        <ele>6.5999999046326</ele>
        <time>2021-09-30T09:37:14.000Z</time>
      </trkpt>
      <trkpt lat="47.33878" lon="-2.39283">
        <ele>7</ele>
        <time>2021-09-30T09:37:18.000Z</time>
      </trkpt>
      <trkpt lat="47.33872" lon="-2.39284">
        <ele>7.4000000953674</ele>
        <time>2021-09-30T09:37:19.000Z</time>
      </trkpt>
      <trkpt lat="47.33867" lon="-2.39285">
        <ele>7.8000001907349</ele>
        <time>2021-09-30T09:37:20.000Z</time>
      </trkpt>
      <trkpt lat="47.33862" lon="-2.39286">
        <ele>8.1999998092651</ele>
        <time>2021-09-30T09:37:21.000Z</time>
      </trkpt>
      <trkpt lat="47.33856" lon="-2.39287">
        <ele>8.8000001907349</ele>
        <time>2021-09-30T09:37:22.000Z</time>
      </trkpt>
      <trkpt lat="47.33825" lon="-2.39291">
        <ele>8.8000001907349</ele>
        <time>2021-09-30T09:37:28.000Z</time>
      </trkpt>
      <trkpt lat="47.33789" lon="-2.39297">
        <ele>8.8000001907349</ele>
        <time>2021-09-30T09:37:35.000Z</time>
      </trkpt>
      <trkpt lat="47.33764" lon="-2.39302">
        <ele>9.1999998092651</ele>
        <time>2021-09-30T09:37:40.000Z</time>
      </trkpt>
      <trkpt lat="47.3376" lon="-2.39302">
        <ele>9.6000003814697</ele>
        <time>2021-09-30T09:37:41.000Z</time>
      </trkpt>
      <trkpt lat="47.33755" lon="-2.39302">
        <ele>10</ele>
        <time>2021-09-30T09:37:42.000Z</time>
      </trkpt>
      <trkpt lat="47.3375" lon="-2.39302">
        <ele>10.39999961853</ele>
        <time>2021-09-30T09:37:43.000Z</time>
      </trkpt>
      <trkpt lat="47.33745" lon="-2.39302">
        <ele>10.800000190735</ele>
        <time>2021-09-30T09:37:44.000Z</time>
      </trkpt>
      <trkpt lat="47.33715" lon="-2.39305">
        <ele>10.800000190735</ele>
        <time>2021-09-30T09:37:50.000Z</time>
      </trkpt>
      <trkpt lat="47.337" lon="-2.39304">
        <ele>10.800000190735</ele>
        <time>2021-09-30T09:37:53.000Z</time>
      </trkpt>
      <trkpt lat="47.33686" lon="-2.39299">
        <ele>10.800000190735</ele>
        <time>2021-09-30T09:37:56.000Z</time>
      </trkpt>
      <trkpt lat="47.33665" lon="-2.39298">
        <ele>10.800000190735</ele>
        <time>2021-09-30T09:38:00.000Z</time>
      </trkpt>
      <trkpt lat="47.3366" lon="-2.393">
        <ele>10.800000190735</ele>
        <time>2021-09-30T09:38:01.000Z</time>
      </trkpt>
      <trkpt lat="47.33646" lon="-2.3931">
        <ele>10.800000190735</ele>
        <time>2021-09-30T09:38:04.000Z</time>
      </trkpt>
      <trkpt lat="47.33642" lon="-2.39314">
        <ele>10.800000190735</ele>
        <time>2021-09-30T09:38:05.000Z</time>
      </trkpt>
      <trkpt lat="47.3363" lon="-2.39326">
        <ele>10.800000190735</ele>
        <time>2021-09-30T09:38:08.000Z</time>
      </trkpt>
      <trkpt lat="47.33621" lon="-2.39333">
        <ele>10.800000190735</ele>
        <time>2021-09-30T09:38:10.000Z</time>
      </trkpt>
      <trkpt lat="47.33589" lon="-2.39353">
        <ele>10.800000190735</ele>
        <time>2021-09-30T09:38:17.000Z</time>
      </trkpt>
      <trkpt lat="47.33575" lon="-2.3936">
        <ele>11.199999809265</ele>
        <time>2021-09-30T09:38:20.000Z</time>
      </trkpt>
      <trkpt lat="47.3357" lon="-2.39362">
        <ele>11.60000038147</ele>
        <time>2021-09-30T09:38:21.000Z</time>
      </trkpt>
      <trkpt lat="47.33565" lon="-2.39364">
        <ele>12</ele>
        <time>2021-09-30T09:38:22.000Z</time>
      </trkpt>
      <trkpt lat="47.3356" lon="-2.39366">
        <ele>12.39999961853</ele>
        <time>2021-09-30T09:38:23.000Z</time>
      </trkpt>
      <trkpt lat="47.33556" lon="-2.39368">
        <ele>12.800000190735</ele>
        <time>2021-09-30T09:38:24.000Z</time>
      </trkpt>
      <trkpt lat="47.33546" lon="-2.39371">
        <ele>12.800000190735</ele>
        <time>2021-09-30T09:38:26.000Z</time>
      </trkpt>
      <trkpt lat="47.33532" lon="-2.39375">
        <ele>12.800000190735</ele>
        <time>2021-09-30T09:38:29.000Z</time>
      </trkpt>
      <trkpt lat="47.33518" lon="-2.39377">
        <ele>13.199999809265</ele>
        <time>2021-09-30T09:38:32.000Z</time>
      </trkpt>
      <trkpt lat="47.33513" lon="-2.39377">
        <ele>13.60000038147</ele>
        <time>2021-09-30T09:38:33.000Z</time>
      </trkpt>
      <trkpt lat="47.33509" lon="-2.39377">
        <ele>14</ele>
        <time>2021-09-30T09:38:34.000Z</time>
      </trkpt>
      <trkpt lat="47.33504" lon="-2.39378">
        <ele>14.39999961853</ele>
        <time>2021-09-30T09:38:35.000Z</time>
      </trkpt>
      <trkpt lat="47.33499" lon="-2.39378">
        <ele>14.800000190735</ele>
        <time>2021-09-30T09:38:36.000Z</time>
      </trkpt>
      <trkpt lat="47.3349" lon="-2.39379">
        <ele>14.800000190735</ele>
        <time>2021-09-30T09:38:38.000Z</time>
      </trkpt>
      <trkpt lat="47.33457" lon="-2.39387">
        <ele>14.800000190735</ele>
        <time>2021-09-30T09:38:45.000Z</time>
      </trkpt>
      <trkpt lat="47.33422" lon="-2.39398">
        <ele>14.800000190735</ele>
        <time>2021-09-30T09:38:52.000Z</time>
      </trkpt>
      <trkpt lat="47.33388" lon="-2.39411">
        <ele>15.199999809265</ele>
        <time>2021-09-30T09:38:59.000Z</time>
      </trkpt>
      <trkpt lat="47.33383" lon="-2.39414">
        <ele>15.60000038147</ele>
        <time>2021-09-30T09:39:00.000Z</time>
      </trkpt>
      <trkpt lat="47.33379" lon="-2.39416">
        <ele>16.200000762939</ele>
        <time>2021-09-30T09:39:01.000Z</time>
      </trkpt>
      <trkpt lat="47.33374" lon="-2.39418">
        <ele>16.60000038147</ele>
        <time>2021-09-30T09:39:02.000Z</time>
      </trkpt>
      <trkpt lat="47.33368" lon="-2.39421">
        <ele>17</ele>
        <time>2021-09-30T09:39:03.000Z</time>
      </trkpt>
      <trkpt lat="47.33357" lon="-2.39424">
        <ele>17</ele>
        <time>2021-09-30T09:39:05.000Z</time>
      </trkpt>
      <trkpt lat="47.33311" lon="-2.39436">
        <ele>17</ele>
        <time>2021-09-30T09:39:14.000Z</time>
      </trkpt>
      <trkpt lat="47.3329" lon="-2.39438">
        <ele>17</ele>
        <time>2021-09-30T09:39:20.000Z</time>
      </trkpt>
      <trkpt lat="47.33285" lon="-2.39436">
        <ele>17.39999961853</ele>
        <time>2021-09-30T09:39:22.000Z</time>
      </trkpt>
      <trkpt lat="47.33283" lon="-2.39435">
        <ele>17.799999237061</ele>
        <time>2021-09-30T09:39:23.000Z</time>
      </trkpt>
      <trkpt lat="47.33281" lon="-2.39435">
        <ele>18.200000762939</ele>
        <time>2021-09-30T09:39:24.000Z</time>
      </trkpt>
      <trkpt lat="47.33279" lon="-2.39435">
        <ele>18.60000038147</ele>
        <time>2021-09-30T09:39:25.000Z</time>
      </trkpt>
      <trkpt lat="47.33278" lon="-2.39434">
        <ele>19</ele>
        <time>2021-09-30T09:39:26.000Z</time>
      </trkpt>
      <trkpt lat="47.33277" lon="-2.39424">
        <ele>19</ele>
        <time>2021-09-30T09:39:31.000Z</time>
      </trkpt>
      <trkpt lat="47.33277" lon="-2.3941">
        <ele>19</ele>
        <time>2021-09-30T09:39:35.000Z</time>
      </trkpt>
      <trkpt lat="47.33281" lon="-2.39385">
        <ele>19</ele>
        <time>2021-09-30T09:39:40.000Z</time>
      </trkpt>
      <trkpt lat="47.33293" lon="-2.39342">
        <ele>19</ele>
        <time>2021-09-30T09:39:47.000Z</time>
      </trkpt>
      <trkpt lat="47.33308" lon="-2.39283">
        <ele>19</ele>
        <time>2021-09-30T09:39:55.000Z</time>
      </trkpt>
      <trkpt lat="47.33318" lon="-2.39235">
        <ele>19</ele>
        <time>2021-09-30T09:40:01.000Z</time>
      </trkpt>
      <trkpt lat="47.33331" lon="-2.39175">
        <ele>19</ele>
        <time>2021-09-30T09:40:09.000Z</time>
      </trkpt>
      <trkpt lat="47.33344" lon="-2.39115">
        <ele>19</ele>
        <time>2021-09-30T09:40:17.000Z</time>
      </trkpt>
      <trkpt lat="47.33345" lon="-2.39109">
        <ele>19</ele>
        <time>2021-09-30T09:40:18.000Z</time>
      </trkpt>
      <trkpt lat="47.33347" lon="-2.39092">
        <ele>19</ele>
        <time>2021-09-30T09:40:21.000Z</time>
      </trkpt>
      <trkpt lat="47.33348" lon="-2.39067">
        <ele>19</ele>
        <time>2021-09-30T09:40:26.000Z</time>
      </trkpt>
      <trkpt lat="47.3335" lon="-2.39063">
        <ele>19</ele>
        <time>2021-09-30T09:40:27.000Z</time>
      </trkpt>
      <trkpt lat="47.33358" lon="-2.39041">
        <ele>19</ele>
        <time>2021-09-30T09:40:31.000Z</time>
      </trkpt>
      <trkpt lat="47.33359" lon="-2.39027">
        <ele>19</ele>
        <time>2021-09-30T09:40:33.000Z</time>
      </trkpt>
      <trkpt lat="47.33363" lon="-2.39">
        <ele>19</ele>
        <time>2021-09-30T09:40:37.000Z</time>
      </trkpt>
      <trkpt lat="47.33371" lon="-2.38933">
        <ele>19</ele>
        <time>2021-09-30T09:40:46.000Z</time>
      </trkpt>
      <trkpt lat="47.33376" lon="-2.38891">
        <ele>18.60000038147</ele>
        <time>2021-09-30T09:40:51.000Z</time>
      </trkpt>
      <trkpt lat="47.33377" lon="-2.38882">
        <ele>18</ele>
        <time>2021-09-30T09:40:52.000Z</time>
      </trkpt>
      <trkpt lat="47.33378" lon="-2.38872">
        <ele>17.60000038147</ele>
        <time>2021-09-30T09:40:53.000Z</time>
      </trkpt>
      <trkpt lat="47.33379" lon="-2.38863">
        <ele>17.200000762939</ele>
        <time>2021-09-30T09:40:54.000Z</time>
      </trkpt>
      <trkpt lat="47.3338" lon="-2.38853">
        <ele>16.799999237061</ele>
        <time>2021-09-30T09:40:55.000Z</time>
      </trkpt>
      <trkpt lat="47.33389" lon="-2.38786">
        <ele>16.799999237061</ele>
        <time>2021-09-30T09:41:02.000Z</time>
      </trkpt>
      <trkpt lat="47.33398" lon="-2.38706">
        <ele>16.799999237061</ele>
        <time>2021-09-30T09:41:10.000Z</time>
      </trkpt>
      <trkpt lat="47.33401" lon="-2.38676">
        <ele>16.799999237061</ele>
        <time>2021-09-30T09:41:13.000Z</time>
      </trkpt>
      <trkpt lat="47.33407" lon="-2.38627">
        <ele>16.200000762939</ele>
        <time>2021-09-30T09:41:18.000Z</time>
      </trkpt>
      <trkpt lat="47.33408" lon="-2.38617">
        <ele>15.800000190735</ele>
        <time>2021-09-30T09:41:19.000Z</time>
      </trkpt>
      <trkpt lat="47.3341" lon="-2.38607">
        <ele>15.39999961853</ele>
        <time>2021-09-30T09:41:20.000Z</time>
      </trkpt>
      <trkpt lat="47.33411" lon="-2.38597">
        <ele>15</ele>
        <time>2021-09-30T09:41:21.000Z</time>
      </trkpt>
      <trkpt lat="47.33412" lon="-2.38587">
        <ele>14.60000038147</ele>
        <time>2021-09-30T09:41:22.000Z</time>
      </trkpt>
      <trkpt lat="47.33413" lon="-2.38577">
        <ele>14.60000038147</ele>
        <time>2021-09-30T09:41:23.000Z</time>
      </trkpt>
      <trkpt lat="47.33422" lon="-2.38501">
        <ele>14.60000038147</ele>
        <time>2021-09-30T09:41:31.000Z</time>
      </trkpt>
      <trkpt lat="47.3343" lon="-2.38433">
        <ele>14.60000038147</ele>
        <time>2021-09-30T09:41:39.000Z</time>
      </trkpt>
      <trkpt lat="47.33433" lon="-2.38406">
        <ele>14.60000038147</ele>
        <time>2021-09-30T09:41:43.000Z</time>
      </trkpt>
      <trkpt lat="47.33432" lon="-2.38393">
        <ele>14.60000038147</ele>
        <time>2021-09-30T09:41:45.000Z</time>
      </trkpt>
      <trkpt lat="47.33427" lon="-2.38353">
        <ele>14.60000038147</ele>
        <time>2021-09-30T09:41:50.000Z</time>
      </trkpt>
      <trkpt lat="47.33416" lon="-2.38294">
        <ele>14.60000038147</ele>
        <time>2021-09-30T09:41:57.000Z</time>
      </trkpt>
      <trkpt lat="47.33408" lon="-2.38233">
        <ele>14.60000038147</ele>
        <time>2021-09-30T09:42:04.000Z</time>
      </trkpt>
      <trkpt lat="47.33402" lon="-2.38172">
        <ele>14.60000038147</ele>
        <time>2021-09-30T09:42:11.000Z</time>
      </trkpt>
      <trkpt lat="47.33395" lon="-2.3813">
        <ele>14.60000038147</ele>
        <time>2021-09-30T09:42:16.000Z</time>
      </trkpt>
      <trkpt lat="47.33392" lon="-2.38122">
        <ele>14.60000038147</ele>
        <time>2021-09-30T09:42:17.000Z</time>
      </trkpt>
      <trkpt lat="47.33377" lon="-2.38089">
        <ele>14.60000038147</ele>
        <time>2021-09-30T09:42:21.000Z</time>
      </trkpt>
      <trkpt lat="47.33364" lon="-2.38061">
        <ele>14.60000038147</ele>
        <time>2021-09-30T09:42:25.000Z</time>
      </trkpt>
      <trkpt lat="47.33359" lon="-2.38045">
        <ele>14.199999809265</ele>
        <time>2021-09-30T09:42:27.000Z</time>
      </trkpt>
      <trkpt lat="47.33358" lon="-2.38037">
        <ele>13.60000038147</ele>
        <time>2021-09-30T09:42:28.000Z</time>
      </trkpt>
      <trkpt lat="47.33355" lon="-2.38029">
        <ele>13.199999809265</ele>
        <time>2021-09-30T09:42:29.000Z</time>
      </trkpt>
      <trkpt lat="47.33353" lon="-2.38022">
        <ele>12.800000190735</ele>
        <time>2021-09-30T09:42:30.000Z</time>
      </trkpt>
      <trkpt lat="47.33351" lon="-2.38015">
        <ele>12.199999809265</ele>
        <time>2021-09-30T09:42:31.000Z</time>
      </trkpt>
      <trkpt lat="47.3335" lon="-2.38008">
        <ele>12.199999809265</ele>
        <time>2021-09-30T09:42:32.000Z</time>
      </trkpt>
      <trkpt lat="47.33347" lon="-2.37994">
        <ele>11.800000190735</ele>
        <time>2021-09-30T09:42:34.000Z</time>
      </trkpt>
      <trkpt lat="47.33346" lon="-2.37987">
        <ele>11.39999961853</ele>
        <time>2021-09-30T09:42:35.000Z</time>
      </trkpt>
      <trkpt lat="47.33345" lon="-2.3798">
        <ele>11</ele>
        <time>2021-09-30T09:42:36.000Z</time>
      </trkpt>
      <trkpt lat="47.33345" lon="-2.37975">
        <ele>10.199999809265</ele>
        <time>2021-09-30T09:42:37.000Z</time>
      </trkpt>
      <trkpt lat="47.33344" lon="-2.37971">
        <ele>10.199999809265</ele>
        <time>2021-09-30T09:42:38.000Z</time>
      </trkpt>
      <trkpt lat="47.33338" lon="-2.37966">
        <ele>10.199999809265</ele>
        <time>2021-09-30T09:42:42.000Z</time>
      </trkpt>
      <trkpt lat="47.33324" lon="-2.37962">
        <ele>10.199999809265</ele>
        <time>2021-09-30T09:42:46.000Z</time>
      </trkpt>
      <trkpt lat="47.33319" lon="-2.37959">
        <ele>10.199999809265</ele>
        <time>2021-09-30T09:42:47.000Z</time>
      </trkpt>
      <trkpt lat="47.33302" lon="-2.37941">
        <ele>10.199999809265</ele>
        <time>2021-09-30T09:42:51.000Z</time>
      </trkpt>
      <trkpt lat="47.33298" lon="-2.37935">
        <ele>9.8000001907349</ele>
        <time>2021-09-30T09:42:52.000Z</time>
      </trkpt>
      <trkpt lat="47.33294" lon="-2.37929">
        <ele>9.1999998092651</ele>
        <time>2021-09-30T09:42:53.000Z</time>
      </trkpt>
      <trkpt lat="47.3329" lon="-2.37924">
        <ele>8.8000001907349</ele>
        <time>2021-09-30T09:42:54.000Z</time>
      </trkpt>
      <trkpt lat="47.33285" lon="-2.37917">
        <ele>8.3999996185303</ele>
        <time>2021-09-30T09:42:55.000Z</time>
      </trkpt>
      <trkpt lat="47.33281" lon="-2.3791">
        <ele>8</ele>
        <time>2021-09-30T09:42:56.000Z</time>
      </trkpt>
      <trkpt lat="47.33271" lon="-2.37899">
        <ele>8</ele>
        <time>2021-09-30T09:42:58.000Z</time>
      </trkpt>
      <trkpt lat="47.33267" lon="-2.37894">
        <ele>7.4000000953674</ele>
        <time>2021-09-30T09:42:59.000Z</time>
      </trkpt>
      <trkpt lat="47.33262" lon="-2.37889">
        <ele>7</ele>
        <time>2021-09-30T09:43:00.000Z</time>
      </trkpt>
      <trkpt lat="47.33258" lon="-2.37885">
        <ele>6.5999999046326</ele>
        <time>2021-09-30T09:43:01.000Z</time>
      </trkpt>
      <trkpt lat="47.33253" lon="-2.37881">
        <ele>5.5999999046326</ele>
        <time>2021-09-30T09:43:02.000Z</time>
      </trkpt>
      <trkpt lat="47.33241" lon="-2.37873">
        <ele>5.1999998092651</ele>
        <time>2021-09-30T09:43:04.000Z</time>
      </trkpt>
      <trkpt lat="47.33236" lon="-2.37869">
        <ele>4.8000001907349</ele>
        <time>2021-09-30T09:43:05.000Z</time>
      </trkpt>
      <trkpt lat="47.3323" lon="-2.37865">
        <ele>4.4000000953674</ele>
        <time>2021-09-30T09:43:06.000Z</time>
      </trkpt>
      <trkpt lat="47.33225" lon="-2.3786">
        <ele>4</ele>
        <time>2021-09-30T09:43:07.000Z</time>
      </trkpt>
      <trkpt lat="47.3322" lon="-2.37855">
        <ele>3.5999999046326</ele>
        <time>2021-09-30T09:43:08.000Z</time>
      </trkpt>
      <trkpt lat="47.33215" lon="-2.37848">
        <ele>3.5999999046326</ele>
        <time>2021-09-30T09:43:09.000Z</time>
      </trkpt>
      <trkpt lat="47.33188" lon="-2.37803">
        <ele>3.2000000476837</ele>
        <time>2021-09-30T09:43:15.000Z</time>
      </trkpt>
      <trkpt lat="47.33183" lon="-2.37796">
        <ele>2.7999999523163</ele>
        <time>2021-09-30T09:43:16.000Z</time>
      </trkpt>
      <trkpt lat="47.33178" lon="-2.37787">
        <ele>2.2000000476837</ele>
        <time>2021-09-30T09:43:17.000Z</time>
      </trkpt>
      <trkpt lat="47.33173" lon="-2.37778">
        <ele>1.7999999523163</ele>
        <time>2021-09-30T09:43:18.000Z</time>
      </trkpt>
      <trkpt lat="47.33168" lon="-2.37769">
        <ele>1.3999999761581</ele>
        <time>2021-09-30T09:43:19.000Z</time>
      </trkpt>
      <trkpt lat="47.3316" lon="-2.3775">
        <ele>1.3999999761581</ele>
        <time>2021-09-30T09:43:21.000Z</time>
      </trkpt>
      <trkpt lat="47.33156" lon="-2.37743">
        <ele>1</ele>
        <time>2021-09-30T09:43:22.000Z</time>
      </trkpt>
      <trkpt lat="47.33151" lon="-2.37738">
        <ele>0.60000002384186</ele>
        <time>2021-09-30T09:43:23.000Z</time>
      </trkpt>
      <trkpt lat="47.33145" lon="-2.37736">
        <ele>0.20000000298023</ele>
        <time>2021-09-30T09:43:24.000Z</time>
      </trkpt>
      <trkpt lat="47.3314" lon="-2.37737">
        <ele>-0.20000000298023</ele>
        <time>2021-09-30T09:43:25.000Z</time>
      </trkpt>
      <trkpt lat="47.33134" lon="-2.37739">
        <ele>-0.80000001192093</ele>
        <time>2021-09-30T09:43:26.000Z</time>
      </trkpt>
      <trkpt lat="47.33129" lon="-2.37742">
        <ele>-0.80000001192093</ele>
        <time>2021-09-30T09:43:27.000Z</time>
      </trkpt>
      <trkpt lat="47.33118" lon="-2.37755">
        <ele>-0.80000001192093</ele>
        <time>2021-09-30T09:43:30.000Z</time>
      </trkpt>
      <trkpt lat="47.33115" lon="-2.3776">
        <ele>-0.80000001192093</ele>
        <time>2021-09-30T09:43:31.000Z</time>
      </trkpt>
      <trkpt lat="47.33092" lon="-2.37787">
        <ele>-0.80000001192093</ele>
        <time>2021-09-30T09:43:37.000Z</time>
      </trkpt>
      <trkpt lat="47.33068" lon="-2.37811">
        <ele>-0.80000001192093</ele>
        <time>2021-09-30T09:43:43.000Z</time>
      </trkpt>
      <trkpt lat="47.33051" lon="-2.37827">
        <ele>-0.40000000596046</ele>
        <time>2021-09-30T09:43:48.000Z</time>
      </trkpt>
      <trkpt lat="47.33047" lon="-2.37831">
        <ele>0.20000000298023</ele>
        <time>2021-09-30T09:43:49.000Z</time>
      </trkpt>
      <trkpt lat="47.33044" lon="-2.37835">
        <ele>0.60000002384186</ele>
        <time>2021-09-30T09:43:50.000Z</time>
      </trkpt>
      <trkpt lat="47.3304" lon="-2.37839">
        <ele>1.3999999761581</ele>
        <time>2021-09-30T09:43:51.000Z</time>
      </trkpt>
      <trkpt lat="47.33028" lon="-2.37856">
        <ele>1.3999999761581</ele>
        <time>2021-09-30T09:43:55.000Z</time>
      </trkpt>
      <trkpt lat="47.33018" lon="-2.37877">
        <ele>1.3999999761581</ele>
        <time>2021-09-30T09:43:59.000Z</time>
      </trkpt>
      <trkpt lat="47.33001" lon="-2.37908">
        <ele>1.3999999761581</ele>
        <time>2021-09-30T09:44:04.000Z</time>
      </trkpt>
      <trkpt lat="47.32982" lon="-2.37936">
        <ele>1.3999999761581</ele>
        <time>2021-09-30T09:44:09.000Z</time>
      </trkpt>
      <trkpt lat="47.32975" lon="-2.37947">
        <ele>1.3999999761581</ele>
        <time>2021-09-30T09:44:11.000Z</time>
      </trkpt>
      <trkpt lat="47.32967" lon="-2.37959">
        <ele>1.7999999523163</ele>
        <time>2021-09-30T09:44:13.000Z</time>
      </trkpt>
      <trkpt lat="47.32963" lon="-2.37964">
        <ele>2.2000000476837</ele>
        <time>2021-09-30T09:44:14.000Z</time>
      </trkpt>
      <trkpt lat="47.3296" lon="-2.3797">
        <ele>2.5999999046326</ele>
        <time>2021-09-30T09:44:15.000Z</time>
      </trkpt>
      <trkpt lat="47.32956" lon="-2.37975">
        <ele>3.4000000953674</ele>
        <time>2021-09-30T09:44:16.000Z</time>
      </trkpt>
      <trkpt lat="47.32949" lon="-2.37986">
        <ele>3.4000000953674</ele>
        <time>2021-09-30T09:44:18.000Z</time>
      </trkpt>
      <trkpt lat="47.32917" lon="-2.38032">
        <ele>3.4000000953674</ele>
        <time>2021-09-30T09:44:26.000Z</time>
      </trkpt>
      <trkpt lat="47.32888" lon="-2.38083">
        <ele>3.4000000953674</ele>
        <time>2021-09-30T09:44:34.000Z</time>
      </trkpt>
      <trkpt lat="47.32864" lon="-2.38125">
        <ele>4.1999998092651</ele>
        <time>2021-09-30T09:44:41.000Z</time>
      </trkpt>
      <trkpt lat="47.3286" lon="-2.38131">
        <ele>4.5999999046326</ele>
        <time>2021-09-30T09:44:42.000Z</time>
      </trkpt>
      <trkpt lat="47.32856" lon="-2.38137">
        <ele>5</ele>
        <time>2021-09-30T09:44:43.000Z</time>
      </trkpt>
      <trkpt lat="47.32853" lon="-2.38143">
        <ele>5.4000000953674</ele>
        <time>2021-09-30T09:44:44.000Z</time>
      </trkpt>
      <trkpt lat="47.32834" lon="-2.38178">
        <ele>5.4000000953674</ele>
        <time>2021-09-30T09:44:50.000Z</time>
      </trkpt>
      <trkpt lat="47.32822" lon="-2.38209">
        <ele>5.8000001907349</ele>
        <time>2021-09-30T09:44:55.000Z</time>
      </trkpt>
      <trkpt lat="47.3282" lon="-2.38215">
        <ele>6.1999998092651</ele>
        <time>2021-09-30T09:44:56.000Z</time>
      </trkpt>
      <trkpt lat="47.32818" lon="-2.38221">
        <ele>6.8000001907349</ele>
        <time>2021-09-30T09:44:57.000Z</time>
      </trkpt>
      <trkpt lat="47.32816" lon="-2.38227">
        <ele>7.1999998092651</ele>
        <time>2021-09-30T09:44:58.000Z</time>
      </trkpt>
      <trkpt lat="47.32814" lon="-2.38233">
        <ele>7.5999999046326</ele>
        <time>2021-09-30T09:44:59.000Z</time>
      </trkpt>
      <trkpt lat="47.32805" lon="-2.38264">
        <ele>8</ele>
        <time>2021-09-30T09:45:05.000Z</time>
      </trkpt>
      <trkpt lat="47.32804" lon="-2.38269">
        <ele>8.8000001907349</ele>
        <time>2021-09-30T09:45:06.000Z</time>
      </trkpt>
      <trkpt lat="47.32803" lon="-2.38275">
        <ele>9.1999998092651</ele>
        <time>2021-09-30T09:45:07.000Z</time>
      </trkpt>
      <trkpt lat="47.32801" lon="-2.3828">
        <ele>9.6000003814697</ele>
        <time>2021-09-30T09:45:08.000Z</time>
      </trkpt>
      <trkpt lat="47.32797" lon="-2.38296">
        <ele>9.6000003814697</ele>
        <time>2021-09-30T09:45:11.000Z</time>
      </trkpt>
      <trkpt lat="47.32796" lon="-2.38302">
        <ele>10</ele>
        <time>2021-09-30T09:45:12.000Z</time>
      </trkpt>
      <trkpt lat="47.32795" lon="-2.38306">
        <ele>10.39999961853</ele>
        <time>2021-09-30T09:45:13.000Z</time>
      </trkpt>
      <trkpt lat="47.32793" lon="-2.38311">
        <ele>10.800000190735</ele>
        <time>2021-09-30T09:45:14.000Z</time>
      </trkpt>
      <trkpt lat="47.32793" lon="-2.38316">
        <ele>11.199999809265</ele>
        <time>2021-09-30T09:45:15.000Z</time>
      </trkpt>
      <trkpt lat="47.32792" lon="-2.38321">
        <ele>11.60000038147</ele>
        <time>2021-09-30T09:45:16.000Z</time>
      </trkpt>
      <trkpt lat="47.32791" lon="-2.38325">
        <ele>11.60000038147</ele>
        <time>2021-09-30T09:45:17.000Z</time>
      </trkpt>
      <trkpt lat="47.32785" lon="-2.38356">
        <ele>12</ele>
        <time>2021-09-30T09:45:23.000Z</time>
      </trkpt>
      <trkpt lat="47.32784" lon="-2.38361">
        <ele>12.60000038147</ele>
        <time>2021-09-30T09:45:24.000Z</time>
      </trkpt>
      <trkpt lat="47.32784" lon="-2.38366">
        <ele>13</ele>
        <time>2021-09-30T09:45:25.000Z</time>
      </trkpt>
      <trkpt lat="47.32783" lon="-2.38371">
        <ele>13.39999961853</ele>
        <time>2021-09-30T09:45:26.000Z</time>
      </trkpt>
      <trkpt lat="47.32783" lon="-2.38376">
        <ele>13.800000190735</ele>
        <time>2021-09-30T09:45:27.000Z</time>
      </trkpt>
      <trkpt lat="47.32779" lon="-2.38394">
        <ele>13.800000190735</ele>
        <time>2021-09-30T09:45:31.000Z</time>
      </trkpt>
      <trkpt lat="47.32776" lon="-2.38395">
        <ele>14.199999809265</ele>
        <time>2021-09-30T09:45:32.000Z</time>
      </trkpt>
      <trkpt lat="47.32773" lon="-2.38396">
        <ele>14.60000038147</ele>
        <time>2021-09-30T09:45:33.000Z</time>
      </trkpt>
      <trkpt lat="47.32769" lon="-2.38396">
        <ele>15</ele>
        <time>2021-09-30T09:45:34.000Z</time>
      </trkpt>
      <trkpt lat="47.32766" lon="-2.38397">
        <ele>15.39999961853</ele>
        <time>2021-09-30T09:45:35.000Z</time>
      </trkpt>
      <trkpt lat="47.32762" lon="-2.38397">
        <ele>15.800000190735</ele>
        <time>2021-09-30T09:45:36.000Z</time>
      </trkpt>
      <trkpt lat="47.32744" lon="-2.384">
        <ele>15.800000190735</ele>
        <time>2021-09-30T09:45:40.000Z</time>
      </trkpt>
      <trkpt lat="47.32732" lon="-2.38405">
        <ele>15.800000190735</ele>
        <time>2021-09-30T09:45:43.000Z</time>
      </trkpt>
      <trkpt lat="47.32722" lon="-2.38409">
        <ele>15.800000190735</ele>
        <time>2021-09-30T09:45:45.000Z</time>
      </trkpt>
      <trkpt lat="47.32717" lon="-2.38409">
        <ele>15.800000190735</ele>
        <time>2021-09-30T09:45:46.000Z</time>
      </trkpt>
      <trkpt lat="47.32695" lon="-2.38405">
        <ele>15.800000190735</ele>
        <time>2021-09-30T09:45:50.000Z</time>
      </trkpt>
      <trkpt lat="47.32685" lon="-2.38398">
        <ele>15.199999809265</ele>
        <time>2021-09-30T09:45:52.000Z</time>
      </trkpt>
      <trkpt lat="47.32681" lon="-2.38393">
        <ele>14.60000038147</ele>
        <time>2021-09-30T09:45:53.000Z</time>
      </trkpt>
      <trkpt lat="47.32676" lon="-2.38386">
        <ele>14.199999809265</ele>
        <time>2021-09-30T09:45:54.000Z</time>
      </trkpt>
      <trkpt lat="47.32671" lon="-2.3838">
        <ele>13</ele>
        <time>2021-09-30T09:45:55.000Z</time>
      </trkpt>
      <trkpt lat="47.32642" lon="-2.38341">
        <ele>12.60000038147</ele>
        <time>2021-09-30T09:46:00.000Z</time>
      </trkpt>
      <trkpt lat="47.32637" lon="-2.38333">
        <ele>12.199999809265</ele>
        <time>2021-09-30T09:46:01.000Z</time>
      </trkpt>
      <trkpt lat="47.3263" lon="-2.38325">
        <ele>11.800000190735</ele>
        <time>2021-09-30T09:46:02.000Z</time>
      </trkpt>
      <trkpt lat="47.32625" lon="-2.38318">
        <ele>11.39999961853</ele>
        <time>2021-09-30T09:46:03.000Z</time>
      </trkpt>
      <trkpt lat="47.32619" lon="-2.3831">
        <ele>11</ele>
        <time>2021-09-30T09:46:04.000Z</time>
      </trkpt>
      <trkpt lat="47.32612" lon="-2.38303">
        <ele>11</ele>
        <time>2021-09-30T09:46:05.000Z</time>
      </trkpt>
      <trkpt lat="47.32605" lon="-2.383">
        <ele>11</ele>
        <time>2021-09-30T09:46:06.000Z</time>
      </trkpt>
      <trkpt lat="47.32596" lon="-2.38299">
        <ele>10.39999961853</ele>
        <time>2021-09-30T09:46:07.000Z</time>
      </trkpt>
      <trkpt lat="47.32589" lon="-2.38301">
        <ele>10</ele>
        <time>2021-09-30T09:46:08.000Z</time>
      </trkpt>
      <trkpt lat="47.32582" lon="-2.38303">
        <ele>9.6000003814697</ele>
        <time>2021-09-30T09:46:09.000Z</time>
      </trkpt>
      <trkpt lat="47.32576" lon="-2.38305">
        <ele>9</ele>
        <time>2021-09-30T09:46:10.000Z</time>
      </trkpt>
      <trkpt lat="47.3257" lon="-2.38308">
        <ele>8.6000003814697</ele>
        <time>2021-09-30T09:46:11.000Z</time>
      </trkpt>
      <trkpt lat="47.32552" lon="-2.38313">
        <ele>8.6000003814697</ele>
        <time>2021-09-30T09:46:14.000Z</time>
      </trkpt>
      <trkpt lat="47.32546" lon="-2.38314">
        <ele>8.1999998092651</ele>
        <time>2021-09-30T09:46:15.000Z</time>
      </trkpt>
      <trkpt lat="47.32541" lon="-2.38316">
        <ele>7.8000001907349</ele>
        <time>2021-09-30T09:46:16.000Z</time>
      </trkpt>
      <trkpt lat="47.32537" lon="-2.38317">
        <ele>7.4000000953674</ele>
        <time>2021-09-30T09:46:17.000Z</time>
      </trkpt>
      <trkpt lat="47.32534" lon="-2.38318">
        <ele>7</ele>
        <time>2021-09-30T09:46:18.000Z</time>
      </trkpt>
      <trkpt lat="47.32531" lon="-2.3832">
        <ele>6.5999999046326</ele>
        <time>2021-09-30T09:46:19.000Z</time>
      </trkpt>
      <trkpt lat="47.3253" lon="-2.38324">
        <ele>6.5999999046326</ele>
        <time>2021-09-30T09:46:21.000Z</time>
      </trkpt>
      <trkpt lat="47.32528" lon="-2.38331">
        <ele>6.5999999046326</ele>
        <time>2021-09-30T09:46:23.000Z</time>
      </trkpt>
      <trkpt lat="47.32526" lon="-2.38347">
        <ele>7</ele>
        <time>2021-09-30T09:46:26.000Z</time>
      </trkpt>
      <trkpt lat="47.32525" lon="-2.38352">
        <ele>7.4000000953674</ele>
        <time>2021-09-30T09:46:27.000Z</time>
      </trkpt>
      <trkpt lat="47.32525" lon="-2.38358">
        <ele>8</ele>
        <time>2021-09-30T09:46:28.000Z</time>
      </trkpt>
      <trkpt lat="47.32524" lon="-2.38363">
        <ele>8.3999996185303</ele>
        <time>2021-09-30T09:46:29.000Z</time>
      </trkpt>
      <trkpt lat="47.32524" lon="-2.38369">
        <ele>9</ele>
        <time>2021-09-30T09:46:30.000Z</time>
      </trkpt>
      <trkpt lat="47.32519" lon="-2.38385">
        <ele>9</ele>
        <time>2021-09-30T09:46:34.000Z</time>
      </trkpt>
      <trkpt lat="47.32506" lon="-2.38382">
        <ele>9</ele>
        <time>2021-09-30T09:46:37.000Z</time>
      </trkpt>
      <trkpt lat="47.32498" lon="-2.3838">
        <ele>9</ele>
        <time>2021-09-30T09:46:39.000Z</time>
      </trkpt>
      <trkpt lat="47.32485" lon="-2.38374">
        <ele>9</ele>
        <time>2021-09-30T09:46:43.000Z</time>
      </trkpt>
      <trkpt lat="47.32467" lon="-2.38366">
        <ele>9</ele>
        <time>2021-09-30T09:46:49.000Z</time>
      </trkpt>
      <trkpt lat="47.32453" lon="-2.3836">
        <ele>9</ele>
        <time>2021-09-30T09:46:54.000Z</time>
      </trkpt>
      <trkpt lat="47.32433" lon="-2.38351">
        <ele>9</ele>
        <time>2021-09-30T09:47:01.000Z</time>
      </trkpt>
      <trkpt lat="47.32413" lon="-2.38341">
        <ele>9</ele>
        <time>2021-09-30T09:47:08.000Z</time>
      </trkpt>
      <trkpt lat="47.32392" lon="-2.38328">
        <ele>9</ele>
        <time>2021-09-30T09:47:14.000Z</time>
      </trkpt>
      <trkpt lat="47.32374" lon="-2.38321">
        <ele>9</ele>
        <time>2021-09-30T09:47:19.000Z</time>
      </trkpt>
      <trkpt lat="47.32333" lon="-2.38303">
        <ele>9</ele>
        <time>2021-09-30T09:47:28.000Z</time>
      </trkpt>
      <trkpt lat="47.32305" lon="-2.38291">
        <ele>8</ele>
        <time>2021-09-30T09:47:34.000Z</time>
      </trkpt>
      <trkpt lat="47.323" lon="-2.38288">
        <ele>7.5999999046326</ele>
        <time>2021-09-30T09:47:35.000Z</time>
      </trkpt>
      <trkpt lat="47.32295" lon="-2.38287">
        <ele>7.1999998092651</ele>
        <time>2021-09-30T09:47:36.000Z</time>
      </trkpt>
      <trkpt lat="47.3229" lon="-2.38285">
        <ele>6.8000001907349</ele>
        <time>2021-09-30T09:47:37.000Z</time>
      </trkpt>
      <trkpt lat="47.32281" lon="-2.38282">
        <ele>6.8000001907349</ele>
        <time>2021-09-30T09:47:39.000Z</time>
      </trkpt>
      <trkpt lat="47.32271" lon="-2.38285">
        <ele>6.8000001907349</ele>
        <time>2021-09-30T09:47:41.000Z</time>
      </trkpt>
      <trkpt lat="47.32232" lon="-2.38294">
        <ele>6.8000001907349</ele>
        <time>2021-09-30T09:47:48.000Z</time>
      </trkpt>
      <trkpt lat="47.32228" lon="-2.38294">
        <ele>6.8000001907349</ele>
        <time>2021-09-30T09:47:49.000Z</time>
      </trkpt>
      <trkpt lat="47.32209" lon="-2.38303">
        <ele>6.8000001907349</ele>
        <time>2021-09-30T09:47:54.000Z</time>
      </trkpt>
      <trkpt lat="47.32191" lon="-2.38325">
        <ele>6.8000001907349</ele>
        <time>2021-09-30T09:47:59.000Z</time>
      </trkpt>
      <trkpt lat="47.32171" lon="-2.38353">
        <ele>6.8000001907349</ele>
        <time>2021-09-30T09:48:05.000Z</time>
      </trkpt>
      <trkpt lat="47.32149" lon="-2.38387">
        <ele>6.8000001907349</ele>
        <time>2021-09-30T09:48:11.000Z</time>
      </trkpt>
      <trkpt lat="47.32132" lon="-2.38408">
        <ele>6.8000001907349</ele>
        <time>2021-09-30T09:48:15.000Z</time>
      </trkpt>
      <trkpt lat="47.32123" lon="-2.38417">
        <ele>6.8000001907349</ele>
        <time>2021-09-30T09:48:17.000Z</time>
      </trkpt>
      <trkpt lat="47.32108" lon="-2.38424">
        <ele>6.8000001907349</ele>
        <time>2021-09-30T09:48:20.000Z</time>
      </trkpt>
      <trkpt lat="47.32098" lon="-2.38428">
        <ele>6.8000001907349</ele>
        <time>2021-09-30T09:48:22.000Z</time>
      </trkpt>
      <trkpt lat="47.32062" lon="-2.38445">
        <ele>6.8000001907349</ele>
        <time>2021-09-30T09:48:29.000Z</time>
      </trkpt>
      <trkpt lat="47.32043" lon="-2.38454">
        <ele>7.1999998092651</ele>
        <time>2021-09-30T09:48:33.000Z</time>
      </trkpt>
      <trkpt lat="47.32038" lon="-2.38455">
        <ele>7.5999999046326</ele>
        <time>2021-09-30T09:48:34.000Z</time>
      </trkpt>
      <trkpt lat="47.32033" lon="-2.38457">
        <ele>8</ele>
        <time>2021-09-30T09:48:35.000Z</time>
      </trkpt>
      <trkpt lat="47.32028" lon="-2.38458">
        <ele>8.3999996185303</ele>
        <time>2021-09-30T09:48:36.000Z</time>
      </trkpt>
      <trkpt lat="47.32023" lon="-2.3846">
        <ele>8.8000001907349</ele>
        <time>2021-09-30T09:48:37.000Z</time>
      </trkpt>
      <trkpt lat="47.31994" lon="-2.38473">
        <ele>8.8000001907349</ele>
        <time>2021-09-30T09:48:43.000Z</time>
      </trkpt>
      <trkpt lat="47.31957" lon="-2.38486">
        <ele>9.1999998092651</ele>
        <time>2021-09-30T09:48:51.000Z</time>
      </trkpt>
      <trkpt lat="47.31953" lon="-2.38487">
        <ele>9.6000003814697</ele>
        <time>2021-09-30T09:48:52.000Z</time>
      </trkpt>
      <trkpt lat="47.31949" lon="-2.38488">
        <ele>10</ele>
        <time>2021-09-30T09:48:53.000Z</time>
      </trkpt>
      <trkpt lat="47.31945" lon="-2.3849">
        <ele>10.39999961853</ele>
        <time>2021-09-30T09:48:54.000Z</time>
      </trkpt>
      <trkpt lat="47.3194" lon="-2.3849">
        <ele>11</ele>
        <time>2021-09-30T09:48:55.000Z</time>
      </trkpt>
      <trkpt lat="47.31927" lon="-2.38493">
        <ele>11</ele>
        <time>2021-09-30T09:48:58.000Z</time>
      </trkpt>
      <trkpt lat="47.3191" lon="-2.385">
        <ele>11</ele>
        <time>2021-09-30T09:49:02.000Z</time>
      </trkpt>
      <trkpt lat="47.31898" lon="-2.38508">
        <ele>11.39999961853</ele>
        <time>2021-09-30T09:49:05.000Z</time>
      </trkpt>
      <trkpt lat="47.31894" lon="-2.3851">
        <ele>11.800000190735</ele>
        <time>2021-09-30T09:49:06.000Z</time>
      </trkpt>
      <trkpt lat="47.3189" lon="-2.38512">
        <ele>12.199999809265</ele>
        <time>2021-09-30T09:49:07.000Z</time>
      </trkpt>
      <trkpt lat="47.31887" lon="-2.38514">
        <ele>12.60000038147</ele>
        <time>2021-09-30T09:49:08.000Z</time>
      </trkpt>
      <trkpt lat="47.31883" lon="-2.38516">
        <ele>13</ele>
        <time>2021-09-30T09:49:09.000Z</time>
      </trkpt>
      <trkpt lat="47.31867" lon="-2.38522">
        <ele>13</ele>
        <time>2021-09-30T09:49:13.000Z</time>
      </trkpt>
      <trkpt lat="47.31857" lon="-2.38526">
        <ele>13.39999961853</ele>
        <time>2021-09-30T09:49:16.000Z</time>
      </trkpt>
      <trkpt lat="47.31854" lon="-2.38527">
        <ele>13.800000190735</ele>
        <time>2021-09-30T09:49:17.000Z</time>
      </trkpt>
      <trkpt lat="47.3185" lon="-2.38528">
        <ele>14.199999809265</ele>
        <time>2021-09-30T09:49:18.000Z</time>
      </trkpt>
      <trkpt lat="47.31846" lon="-2.38529">
        <ele>14.60000038147</ele>
        <time>2021-09-30T09:49:19.000Z</time>
      </trkpt>
      <trkpt lat="47.31843" lon="-2.3853">
        <ele>15</ele>
        <time>2021-09-30T09:49:20.000Z</time>
      </trkpt>
      <trkpt lat="47.31821" lon="-2.38537">
        <ele>15</ele>
        <time>2021-09-30T09:49:27.000Z</time>
      </trkpt>
      <trkpt lat="47.31813" lon="-2.38538">
        <ele>15.39999961853</ele>
        <time>2021-09-30T09:49:31.000Z</time>
      </trkpt>
      <trkpt lat="47.31811" lon="-2.38538">
        <ele>15.800000190735</ele>
        <time>2021-09-30T09:49:32.000Z</time>
      </trkpt>
      <trkpt lat="47.31809" lon="-2.38538">
        <ele>16.200000762939</ele>
        <time>2021-09-30T09:49:33.000Z</time>
      </trkpt>
      <trkpt lat="47.31807" lon="-2.38539">
        <ele>16.799999237061</ele>
        <time>2021-09-30T09:49:34.000Z</time>
      </trkpt>
      <trkpt lat="47.31805" lon="-2.38538">
        <ele>17.200000762939</ele>
        <time>2021-09-30T09:49:35.000Z</time>
      </trkpt>
      <trkpt lat="47.31795" lon="-2.3854">
        <ele>17.200000762939</ele>
        <time>2021-09-30T09:49:40.000Z</time>
      </trkpt>
      <trkpt lat="47.3178" lon="-2.38549">
        <ele>17.200000762939</ele>
        <time>2021-09-30T09:49:47.000Z</time>
      </trkpt>
      <trkpt lat="47.31759" lon="-2.38561">
        <ele>17.200000762939</ele>
        <time>2021-09-30T09:49:56.000Z</time>
      </trkpt>
      <trkpt lat="47.31737" lon="-2.38573">
        <ele>17.200000762939</ele>
        <time>2021-09-30T09:50:04.000Z</time>
      </trkpt>
      <trkpt lat="47.31712" lon="-2.38587">
        <ele>17.200000762939</ele>
        <time>2021-09-30T09:50:13.000Z</time>
      </trkpt>
      <trkpt lat="47.31687" lon="-2.38601">
        <ele>17.200000762939</ele>
        <time>2021-09-30T09:50:21.000Z</time>
      </trkpt>
      <trkpt lat="47.31657" lon="-2.38623">
        <ele>17.200000762939</ele>
        <time>2021-09-30T09:50:31.000Z</time>
      </trkpt>
      <trkpt lat="47.31638" lon="-2.38642">
        <ele>17.200000762939</ele>
        <time>2021-09-30T09:50:37.000Z</time>
      </trkpt>
      <trkpt lat="47.3162" lon="-2.3867">
        <ele>17.200000762939</ele>
        <time>2021-09-30T09:50:44.000Z</time>
      </trkpt>
      <trkpt lat="47.31598" lon="-2.38701">
        <ele>17.200000762939</ele>
        <time>2021-09-30T09:50:52.000Z</time>
      </trkpt>
      <trkpt lat="47.31573" lon="-2.3874">
        <ele>17.200000762939</ele>
        <time>2021-09-30T09:51:02.000Z</time>
      </trkpt>
      <trkpt lat="47.31552" lon="-2.38774">
        <ele>17.200000762939</ele>
        <time>2021-09-30T09:51:10.000Z</time>
      </trkpt>
      <trkpt lat="47.3153" lon="-2.3881">
        <ele>17.200000762939</ele>
        <time>2021-09-30T09:51:18.000Z</time>
      </trkpt>
      <trkpt lat="47.31507" lon="-2.38854">
        <ele>17.200000762939</ele>
        <time>2021-09-30T09:51:27.000Z</time>
      </trkpt>
      <trkpt lat="47.3149" lon="-2.3889">
        <ele>17.200000762939</ele>
        <time>2021-09-30T09:51:34.000Z</time>
      </trkpt>
      <trkpt lat="47.31479" lon="-2.38911">
        <ele>17.60000038147</ele>
        <time>2021-09-30T09:51:38.000Z</time>
      </trkpt>
      <trkpt lat="47.31476" lon="-2.38916">
        <ele>18</ele>
        <time>2021-09-30T09:51:39.000Z</time>
      </trkpt>
      <trkpt lat="47.31473" lon="-2.38922">
        <ele>18.799999237061</ele>
        <time>2021-09-30T09:51:40.000Z</time>
      </trkpt>
      <trkpt lat="47.31471" lon="-2.38927">
        <ele>19.200000762939</ele>
        <time>2021-09-30T09:51:41.000Z</time>
      </trkpt>
      <trkpt lat="47.31465" lon="-2.38938">
        <ele>19.200000762939</ele>
        <time>2021-09-30T09:51:43.000Z</time>
      </trkpt>
      <trkpt lat="47.3144" lon="-2.38988">
        <ele>19.200000762939</ele>
        <time>2021-09-30T09:51:52.000Z</time>
      </trkpt>
      <trkpt lat="47.31433" lon="-2.39005">
        <ele>19.200000762939</ele>
        <time>2021-09-30T09:51:55.000Z</time>
      </trkpt>
      <trkpt lat="47.31427" lon="-2.39023">
        <ele>19.200000762939</ele>
        <time>2021-09-30T09:51:58.000Z</time>
      </trkpt>
      <trkpt lat="47.31404" lon="-2.39068">
        <ele>19.200000762939</ele>
        <time>2021-09-30T09:52:06.000Z</time>
      </trkpt>
      <trkpt lat="47.31394" lon="-2.39085">
        <ele>19.60000038147</ele>
        <time>2021-09-30T09:52:09.000Z</time>
      </trkpt>
      <trkpt lat="47.31391" lon="-2.39089">
        <ele>20</ele>
        <time>2021-09-30T09:52:10.000Z</time>
      </trkpt>
      <trkpt lat="47.31387" lon="-2.39094">
        <ele>20.39999961853</ele>
        <time>2021-09-30T09:52:11.000Z</time>
      </trkpt>
      <trkpt lat="47.31384" lon="-2.39099">
        <ele>20.799999237061</ele>
        <time>2021-09-30T09:52:12.000Z</time>
      </trkpt>
      <trkpt lat="47.3138" lon="-2.39103">
        <ele>21.200000762939</ele>
        <time>2021-09-30T09:52:13.000Z</time>
      </trkpt>
      <trkpt lat="47.31353" lon="-2.39131">
        <ele>21.200000762939</ele>
        <time>2021-09-30T09:52:20.000Z</time>
      </trkpt>
      <trkpt lat="47.31314" lon="-2.39172">
        <ele>21.200000762939</ele>
        <time>2021-09-30T09:52:29.000Z</time>
      </trkpt>
      <trkpt lat="47.31291" lon="-2.39198">
        <ele>21.200000762939</ele>
        <time>2021-09-30T09:52:35.000Z</time>
      </trkpt>
      <trkpt lat="47.31274" lon="-2.39222">
        <ele>21.200000762939</ele>
        <time>2021-09-30T09:52:40.000Z</time>
      </trkpt>
      <trkpt lat="47.31268" lon="-2.39232">
        <ele>21.200000762939</ele>
        <time>2021-09-30T09:52:42.000Z</time>
      </trkpt>
      <trkpt lat="47.31239" lon="-2.39274">
        <ele>21.200000762939</ele>
        <time>2021-09-30T09:52:51.000Z</time>
      </trkpt>
      <trkpt lat="47.31213" lon="-2.39298">
        <ele>21.200000762939</ele>
        <time>2021-09-30T09:52:57.000Z</time>
      </trkpt>
      <trkpt lat="47.31178" lon="-2.39322">
        <ele>21.200000762939</ele>
        <time>2021-09-30T09:53:04.000Z</time>
      </trkpt>
      <trkpt lat="47.31143" lon="-2.39349">
        <ele>21.200000762939</ele>
        <time>2021-09-30T09:53:11.000Z</time>
      </trkpt>
      <trkpt lat="47.31139" lon="-2.39354">
        <ele>20.799999237061</ele>
        <time>2021-09-30T09:53:12.000Z</time>
      </trkpt>
      <trkpt lat="47.31134" lon="-2.39358">
        <ele>20.39999961853</ele>
        <time>2021-09-30T09:53:13.000Z</time>
      </trkpt>
      <trkpt lat="47.3113" lon="-2.39362">
        <ele>20</ele>
        <time>2021-09-30T09:53:14.000Z</time>
      </trkpt>
      <trkpt lat="47.31126" lon="-2.39367">
        <ele>19.60000038147</ele>
        <time>2021-09-30T09:53:15.000Z</time>
      </trkpt>
      <trkpt lat="47.31121" lon="-2.39372">
        <ele>19.200000762939</ele>
        <time>2021-09-30T09:53:16.000Z</time>
      </trkpt>
      <trkpt lat="47.31113" lon="-2.39383">
        <ele>19.200000762939</ele>
        <time>2021-09-30T09:53:18.000Z</time>
      </trkpt>
      <trkpt lat="47.31086" lon="-2.39418">
        <ele>19.200000762939</ele>
        <time>2021-09-30T09:53:25.000Z</time>
      </trkpt>
      <trkpt lat="47.31064" lon="-2.39446">
        <ele>19.200000762939</ele>
        <time>2021-09-30T09:53:31.000Z</time>
      </trkpt>
      <trkpt lat="47.3106" lon="-2.39451">
        <ele>18.799999237061</ele>
        <time>2021-09-30T09:53:32.000Z</time>
      </trkpt>
      <trkpt lat="47.31056" lon="-2.39454">
        <ele>18.200000762939</ele>
        <time>2021-09-30T09:53:33.000Z</time>
      </trkpt>
      <trkpt lat="47.31053" lon="-2.39458">
        <ele>17.799999237061</ele>
        <time>2021-09-30T09:53:34.000Z</time>
      </trkpt>
      <trkpt lat="47.3105" lon="-2.39461">
        <ele>17.39999961853</ele>
        <time>2021-09-30T09:53:35.000Z</time>
      </trkpt>
      <trkpt lat="47.31047" lon="-2.39462">
        <ele>17</ele>
        <time>2021-09-30T09:53:36.000Z</time>
      </trkpt>
      <trkpt lat="47.31042" lon="-2.39462">
        <ele>17</ele>
        <time>2021-09-30T09:53:38.000Z</time>
      </trkpt>
      <trkpt lat="47.31037" lon="-2.39457">
        <ele>17</ele>
        <time>2021-09-30T09:53:40.000Z</time>
      </trkpt>
      <trkpt lat="47.31032" lon="-2.39448">
        <ele>17</ele>
        <time>2021-09-30T09:53:42.000Z</time>
      </trkpt>
      <trkpt lat="47.31025" lon="-2.39432">
        <ele>17</ele>
        <time>2021-09-30T09:53:45.000Z</time>
      </trkpt>
      <trkpt lat="47.3102" lon="-2.39413">
        <ele>17</ele>
        <time>2021-09-30T09:53:48.000Z</time>
      </trkpt>
      <trkpt lat="47.31016" lon="-2.39401">
        <ele>17</ele>
        <time>2021-09-30T09:53:50.000Z</time>
      </trkpt>
      <trkpt lat="47.31001" lon="-2.39352">
        <ele>17</ele>
        <time>2021-09-30T09:53:58.000Z</time>
      </trkpt>
      <trkpt lat="47.30993" lon="-2.39328">
        <ele>17.39999961853</ele>
        <time>2021-09-30T09:54:02.000Z</time>
      </trkpt>
      <trkpt lat="47.30991" lon="-2.39322">
        <ele>18</ele>
        <time>2021-09-30T09:54:03.000Z</time>
      </trkpt>
      <trkpt lat="47.30989" lon="-2.39315">
        <ele>18.39999961853</ele>
        <time>2021-09-30T09:54:04.000Z</time>
      </trkpt>
      <trkpt lat="47.30987" lon="-2.39308">
        <ele>18.799999237061</ele>
        <time>2021-09-30T09:54:05.000Z</time>
      </trkpt>
      <trkpt lat="47.30985" lon="-2.39302">
        <ele>19.200000762939</ele>
        <time>2021-09-30T09:54:06.000Z</time>
      </trkpt>
      <trkpt lat="47.30967" lon="-2.39255">
        <ele>19.200000762939</ele>
        <time>2021-09-30T09:54:13.000Z</time>
      </trkpt>
      <trkpt lat="47.30942" lon="-2.39196">
        <ele>19.200000762939</ele>
        <time>2021-09-30T09:54:22.000Z</time>
      </trkpt>
      <trkpt lat="47.30922" lon="-2.39147">
        <ele>19.200000762939</ele>
        <time>2021-09-30T09:54:29.000Z</time>
      </trkpt>
      <trkpt lat="47.30902" lon="-2.39091">
        <ele>19.200000762939</ele>
        <time>2021-09-30T09:54:37.000Z</time>
      </trkpt>
      <trkpt lat="47.30899" lon="-2.39076">
        <ele>19.200000762939</ele>
        <time>2021-09-30T09:54:39.000Z</time>
      </trkpt>
      <trkpt lat="47.30897" lon="-2.39051">
        <ele>19.200000762939</ele>
        <time>2021-09-30T09:54:42.000Z</time>
      </trkpt>
      <trkpt lat="47.30897" lon="-2.39043">
        <ele>19.200000762939</ele>
        <time>2021-09-30T09:54:43.000Z</time>
      </trkpt>
      <trkpt lat="47.30901" lon="-2.38996">
        <ele>19.200000762939</ele>
        <time>2021-09-30T09:54:49.000Z</time>
      </trkpt>
      <trkpt lat="47.30909" lon="-2.38964">
        <ele>19.200000762939</ele>
        <time>2021-09-30T09:54:54.000Z</time>
      </trkpt>
      <trkpt lat="47.30911" lon="-2.38958">
        <ele>19.200000762939</ele>
        <time>2021-09-30T09:54:55.000Z</time>
      </trkpt>
      <trkpt lat="47.30924" lon="-2.38929">
        <ele>19.200000762939</ele>
        <time>2021-09-30T09:55:00.000Z</time>
      </trkpt>
      <trkpt lat="47.30925" lon="-2.38921">
        <ele>19.200000762939</ele>
        <time>2021-09-30T09:55:01.000Z</time>
      </trkpt>
      <trkpt lat="47.30921" lon="-2.38899">
        <ele>19.200000762939</ele>
        <time>2021-09-30T09:55:04.000Z</time>
      </trkpt>
      <trkpt lat="47.30904" lon="-2.38885">
        <ele>19.200000762939</ele>
        <time>2021-09-30T09:55:08.000Z</time>
      </trkpt>
      <trkpt lat="47.3089" lon="-2.38888">
        <ele>19.200000762939</ele>
        <time>2021-09-30T09:55:11.000Z</time>
      </trkpt>
      <trkpt lat="47.30876" lon="-2.38888">
        <ele>19.200000762939</ele>
        <time>2021-09-30T09:55:14.000Z</time>
      </trkpt>
      <trkpt lat="47.30872" lon="-2.38888">
        <ele>19.200000762939</ele>
        <time>2021-09-30T09:55:15.000Z</time>
      </trkpt>
      <trkpt lat="47.30867" lon="-2.38888">
        <ele>19.200000762939</ele>
        <time>2021-09-30T09:55:16.000Z</time>
      </trkpt>
      <trkpt lat="47.3085" lon="-2.38894">
        <ele>19.200000762939</ele>
        <time>2021-09-30T09:55:19.000Z</time>
      </trkpt>
      <trkpt lat="47.30844" lon="-2.38898">
        <ele>19.200000762939</ele>
        <time>2021-09-30T09:55:20.000Z</time>
      </trkpt>
      <trkpt lat="47.30825" lon="-2.38912">
        <ele>18.200000762939</ele>
        <time>2021-09-30T09:55:23.000Z</time>
      </trkpt>
      <trkpt lat="47.30818" lon="-2.38917">
        <ele>17.799999237061</ele>
        <time>2021-09-30T09:55:24.000Z</time>
      </trkpt>
      <trkpt lat="47.30812" lon="-2.38922">
        <ele>17.200000762939</ele>
        <time>2021-09-30T09:55:25.000Z</time>
      </trkpt>
      <trkpt lat="47.30806" lon="-2.38927">
        <ele>16.799999237061</ele>
        <time>2021-09-30T09:55:26.000Z</time>
      </trkpt>
      <trkpt lat="47.30787" lon="-2.38941">
        <ele>16.799999237061</ele>
        <time>2021-09-30T09:55:29.000Z</time>
      </trkpt>
      <trkpt lat="47.30776" lon="-2.38948">
        <ele>16.799999237061</ele>
        <time>2021-09-30T09:55:31.000Z</time>
      </trkpt>
      <trkpt lat="47.30768" lon="-2.38955">
        <ele>16.799999237061</ele>
        <time>2021-09-30T09:55:33.000Z</time>
      </trkpt>
      <trkpt lat="47.30761" lon="-2.38962">
        <ele>16.799999237061</ele>
        <time>2021-09-30T09:55:35.000Z</time>
      </trkpt>
      <trkpt lat="47.3075" lon="-2.38984">
        <ele>16.799999237061</ele>
        <time>2021-09-30T09:55:40.000Z</time>
      </trkpt>
      <trkpt lat="47.30739" lon="-2.38999">
        <ele>16.799999237061</ele>
        <time>2021-09-30T09:55:44.000Z</time>
      </trkpt>
      <trkpt lat="47.30724" lon="-2.38996">
        <ele>16.799999237061</ele>
        <time>2021-09-30T09:55:48.000Z</time>
      </trkpt>
      <trkpt lat="47.30721" lon="-2.38992">
        <ele>16.799999237061</ele>
        <time>2021-09-30T09:55:49.000Z</time>
      </trkpt>
      <trkpt lat="47.30714" lon="-2.38984">
        <ele>16.799999237061</ele>
        <time>2021-09-30T09:55:51.000Z</time>
      </trkpt>
      <trkpt lat="47.30707" lon="-2.38973">
        <ele>16.799999237061</ele>
        <time>2021-09-30T09:55:53.000Z</time>
      </trkpt>
      <trkpt lat="47.307" lon="-2.38964">
        <ele>16.799999237061</ele>
        <time>2021-09-30T09:55:55.000Z</time>
      </trkpt>
      <trkpt lat="47.30692" lon="-2.38947">
        <ele>16.799999237061</ele>
        <time>2021-09-30T09:55:58.000Z</time>
      </trkpt>
      <trkpt lat="47.30692" lon="-2.3893">
        <ele>16.799999237061</ele>
        <time>2021-09-30T09:56:01.000Z</time>
      </trkpt>
      <trkpt lat="47.30692" lon="-2.38924">
        <ele>16.799999237061</ele>
        <time>2021-09-30T09:56:02.000Z</time>
      </trkpt>
      <trkpt lat="47.30687" lon="-2.38913">
        <ele>17.200000762939</ele>
        <time>2021-09-30T09:56:05.000Z</time>
      </trkpt>
      <trkpt lat="47.30683" lon="-2.38914">
        <ele>17.60000038147</ele>
        <time>2021-09-30T09:56:06.000Z</time>
      </trkpt>
      <trkpt lat="47.3068" lon="-2.38916">
        <ele>18</ele>
        <time>2021-09-30T09:56:07.000Z</time>
      </trkpt>
      <trkpt lat="47.30676" lon="-2.3892">
        <ele>18.39999961853</ele>
        <time>2021-09-30T09:56:08.000Z</time>
      </trkpt>
      <trkpt lat="47.30672" lon="-2.38924">
        <ele>19</ele>
        <time>2021-09-30T09:56:09.000Z</time>
      </trkpt>
      <trkpt lat="47.30657" lon="-2.38941">
        <ele>19</ele>
        <time>2021-09-30T09:56:13.000Z</time>
      </trkpt>
      <trkpt lat="47.30652" lon="-2.38945">
        <ele>19</ele>
        <time>2021-09-30T09:56:14.000Z</time>
      </trkpt>
      <trkpt lat="47.30624" lon="-2.38971">
        <ele>19</ele>
        <time>2021-09-30T09:56:20.000Z</time>
      </trkpt>
      <trkpt lat="47.30609" lon="-2.38984">
        <ele>19</ele>
        <time>2021-09-30T09:56:23.000Z</time>
      </trkpt>
      <trkpt lat="47.3059" lon="-2.39009">
        <ele>19</ele>
        <time>2021-09-30T09:56:27.000Z</time>
      </trkpt>
      <trkpt lat="47.30548" lon="-2.39058">
        <ele>19</ele>
        <time>2021-09-30T09:56:35.000Z</time>
      </trkpt>
      <trkpt lat="47.30531" lon="-2.39075">
        <ele>18.200000762939</ele>
        <time>2021-09-30T09:56:38.000Z</time>
      </trkpt>
      <trkpt lat="47.30525" lon="-2.39081">
        <ele>17.799999237061</ele>
        <time>2021-09-30T09:56:39.000Z</time>
      </trkpt>
      <trkpt lat="47.30519" lon="-2.39086">
        <ele>17.39999961853</ele>
        <time>2021-09-30T09:56:40.000Z</time>
      </trkpt>
      <trkpt lat="47.30513" lon="-2.39092">
        <ele>16.799999237061</ele>
        <time>2021-09-30T09:56:41.000Z</time>
      </trkpt>
      <trkpt lat="47.30502" lon="-2.39102">
        <ele>16.799999237061</ele>
        <time>2021-09-30T09:56:43.000Z</time>
      </trkpt>
      <trkpt lat="47.30466" lon="-2.39138">
        <ele>16.39999961853</ele>
        <time>2021-09-30T09:56:49.000Z</time>
      </trkpt>
      <trkpt lat="47.3046" lon="-2.39144">
        <ele>16</ele>
        <time>2021-09-30T09:56:50.000Z</time>
      </trkpt>
      <trkpt lat="47.30454" lon="-2.39151">
        <ele>15.60000038147</ele>
        <time>2021-09-30T09:56:51.000Z</time>
      </trkpt>
      <trkpt lat="47.30448" lon="-2.39157">
        <ele>15.199999809265</ele>
        <time>2021-09-30T09:56:52.000Z</time>
      </trkpt>
      <trkpt lat="47.30443" lon="-2.39163">
        <ele>14.800000190735</ele>
        <time>2021-09-30T09:56:53.000Z</time>
      </trkpt>
      <trkpt lat="47.30436" lon="-2.39168">
        <ele>14.800000190735</ele>
        <time>2021-09-30T09:56:54.000Z</time>
      </trkpt>
      <trkpt lat="47.30423" lon="-2.39176">
        <ele>14.800000190735</ele>
        <time>2021-09-30T09:56:56.000Z</time>
      </trkpt>
      <trkpt lat="47.30401" lon="-2.39176">
        <ele>14.800000190735</ele>
        <time>2021-09-30T09:56:59.000Z</time>
      </trkpt>
      <trkpt lat="47.30383" lon="-2.39162">
        <ele>14.39999961853</ele>
        <time>2021-09-30T09:57:02.000Z</time>
      </trkpt>
      <trkpt lat="47.30378" lon="-2.39155">
        <ele>14</ele>
        <time>2021-09-30T09:57:03.000Z</time>
      </trkpt>
      <trkpt lat="47.30374" lon="-2.39147">
        <ele>13.60000038147</ele>
        <time>2021-09-30T09:57:04.000Z</time>
      </trkpt>
      <trkpt lat="47.3037" lon="-2.39138">
        <ele>13.199999809265</ele>
        <time>2021-09-30T09:57:05.000Z</time>
      </trkpt>
      <trkpt lat="47.30367" lon="-2.3913">
        <ele>12.60000038147</ele>
        <time>2021-09-30T09:57:06.000Z</time>
      </trkpt>
      <trkpt lat="47.30365" lon="-2.39121">
        <ele>12.60000038147</ele>
        <time>2021-09-30T09:57:07.000Z</time>
      </trkpt>
      <trkpt lat="47.30361" lon="-2.39103">
        <ele>12.60000038147</ele>
        <time>2021-09-30T09:57:09.000Z</time>
      </trkpt>
      <trkpt lat="47.30355" lon="-2.39076">
        <ele>12.60000038147</ele>
        <time>2021-09-30T09:57:12.000Z</time>
      </trkpt>
      <trkpt lat="47.30346" lon="-2.39029">
        <ele>12.60000038147</ele>
        <time>2021-09-30T09:57:18.000Z</time>
      </trkpt>
      <trkpt lat="47.30344" lon="-2.39022">
        <ele>12.60000038147</ele>
        <time>2021-09-30T09:57:19.000Z</time>
      </trkpt>
      <trkpt lat="47.30334" lon="-2.38992">
        <ele>12.60000038147</ele>
        <time>2021-09-30T09:57:23.000Z</time>
      </trkpt>
      <trkpt lat="47.3033" lon="-2.38985">
        <ele>12.60000038147</ele>
        <time>2021-09-30T09:57:24.000Z</time>
      </trkpt>
      <trkpt lat="47.30302" lon="-2.38934">
        <ele>12.60000038147</ele>
        <time>2021-09-30T09:57:31.000Z</time>
      </trkpt>
      <trkpt lat="47.30299" lon="-2.38926">
        <ele>12.199999809265</ele>
        <time>2021-09-30T09:57:32.000Z</time>
      </trkpt>
      <trkpt lat="47.30295" lon="-2.38918">
        <ele>11.800000190735</ele>
        <time>2021-09-30T09:57:33.000Z</time>
      </trkpt>
      <trkpt lat="47.30292" lon="-2.38909">
        <ele>11.39999961853</ele>
        <time>2021-09-30T09:57:34.000Z</time>
      </trkpt>
      <trkpt lat="47.30289" lon="-2.38901">
        <ele>11</ele>
        <time>2021-09-30T09:57:35.000Z</time>
      </trkpt>
      <trkpt lat="47.30286" lon="-2.38893">
        <ele>10.39999961853</ele>
        <time>2021-09-30T09:57:36.000Z</time>
      </trkpt>
      <trkpt lat="47.3028" lon="-2.38877">
        <ele>10.39999961853</ele>
        <time>2021-09-30T09:57:38.000Z</time>
      </trkpt>
      <trkpt lat="47.30256" lon="-2.38819">
        <ele>10.39999961853</ele>
        <time>2021-09-30T09:57:45.000Z</time>
      </trkpt>
      <trkpt lat="47.30241" lon="-2.38795">
        <ele>10</ele>
        <time>2021-09-30T09:57:48.000Z</time>
      </trkpt>
      <trkpt lat="47.30236" lon="-2.38788">
        <ele>9.6000003814697</ele>
        <time>2021-09-30T09:57:49.000Z</time>
      </trkpt>
      <trkpt lat="47.30229" lon="-2.38782">
        <ele>9.1999998092651</ele>
        <time>2021-09-30T09:57:50.000Z</time>
      </trkpt>
      <trkpt lat="47.30222" lon="-2.38776">
        <ele>8.8000001907349</ele>
        <time>2021-09-30T09:57:51.000Z</time>
      </trkpt>
      <trkpt lat="47.30216" lon="-2.38771">
        <ele>7.8000001907349</ele>
        <time>2021-09-30T09:57:52.000Z</time>
      </trkpt>
      <trkpt lat="47.30209" lon="-2.38769">
        <ele>7.1999998092651</ele>
        <time>2021-09-30T09:57:53.000Z</time>
      </trkpt>
      <trkpt lat="47.30201" lon="-2.38769">
        <ele>6.4000000953674</ele>
        <time>2021-09-30T09:57:54.000Z</time>
      </trkpt>
      <trkpt lat="47.30194" lon="-2.38773">
        <ele>5.5999999046326</ele>
        <time>2021-09-30T09:57:55.000Z</time>
      </trkpt>
      <trkpt lat="47.30188" lon="-2.38781">
        <ele>4.8000001907349</ele>
        <time>2021-09-30T09:57:56.000Z</time>
      </trkpt>
      <trkpt lat="47.30182" lon="-2.3879">
        <ele>4</ele>
        <time>2021-09-30T09:57:57.000Z</time>
      </trkpt>
      <trkpt lat="47.30176" lon="-2.38799">
        <ele>3.2000000476837</ele>
        <time>2021-09-30T09:57:58.000Z</time>
      </trkpt>
      <trkpt lat="47.3017" lon="-2.38808">
        <ele>2.4000000953674</ele>
        <time>2021-09-30T09:57:59.000Z</time>
      </trkpt>
      <trkpt lat="47.30163" lon="-2.38817">
        <ele>1.6000000238419</ele>
        <time>2021-09-30T09:58:00.000Z</time>
      </trkpt>
      <trkpt lat="47.30156" lon="-2.38827">
        <ele>0.80000001192093</ele>
        <time>2021-09-30T09:58:01.000Z</time>
      </trkpt>
      <trkpt lat="47.3015" lon="-2.38838">
        <ele>0.40000000596046</ele>
        <time>2021-09-30T09:58:02.000Z</time>
      </trkpt>
      <trkpt lat="47.30144" lon="-2.38849">
        <ele>20.2</ele>
        <time>2021-09-30T09:58:03.000Z</time>
      </trkpt>
      <trkpt lat="47.30137" lon="-2.3886">
        <ele>-0.60000002384186</ele>
        <time>2021-09-30T09:58:04.000Z</time>
      </trkpt>
      <trkpt lat="47.30132" lon="-2.38871">
        <ele>-1</ele>
        <time>2021-09-30T09:58:05.000Z</time>
      </trkpt>
      <trkpt lat="47.30126" lon="-2.38881">
        <ele>-1.3999999761581</ele>
        <time>2021-09-30T09:58:06.000Z</time>
      </trkpt>
      <trkpt lat="47.30113" lon="-2.389">
        <ele>-1.3999999761581</ele>
        <time>2021-09-30T09:58:08.000Z</time>
      </trkpt>
      <trkpt lat="47.30107" lon="-2.38908">
        <ele>-2</ele>
        <time>2021-09-30T09:58:09.000Z</time>
      </trkpt>
      <trkpt lat="47.301" lon="-2.38914">
        <ele>-2.4000000953674</ele>
        <time>2021-09-30T09:58:10.000Z</time>
      </trkpt>
      <trkpt lat="47.30093" lon="-2.38921">
        <ele>-2.7999999523163</ele>
        <time>2021-09-30T09:58:11.000Z</time>
      </trkpt>
      <trkpt lat="47.30085" lon="-2.38927">
        <ele>-3.4000000953674</ele>
        <time>2021-09-30T09:58:12.000Z</time>
      </trkpt>
      <trkpt lat="47.30077" lon="-2.38933">
        <ele>-4</ele>
        <time>2021-09-30T09:58:13.000Z</time>
      </trkpt>
      <trkpt lat="47.30069" lon="-2.38939">
        <ele>-4.4000000953674</ele>
        <time>2021-09-30T09:58:14.000Z</time>
      </trkpt>
      <trkpt lat="47.30062" lon="-2.38945">
        <ele>-5</ele>
        <time>2021-09-30T09:58:15.000Z</time>
      </trkpt>
      <trkpt lat="47.30054" lon="-2.38951">
        <ele>-5.5999999046326</ele>
        <time>2021-09-30T09:58:16.000Z</time>
      </trkpt>
      <trkpt lat="47.30047" lon="-2.38956">
        <ele>-6.5999999046326</ele>
        <time>2021-09-30T09:58:17.000Z</time>
      </trkpt>
      <trkpt lat="47.3004" lon="-2.3896">
        <ele>-7</ele>
        <time>2021-09-30T09:58:18.000Z</time>
      </trkpt>
      <trkpt lat="47.30035" lon="-2.38964">
        <ele>-7.5999999046326</ele>
        <time>2021-09-30T09:58:19.000Z</time>
      </trkpt>
      <trkpt lat="47.30029" lon="-2.38967">
        <ele>-8</ele>
        <time>2021-09-30T09:58:20.000Z</time>
      </trkpt>
      <trkpt lat="47.30025" lon="-2.38969">
        <ele>-8.3999996185303</ele>
        <time>2021-09-30T09:58:21.000Z</time>
      </trkpt>
      <trkpt lat="47.30021" lon="-2.3897">
        <ele>-9</ele>
        <time>2021-09-30T09:58:22.000Z</time>
      </trkpt>
      <trkpt lat="47.30017" lon="-2.38971">
        <ele>-9.3999996185303</ele>
        <time>2021-09-30T09:58:23.000Z</time>
      </trkpt>
      <trkpt lat="47.30014" lon="-2.38971">
        <ele>-10</ele>
        <time>2021-09-30T09:58:24.000Z</time>
      </trkpt>
      <trkpt lat="47.3001" lon="-2.3897">
        <ele>-10.39999961853</ele>
        <time>2021-09-30T09:58:25.000Z</time>
      </trkpt>
      <trkpt lat="47.30006" lon="-2.38965">
        <ele>-10.39999961853</ele>
        <time>2021-09-30T09:58:27.000Z</time>
      </trkpt>
      <trkpt lat="47.30006" lon="-2.38963">
        <ele>-10.39999961853</ele>
        <time>2021-09-30T09:58:28.000Z</time>
      </trkpt>
      <trkpt lat="47.30005" lon="-2.38953">
        <ele>-10.39999961853</ele>
        <time>2021-09-30T09:58:32.000Z</time>
      </trkpt>
      <trkpt lat="47.30007" lon="-2.3893">
        <ele>-10.39999961853</ele>
        <time>2021-09-30T09:58:38.000Z</time>
      </trkpt>
      <trkpt lat="47.30003" lon="-2.38905">
        <ele>-10.39999961853</ele>
        <time>2021-09-30T09:58:43.000Z</time>
      </trkpt>
      <trkpt lat="47.30003" lon="-2.38884">
        <ele>-10</ele>
        <time>2021-09-30T09:58:47.000Z</time>
      </trkpt>
      <trkpt lat="47.30004" lon="-2.38879">
        <ele>-9.6000003814697</ele>
        <time>2021-09-30T09:58:48.000Z</time>
      </trkpt>
      <trkpt lat="47.30004" lon="-2.38873">
        <ele>-9.1999998092651</ele>
        <time>2021-09-30T09:58:49.000Z</time>
      </trkpt>
      <trkpt lat="47.30004" lon="-2.38867">
        <ele>-8.8000001907349</ele>
        <time>2021-09-30T09:58:50.000Z</time>
      </trkpt>
      <trkpt lat="47.30004" lon="-2.38861">
        <ele>-8.3999996185303</ele>
        <time>2021-09-30T09:58:51.000Z</time>
      </trkpt>
      <trkpt lat="47.30004" lon="-2.38837">
        <ele>-8.3999996185303</ele>
        <time>2021-09-30T09:58:55.000Z</time>
      </trkpt>
      <trkpt lat="47.30005" lon="-2.38826">
        <ele>-8.3999996185303</ele>
        <time>2021-09-30T09:58:57.000Z</time>
      </trkpt>
      <trkpt lat="47.30006" lon="-2.38814">
        <ele>-8</ele>
        <time>2021-09-30T09:58:59.000Z</time>
      </trkpt>
      <trkpt lat="47.30006" lon="-2.38808">
        <ele>-7.5999999046326</ele>
        <time>2021-09-30T09:59:00.000Z</time>
      </trkpt>
      <trkpt lat="47.30007" lon="-2.38802">
        <ele>-7.1999998092651</ele>
        <time>2021-09-30T09:59:01.000Z</time>
      </trkpt>
      <trkpt lat="47.30008" lon="-2.38797">
        <ele>-6.8000001907349</ele>
        <time>2021-09-30T09:59:02.000Z</time>
      </trkpt>
      <trkpt lat="47.30008" lon="-2.38792">
        <ele>-6.4000000953674</ele>
        <time>2021-09-30T09:59:03.000Z</time>
      </trkpt>
      <trkpt lat="47.30009" lon="-2.3878">
        <ele>-6.4000000953674</ele>
        <time>2021-09-30T09:59:05.000Z</time>
      </trkpt>
      <trkpt lat="47.3001" lon="-2.38765">
        <ele>-5.8000001907349</ele>
        <time>2021-09-30T09:59:08.000Z</time>
      </trkpt>
      <trkpt lat="47.30011" lon="-2.3876">
        <ele>-5.4000000953674</ele>
        <time>2021-09-30T09:59:09.000Z</time>
      </trkpt>
      <trkpt lat="47.30012" lon="-2.38755">
        <ele>-5</ele>
        <time>2021-09-30T09:59:10.000Z</time>
      </trkpt>
      <trkpt lat="47.30012" lon="-2.3875">
        <ele>-4.5999999046326</ele>
        <time>2021-09-30T09:59:11.000Z</time>
      </trkpt>
      <trkpt lat="47.30013" lon="-2.38745">
        <ele>-4.1999998092651</ele>
        <time>2021-09-30T09:59:12.000Z</time>
      </trkpt>
      <trkpt lat="47.30014" lon="-2.38739">
        <ele>-4.1999998092651</ele>
        <time>2021-09-30T09:59:13.000Z</time>
      </trkpt>
      <trkpt lat="47.3002" lon="-2.38701">
        <ele>-3.7999999523163</ele>
        <time>2021-09-30T09:59:20.000Z</time>
      </trkpt>
      <trkpt lat="47.30021" lon="-2.38696">
        <ele>-3.4000000953674</ele>
        <time>2021-09-30T09:59:21.000Z</time>
      </trkpt>
      <trkpt lat="47.30021" lon="-2.38691">
        <ele>-2.7999999523163</ele>
        <time>2021-09-30T09:59:22.000Z</time>
      </trkpt>
      <trkpt lat="47.30022" lon="-2.38686">
        <ele>-2.4000000953674</ele>
        <time>2021-09-30T09:59:23.000Z</time>
      </trkpt>
      <trkpt lat="47.30022" lon="-2.38681">
        <ele>-2</ele>
        <time>2021-09-30T09:59:24.000Z</time>
      </trkpt>
      <trkpt lat="47.30022" lon="-2.38664">
        <ele>-2</ele>
        <time>2021-09-30T09:59:27.000Z</time>
      </trkpt>
      <trkpt lat="47.30021" lon="-2.38648">
        <ele>-1.6000000238419</ele>
        <time>2021-09-30T09:59:30.000Z</time>
      </trkpt>
      <trkpt lat="47.3002" lon="-2.38643">
        <ele>-0.80000001192093</ele>
        <time>2021-09-30T09:59:31.000Z</time>
      </trkpt>
      <trkpt lat="47.3002" lon="-2.38638">
        <ele>-0.40000000596046</ele>
        <time>2021-09-30T09:59:32.000Z</time>
      </trkpt>
      <trkpt lat="47.30019" lon="-2.38633">
        <ele>25.3</ele>
        <time>2021-09-30T09:59:33.000Z</time>
      </trkpt>
      <trkpt lat="47.30019" lon="-2.38628">
        <ele>25.4</ele>
        <time>2021-09-30T09:59:34.000Z</time>
      </trkpt>
      <trkpt lat="47.3002" lon="-2.38603">
        <ele>26.8</ele>
        <time>2021-09-30T09:59:39.000Z</time>
      </trkpt>
      <trkpt lat="47.30019" lon="-2.38583">
        <ele>0.60000002384186</ele>
        <time>2021-09-30T09:59:43.000Z</time>
      </trkpt>
      <trkpt lat="47.30019" lon="-2.38577">
        <ele>1</ele>
        <time>2021-09-30T09:59:44.000Z</time>
      </trkpt>
      <trkpt lat="47.30018" lon="-2.38573">
        <ele>1.3999999761581</ele>
        <time>2021-09-30T09:59:45.000Z</time>
      </trkpt>
      <trkpt lat="47.30018" lon="-2.38568">
        <ele>2</ele>
        <time>2021-09-30T09:59:46.000Z</time>
      </trkpt>
      <trkpt lat="47.30017" lon="-2.38563">
        <ele>2.4000000953674</ele>
        <time>2021-09-30T09:59:47.000Z</time>
      </trkpt>
      <trkpt lat="47.30015" lon="-2.38542">
        <ele>2.7999999523163</ele>
        <time>2021-09-30T09:59:51.000Z</time>
      </trkpt>
      <trkpt lat="47.30014" lon="-2.38538">
        <ele>3.4000000953674</ele>
        <time>2021-09-30T09:59:52.000Z</time>
      </trkpt>
      <trkpt lat="47.30013" lon="-2.38533">
        <ele>3.7999999523163</ele>
        <time>2021-09-30T09:59:53.000Z</time>
      </trkpt>
      <trkpt lat="47.30012" lon="-2.38529">
        <ele>4.1999998092651</ele>
        <time>2021-09-30T09:59:54.000Z</time>
      </trkpt>
      <trkpt lat="47.30011" lon="-2.38524">
        <ele>4.5999999046326</ele>
        <time>2021-09-30T09:59:55.000Z</time>
      </trkpt>
      <trkpt lat="47.30009" lon="-2.38508">
        <ele>5</ele>
        <time>2021-09-30T09:59:58.000Z</time>
      </trkpt>
      <trkpt lat="47.30008" lon="-2.38503">
        <ele>5.4000000953674</ele>
        <time>2021-09-30T09:59:59.000Z</time>
      </trkpt>
      <trkpt lat="47.30008" lon="-2.38498">
        <ele>5.8000001907349</ele>
        <time>2021-09-30T10:00:00.000Z</time>
      </trkpt>
      <trkpt lat="47.30007" lon="-2.38493">
        <ele>6.1999998092651</ele>
        <time>2021-09-30T10:00:01.000Z</time>
      </trkpt>
      <trkpt lat="47.30006" lon="-2.38488">
        <ele>6.5999999046326</ele>
        <time>2021-09-30T10:00:02.000Z</time>
      </trkpt>
      <trkpt lat="47.29999" lon="-2.38435">
        <ele>6.5999999046326</ele>
        <time>2021-09-30T10:00:11.000Z</time>
      </trkpt>
      <trkpt lat="47.29997" lon="-2.38428">
        <ele>6.5999999046326</ele>
        <time>2021-09-30T10:00:12.000Z</time>
      </trkpt>
      <trkpt lat="47.29995" lon="-2.38406">
        <ele>6.5999999046326</ele>
        <time>2021-09-30T10:00:15.000Z</time>
      </trkpt>
      <trkpt lat="47.29992" lon="-2.3834">
        <ele>6.5999999046326</ele>
        <time>2021-09-30T10:00:23.000Z</time>
      </trkpt>
      <trkpt lat="47.29991" lon="-2.3826">
        <ele>6.5999999046326</ele>
        <time>2021-09-30T10:00:32.000Z</time>
      </trkpt>
      <trkpt lat="47.29989" lon="-2.38183">
        <ele>6.5999999046326</ele>
        <time>2021-09-30T10:00:40.000Z</time>
      </trkpt>
      <trkpt lat="47.29985" lon="-2.38111">
        <ele>6.1999998092651</ele>
        <time>2021-09-30T10:00:47.000Z</time>
      </trkpt>
      <trkpt lat="47.29984" lon="-2.38099">
        <ele>5.8000001907349</ele>
        <time>2021-09-30T10:00:48.000Z</time>
      </trkpt>
      <trkpt lat="47.29984" lon="-2.38087">
        <ele>5.4000000953674</ele>
        <time>2021-09-30T10:00:49.000Z</time>
      </trkpt>
      <trkpt lat="47.29984" lon="-2.38075">
        <ele>5</ele>
        <time>2021-09-30T10:00:50.000Z</time>
      </trkpt>
      <trkpt lat="47.29984" lon="-2.38062">
        <ele>4.5999999046326</ele>
        <time>2021-09-30T10:00:51.000Z</time>
      </trkpt>
      <trkpt lat="47.29986" lon="-2.38003">
        <ele>4.5999999046326</ele>
        <time>2021-09-30T10:00:56.000Z</time>
      </trkpt>
      <trkpt lat="47.29986" lon="-2.37963">
        <ele>4.1999998092651</ele>
        <time>2021-09-30T10:01:00.000Z</time>
      </trkpt>
      <trkpt lat="47.29985" lon="-2.37954">
        <ele>3.5999999046326</ele>
        <time>2021-09-30T10:01:01.000Z</time>
      </trkpt>
      <trkpt lat="47.29983" lon="-2.37945">
        <ele>3.2000000476837</ele>
        <time>2021-09-30T10:01:02.000Z</time>
      </trkpt>
      <trkpt lat="47.2998" lon="-2.37937">
        <ele>2.7999999523163</ele>
        <time>2021-09-30T10:01:03.000Z</time>
      </trkpt>
      <trkpt lat="47.29976" lon="-2.3793">
        <ele>2.4000000953674</ele>
        <time>2021-09-30T10:01:04.000Z</time>
      </trkpt>
      <trkpt lat="47.29965" lon="-2.37919">
        <ele>2.4000000953674</ele>
        <time>2021-09-30T10:01:06.000Z</time>
      </trkpt>
      <trkpt lat="47.29954" lon="-2.37908">
        <ele>2.4000000953674</ele>
        <time>2021-09-30T10:01:08.000Z</time>
      </trkpt>
      <trkpt lat="47.29926" lon="-2.37876">
        <ele>2.4000000953674</ele>
        <time>2021-09-30T10:01:14.000Z</time>
      </trkpt>
      <trkpt lat="47.29907" lon="-2.37852">
        <ele>2.4000000953674</ele>
        <time>2021-09-30T10:01:19.000Z</time>
      </trkpt>
      <trkpt lat="47.29897" lon="-2.3784">
        <ele>3</ele>
        <time>2021-09-30T10:01:22.000Z</time>
      </trkpt>
      <trkpt lat="47.29893" lon="-2.37837">
        <ele>3.4000000953674</ele>
        <time>2021-09-30T10:01:23.000Z</time>
      </trkpt>
      <trkpt lat="47.29891" lon="-2.37833">
        <ele>4</ele>
        <time>2021-09-30T10:01:24.000Z</time>
      </trkpt>
      <trkpt lat="47.29888" lon="-2.3783">
        <ele>4.4000000953674</ele>
        <time>2021-09-30T10:01:25.000Z</time>
      </trkpt>
      <trkpt lat="47.29885" lon="-2.37827">
        <ele>4.8000001907349</ele>
        <time>2021-09-30T10:01:26.000Z</time>
      </trkpt>
      <trkpt lat="47.29883" lon="-2.37824">
        <ele>5.4000000953674</ele>
        <time>2021-09-30T10:01:27.000Z</time>
      </trkpt>
      <trkpt lat="47.2988" lon="-2.37822">
        <ele>5.8000001907349</ele>
        <time>2021-09-30T10:01:28.000Z</time>
      </trkpt>
      <trkpt lat="47.29878" lon="-2.37819">
        <ele>6.1999998092651</ele>
        <time>2021-09-30T10:01:29.000Z</time>
      </trkpt>
      <trkpt lat="47.29876" lon="-2.37816">
        <ele>6.8000001907349</ele>
        <time>2021-09-30T10:01:30.000Z</time>
      </trkpt>
      <trkpt lat="47.29874" lon="-2.37814">
        <ele>7.1999998092651</ele>
        <time>2021-09-30T10:01:31.000Z</time>
      </trkpt>
      <trkpt lat="47.29872" lon="-2.37812">
        <ele>7.1999998092651</ele>
        <time>2021-09-30T10:01:32.000Z</time>
      </trkpt>
      <trkpt lat="47.29867" lon="-2.37818">
        <ele>7.1999998092651</ele>
        <time>2021-09-30T10:01:34.000Z</time>
      </trkpt>
      <trkpt lat="47.29865" lon="-2.37823">
        <ele>7.5999999046326</ele>
        <time>2021-09-30T10:01:35.000Z</time>
      </trkpt>
      <trkpt lat="47.29864" lon="-2.37829">
        <ele>8</ele>
        <time>2021-09-30T10:01:36.000Z</time>
      </trkpt>
      <trkpt lat="47.29862" lon="-2.37834">
        <ele>8.3999996185303</ele>
        <time>2021-09-30T10:01:37.000Z</time>
      </trkpt>
      <trkpt lat="47.2986" lon="-2.37838">
        <ele>8.8000001907349</ele>
        <time>2021-09-30T10:01:38.000Z</time>
      </trkpt>
      <trkpt lat="47.29858" lon="-2.37844">
        <ele>9.3999996185303</ele>
        <time>2021-09-30T10:01:39.000Z</time>
      </trkpt>
      <trkpt lat="47.29856" lon="-2.37849">
        <ele>9.3999996185303</ele>
        <time>2021-09-30T10:01:40.000Z</time>
      </trkpt>
      <trkpt lat="47.29853" lon="-2.37854">
        <ele>9.3999996185303</ele>
        <time>2021-09-30T10:01:41.000Z</time>
      </trkpt>
      <trkpt lat="47.29841" lon="-2.37873">
        <ele>9.3999996185303</ele>
        <time>2021-09-30T10:01:45.000Z</time>
      </trkpt>
      <trkpt lat="47.29837" lon="-2.37877">
        <ele>9.3999996185303</ele>
        <time>2021-09-30T10:01:46.000Z</time>
      </trkpt>
      <trkpt lat="47.29818" lon="-2.37892">
        <ele>9.3999996185303</ele>
        <time>2021-09-30T10:01:51.000Z</time>
      </trkpt>
      <trkpt lat="47.29796" lon="-2.37905">
        <ele>9.8000001907349</ele>
        <time>2021-09-30T10:01:57.000Z</time>
      </trkpt>
      <trkpt lat="47.29793" lon="-2.37908">
        <ele>10.199999809265</ele>
        <time>2021-09-30T10:01:58.000Z</time>
      </trkpt>
      <trkpt lat="47.29789" lon="-2.3791">
        <ele>11</ele>
        <time>2021-09-30T10:01:59.000Z</time>
      </trkpt>
      <trkpt lat="47.29785" lon="-2.37913">
        <ele>11.39999961853</ele>
        <time>2021-09-30T10:02:00.000Z</time>
      </trkpt>
      <trkpt lat="47.29772" lon="-2.37922">
        <ele>11.39999961853</ele>
        <time>2021-09-30T10:02:03.000Z</time>
      </trkpt>
      <trkpt lat="47.2976" lon="-2.37933">
        <ele>11.39999961853</ele>
        <time>2021-09-30T10:02:06.000Z</time>
      </trkpt>
      <trkpt lat="47.29743" lon="-2.37957">
        <ele>11.39999961853</ele>
        <time>2021-09-30T10:02:11.000Z</time>
      </trkpt>
      <trkpt lat="47.2974" lon="-2.37963">
        <ele>11</ele>
        <time>2021-09-30T10:02:12.000Z</time>
      </trkpt>
      <trkpt lat="47.29737" lon="-2.37969">
        <ele>10.60000038147</ele>
        <time>2021-09-30T10:02:13.000Z</time>
      </trkpt>
      <trkpt lat="47.29735" lon="-2.37975">
        <ele>10</ele>
        <time>2021-09-30T10:02:14.000Z</time>
      </trkpt>
      <trkpt lat="47.29732" lon="-2.37982">
        <ele>9.6000003814697</ele>
        <time>2021-09-30T10:02:15.000Z</time>
      </trkpt>
      <trkpt lat="47.2973" lon="-2.37988">
        <ele>9.1999998092651</ele>
        <time>2021-09-30T10:02:16.000Z</time>
      </trkpt>
      <trkpt lat="47.29729" lon="-2.37995">
        <ele>8.6000003814697</ele>
        <time>2021-09-30T10:02:17.000Z</time>
      </trkpt>
      <trkpt lat="47.29728" lon="-2.38001">
        <ele>8</ele>
        <time>2021-09-30T10:02:18.000Z</time>
      </trkpt>
      <trkpt lat="47.29729" lon="-2.38008">
        <ele>7.5999999046326</ele>
        <time>2021-09-30T10:02:19.000Z</time>
      </trkpt>
      <trkpt lat="47.2973" lon="-2.38014">
        <ele>6.8000001907349</ele>
        <time>2021-09-30T10:02:20.000Z</time>
      </trkpt>
      <trkpt lat="47.29731" lon="-2.38019">
        <ele>6.1999998092651</ele>
        <time>2021-09-30T10:02:21.000Z</time>
      </trkpt>
      <trkpt lat="47.29732" lon="-2.38026">
        <ele>5.1999998092651</ele>
        <time>2021-09-30T10:02:22.000Z</time>
      </trkpt>
      <trkpt lat="47.29732" lon="-2.38031">
        <ele>3.5999999046326</ele>
        <time>2021-09-30T10:02:23.000Z</time>
      </trkpt>
      <trkpt lat="47.29731" lon="-2.38035">
        <ele>2.7999999523163</ele>
        <time>2021-09-30T10:02:24.000Z</time>
      </trkpt>
      <trkpt lat="47.2973" lon="-2.38038">
        <ele>2.2000000476837</ele>
        <time>2021-09-30T10:02:25.000Z</time>
      </trkpt>
      <trkpt lat="47.29727" lon="-2.38042">
        <ele>1.3999999761581</ele>
        <time>2021-09-30T10:02:26.000Z</time>
      </trkpt>
      <trkpt lat="47.29724" lon="-2.38045">
        <ele>0.80000001192093</ele>
        <time>2021-09-30T10:02:27.000Z</time>
      </trkpt>
      <trkpt lat="47.2972" lon="-2.38049">
        <ele>0.20000000298023</ele>
        <time>2021-09-30T10:02:28.000Z</time>
      </trkpt>
      <trkpt lat="47.29716" lon="-2.38054">
        <ele>-0.40000000596046</ele>
        <time>2021-09-30T10:02:29.000Z</time>
      </trkpt>
      <trkpt lat="47.2971" lon="-2.3806">
        <ele>-1.2000000476837</ele>
        <time>2021-09-30T10:02:30.000Z</time>
      </trkpt>
      <trkpt lat="47.29703" lon="-2.38066">
        <ele>-2.2000000476837</ele>
        <time>2021-09-30T10:02:31.000Z</time>
      </trkpt>
      <trkpt lat="47.29695" lon="-2.38072">
        <ele>-3</ele>
        <time>2021-09-30T10:02:32.000Z</time>
      </trkpt>
      <trkpt lat="47.29686" lon="-2.38078">
        <ele>-3.7999999523163</ele>
        <time>2021-09-30T10:02:33.000Z</time>
      </trkpt>
      <trkpt lat="47.29676" lon="-2.38083">
        <ele>-4.4000000953674</ele>
        <time>2021-09-30T10:02:34.000Z</time>
      </trkpt>
      <trkpt lat="47.29666" lon="-2.38088">
        <ele>-5</ele>
        <time>2021-09-30T10:02:35.000Z</time>
      </trkpt>
      <trkpt lat="47.29657" lon="-2.38093">
        <ele>-5.5999999046326</ele>
        <time>2021-09-30T10:02:36.000Z</time>
      </trkpt>
      <trkpt lat="47.29647" lon="-2.38097">
        <ele>-6.1999998092651</ele>
        <time>2021-09-30T10:02:37.000Z</time>
      </trkpt>
      <trkpt lat="47.29638" lon="-2.38102">
        <ele>-6.8000001907349</ele>
        <time>2021-09-30T10:02:38.000Z</time>
      </trkpt>
      <trkpt lat="47.2963" lon="-2.38105">
        <ele>-7.4000000953674</ele>
        <time>2021-09-30T10:02:39.000Z</time>
      </trkpt>
      <trkpt lat="47.29622" lon="-2.38108">
        <ele>-8</ele>
        <time>2021-09-30T10:02:40.000Z</time>
      </trkpt>
      <trkpt lat="47.29615" lon="-2.3811">
        <ele>-8.3999996185303</ele>
        <time>2021-09-30T10:02:41.000Z</time>
      </trkpt>
      <trkpt lat="47.29607" lon="-2.38112">
        <ele>-9</ele>
        <time>2021-09-30T10:02:42.000Z</time>
      </trkpt>
      <trkpt lat="47.29599" lon="-2.38114">
        <ele>-9.6000003814697</ele>
        <time>2021-09-30T10:02:43.000Z</time>
      </trkpt>
      <trkpt lat="47.29591" lon="-2.38116">
        <ele>-10</ele>
        <time>2021-09-30T10:02:44.000Z</time>
      </trkpt>
      <trkpt lat="47.29583" lon="-2.38118">
        <ele>-10.39999961853</ele>
        <time>2021-09-30T10:02:45.000Z</time>
      </trkpt>
      <trkpt lat="47.29575" lon="-2.3812">
        <ele>-10.800000190735</ele>
        <time>2021-09-30T10:02:46.000Z</time>
      </trkpt>
      <trkpt lat="47.29568" lon="-2.38121">
        <ele>-11.39999961853</ele>
        <time>2021-09-30T10:02:47.000Z</time>
      </trkpt>
      <trkpt lat="47.29554" lon="-2.38124">
        <ele>-11.800000190735</ele>
        <time>2021-09-30T10:02:49.000Z</time>
      </trkpt>
      <trkpt lat="47.29547" lon="-2.38124">
        <ele>-12.199999809265</ele>
        <time>2021-09-30T10:02:50.000Z</time>
      </trkpt>
      <trkpt lat="47.29539" lon="-2.38124">
        <ele>-12.60000038147</ele>
        <time>2021-09-30T10:02:51.000Z</time>
      </trkpt>
      <trkpt lat="47.29532" lon="-2.38124">
        <ele>-13</ele>
        <time>2021-09-30T10:02:52.000Z</time>
      </trkpt>
      <trkpt lat="47.29524" lon="-2.38124">
        <ele>-13.39999961853</ele>
        <time>2021-09-30T10:02:53.000Z</time>
      </trkpt>
      <trkpt lat="47.29503" lon="-2.38122">
        <ele>-14</ele>
        <time>2021-09-30T10:02:56.000Z</time>
      </trkpt>
      <trkpt lat="47.29496" lon="-2.38123">
        <ele>-14.39999961853</ele>
        <time>2021-09-30T10:02:57.000Z</time>
      </trkpt>
      <trkpt lat="47.2949" lon="-2.38126">
        <ele>-15</ele>
        <time>2021-09-30T10:02:58.000Z</time>
      </trkpt>
      <trkpt lat="47.29484" lon="-2.3813">
        <ele>-15.60000038147</ele>
        <time>2021-09-30T10:02:59.000Z</time>
      </trkpt>
      <trkpt lat="47.29478" lon="-2.38133">
        <ele>-16</ele>
        <time>2021-09-30T10:03:00.000Z</time>
      </trkpt>
      <trkpt lat="47.29467" lon="-2.38141">
        <ele>-16</ele>
        <time>2021-09-30T10:03:02.000Z</time>
      </trkpt>
      <trkpt lat="47.29451" lon="-2.38151">
        <ele>-16.39999961853</ele>
        <time>2021-09-30T10:03:06.000Z</time>
      </trkpt>
      <trkpt lat="47.29448" lon="-2.38149">
        <ele>-17</ele>
        <time>2021-09-30T10:03:07.000Z</time>
      </trkpt>
      <trkpt lat="47.29447" lon="-2.38146">
        <ele>-17.39999961853</ele>
        <time>2021-09-30T10:03:08.000Z</time>
      </trkpt>
      <trkpt lat="47.29445" lon="-2.38142">
        <ele>-17.799999237061</ele>
        <time>2021-09-30T10:03:09.000Z</time>
      </trkpt>
      <trkpt lat="47.29443" lon="-2.38136">
        <ele>-18.39999961853</ele>
        <time>2021-09-30T10:03:10.000Z</time>
      </trkpt>
      <trkpt lat="47.29432" lon="-2.38108">
        <ele>-18.39999961853</ele>
        <time>2021-09-30T10:03:15.000Z</time>
      </trkpt>
      <trkpt lat="47.29415" lon="-2.38057">
        <ele>-18.39999961853</ele>
        <time>2021-09-30T10:03:23.000Z</time>
      </trkpt>
      <trkpt lat="47.29403" lon="-2.38025">
        <ele>-18.39999961853</ele>
        <time>2021-09-30T10:03:28.000Z</time>
      </trkpt>
      <trkpt lat="47.29385" lon="-2.37975">
        <ele>-18.39999961853</ele>
        <time>2021-09-30T10:03:36.000Z</time>
      </trkpt>
      <trkpt lat="47.29371" lon="-2.37932">
        <ele>-18.39999961853</ele>
        <time>2021-09-30T10:03:43.000Z</time>
      </trkpt>
      <trkpt lat="47.29357" lon="-2.37892">
        <ele>-18.39999961853</ele>
        <time>2021-09-30T10:03:50.000Z</time>
      </trkpt>
      <trkpt lat="47.29355" lon="-2.37886">
        <ele>-18.39999961853</ele>
        <time>2021-09-30T10:03:51.000Z</time>
      </trkpt>
      <trkpt lat="47.29351" lon="-2.37875">
        <ele>-18</ele>
        <time>2021-09-30T10:03:53.000Z</time>
      </trkpt>
      <trkpt lat="47.29349" lon="-2.37869">
        <ele>-17.39999961853</ele>
        <time>2021-09-30T10:03:54.000Z</time>
      </trkpt>
      <trkpt lat="47.29348" lon="-2.37863">
        <ele>-17</ele>
        <time>2021-09-30T10:03:55.000Z</time>
      </trkpt>
      <trkpt lat="47.29346" lon="-2.37857">
        <ele>-16.60000038147</ele>
        <time>2021-09-30T10:03:56.000Z</time>
      </trkpt>
      <trkpt lat="47.29344" lon="-2.37851">
        <ele>-16.200000762939</ele>
        <time>2021-09-30T10:03:57.000Z</time>
      </trkpt>
      <trkpt lat="47.29339" lon="-2.37826">
        <ele>-16.200000762939</ele>
        <time>2021-09-30T10:04:01.000Z</time>
      </trkpt>
      <trkpt lat="47.29336" lon="-2.37802">
        <ele>-16.200000762939</ele>
        <time>2021-09-30T10:04:05.000Z</time>
      </trkpt>
      <trkpt lat="47.29335" lon="-2.37784">
        <ele>-15.800000190735</ele>
        <time>2021-09-30T10:04:08.000Z</time>
      </trkpt>
      <trkpt lat="47.29334" lon="-2.37778">
        <ele>-15.39999961853</ele>
        <time>2021-09-30T10:04:09.000Z</time>
      </trkpt>
      <trkpt lat="47.29334" lon="-2.37772">
        <ele>-15</ele>
        <time>2021-09-30T10:04:10.000Z</time>
      </trkpt>
      <trkpt lat="47.29334" lon="-2.37766">
        <ele>-14.60000038147</ele>
        <time>2021-09-30T10:04:11.000Z</time>
      </trkpt>
      <trkpt lat="47.29333" lon="-2.37761">
        <ele>-14.199999809265</ele>
        <time>2021-09-30T10:04:12.000Z</time>
      </trkpt>
      <trkpt lat="47.29331" lon="-2.37729">
        <ele>-14.199999809265</ele>
        <time>2021-09-30T10:04:18.000Z</time>
      </trkpt>
      <trkpt lat="47.2933" lon="-2.37723">
        <ele>-13.800000190735</ele>
        <time>2021-09-30T10:04:19.000Z</time>
      </trkpt>
      <trkpt lat="47.29331" lon="-2.37718">
        <ele>-13.39999961853</ele>
        <time>2021-09-30T10:04:20.000Z</time>
      </trkpt>
      <trkpt lat="47.2933" lon="-2.37713">
        <ele>-13</ele>
        <time>2021-09-30T10:04:21.000Z</time>
      </trkpt>
      <trkpt lat="47.2933" lon="-2.37708">
        <ele>-12.39999961853</ele>
        <time>2021-09-30T10:04:22.000Z</time>
      </trkpt>
      <trkpt lat="47.2933" lon="-2.37703">
        <ele>-12</ele>
        <time>2021-09-30T10:04:23.000Z</time>
      </trkpt>
      <trkpt lat="47.29329" lon="-2.37693">
        <ele>-12</ele>
        <time>2021-09-30T10:04:25.000Z</time>
      </trkpt>
      <trkpt lat="47.29329" lon="-2.37678">
        <ele>-11.60000038147</ele>
        <time>2021-09-30T10:04:28.000Z</time>
      </trkpt>
      <trkpt lat="47.29329" lon="-2.37673">
        <ele>-11.199999809265</ele>
        <time>2021-09-30T10:04:29.000Z</time>
      </trkpt>
      <trkpt lat="47.29329" lon="-2.37668">
        <ele>-10.800000190735</ele>
        <time>2021-09-30T10:04:30.000Z</time>
      </trkpt>
      <trkpt lat="47.29329" lon="-2.37663">
        <ele>-10.39999961853</ele>
        <time>2021-09-30T10:04:31.000Z</time>
      </trkpt>
      <trkpt lat="47.29329" lon="-2.37658">
        <ele>-10</ele>
        <time>2021-09-30T10:04:32.000Z</time>
      </trkpt>
      <trkpt lat="47.29323" lon="-2.37634">
        <ele>-10</ele>
        <time>2021-09-30T10:04:37.000Z</time>
      </trkpt>
      <trkpt lat="47.29312" lon="-2.37605">
        <ele>-9.6000003814697</ele>
        <time>2021-09-30T10:04:43.000Z</time>
      </trkpt>
      <trkpt lat="47.2931" lon="-2.37601">
        <ele>-9.1999998092651</ele>
        <time>2021-09-30T10:04:44.000Z</time>
      </trkpt>
      <trkpt lat="47.29307" lon="-2.37597">
        <ele>-8.8000001907349</ele>
        <time>2021-09-30T10:04:45.000Z</time>
      </trkpt>
      <trkpt lat="47.29304" lon="-2.37593">
        <ele>-8.3999996185303</ele>
        <time>2021-09-30T10:04:46.000Z</time>
      </trkpt>
      <trkpt lat="47.293" lon="-2.37588">
        <ele>-8</ele>
        <time>2021-09-30T10:04:47.000Z</time>
      </trkpt>
      <trkpt lat="47.29291" lon="-2.37572">
        <ele>-8</ele>
        <time>2021-09-30T10:04:50.000Z</time>
      </trkpt>
      <trkpt lat="47.2928" lon="-2.37555">
        <ele>-8</ele>
        <time>2021-09-30T10:04:53.000Z</time>
      </trkpt>
      <trkpt lat="47.29271" lon="-2.37539">
        <ele>-8</ele>
        <time>2021-09-30T10:04:56.000Z</time>
      </trkpt>
      <trkpt lat="47.29254" lon="-2.37512">
        <ele>-8</ele>
        <time>2021-09-30T10:05:02.000Z</time>
      </trkpt>
      <trkpt lat="47.29236" lon="-2.37487">
        <ele>-8</ele>
        <time>2021-09-30T10:05:08.000Z</time>
      </trkpt>
      <trkpt lat="47.29233" lon="-2.37482">
        <ele>-8</ele>
        <time>2021-09-30T10:05:09.000Z</time>
      </trkpt>
      <trkpt lat="47.29219" lon="-2.3746">
        <ele>-8</ele>
        <time>2021-09-30T10:05:14.000Z</time>
      </trkpt>
      <trkpt lat="47.29213" lon="-2.37452">
        <ele>-8</ele>
        <time>2021-09-30T10:05:16.000Z</time>
      </trkpt>
      <trkpt lat="47.2921" lon="-2.37447">
        <ele>-7.5999999046326</ele>
        <time>2021-09-30T10:05:17.000Z</time>
      </trkpt>
      <trkpt lat="47.29207" lon="-2.37443">
        <ele>-7</ele>
        <time>2021-09-30T10:05:18.000Z</time>
      </trkpt>
      <trkpt lat="47.29205" lon="-2.37438">
        <ele>-6.5999999046326</ele>
        <time>2021-09-30T10:05:19.000Z</time>
      </trkpt>
      <trkpt lat="47.29202" lon="-2.37434">
        <ele>-6.1999998092651</ele>
        <time>2021-09-30T10:05:20.000Z</time>
      </trkpt>
      <trkpt lat="47.29199" lon="-2.37429">
        <ele>-5.8000001907349</ele>
        <time>2021-09-30T10:05:21.000Z</time>
      </trkpt>
      <trkpt lat="47.29188" lon="-2.37411">
        <ele>-5.8000001907349</ele>
        <time>2021-09-30T10:05:25.000Z</time>
      </trkpt>
      <trkpt lat="47.29175" lon="-2.37389">
        <ele>-5.4000000953674</ele>
        <time>2021-09-30T10:05:30.000Z</time>
      </trkpt>
      <trkpt lat="47.29172" lon="-2.37384">
        <ele>-5</ele>
        <time>2021-09-30T10:05:31.000Z</time>
      </trkpt>
      <trkpt lat="47.29169" lon="-2.3738">
        <ele>-4.5999999046326</ele>
        <time>2021-09-30T10:05:32.000Z</time>
      </trkpt>
      <trkpt lat="47.29166" lon="-2.37376">
        <ele>-4.1999998092651</ele>
        <time>2021-09-30T10:05:33.000Z</time>
      </trkpt>
      <trkpt lat="47.29163" lon="-2.37371">
        <ele>-3.7999999523163</ele>
        <time>2021-09-30T10:05:34.000Z</time>
      </trkpt>
      <trkpt lat="47.2916" lon="-2.37366">
        <ele>-3.7999999523163</ele>
        <time>2021-09-30T10:05:35.000Z</time>
      </trkpt>
      <trkpt lat="47.29153" lon="-2.37349">
        <ele>-3.7999999523163</ele>
        <time>2021-09-30T10:05:38.000Z</time>
      </trkpt>
      <trkpt lat="47.2914" lon="-2.37318">
        <ele>-3.7999999523163</ele>
        <time>2021-09-30T10:05:44.000Z</time>
      </trkpt>
      <trkpt lat="47.2912" lon="-2.37296">
        <ele>-3.7999999523163</ele>
        <time>2021-09-30T10:05:50.000Z</time>
      </trkpt>
      <trkpt lat="47.29099" lon="-2.37272">
        <ele>-3.7999999523163</ele>
        <time>2021-09-30T10:05:56.000Z</time>
      </trkpt>
      <trkpt lat="47.29096" lon="-2.37268">
        <ele>-3.7999999523163</ele>
        <time>2021-09-30T10:05:57.000Z</time>
      </trkpt>
      <trkpt lat="47.29072" lon="-2.37245">
        <ele>-3.7999999523163</ele>
        <time>2021-09-30T10:06:03.000Z</time>
      </trkpt>
      <trkpt lat="47.29068" lon="-2.37241">
        <ele>-3.7999999523163</ele>
        <time>2021-09-30T10:06:04.000Z</time>
      </trkpt>
      <trkpt lat="47.29039" lon="-2.37211">
        <ele>-3.7999999523163</ele>
        <time>2021-09-30T10:06:11.000Z</time>
      </trkpt>
      <trkpt lat="47.29012" lon="-2.37183">
        <ele>-4.1999998092651</ele>
        <time>2021-09-30T10:06:17.000Z</time>
      </trkpt>
      <trkpt lat="47.29008" lon="-2.37179">
        <ele>-4.8000001907349</ele>
        <time>2021-09-30T10:06:18.000Z</time>
      </trkpt>
      <trkpt lat="47.29005" lon="-2.37176">
        <ele>-5.1999998092651</ele>
        <time>2021-09-30T10:06:19.000Z</time>
      </trkpt>
      <trkpt lat="47.29002" lon="-2.37174">
        <ele>-5.5999999046326</ele>
        <time>2021-09-30T10:06:20.000Z</time>
      </trkpt>
      <trkpt lat="47.28999" lon="-2.37174">
        <ele>-6.1999998092651</ele>
        <time>2021-09-30T10:06:21.000Z</time>
      </trkpt>
      <trkpt lat="47.28996" lon="-2.37174">
        <ele>-6.5999999046326</ele>
        <time>2021-09-30T10:06:22.000Z</time>
      </trkpt>
      <trkpt lat="47.28993" lon="-2.37176">
        <ele>-7</ele>
        <time>2021-09-30T10:06:23.000Z</time>
      </trkpt>
      <trkpt lat="47.28991" lon="-2.37177">
        <ele>-7.5999999046326</ele>
        <time>2021-09-30T10:06:24.000Z</time>
      </trkpt>
      <trkpt lat="47.28988" lon="-2.37179">
        <ele>-8</ele>
        <time>2021-09-30T10:06:25.000Z</time>
      </trkpt>
      <trkpt lat="47.28985" lon="-2.37181">
        <ele>-8.3999996185303</ele>
        <time>2021-09-30T10:06:26.000Z</time>
      </trkpt>
      <trkpt lat="47.28983" lon="-2.37183">
        <ele>-8.8000001907349</ele>
        <time>2021-09-30T10:06:27.000Z</time>
      </trkpt>
      <trkpt lat="47.2898" lon="-2.37185">
        <ele>-9.3999996185303</ele>
        <time>2021-09-30T10:06:28.000Z</time>
      </trkpt>
      <trkpt lat="47.28979" lon="-2.37187">
        <ele>-9.8000001907349</ele>
        <time>2021-09-30T10:06:29.000Z</time>
      </trkpt>
      <trkpt lat="47.28978" lon="-2.37187">
        <ele>-10.199999809265</ele>
        <time>2021-09-30T10:06:30.000Z</time>
      </trkpt>
      <trkpt lat="47.28978" lon="-2.37187">
        <ele>-10.60000038147</ele>
        <time>2021-09-30T10:06:31.000Z</time>
      </trkpt>
      <trkpt lat="47.28976" lon="-2.37188">
        <ele>-10.60000038147</ele>
        <time>2021-09-30T10:07:01.000Z</time>
      </trkpt>
      <trkpt lat="47.28969" lon="-2.37192">
        <ele>-10.60000038147</ele>
        <time>2021-09-30T10:07:04.000Z</time>
      </trkpt>
      <trkpt lat="47.28952" lon="-2.37202">
        <ele>-10.60000038147</ele>
        <time>2021-09-30T10:07:09.000Z</time>
      </trkpt>
      <trkpt lat="47.28947" lon="-2.37204">
        <ele>-10.60000038147</ele>
        <time>2021-09-30T10:07:10.000Z</time>
      </trkpt>
      <trkpt lat="47.28937" lon="-2.37208">
        <ele>-11</ele>
        <time>2021-09-30T10:07:12.000Z</time>
      </trkpt>
      <trkpt lat="47.28932" lon="-2.37211">
        <ele>-11.39999961853</ele>
        <time>2021-09-30T10:07:13.000Z</time>
      </trkpt>
      <trkpt lat="47.28928" lon="-2.37214">
        <ele>-11.800000190735</ele>
        <time>2021-09-30T10:07:14.000Z</time>
      </trkpt>
      <trkpt lat="47.28922" lon="-2.37217">
        <ele>-12.39999961853</ele>
        <time>2021-09-30T10:07:15.000Z</time>
      </trkpt>
      <trkpt lat="47.28918" lon="-2.37219">
        <ele>-12.800000190735</ele>
        <time>2021-09-30T10:07:16.000Z</time>
      </trkpt>
      <trkpt lat="47.28909" lon="-2.37224">
        <ele>-13.199999809265</ele>
        <time>2021-09-30T10:07:18.000Z</time>
      </trkpt>
      <trkpt lat="47.28905" lon="-2.37226">
        <ele>-13.60000038147</ele>
        <time>2021-09-30T10:07:19.000Z</time>
      </trkpt>
      <trkpt lat="47.289" lon="-2.37228">
        <ele>-14</ele>
        <time>2021-09-30T10:07:20.000Z</time>
      </trkpt>
      <trkpt lat="47.28896" lon="-2.37231">
        <ele>-14.39999961853</ele>
        <time>2021-09-30T10:07:21.000Z</time>
      </trkpt>
      <trkpt lat="47.28892" lon="-2.37233">
        <ele>-14.800000190735</ele>
        <time>2021-09-30T10:07:22.000Z</time>
      </trkpt>
      <trkpt lat="47.28879" lon="-2.37239">
        <ele>-14.800000190735</ele>
        <time>2021-09-30T10:07:25.000Z</time>
      </trkpt>
      <trkpt lat="47.28856" lon="-2.37244">
        <ele>-14.800000190735</ele>
        <time>2021-09-30T10:07:31.000Z</time>
      </trkpt>
      <trkpt lat="47.28845" lon="-2.37241">
        <ele>-14.800000190735</ele>
        <time>2021-09-30T10:07:36.000Z</time>
      </trkpt>
      <trkpt lat="47.28843" lon="-2.37237">
        <ele>-14.800000190735</ele>
        <time>2021-09-30T10:07:38.000Z</time>
      </trkpt>
      <trkpt lat="47.28842" lon="-2.37236">
        <ele>-14.800000190735</ele>
        <time>2021-09-30T10:07:40.000Z</time>
      </trkpt>
      <trkpt lat="47.28842" lon="-2.37231">
        <ele>-14.800000190735</ele>
        <time>2021-09-30T10:07:44.000Z</time>
      </trkpt>
      <trkpt lat="47.28841" lon="-2.37221">
        <ele>-14.800000190735</ele>
        <time>2021-09-30T10:07:47.000Z</time>
      </trkpt>
      <trkpt lat="47.28837" lon="-2.37193">
        <ele>-14.800000190735</ele>
        <time>2021-09-30T10:07:55.000Z</time>
      </trkpt>
      <trkpt lat="47.28833" lon="-2.37165">
        <ele>-14.800000190735</ele>
        <time>2021-09-30T10:08:02.000Z</time>
      </trkpt>
      <trkpt lat="47.28829" lon="-2.37136">
        <ele>-14.800000190735</ele>
        <time>2021-09-30T10:08:09.000Z</time>
      </trkpt>
      <trkpt lat="47.28832" lon="-2.37122">
        <ele>-14.800000190735</ele>
        <time>2021-09-30T10:08:14.000Z</time>
      </trkpt>
      <trkpt lat="47.28831" lon="-2.37113">
        <ele>-14.800000190735</ele>
        <time>2021-09-30T10:08:20.000Z</time>
      </trkpt>
      <trkpt lat="47.28829" lon="-2.37116">
        <ele>-14.800000190735</ele>
        <time>2021-09-30T10:08:22.000Z</time>
      </trkpt>
      <trkpt lat="47.28826" lon="-2.37118">
        <ele>-14.39999961853</ele>
        <time>2021-09-30T10:08:24.000Z</time>
      </trkpt>
      <trkpt lat="47.28824" lon="-2.37119">
        <ele>-14</ele>
        <time>2021-09-30T10:08:25.000Z</time>
      </trkpt>
      <trkpt lat="47.2882" lon="-2.3712">
        <ele>-13.39999961853</ele>
        <time>2021-09-30T10:08:26.000Z</time>
      </trkpt>
      <trkpt lat="47.28817" lon="-2.3712">
        <ele>-13</ele>
        <time>2021-09-30T10:08:27.000Z</time>
      </trkpt>
      <trkpt lat="47.28815" lon="-2.37119">
        <ele>-12.39999961853</ele>
        <time>2021-09-30T10:08:28.000Z</time>
      </trkpt>
      <trkpt lat="47.28813" lon="-2.37118">
        <ele>-12</ele>
        <time>2021-09-30T10:08:30.000Z</time>
      </trkpt>
      <trkpt lat="47.28811" lon="-2.37118">
        <ele>-11.60000038147</ele>
        <time>2021-09-30T10:08:31.000Z</time>
      </trkpt>
      <trkpt lat="47.2881" lon="-2.37118">
        <ele>-11.199999809265</ele>
        <time>2021-09-30T10:08:32.000Z</time>
      </trkpt>
      <trkpt lat="47.28808" lon="-2.37116">
        <ele>-10.39999961853</ele>
        <time>2021-09-30T10:08:33.000Z</time>
      </trkpt>
      <trkpt lat="47.28804" lon="-2.37108">
        <ele>-10.39999961853</ele>
        <time>2021-09-30T10:08:36.000Z</time>
      </trkpt>
      <trkpt lat="47.28798" lon="-2.37095">
        <ele>-10</ele>
        <time>2021-09-30T10:08:41.000Z</time>
      </trkpt>
      <trkpt lat="47.28797" lon="-2.37092">
        <ele>-9.6000003814697</ele>
        <time>2021-09-30T10:08:42.000Z</time>
      </trkpt>
      <trkpt lat="47.28796" lon="-2.37089">
        <ele>-9.1999998092651</ele>
        <time>2021-09-30T10:08:43.000Z</time>
      </trkpt>
      <trkpt lat="47.28796" lon="-2.37086">
        <ele>-8.8000001907349</ele>
        <time>2021-09-30T10:08:44.000Z</time>
      </trkpt>
      <trkpt lat="47.28795" lon="-2.37083">
        <ele>-8.3999996185303</ele>
        <time>2021-09-30T10:08:45.000Z</time>
      </trkpt>
      <trkpt lat="47.28793" lon="-2.37072">
        <ele>-7.8000001907349</ele>
        <time>2021-09-30T10:08:48.000Z</time>
      </trkpt>
      <trkpt lat="47.28793" lon="-2.37069">
        <ele>-7.4000000953674</ele>
        <time>2021-09-30T10:08:49.000Z</time>
      </trkpt>
      <trkpt lat="47.28791" lon="-2.37066">
        <ele>-7</ele>
        <time>2021-09-30T10:08:50.000Z</time>
      </trkpt>
      <trkpt lat="47.2879" lon="-2.37063">
        <ele>-6.5999999046326</ele>
        <time>2021-09-30T10:08:51.000Z</time>
      </trkpt>
      <trkpt lat="47.2879" lon="-2.3706">
        <ele>-6.1999998092651</ele>
        <time>2021-09-30T10:08:52.000Z</time>
      </trkpt>
      <trkpt lat="47.28787" lon="-2.37052">
        <ele>-6.1999998092651</ele>
        <time>2021-09-30T10:08:55.000Z</time>
      </trkpt>
      <trkpt lat="47.28782" lon="-2.37034">
        <ele>-5.8000001907349</ele>
        <time>2021-09-30T10:09:00.000Z</time>
      </trkpt>
      <trkpt lat="47.28781" lon="-2.3703">
        <ele>-5.4000000953674</ele>
        <time>2021-09-30T10:09:01.000Z</time>
      </trkpt>
      <trkpt lat="47.2878" lon="-2.37026">
        <ele>-4.8000001907349</ele>
        <time>2021-09-30T10:09:02.000Z</time>
      </trkpt>
      <trkpt lat="47.28778" lon="-2.37021">
        <ele>-4.4000000953674</ele>
        <time>2021-09-30T10:09:03.000Z</time>
      </trkpt>
      <trkpt lat="47.28776" lon="-2.37017">
        <ele>-4</ele>
        <time>2021-09-30T10:09:04.000Z</time>
      </trkpt>
      <trkpt lat="47.28767" lon="-2.37002">
        <ele>-4</ele>
        <time>2021-09-30T10:09:09.000Z</time>
      </trkpt>
      <trkpt lat="47.28756" lon="-2.36984">
        <ele>-4</ele>
        <time>2021-09-30T10:09:15.000Z</time>
      </trkpt>
      <trkpt lat="47.28753" lon="-2.36963">
        <ele>-4</ele>
        <time>2021-09-30T10:09:20.000Z</time>
      </trkpt>
      <trkpt lat="47.28751" lon="-2.36958">
        <ele>-4</ele>
        <time>2021-09-30T10:09:21.000Z</time>
      </trkpt>
      <trkpt lat="47.28744" lon="-2.36946">
        <ele>-4</ele>
        <time>2021-09-30T10:09:23.000Z</time>
      </trkpt>
      <trkpt lat="47.2874" lon="-2.36939">
        <ele>-4.5999999046326</ele>
        <time>2021-09-30T10:09:24.000Z</time>
      </trkpt>
      <trkpt lat="47.28736" lon="-2.3693">
        <ele>-5.1999998092651</ele>
        <time>2021-09-30T10:09:25.000Z</time>
      </trkpt>
      <trkpt lat="47.28731" lon="-2.36925">
        <ele>-5.5999999046326</ele>
        <time>2021-09-30T10:09:26.000Z</time>
      </trkpt>
      <trkpt lat="47.28726" lon="-2.36921">
        <ele>-6.1999998092651</ele>
        <time>2021-09-30T10:09:27.000Z</time>
      </trkpt>
      <trkpt lat="47.28723" lon="-2.36918">
        <ele>-6.5999999046326</ele>
        <time>2021-09-30T10:09:28.000Z</time>
      </trkpt>
      <trkpt lat="47.28716" lon="-2.36909">
        <ele>-6.5999999046326</ele>
        <time>2021-09-30T10:09:31.000Z</time>
      </trkpt>
      <trkpt lat="47.28711" lon="-2.36895">
        <ele>-6.5999999046326</ele>
        <time>2021-09-30T10:09:36.000Z</time>
      </trkpt>
      <trkpt lat="47.2871" lon="-2.36891">
        <ele>-6.5999999046326</ele>
        <time>2021-09-30T10:09:37.000Z</time>
      </trkpt>
      <trkpt lat="47.28699" lon="-2.36869">
        <ele>-6.5999999046326</ele>
        <time>2021-09-30T10:09:43.000Z</time>
      </trkpt>
      <trkpt lat="47.28691" lon="-2.36856">
        <ele>-6.1999998092651</ele>
        <time>2021-09-30T10:09:47.000Z</time>
      </trkpt>
      <trkpt lat="47.28689" lon="-2.36852">
        <ele>-5.4000000953674</ele>
        <time>2021-09-30T10:09:48.000Z</time>
      </trkpt>
      <trkpt lat="47.28688" lon="-2.36849">
        <ele>-5</ele>
        <time>2021-09-30T10:09:49.000Z</time>
      </trkpt>
      <trkpt lat="47.28685" lon="-2.36845">
        <ele>-4.5999999046326</ele>
        <time>2021-09-30T10:09:50.000Z</time>
      </trkpt>
      <trkpt lat="47.28677" lon="-2.3683">
        <ele>-4.5999999046326</ele>
        <time>2021-09-30T10:09:55.000Z</time>
      </trkpt>
      <trkpt lat="47.28665" lon="-2.36812">
        <ele>-4.5999999046326</ele>
        <time>2021-09-30T10:10:02.000Z</time>
      </trkpt>
      <trkpt lat="47.28661" lon="-2.36812">
        <ele>-4.5999999046326</ele>
        <time>2021-09-30T10:10:03.000Z</time>
      </trkpt>
      <trkpt lat="47.28654" lon="-2.36815">
        <ele>-4.5999999046326</ele>
        <time>2021-09-30T10:10:05.000Z</time>
      </trkpt>
      <trkpt lat="47.28636" lon="-2.36828">
        <ele>-4.5999999046326</ele>
        <time>2021-09-30T10:10:10.000Z</time>
      </trkpt>
      <trkpt lat="47.28612" lon="-2.36847">
        <ele>-4.5999999046326</ele>
        <time>2021-09-30T10:10:15.000Z</time>
      </trkpt>
      <trkpt lat="47.28596" lon="-2.36844">
        <ele>-4.5999999046326</ele>
        <time>2021-09-30T10:10:18.000Z</time>
      </trkpt>
      <trkpt lat="47.28586" lon="-2.36829">
        <ele>-4.5999999046326</ele>
        <time>2021-09-30T10:10:21.000Z</time>
      </trkpt>
      <trkpt lat="47.28583" lon="-2.36823">
        <ele>-4.5999999046326</ele>
        <time>2021-09-30T10:10:22.000Z</time>
      </trkpt>
      <trkpt lat="47.28577" lon="-2.36813">
        <ele>-4.5999999046326</ele>
        <time>2021-09-30T10:10:24.000Z</time>
      </trkpt>
      <trkpt lat="47.28569" lon="-2.36798">
        <ele>-4.5999999046326</ele>
        <time>2021-09-30T10:10:27.000Z</time>
      </trkpt>
      <trkpt lat="47.28556" lon="-2.36775">
        <ele>-4.5999999046326</ele>
        <time>2021-09-30T10:10:32.000Z</time>
      </trkpt>
      <trkpt lat="47.28542" lon="-2.36748">
        <ele>-4.5999999046326</ele>
        <time>2021-09-30T10:10:38.000Z</time>
      </trkpt>
      <trkpt lat="47.2853" lon="-2.36725">
        <ele>-4.1999998092651</ele>
        <time>2021-09-30T10:10:44.000Z</time>
      </trkpt>
      <trkpt lat="47.28528" lon="-2.36721">
        <ele>-3.7999999523163</ele>
        <time>2021-09-30T10:10:45.000Z</time>
      </trkpt>
      <trkpt lat="47.28526" lon="-2.36717">
        <ele>-3.4000000953674</ele>
        <time>2021-09-30T10:10:46.000Z</time>
      </trkpt>
      <trkpt lat="47.28524" lon="-2.36713">
        <ele>-2.7999999523163</ele>
        <time>2021-09-30T10:10:47.000Z</time>
      </trkpt>
      <trkpt lat="47.28522" lon="-2.3671">
        <ele>-2.4000000953674</ele>
        <time>2021-09-30T10:10:48.000Z</time>
      </trkpt>
      <trkpt lat="47.28514" lon="-2.36696">
        <ele>-2.4000000953674</ele>
        <time>2021-09-30T10:10:52.000Z</time>
      </trkpt>
      <trkpt lat="47.28513" lon="-2.36693">
        <ele>-2</ele>
        <time>2021-09-30T10:10:53.000Z</time>
      </trkpt>
      <trkpt lat="47.28511" lon="-2.3669">
        <ele>-1.6000000238419</ele>
        <time>2021-09-30T10:10:54.000Z</time>
      </trkpt>
      <trkpt lat="47.2851" lon="-2.36689">
        <ele>-1.2000000476837</ele>
        <time>2021-09-30T10:10:55.000Z</time>
      </trkpt>
      <trkpt lat="47.28509" lon="-2.36688">
        <ele>-0.80000001192093</ele>
        <time>2021-09-30T10:10:56.000Z</time>
      </trkpt>
      <trkpt lat="47.28507" lon="-2.36687">
        <ele>-0.40000000596046</ele>
        <time>2021-09-30T10:10:57.000Z</time>
      </trkpt>
      <trkpt lat="47.28497" lon="-2.36675">
        <ele>-0.40000000596046</ele>
        <time>2021-09-30T10:11:03.000Z</time>
      </trkpt>
      <trkpt lat="47.2849" lon="-2.36652">
        <ele>-0.40000000596046</ele>
        <time>2021-09-30T10:11:09.000Z</time>
      </trkpt>
      <trkpt lat="47.2848" lon="-2.36625">
        <ele>-0.40000000596046</ele>
        <time>2021-09-30T10:11:15.000Z</time>
      </trkpt>
      <trkpt lat="47.28472" lon="-2.36588">
        <ele>-0.40000000596046</ele>
        <time>2021-09-30T10:11:22.000Z</time>
      </trkpt>
      <trkpt lat="47.28474" lon="-2.36563">
        <ele>-0.40000000596046</ele>
        <time>2021-09-30T10:11:27.000Z</time>
      </trkpt>
      <trkpt lat="47.2849" lon="-2.36542">
        <ele>-0.40000000596046</ele>
        <time>2021-09-30T10:11:32.000Z</time>
      </trkpt>
      <trkpt lat="47.28493" lon="-2.36538">
        <ele>26.6</ele>
        <time>2021-09-30T10:11:33.000Z</time>
      </trkpt>
      <trkpt lat="47.28496" lon="-2.36535">
        <ele>0.40000000596046</ele>
        <time>2021-09-30T10:11:34.000Z</time>
      </trkpt>
      <trkpt lat="47.28499" lon="-2.36531">
        <ele>0.80000001192093</ele>
        <time>2021-09-30T10:11:35.000Z</time>
      </trkpt>
      <trkpt lat="47.28502" lon="-2.36527">
        <ele>1.2000000476837</ele>
        <time>2021-09-30T10:11:36.000Z</time>
      </trkpt>
      <trkpt lat="47.28505" lon="-2.36523">
        <ele>1.6000000238419</ele>
        <time>2021-09-30T10:11:37.000Z</time>
      </trkpt>
      <trkpt lat="47.28508" lon="-2.36521">
        <ele>1.6000000238419</ele>
        <time>2021-09-30T10:11:38.000Z</time>
      </trkpt>
      <trkpt lat="47.2852" lon="-2.36506">
        <ele>1.6000000238419</ele>
        <time>2021-09-30T10:11:44.000Z</time>
      </trkpt>
      <trkpt lat="47.28521" lon="-2.36503">
        <ele>2</ele>
        <time>2021-09-30T10:11:45.000Z</time>
      </trkpt>
      <trkpt lat="47.28521" lon="-2.36499">
        <ele>2.4000000953674</ele>
        <time>2021-09-30T10:11:46.000Z</time>
      </trkpt>
      <trkpt lat="47.2852" lon="-2.36495">
        <ele>2.7999999523163</ele>
        <time>2021-09-30T10:11:47.000Z</time>
      </trkpt>
      <trkpt lat="47.2852" lon="-2.36492">
        <ele>3.2000000476837</ele>
        <time>2021-09-30T10:11:48.000Z</time>
      </trkpt>
      <trkpt lat="47.28518" lon="-2.36489">
        <ele>3.5999999046326</ele>
        <time>2021-09-30T10:11:49.000Z</time>
      </trkpt>
      <trkpt lat="47.28517" lon="-2.36482">
        <ele>3.5999999046326</ele>
        <time>2021-09-30T10:11:51.000Z</time>
      </trkpt>
      <trkpt lat="47.28514" lon="-2.36466">
        <ele>3.5999999046326</ele>
        <time>2021-09-30T10:11:55.000Z</time>
      </trkpt>
      <trkpt lat="47.2851" lon="-2.36457">
        <ele>3.5999999046326</ele>
        <time>2021-09-30T10:11:57.000Z</time>
      </trkpt>
      <trkpt lat="47.28495" lon="-2.36441">
        <ele>3.5999999046326</ele>
        <time>2021-09-30T10:12:02.000Z</time>
      </trkpt>
      <trkpt lat="47.28481" lon="-2.36428">
        <ele>3.5999999046326</ele>
        <time>2021-09-30T10:12:07.000Z</time>
      </trkpt>
      <trkpt lat="47.28477" lon="-2.36423">
        <ele>4</ele>
        <time>2021-09-30T10:12:09.000Z</time>
      </trkpt>
      <trkpt lat="47.28476" lon="-2.36421">
        <ele>4.4000000953674</ele>
        <time>2021-09-30T10:12:10.000Z</time>
      </trkpt>
      <trkpt lat="47.28475" lon="-2.36419">
        <ele>4.8000001907349</ele>
        <time>2021-09-30T10:12:11.000Z</time>
      </trkpt>
      <trkpt lat="47.28473" lon="-2.36417">
        <ele>5.1999998092651</ele>
        <time>2021-09-30T10:12:12.000Z</time>
      </trkpt>
      <trkpt lat="47.28471" lon="-2.36415">
        <ele>5.5999999046326</ele>
        <time>2021-09-30T10:12:13.000Z</time>
      </trkpt>
      <trkpt lat="47.28462" lon="-2.36401">
        <ele>5.5999999046326</ele>
        <time>2021-09-30T10:12:18.000Z</time>
      </trkpt>
      <trkpt lat="47.28455" lon="-2.36392">
        <ele>5.5999999046326</ele>
        <time>2021-09-30T10:12:20.000Z</time>
      </trkpt>
      <trkpt lat="47.28446" lon="-2.36384">
        <ele>5.5999999046326</ele>
        <time>2021-09-30T10:12:22.000Z</time>
      </trkpt>
      <trkpt lat="47.28433" lon="-2.36377">
        <ele>5.5999999046326</ele>
        <time>2021-09-30T10:12:25.000Z</time>
      </trkpt>
      <trkpt lat="47.28429" lon="-2.36374">
        <ele>5.5999999046326</ele>
        <time>2021-09-30T10:12:26.000Z</time>
      </trkpt>
      <trkpt lat="47.28425" lon="-2.3637">
        <ele>5.5999999046326</ele>
        <time>2021-09-30T10:12:27.000Z</time>
      </trkpt>
      <trkpt lat="47.28415" lon="-2.36358">
        <ele>5.1999998092651</ele>
        <time>2021-09-30T10:12:30.000Z</time>
      </trkpt>
      <trkpt lat="47.28412" lon="-2.36353">
        <ele>4.8000001907349</ele>
        <time>2021-09-30T10:12:31.000Z</time>
      </trkpt>
      <trkpt lat="47.28409" lon="-2.36348">
        <ele>4.4000000953674</ele>
        <time>2021-09-30T10:12:32.000Z</time>
      </trkpt>
      <trkpt lat="47.28405" lon="-2.36344">
        <ele>4</ele>
        <time>2021-09-30T10:12:33.000Z</time>
      </trkpt>
      <trkpt lat="47.28401" lon="-2.3634">
        <ele>3.5999999046326</ele>
        <time>2021-09-30T10:12:34.000Z</time>
      </trkpt>
      <trkpt lat="47.28388" lon="-2.36328">
        <ele>3.5999999046326</ele>
        <time>2021-09-30T10:12:37.000Z</time>
      </trkpt>
      <trkpt lat="47.28373" lon="-2.36318">
        <ele>3.5999999046326</ele>
        <time>2021-09-30T10:12:41.000Z</time>
      </trkpt>
      <trkpt lat="47.28363" lon="-2.36314">
        <ele>3.2000000476837</ele>
        <time>2021-09-30T10:12:44.000Z</time>
      </trkpt>
      <trkpt lat="47.28359" lon="-2.36311">
        <ele>2.7999999523163</ele>
        <time>2021-09-30T10:12:45.000Z</time>
      </trkpt>
      <trkpt lat="47.28356" lon="-2.36307">
        <ele>2.4000000953674</ele>
        <time>2021-09-30T10:12:46.000Z</time>
      </trkpt>
      <trkpt lat="47.28352" lon="-2.36303">
        <ele>2</ele>
        <time>2021-09-30T10:12:47.000Z</time>
      </trkpt>
      <trkpt lat="47.28348" lon="-2.36299">
        <ele>1.6000000238419</ele>
        <time>2021-09-30T10:12:48.000Z</time>
      </trkpt>
      <trkpt lat="47.28334" lon="-2.36289">
        <ele>1.6000000238419</ele>
        <time>2021-09-30T10:12:51.000Z</time>
      </trkpt>
      <trkpt lat="47.28328" lon="-2.36285">
        <ele>1</ele>
        <time>2021-09-30T10:12:52.000Z</time>
      </trkpt>
      <trkpt lat="47.28323" lon="-2.3628">
        <ele>0.60000002384186</ele>
        <time>2021-09-30T10:12:53.000Z</time>
      </trkpt>
      <trkpt lat="47.28318" lon="-2.36274">
        <ele>22.3</ele>
        <time>2021-09-30T10:12:54.000Z</time>
      </trkpt>
      <trkpt lat="47.28313" lon="-2.36267">
        <ele>-0.40000000596046</ele>
        <time>2021-09-30T10:12:55.000Z</time>
      </trkpt>
      <trkpt lat="47.28309" lon="-2.36261">
        <ele>-1</ele>
        <time>2021-09-30T10:12:56.000Z</time>
      </trkpt>
      <trkpt lat="47.283" lon="-2.36253">
        <ele>-1</ele>
        <time>2021-09-30T10:12:58.000Z</time>
      </trkpt>
      <trkpt lat="47.28295" lon="-2.3625">
        <ele>-1</ele>
        <time>2021-09-30T10:12:59.000Z</time>
      </trkpt>
      <trkpt lat="47.28284" lon="-2.36233">
        <ele>-1</ele>
        <time>2021-09-30T10:13:03.000Z</time>
      </trkpt>
      <trkpt lat="47.28281" lon="-2.36208">
        <ele>-1</ele>
        <time>2021-09-30T10:13:08.000Z</time>
      </trkpt>
      <trkpt lat="47.28273" lon="-2.36174">
        <ele>-1</ele>
        <time>2021-09-30T10:13:14.000Z</time>
      </trkpt>
      <trkpt lat="47.28259" lon="-2.36133">
        <ele>-1</ele>
        <time>2021-09-30T10:13:21.000Z</time>
      </trkpt>
      <trkpt lat="47.28245" lon="-2.36105">
        <ele>-1</ele>
        <time>2021-09-30T10:13:27.000Z</time>
      </trkpt>
      <trkpt lat="47.28246" lon="-2.36084">
        <ele>-0.60000002384186</ele>
        <time>2021-09-30T10:13:33.000Z</time>
      </trkpt>
      <trkpt lat="47.28246" lon="-2.3608">
        <ele>-0.20000000298023</ele>
        <time>2021-09-30T10:13:34.000Z</time>
      </trkpt>
      <trkpt lat="47.28246" lon="-2.36076">
        <ele>0.20000000298023</ele>
        <time>2021-09-30T10:13:35.000Z</time>
      </trkpt>
      <trkpt lat="47.28246" lon="-2.36071">
        <ele>0.60000002384186</ele>
        <time>2021-09-30T10:13:36.000Z</time>
      </trkpt>
      <trkpt lat="47.28246" lon="-2.36066">
        <ele>1.2000000476837</ele>
        <time>2021-09-30T10:13:37.000Z</time>
      </trkpt>
      <trkpt lat="47.28246" lon="-2.36054">
        <ele>1.2000000476837</ele>
        <time>2021-09-30T10:13:39.000Z</time>
      </trkpt>
      <trkpt lat="47.28247" lon="-2.36047">
        <ele>1.2000000476837</ele>
        <time>2021-09-30T10:13:40.000Z</time>
      </trkpt>
      <trkpt lat="47.28251" lon="-2.36031">
        <ele>0.60000002384186</ele>
        <time>2021-09-30T10:13:43.000Z</time>
      </trkpt>
      <trkpt lat="47.28251" lon="-2.36027">
        <ele>0.20000000298023</ele>
        <time>2021-09-30T10:13:44.000Z</time>
      </trkpt>
      <trkpt lat="47.2825" lon="-2.36024">
        <ele>-0.20000000298023</ele>
        <time>2021-09-30T10:13:45.000Z</time>
      </trkpt>
      <trkpt lat="47.28249" lon="-2.36022">
        <ele>-0.60000002384186</ele>
        <time>2021-09-30T10:13:46.000Z</time>
      </trkpt>
      <trkpt lat="47.28246" lon="-2.36023">
        <ele>-1</ele>
        <time>2021-09-30T10:13:47.000Z</time>
      </trkpt>
      <trkpt lat="47.28233" lon="-2.36031">
        <ele>-1</ele>
        <time>2021-09-30T10:13:51.000Z</time>
      </trkpt>
      <trkpt lat="47.2823" lon="-2.36033">
        <ele>-1.3999999761581</ele>
        <time>2021-09-30T10:13:52.000Z</time>
      </trkpt>
      <trkpt lat="47.28226" lon="-2.36033">
        <ele>-1.7999999523163</ele>
        <time>2021-09-30T10:13:53.000Z</time>
      </trkpt>
      <trkpt lat="47.28222" lon="-2.36032">
        <ele>-2.5999999046326</ele>
        <time>2021-09-30T10:13:54.000Z</time>
      </trkpt>
      <trkpt lat="47.28219" lon="-2.3603">
        <ele>-3</ele>
        <time>2021-09-30T10:13:55.000Z</time>
      </trkpt>
      <trkpt lat="47.28208" lon="-2.36019">
        <ele>-3</ele>
        <time>2021-09-30T10:13:59.000Z</time>
      </trkpt>
      <trkpt lat="47.28194" lon="-2.35994">
        <ele>-3</ele>
        <time>2021-09-30T10:14:04.000Z</time>
      </trkpt>
      <trkpt lat="47.28186" lon="-2.35975">
        <ele>-3</ele>
        <time>2021-09-30T10:14:08.000Z</time>
      </trkpt>
      <trkpt lat="47.2818" lon="-2.35952">
        <ele>-3</ele>
        <time>2021-09-30T10:14:13.000Z</time>
      </trkpt>
      <trkpt lat="47.28177" lon="-2.35918">
        <ele>-3</ele>
        <time>2021-09-30T10:14:20.000Z</time>
      </trkpt>
      <trkpt lat="47.2818" lon="-2.35897">
        <ele>-2.5999999046326</ele>
        <time>2021-09-30T10:14:24.000Z</time>
      </trkpt>
      <trkpt lat="47.2818" lon="-2.35892">
        <ele>-2.2000000476837</ele>
        <time>2021-09-30T10:14:25.000Z</time>
      </trkpt>
      <trkpt lat="47.2818" lon="-2.35887">
        <ele>-1.7999999523163</ele>
        <time>2021-09-30T10:14:26.000Z</time>
      </trkpt>
      <trkpt lat="47.28179" lon="-2.35883">
        <ele>-1.3999999761581</ele>
        <time>2021-09-30T10:14:27.000Z</time>
      </trkpt>
      <trkpt lat="47.28179" lon="-2.35878">
        <ele>-1</ele>
        <time>2021-09-30T10:14:28.000Z</time>
      </trkpt>
      <trkpt lat="47.28178" lon="-2.3586">
        <ele>-1</ele>
        <time>2021-09-30T10:14:32.000Z</time>
      </trkpt>
      <trkpt lat="47.28174" lon="-2.35841">
        <ele>-1</ele>
        <time>2021-09-30T10:14:37.000Z</time>
      </trkpt>
      <trkpt lat="47.28169" lon="-2.35829">
        <ele>-1</ele>
        <time>2021-09-30T10:14:41.000Z</time>
      </trkpt>
      <trkpt lat="47.28164" lon="-2.35824">
        <ele>-1</ele>
        <time>2021-09-30T10:14:43.000Z</time>
      </trkpt>
      <trkpt lat="47.28148" lon="-2.35809">
        <ele>-1</ele>
        <time>2021-09-30T10:14:48.000Z</time>
      </trkpt>
      <trkpt lat="47.28142" lon="-2.3579">
        <ele>-1</ele>
        <time>2021-09-30T10:14:52.000Z</time>
      </trkpt>
      <trkpt lat="47.28138" lon="-2.35763">
        <ele>-1</ele>
        <time>2021-09-30T10:14:57.000Z</time>
      </trkpt>
      <trkpt lat="47.28137" lon="-2.3576">
        <ele>-1</ele>
        <time>2021-09-30T10:14:58.000Z</time>
      </trkpt>
      <trkpt lat="47.28133" lon="-2.35756">
        <ele>-1</ele>
        <time>2021-09-30T10:15:00.000Z</time>
      </trkpt>
      <trkpt lat="47.28121" lon="-2.35757">
        <ele>-1</ele>
        <time>2021-09-30T10:15:04.000Z</time>
      </trkpt>
      <trkpt lat="47.28112" lon="-2.3577">
        <ele>-1</ele>
        <time>2021-09-30T10:15:08.000Z</time>
      </trkpt>
      <trkpt lat="47.2811" lon="-2.35773">
        <ele>-1</ele>
        <time>2021-09-30T10:15:09.000Z</time>
      </trkpt>
      <trkpt lat="47.28101" lon="-2.35794">
        <ele>-1</ele>
        <time>2021-09-30T10:15:15.000Z</time>
      </trkpt>
      <trkpt lat="47.28089" lon="-2.35799">
        <ele>-1</ele>
        <time>2021-09-30T10:15:20.000Z</time>
      </trkpt>
      <trkpt lat="47.28089" lon="-2.35797">
        <ele>-1</ele>
        <time>2021-09-30T10:15:21.000Z</time>
      </trkpt>
      <trkpt lat="47.28088" lon="-2.3579">
        <ele>-1</ele>
        <time>2021-09-30T10:15:23.000Z</time>
      </trkpt>
      <trkpt lat="47.28093" lon="-2.35771">
        <ele>-1</ele>
        <time>2021-09-30T10:15:29.000Z</time>
      </trkpt>
      <trkpt lat="47.28095" lon="-2.35763">
        <ele>-1</ele>
        <time>2021-09-30T10:15:31.000Z</time>
      </trkpt>
      <trkpt lat="47.28095" lon="-2.35751">
        <ele>-1</ele>
        <time>2021-09-30T10:15:34.000Z</time>
      </trkpt>
      <trkpt lat="47.28095" lon="-2.35747">
        <ele>-0.60000002384186</ele>
        <time>2021-09-30T10:15:35.000Z</time>
      </trkpt>
      <trkpt lat="47.28096" lon="-2.35744">
        <ele>-0.20000000298023</ele>
        <time>2021-09-30T10:15:36.000Z</time>
      </trkpt>
      <trkpt lat="47.28097" lon="-2.35741">
        <ele>0.20000000298023</ele>
        <time>2021-09-30T10:15:37.000Z</time>
      </trkpt>
      <trkpt lat="47.28098" lon="-2.35737">
        <ele>0.60000002384186</ele>
        <time>2021-09-30T10:15:38.000Z</time>
      </trkpt>
      <trkpt lat="47.28099" lon="-2.35733">
        <ele>1.2000000476837</ele>
        <time>2021-09-30T10:15:39.000Z</time>
      </trkpt>
      <trkpt lat="47.281" lon="-2.35709">
        <ele>1.2000000476837</ele>
        <time>2021-09-30T10:15:45.000Z</time>
      </trkpt>
      <trkpt lat="47.28094" lon="-2.35678">
        <ele>1.2000000476837</ele>
        <time>2021-09-30T10:15:51.000Z</time>
      </trkpt>
      <trkpt lat="47.28082" lon="-2.35641">
        <ele>0.60000002384186</ele>
        <time>2021-09-30T10:15:57.000Z</time>
      </trkpt>
      <trkpt lat="47.28081" lon="-2.35635">
        <ele>0.20000000298023</ele>
        <time>2021-09-30T10:15:58.000Z</time>
      </trkpt>
      <trkpt lat="47.28079" lon="-2.35629">
        <ele>-0.20000000298023</ele>
        <time>2021-09-30T10:15:59.000Z</time>
      </trkpt>
      <trkpt lat="47.28078" lon="-2.35624">
        <ele>-0.80000001192093</ele>
        <time>2021-09-30T10:16:00.000Z</time>
      </trkpt>
      <trkpt lat="47.28079" lon="-2.3562">
        <ele>-1.2000000476837</ele>
        <time>2021-09-30T10:16:01.000Z</time>
      </trkpt>
      <trkpt lat="47.28079" lon="-2.35617">
        <ele>-1.6000000238419</ele>
        <time>2021-09-30T10:16:02.000Z</time>
      </trkpt>
      <trkpt lat="47.2808" lon="-2.35616">
        <ele>-2.2000000476837</ele>
        <time>2021-09-30T10:16:03.000Z</time>
      </trkpt>
      <trkpt lat="47.28083" lon="-2.35617">
        <ele>-2.5999999046326</ele>
        <time>2021-09-30T10:16:04.000Z</time>
      </trkpt>
      <trkpt lat="47.28086" lon="-2.35618">
        <ele>-3</ele>
        <time>2021-09-30T10:16:05.000Z</time>
      </trkpt>
      <trkpt lat="47.28088" lon="-2.35619">
        <ele>-3.5999999046326</ele>
        <time>2021-09-30T10:16:06.000Z</time>
      </trkpt>
      <trkpt lat="47.28091" lon="-2.35621">
        <ele>-3.5999999046326</ele>
        <time>2021-09-30T10:16:09.000Z</time>
      </trkpt>
      <trkpt lat="47.28086" lon="-2.35618">
        <ele>-7.5999999046326</ele>
        <time>2021-09-30T10:33:02.000Z</time>
      </trkpt>
      <trkpt lat="47.28078" lon="-2.35603">
        <ele>-7.5999999046326</ele>
        <time>2021-09-30T10:33:08.000Z</time>
      </trkpt>
      <trkpt lat="47.2807" lon="-2.35589">
        <ele>-7.5999999046326</ele>
        <time>2021-09-30T10:33:14.000Z</time>
      </trkpt>
      <trkpt lat="47.28064" lon="-2.35583">
        <ele>-7.5999999046326</ele>
        <time>2021-09-30T10:33:19.000Z</time>
      </trkpt>
      <trkpt lat="47.28054" lon="-2.35577">
        <ele>-7.5999999046326</ele>
        <time>2021-09-30T10:33:26.000Z</time>
      </trkpt>
      <trkpt lat="47.28052" lon="-2.35576">
        <ele>-7.5999999046326</ele>
        <time>2021-09-30T10:33:27.000Z</time>
      </trkpt>
      <trkpt lat="47.28038" lon="-2.35573">
        <ele>-8</ele>
        <time>2021-09-30T10:33:32.000Z</time>
      </trkpt>
      <trkpt lat="47.28034" lon="-2.35573">
        <ele>-8.3999996185303</ele>
        <time>2021-09-30T10:33:33.000Z</time>
      </trkpt>
      <trkpt lat="47.28031" lon="-2.35573">
        <ele>-8.8000001907349</ele>
        <time>2021-09-30T10:33:34.000Z</time>
      </trkpt>
      <trkpt lat="47.28028" lon="-2.35574">
        <ele>-9.1999998092651</ele>
        <time>2021-09-30T10:33:35.000Z</time>
      </trkpt>
      <trkpt lat="47.28025" lon="-2.35575">
        <ele>-9.6000003814697</ele>
        <time>2021-09-30T10:33:36.000Z</time>
      </trkpt>
      <trkpt lat="47.28016" lon="-2.35577">
        <ele>-9.6000003814697</ele>
        <time>2021-09-30T10:33:39.000Z</time>
      </trkpt>
      <trkpt lat="47.27995" lon="-2.35583">
        <ele>-9.6000003814697</ele>
        <time>2021-09-30T10:33:46.000Z</time>
      </trkpt>
      <trkpt lat="47.27975" lon="-2.35586">
        <ele>-9.6000003814697</ele>
        <time>2021-09-30T10:33:53.000Z</time>
      </trkpt>
      <trkpt lat="47.27955" lon="-2.35582">
        <ele>-9.6000003814697</ele>
        <time>2021-09-30T10:33:59.000Z</time>
      </trkpt>
      <trkpt lat="47.27945" lon="-2.35583">
        <ele>-10</ele>
        <time>2021-09-30T10:34:01.000Z</time>
      </trkpt>
      <trkpt lat="47.27941" lon="-2.35585">
        <ele>-10.39999961853</ele>
        <time>2021-09-30T10:34:02.000Z</time>
      </trkpt>
      <trkpt lat="47.27937" lon="-2.35586">
        <ele>-11</ele>
        <time>2021-09-30T10:34:03.000Z</time>
      </trkpt>
      <trkpt lat="47.27933" lon="-2.35587">
        <ele>-11.800000190735</ele>
        <time>2021-09-30T10:34:04.000Z</time>
      </trkpt>
      <trkpt lat="47.27928" lon="-2.35588">
        <ele>-11.800000190735</ele>
        <time>2021-09-30T10:34:05.000Z</time>
      </trkpt>
      <trkpt lat="47.27924" lon="-2.3559">
        <ele>-11.800000190735</ele>
        <time>2021-09-30T10:34:06.000Z</time>
      </trkpt>
      <trkpt lat="47.27903" lon="-2.35596">
        <ele>-11.800000190735</ele>
        <time>2021-09-30T10:34:11.000Z</time>
      </trkpt>
      <trkpt lat="47.27871" lon="-2.35604">
        <ele>-11.800000190735</ele>
        <time>2021-09-30T10:34:17.000Z</time>
      </trkpt>
      <trkpt lat="47.27844" lon="-2.3561">
        <ele>-12.199999809265</ele>
        <time>2021-09-30T10:34:22.000Z</time>
      </trkpt>
      <trkpt lat="47.27838" lon="-2.35612">
        <ele>-12.60000038147</ele>
        <time>2021-09-30T10:34:23.000Z</time>
      </trkpt>
      <trkpt lat="47.27833" lon="-2.35613">
        <ele>-13</ele>
        <time>2021-09-30T10:34:24.000Z</time>
      </trkpt>
      <trkpt lat="47.27827" lon="-2.35615">
        <ele>-13.60000038147</ele>
        <time>2021-09-30T10:34:25.000Z</time>
      </trkpt>
      <trkpt lat="47.27822" lon="-2.35616">
        <ele>-14</ele>
        <time>2021-09-30T10:34:26.000Z</time>
      </trkpt>
      <trkpt lat="47.27797" lon="-2.35623">
        <ele>-14</ele>
        <time>2021-09-30T10:34:31.000Z</time>
      </trkpt>
      <trkpt lat="47.27783" lon="-2.3563">
        <ele>-14.39999961853</ele>
        <time>2021-09-30T10:34:34.000Z</time>
      </trkpt>
      <trkpt lat="47.27778" lon="-2.35634">
        <ele>-14.800000190735</ele>
        <time>2021-09-30T10:34:35.000Z</time>
      </trkpt>
      <trkpt lat="47.27774" lon="-2.35638">
        <ele>-15.199999809265</ele>
        <time>2021-09-30T10:34:36.000Z</time>
      </trkpt>
      <trkpt lat="47.27769" lon="-2.35642">
        <ele>-15.800000190735</ele>
        <time>2021-09-30T10:34:37.000Z</time>
      </trkpt>
      <trkpt lat="47.27765" lon="-2.35646">
        <ele>-16.200000762939</ele>
        <time>2021-09-30T10:34:38.000Z</time>
      </trkpt>
      <trkpt lat="47.27749" lon="-2.35666">
        <ele>-16.200000762939</ele>
        <time>2021-09-30T10:34:42.000Z</time>
      </trkpt>
      <trkpt lat="47.27727" lon="-2.35698">
        <ele>-16.200000762939</ele>
        <time>2021-09-30T10:34:48.000Z</time>
      </trkpt>
      <trkpt lat="47.27719" lon="-2.35708">
        <ele>-16.200000762939</ele>
        <time>2021-09-30T10:34:50.000Z</time>
      </trkpt>
      <trkpt lat="47.27701" lon="-2.35726">
        <ele>-17</ele>
        <time>2021-09-30T10:34:54.000Z</time>
      </trkpt>
      <trkpt lat="47.27696" lon="-2.3573">
        <ele>-17.39999961853</ele>
        <time>2021-09-30T10:34:55.000Z</time>
      </trkpt>
      <trkpt lat="47.27691" lon="-2.35733">
        <ele>-17.799999237061</ele>
        <time>2021-09-30T10:34:56.000Z</time>
      </trkpt>
      <trkpt lat="47.27686" lon="-2.35738">
        <ele>-18.39999961853</ele>
        <time>2021-09-30T10:34:57.000Z</time>
      </trkpt>
      <trkpt lat="47.27678" lon="-2.35745">
        <ele>-18.39999961853</ele>
        <time>2021-09-30T10:34:59.000Z</time>
      </trkpt>
      <trkpt lat="47.27673" lon="-2.35746">
        <ele>-18.39999961853</ele>
        <time>2021-09-30T10:35:00.000Z</time>
      </trkpt>
      <trkpt lat="47.27665" lon="-2.35738">
        <ele>-18.39999961853</ele>
        <time>2021-09-30T10:35:02.000Z</time>
      </trkpt>
      <trkpt lat="47.27646" lon="-2.35721">
        <ele>-18.39999961853</ele>
        <time>2021-09-30T10:35:06.000Z</time>
      </trkpt>
      <trkpt lat="47.2764" lon="-2.35719">
        <ele>-18.39999961853</ele>
        <time>2021-09-30T10:35:07.000Z</time>
      </trkpt>
      <trkpt lat="47.27627" lon="-2.35715">
        <ele>-18.799999237061</ele>
        <time>2021-09-30T10:35:09.000Z</time>
      </trkpt>
      <trkpt lat="47.27621" lon="-2.35713">
        <ele>-19.200000762939</ele>
        <time>2021-09-30T10:35:10.000Z</time>
      </trkpt>
      <trkpt lat="47.27614" lon="-2.35712">
        <ele>-19.60000038147</ele>
        <time>2021-09-30T10:35:11.000Z</time>
      </trkpt>
      <trkpt lat="47.27608" lon="-2.35711">
        <ele>-20.200000762939</ele>
        <time>2021-09-30T10:35:12.000Z</time>
      </trkpt>
      <trkpt lat="47.27601" lon="-2.35709">
        <ele>-20.60000038147</ele>
        <time>2021-09-30T10:35:13.000Z</time>
      </trkpt>
      <trkpt lat="47.27595" lon="-2.35708">
        <ele>-20.60000038147</ele>
        <time>2021-09-30T10:35:14.000Z</time>
      </trkpt>
      <trkpt lat="47.27553" lon="-2.35696">
        <ele>-20.60000038147</ele>
        <time>2021-09-30T10:35:21.000Z</time>
      </trkpt>
      <trkpt lat="47.27518" lon="-2.3569">
        <ele>-21</ele>
        <time>2021-09-30T10:35:27.000Z</time>
      </trkpt>
      <trkpt lat="47.27512" lon="-2.35688">
        <ele>-21.39999961853</ele>
        <time>2021-09-30T10:35:28.000Z</time>
      </trkpt>
      <trkpt lat="47.27506" lon="-2.35687">
        <ele>-21.799999237061</ele>
        <time>2021-09-30T10:35:29.000Z</time>
      </trkpt>
      <trkpt lat="47.275" lon="-2.35686">
        <ele>-22.200000762939</ele>
        <time>2021-09-30T10:35:30.000Z</time>
      </trkpt>
      <trkpt lat="47.27494" lon="-2.35684">
        <ele>-22.60000038147</ele>
        <time>2021-09-30T10:35:31.000Z</time>
      </trkpt>
      <trkpt lat="47.27476" lon="-2.35681">
        <ele>-22.60000038147</ele>
        <time>2021-09-30T10:35:34.000Z</time>
      </trkpt>
      <trkpt lat="47.27422" lon="-2.35669">
        <ele>-22.60000038147</ele>
        <time>2021-09-30T10:35:43.000Z</time>
      </trkpt>
      <trkpt lat="47.27411" lon="-2.35669">
        <ele>-22.60000038147</ele>
        <time>2021-09-30T10:35:45.000Z</time>
      </trkpt>
      <trkpt lat="47.27398" lon="-2.35672">
        <ele>-22.60000038147</ele>
        <time>2021-09-30T10:35:47.000Z</time>
      </trkpt>
      <trkpt lat="47.27381" lon="-2.35683">
        <ele>-22.60000038147</ele>
        <time>2021-09-30T10:35:50.000Z</time>
      </trkpt>
      <trkpt lat="47.27371" lon="-2.35691">
        <ele>-22.60000038147</ele>
        <time>2021-09-30T10:35:52.000Z</time>
      </trkpt>
      <trkpt lat="47.27335" lon="-2.35719">
        <ele>-22.60000038147</ele>
        <time>2021-09-30T10:35:59.000Z</time>
      </trkpt>
      <trkpt lat="47.27328" lon="-2.35727">
        <ele>-23</ele>
        <time>2021-09-30T10:36:01.000Z</time>
      </trkpt>
      <trkpt lat="47.27325" lon="-2.35732">
        <ele>-23.60000038147</ele>
        <time>2021-09-30T10:36:02.000Z</time>
      </trkpt>
      <trkpt lat="47.27322" lon="-2.35736">
        <ele>-24</ele>
        <time>2021-09-30T10:36:03.000Z</time>
      </trkpt>
      <trkpt lat="47.27319" lon="-2.3574">
        <ele>-24.39999961853</ele>
        <time>2021-09-30T10:36:04.000Z</time>
      </trkpt>
      <trkpt lat="47.27315" lon="-2.35742">
        <ele>-24.799999237061</ele>
        <time>2021-09-30T10:36:05.000Z</time>
      </trkpt>
      <trkpt lat="47.27308" lon="-2.35738">
        <ele>-24.799999237061</ele>
        <time>2021-09-30T10:36:07.000Z</time>
      </trkpt>
      <trkpt lat="47.27296" lon="-2.35715">
        <ele>-24.799999237061</ele>
        <time>2021-09-30T10:36:11.000Z</time>
      </trkpt>
      <trkpt lat="47.2728" lon="-2.35677">
        <ele>-24.799999237061</ele>
        <time>2021-09-30T10:36:17.000Z</time>
      </trkpt>
      <trkpt lat="47.27256" lon="-2.35621">
        <ele>-24.799999237061</ele>
        <time>2021-09-30T10:36:26.000Z</time>
      </trkpt>
      <trkpt lat="47.27232" lon="-2.35566">
        <ele>-24.799999237061</ele>
        <time>2021-09-30T10:36:35.000Z</time>
      </trkpt>
      <trkpt lat="47.27227" lon="-2.35554">
        <ele>-24.39999961853</ele>
        <time>2021-09-30T10:36:37.000Z</time>
      </trkpt>
      <trkpt lat="47.27224" lon="-2.35548">
        <ele>-24</ele>
        <time>2021-09-30T10:36:38.000Z</time>
      </trkpt>
      <trkpt lat="47.27222" lon="-2.35542">
        <ele>-23.60000038147</ele>
        <time>2021-09-30T10:36:39.000Z</time>
      </trkpt>
      <trkpt lat="47.27219" lon="-2.35536">
        <ele>-23.200000762939</ele>
        <time>2021-09-30T10:36:40.000Z</time>
      </trkpt>
      <trkpt lat="47.27216" lon="-2.3553">
        <ele>-22.799999237061</ele>
        <time>2021-09-30T10:36:41.000Z</time>
      </trkpt>
      <trkpt lat="47.2721" lon="-2.35518">
        <ele>-22.799999237061</ele>
        <time>2021-09-30T10:36:43.000Z</time>
      </trkpt>
      <trkpt lat="47.27182" lon="-2.3546">
        <ele>-22.799999237061</ele>
        <time>2021-09-30T10:36:53.000Z</time>
      </trkpt>
      <trkpt lat="47.27156" lon="-2.35408">
        <ele>-22.799999237061</ele>
        <time>2021-09-30T10:37:02.000Z</time>
      </trkpt>
      <trkpt lat="47.27134" lon="-2.3537">
        <ele>-22.799999237061</ele>
        <time>2021-09-30T10:37:09.000Z</time>
      </trkpt>
      <trkpt lat="47.27105" lon="-2.35322">
        <ele>-22.799999237061</ele>
        <time>2021-09-30T10:37:18.000Z</time>
      </trkpt>
      <trkpt lat="47.27079" lon="-2.35282">
        <ele>-22.799999237061</ele>
        <time>2021-09-30T10:37:26.000Z</time>
      </trkpt>
      <trkpt lat="47.27044" lon="-2.35228">
        <ele>-22.799999237061</ele>
        <time>2021-09-30T10:37:36.000Z</time>
      </trkpt>
      <trkpt lat="47.27016" lon="-2.35186">
        <ele>-22.799999237061</ele>
        <time>2021-09-30T10:37:44.000Z</time>
      </trkpt>
      <trkpt lat="47.26975" lon="-2.35124">
        <ele>-22.799999237061</ele>
        <time>2021-09-30T10:37:55.000Z</time>
      </trkpt>
      <trkpt lat="47.26942" lon="-2.35073">
        <ele>-22.799999237061</ele>
        <time>2021-09-30T10:38:04.000Z</time>
      </trkpt>
      <trkpt lat="47.26908" lon="-2.35022">
        <ele>-22.799999237061</ele>
        <time>2021-09-30T10:38:13.000Z</time>
      </trkpt>
      <trkpt lat="47.26874" lon="-2.34972">
        <ele>-22.799999237061</ele>
        <time>2021-09-30T10:38:22.000Z</time>
      </trkpt>
      <trkpt lat="47.26871" lon="-2.34966">
        <ele>-22.799999237061</ele>
        <time>2021-09-30T10:38:23.000Z</time>
      </trkpt>
      <trkpt lat="47.26854" lon="-2.34936">
        <ele>-22.799999237061</ele>
        <time>2021-09-30T10:38:28.000Z</time>
      </trkpt>
      <trkpt lat="47.26827" lon="-2.34898">
        <ele>-22.799999237061</ele>
        <time>2021-09-30T10:38:35.000Z</time>
      </trkpt>
      <trkpt lat="47.26794" lon="-2.3485">
        <ele>-22.799999237061</ele>
        <time>2021-09-30T10:38:44.000Z</time>
      </trkpt>
      <trkpt lat="47.26763" lon="-2.34808">
        <ele>-22.799999237061</ele>
        <time>2021-09-30T10:38:53.000Z</time>
      </trkpt>
      <trkpt lat="47.2676" lon="-2.34804">
        <ele>-22.799999237061</ele>
        <time>2021-09-30T10:38:54.000Z</time>
      </trkpt>
      <trkpt lat="47.2675" lon="-2.3479">
        <ele>-22.799999237061</ele>
        <time>2021-09-30T10:38:57.000Z</time>
      </trkpt>
      <trkpt lat="47.26723" lon="-2.34758">
        <ele>-22.799999237061</ele>
        <time>2021-09-30T10:39:04.000Z</time>
      </trkpt>
      <trkpt lat="47.26684" lon="-2.34711">
        <ele>-22.799999237061</ele>
        <time>2021-09-30T10:39:14.000Z</time>
      </trkpt>
      <trkpt lat="47.26653" lon="-2.34674">
        <ele>-22.799999237061</ele>
        <time>2021-09-30T10:39:22.000Z</time>
      </trkpt>
      <trkpt lat="47.26623" lon="-2.34636">
        <ele>-22.799999237061</ele>
        <time>2021-09-30T10:39:30.000Z</time>
      </trkpt>
      <trkpt lat="47.26593" lon="-2.34598">
        <ele>-22.799999237061</ele>
        <time>2021-09-30T10:39:38.000Z</time>
      </trkpt>
      <trkpt lat="47.26561" lon="-2.34563">
        <ele>-22.799999237061</ele>
        <time>2021-09-30T10:39:46.000Z</time>
      </trkpt>
      <trkpt lat="47.26539" lon="-2.3454">
        <ele>-22.799999237061</ele>
        <time>2021-09-30T10:39:52.000Z</time>
      </trkpt>
      <trkpt lat="47.26534" lon="-2.34538">
        <ele>-22.799999237061</ele>
        <time>2021-09-30T10:39:53.000Z</time>
      </trkpt>
      <trkpt lat="47.26526" lon="-2.34531">
        <ele>-22.799999237061</ele>
        <time>2021-09-30T10:39:55.000Z</time>
      </trkpt>
      <trkpt lat="47.26518" lon="-2.34523">
        <ele>-22.799999237061</ele>
        <time>2021-09-30T10:39:57.000Z</time>
      </trkpt>
      <trkpt lat="47.26509" lon="-2.34516">
        <ele>-22.799999237061</ele>
        <time>2021-09-30T10:39:59.000Z</time>
      </trkpt>
      <trkpt lat="47.2649" lon="-2.34503">
        <ele>-22.799999237061</ele>
        <time>2021-09-30T10:40:03.000Z</time>
      </trkpt>
      <trkpt lat="47.26457" lon="-2.34479">
        <ele>-22.799999237061</ele>
        <time>2021-09-30T10:40:10.000Z</time>
      </trkpt>
      <trkpt lat="47.26425" lon="-2.34456">
        <ele>-22.799999237061</ele>
        <time>2021-09-30T10:40:17.000Z</time>
      </trkpt>
      <trkpt lat="47.26395" lon="-2.34433">
        <ele>-22.799999237061</ele>
        <time>2021-09-30T10:40:24.000Z</time>
      </trkpt>
      <trkpt lat="47.26365" lon="-2.34407">
        <ele>-22.799999237061</ele>
        <time>2021-09-30T10:40:31.000Z</time>
      </trkpt>
      <trkpt lat="47.26335" lon="-2.34383">
        <ele>-22.799999237061</ele>
        <time>2021-09-30T10:40:38.000Z</time>
      </trkpt>
      <trkpt lat="47.26317" lon="-2.34374">
        <ele>-22.799999237061</ele>
        <time>2021-09-30T10:40:42.000Z</time>
      </trkpt>
      <trkpt lat="47.26311" lon="-2.34361">
        <ele>-22.799999237061</ele>
        <time>2021-09-30T10:40:44.000Z</time>
      </trkpt>
      <trkpt lat="47.26307" lon="-2.34355">
        <ele>-22.799999237061</ele>
        <time>2021-09-30T10:40:45.000Z</time>
      </trkpt>
      <trkpt lat="47.26303" lon="-2.3435">
        <ele>-22.799999237061</ele>
        <time>2021-09-30T10:40:46.000Z</time>
      </trkpt>
      <trkpt lat="47.26277" lon="-2.34324">
        <ele>-22.799999237061</ele>
        <time>2021-09-30T10:40:52.000Z</time>
      </trkpt>
      <trkpt lat="47.26244" lon="-2.34287">
        <ele>-22.799999237061</ele>
        <time>2021-09-30T10:41:00.000Z</time>
      </trkpt>
      <trkpt lat="47.26205" lon="-2.34246">
        <ele>-22.799999237061</ele>
        <time>2021-09-30T10:41:10.000Z</time>
      </trkpt>
      <trkpt lat="47.26172" lon="-2.34214">
        <ele>-22.799999237061</ele>
        <time>2021-09-30T10:41:18.000Z</time>
      </trkpt>
      <trkpt lat="47.26153" lon="-2.34194">
        <ele>-22.799999237061</ele>
        <time>2021-09-30T10:41:23.000Z</time>
      </trkpt>
      <trkpt lat="47.26139" lon="-2.34185">
        <ele>-22.799999237061</ele>
        <time>2021-09-30T10:41:26.000Z</time>
      </trkpt>
      <trkpt lat="47.2613" lon="-2.34181">
        <ele>-22.799999237061</ele>
        <time>2021-09-30T10:41:28.000Z</time>
      </trkpt>
      <trkpt lat="47.26122" lon="-2.34172">
        <ele>-22.799999237061</ele>
        <time>2021-09-30T10:41:30.000Z</time>
      </trkpt>
      <trkpt lat="47.26114" lon="-2.34163">
        <ele>-22.799999237061</ele>
        <time>2021-09-30T10:41:32.000Z</time>
      </trkpt>
      <trkpt lat="47.26099" lon="-2.34155">
        <ele>-22.799999237061</ele>
        <time>2021-09-30T10:41:35.000Z</time>
      </trkpt>
      <trkpt lat="47.2606" lon="-2.34135">
        <ele>-22.799999237061</ele>
        <time>2021-09-30T10:41:43.000Z</time>
      </trkpt>
      <trkpt lat="47.26021" lon="-2.34117">
        <ele>-22.799999237061</ele>
        <time>2021-09-30T10:41:50.000Z</time>
      </trkpt>
      <trkpt lat="47.25986" lon="-2.34099">
        <ele>-22.799999237061</ele>
        <time>2021-09-30T10:41:57.000Z</time>
      </trkpt>
      <trkpt lat="47.25959" lon="-2.34087">
        <ele>-22.799999237061</ele>
        <time>2021-09-30T10:42:03.000Z</time>
      </trkpt>
      <trkpt lat="47.25919" lon="-2.34075">
        <ele>-22.799999237061</ele>
        <time>2021-09-30T10:42:11.000Z</time>
      </trkpt>
      <trkpt lat="47.25909" lon="-2.34074">
        <ele>-22.799999237061</ele>
        <time>2021-09-30T10:42:13.000Z</time>
      </trkpt>
      <trkpt lat="47.25897" lon="-2.34062">
        <ele>-22.799999237061</ele>
        <time>2021-09-30T10:42:16.000Z</time>
      </trkpt>
      <trkpt lat="47.25896" lon="-2.34041">
        <ele>-22.799999237061</ele>
        <time>2021-09-30T10:42:19.000Z</time>
      </trkpt>
      <trkpt lat="47.25903" lon="-2.34023">
        <ele>-22.799999237061</ele>
        <time>2021-09-30T10:42:22.000Z</time>
      </trkpt>
      <trkpt lat="47.25905" lon="-2.34017">
        <ele>-22.799999237061</ele>
        <time>2021-09-30T10:42:23.000Z</time>
      </trkpt>
      <trkpt lat="47.25907" lon="-2.3401">
        <ele>-22.799999237061</ele>
        <time>2021-09-30T10:42:24.000Z</time>
      </trkpt>
      <trkpt lat="47.25914" lon="-2.33982">
        <ele>-22.799999237061</ele>
        <time>2021-09-30T10:42:28.000Z</time>
      </trkpt>
      <trkpt lat="47.25931" lon="-2.33943">
        <ele>-22.799999237061</ele>
        <time>2021-09-30T10:42:34.000Z</time>
      </trkpt>
      <trkpt lat="47.25938" lon="-2.3393">
        <ele>-22.799999237061</ele>
        <time>2021-09-30T10:42:37.000Z</time>
      </trkpt>
      <trkpt lat="47.25944" lon="-2.33919">
        <ele>-22.799999237061</ele>
        <time>2021-09-30T10:42:39.000Z</time>
      </trkpt>
      <trkpt lat="47.25946" lon="-2.33911">
        <ele>-22.799999237061</ele>
        <time>2021-09-30T10:42:40.000Z</time>
      </trkpt>
      <trkpt lat="47.25962" lon="-2.3386">
        <ele>-22.799999237061</ele>
        <time>2021-09-30T10:42:47.000Z</time>
      </trkpt>
      <trkpt lat="47.2598" lon="-2.33805">
        <ele>-22.799999237061</ele>
        <time>2021-09-30T10:42:54.000Z</time>
      </trkpt>
      <trkpt lat="47.26" lon="-2.33745">
        <ele>-22.799999237061</ele>
        <time>2021-09-30T10:43:02.000Z</time>
      </trkpt>
      <trkpt lat="47.26013" lon="-2.33705">
        <ele>-22.799999237061</ele>
        <time>2021-09-30T10:43:08.000Z</time>
      </trkpt>
      <trkpt lat="47.26022" lon="-2.33674">
        <ele>-22.799999237061</ele>
        <time>2021-09-30T10:43:13.000Z</time>
      </trkpt>
      <trkpt lat="47.26025" lon="-2.33669">
        <ele>-22.799999237061</ele>
        <time>2021-09-30T10:43:14.000Z</time>
      </trkpt>
      <trkpt lat="47.26037" lon="-2.33667">
        <ele>-22.799999237061</ele>
        <time>2021-09-30T10:43:17.000Z</time>
      </trkpt>
      <trkpt lat="47.2604" lon="-2.33667">
        <ele>-22.799999237061</ele>
        <time>2021-09-30T10:43:18.000Z</time>
      </trkpt>
      <trkpt lat="47.26045" lon="-2.33667">
        <ele>-22.799999237061</ele>
        <time>2021-09-30T10:43:21.000Z</time>
      </trkpt>
      <trkpt lat="47.26056" lon="-2.33663">
        <ele>-22.799999237061</ele>
        <time>2021-09-30T10:43:26.000Z</time>
      </trkpt>
      <trkpt lat="47.26061" lon="-2.33645">
        <ele>-22.799999237061</ele>
        <time>2021-09-30T10:43:29.000Z</time>
      </trkpt>
      <trkpt lat="47.26063" lon="-2.33638">
        <ele>-22.799999237061</ele>
        <time>2021-09-30T10:43:30.000Z</time>
      </trkpt>
      <trkpt lat="47.26078" lon="-2.33596">
        <ele>-22.799999237061</ele>
        <time>2021-09-30T10:43:36.000Z</time>
      </trkpt>
      <trkpt lat="47.26099" lon="-2.33538">
        <ele>-22.799999237061</ele>
        <time>2021-09-30T10:43:44.000Z</time>
      </trkpt>
      <trkpt lat="47.26114" lon="-2.33491">
        <ele>-22.799999237061</ele>
        <time>2021-09-30T10:43:51.000Z</time>
      </trkpt>
      <trkpt lat="47.26127" lon="-2.33459">
        <ele>-22.799999237061</ele>
        <time>2021-09-30T10:43:57.000Z</time>
      </trkpt>
      <trkpt lat="47.26133" lon="-2.33444">
        <ele>-22.799999237061</ele>
        <time>2021-09-30T10:44:03.000Z</time>
      </trkpt>
      <trkpt lat="47.26134" lon="-2.33432">
        <ele>-22.799999237061</ele>
        <time>2021-09-30T10:44:05.000Z</time>
      </trkpt>
      <trkpt lat="47.26132" lon="-2.33426">
        <ele>-22.799999237061</ele>
        <time>2021-09-30T10:44:06.000Z</time>
      </trkpt>
      <trkpt lat="47.26118" lon="-2.33407">
        <ele>-22.799999237061</ele>
        <time>2021-09-30T10:44:10.000Z</time>
      </trkpt>
      <trkpt lat="47.26114" lon="-2.33402">
        <ele>-22.799999237061</ele>
        <time>2021-09-30T10:44:11.000Z</time>
      </trkpt>
      <trkpt lat="47.26093" lon="-2.33374">
        <ele>-22.799999237061</ele>
        <time>2021-09-30T10:44:16.000Z</time>
      </trkpt>
      <trkpt lat="47.26081" lon="-2.33358">
        <ele>-22.799999237061</ele>
        <time>2021-09-30T10:44:19.000Z</time>
      </trkpt>
      <trkpt lat="47.26072" lon="-2.33338">
        <ele>-22.799999237061</ele>
        <time>2021-09-30T10:44:22.000Z</time>
      </trkpt>
      <trkpt lat="47.26067" lon="-2.33323">
        <ele>-22.799999237061</ele>
        <time>2021-09-30T10:44:24.000Z</time>
      </trkpt>
      <trkpt lat="47.26056" lon="-2.33293">
        <ele>-22.799999237061</ele>
        <time>2021-09-30T10:44:28.000Z</time>
      </trkpt>
      <trkpt lat="47.26034" lon="-2.3323">
        <ele>-22.799999237061</ele>
        <time>2021-09-30T10:44:36.000Z</time>
      </trkpt>
      <trkpt lat="47.26016" lon="-2.33177">
        <ele>-22.799999237061</ele>
        <time>2021-09-30T10:44:43.000Z</time>
      </trkpt>
      <trkpt lat="47.25997" lon="-2.33124">
        <ele>-22.799999237061</ele>
        <time>2021-09-30T10:44:50.000Z</time>
      </trkpt>
      <trkpt lat="47.25992" lon="-2.33101">
        <ele>-22.799999237061</ele>
        <time>2021-09-30T10:44:53.000Z</time>
      </trkpt>
      <trkpt lat="47.25987" lon="-2.33085">
        <ele>-22.799999237061</ele>
        <time>2021-09-30T10:44:55.000Z</time>
      </trkpt>
      <trkpt lat="47.25977" lon="-2.33064">
        <ele>-22.799999237061</ele>
        <time>2021-09-30T10:44:58.000Z</time>
      </trkpt>
      <trkpt lat="47.25974" lon="-2.33057">
        <ele>-22.799999237061</ele>
        <time>2021-09-30T10:44:59.000Z</time>
      </trkpt>
      <trkpt lat="47.25957" lon="-2.3301">
        <ele>-22.799999237061</ele>
        <time>2021-09-30T10:45:05.000Z</time>
      </trkpt>
      <trkpt lat="47.25936" lon="-2.32948">
        <ele>-22.799999237061</ele>
        <time>2021-09-30T10:45:13.000Z</time>
      </trkpt>
      <trkpt lat="47.25917" lon="-2.32894">
        <ele>-22.799999237061</ele>
        <time>2021-09-30T10:45:20.000Z</time>
      </trkpt>
      <trkpt lat="47.25895" lon="-2.32833">
        <ele>-22.799999237061</ele>
        <time>2021-09-30T10:45:28.000Z</time>
      </trkpt>
      <trkpt lat="47.25877" lon="-2.32781">
        <ele>-22.799999237061</ele>
        <time>2021-09-30T10:45:35.000Z</time>
      </trkpt>
      <trkpt lat="47.25863" lon="-2.32729">
        <ele>-22.799999237061</ele>
        <time>2021-09-30T10:45:42.000Z</time>
      </trkpt>
      <trkpt lat="47.25863" lon="-2.32712">
        <ele>-22.799999237061</ele>
        <time>2021-09-30T10:45:45.000Z</time>
      </trkpt>
      <trkpt lat="47.25853" lon="-2.32699">
        <ele>-22.799999237061</ele>
        <time>2021-09-30T10:45:48.000Z</time>
      </trkpt>
      <trkpt lat="47.25848" lon="-2.32681">
        <ele>-22.799999237061</ele>
        <time>2021-09-30T10:45:51.000Z</time>
      </trkpt>
      <trkpt lat="47.25832" lon="-2.32623">
        <ele>-22.799999237061</ele>
        <time>2021-09-30T10:45:59.000Z</time>
      </trkpt>
      <trkpt lat="47.25818" lon="-2.32564">
        <ele>-22.799999237061</ele>
        <time>2021-09-30T10:46:07.000Z</time>
      </trkpt>
      <trkpt lat="47.25804" lon="-2.32505">
        <ele>-22.799999237061</ele>
        <time>2021-09-30T10:46:15.000Z</time>
      </trkpt>
      <trkpt lat="47.258" lon="-2.32473">
        <ele>-22.799999237061</ele>
        <time>2021-09-30T10:46:21.000Z</time>
      </trkpt>
      <trkpt lat="47.25808" lon="-2.32457">
        <ele>-22.799999237061</ele>
        <time>2021-09-30T10:46:25.000Z</time>
      </trkpt>
      <trkpt lat="47.25816" lon="-2.32455">
        <ele>-22.799999237061</ele>
        <time>2021-09-30T10:46:27.000Z</time>
      </trkpt>
      <trkpt lat="47.25821" lon="-2.32458">
        <ele>-22.799999237061</ele>
        <time>2021-09-30T10:46:28.000Z</time>
      </trkpt>
      <trkpt lat="47.25835" lon="-2.32467">
        <ele>-22.799999237061</ele>
        <time>2021-09-30T10:46:31.000Z</time>
      </trkpt>
      <trkpt lat="47.25844" lon="-2.3247">
        <ele>-22.799999237061</ele>
        <time>2021-09-30T10:46:33.000Z</time>
      </trkpt>
      <trkpt lat="47.25859" lon="-2.32472">
        <ele>-22.799999237061</ele>
        <time>2021-09-30T10:46:36.000Z</time>
      </trkpt>
      <trkpt lat="47.25873" lon="-2.32471">
        <ele>-22.799999237061</ele>
        <time>2021-09-30T10:46:39.000Z</time>
      </trkpt>
      <trkpt lat="47.25893" lon="-2.32465">
        <ele>-22.799999237061</ele>
        <time>2021-09-30T10:46:43.000Z</time>
      </trkpt>
      <trkpt lat="47.25898" lon="-2.32462">
        <ele>-22.799999237061</ele>
        <time>2021-09-30T10:46:44.000Z</time>
      </trkpt>
      <trkpt lat="47.25911" lon="-2.32448">
        <ele>-22.799999237061</ele>
        <time>2021-09-30T10:46:47.000Z</time>
      </trkpt>
      <trkpt lat="47.25919" lon="-2.32437">
        <ele>-22.799999237061</ele>
        <time>2021-09-30T10:46:49.000Z</time>
      </trkpt>
      <trkpt lat="47.25922" lon="-2.32431">
        <ele>-22.799999237061</ele>
        <time>2021-09-30T10:46:50.000Z</time>
      </trkpt>
      <trkpt lat="47.25942" lon="-2.32404">
        <ele>-22.799999237061</ele>
        <time>2021-09-30T10:46:55.000Z</time>
      </trkpt>
      <trkpt lat="47.25974" lon="-2.32362">
        <ele>-22.799999237061</ele>
        <time>2021-09-30T10:47:03.000Z</time>
      </trkpt>
      <trkpt lat="47.26011" lon="-2.32314">
        <ele>-22.799999237061</ele>
        <time>2021-09-30T10:47:12.000Z</time>
      </trkpt>
      <trkpt lat="47.26044" lon="-2.32275">
        <ele>-22.799999237061</ele>
        <time>2021-09-30T10:47:20.000Z</time>
      </trkpt>
      <trkpt lat="47.26077" lon="-2.32234">
        <ele>-22.799999237061</ele>
        <time>2021-09-30T10:47:28.000Z</time>
      </trkpt>
      <trkpt lat="47.26102" lon="-2.32196">
        <ele>-22.799999237061</ele>
        <time>2021-09-30T10:47:35.000Z</time>
      </trkpt>
      <trkpt lat="47.26122" lon="-2.32145">
        <ele>-22.799999237061</ele>
        <time>2021-09-30T10:47:43.000Z</time>
      </trkpt>
      <trkpt lat="47.26139" lon="-2.32091">
        <ele>-22.799999237061</ele>
        <time>2021-09-30T10:47:51.000Z</time>
      </trkpt>
      <trkpt lat="47.26153" lon="-2.3205">
        <ele>-22.799999237061</ele>
        <time>2021-09-30T10:47:58.000Z</time>
      </trkpt>
      <trkpt lat="47.26169" lon="-2.32019">
        <ele>-22.799999237061</ele>
        <time>2021-09-30T10:48:05.000Z</time>
      </trkpt>
      <trkpt lat="47.26172" lon="-2.32019">
        <ele>-22.799999237061</ele>
        <time>2021-09-30T10:48:06.000Z</time>
      </trkpt>
      <trkpt lat="47.26182" lon="-2.32021">
        <ele>-22.799999237061</ele>
        <time>2021-09-30T10:48:09.000Z</time>
      </trkpt>
      <trkpt lat="47.26194" lon="-2.32023">
        <ele>-22.799999237061</ele>
        <time>2021-09-30T10:48:14.000Z</time>
      </trkpt>
      <trkpt lat="47.26197" lon="-2.3202">
        <ele>-22.799999237061</ele>
        <time>2021-09-30T10:48:16.000Z</time>
      </trkpt>
      <trkpt lat="47.26198" lon="-2.32012">
        <ele>-22.799999237061</ele>
        <time>2021-09-30T10:48:18.000Z</time>
      </trkpt>
      <trkpt lat="47.26203" lon="-2.32002">
        <ele>-22.799999237061</ele>
        <time>2021-09-30T10:48:22.000Z</time>
      </trkpt>
      <trkpt lat="47.26215" lon="-2.3199">
        <ele>-22.799999237061</ele>
        <time>2021-09-30T10:48:28.000Z</time>
      </trkpt>
      <trkpt lat="47.26227" lon="-2.31983">
        <ele>-22.799999237061</ele>
        <time>2021-09-30T10:48:32.000Z</time>
      </trkpt>
      <trkpt lat="47.26231" lon="-2.31982">
        <ele>-22.799999237061</ele>
        <time>2021-09-30T10:48:33.000Z</time>
      </trkpt>
      <trkpt lat="47.26237" lon="-2.31972">
        <ele>-22.799999237061</ele>
        <time>2021-09-30T10:48:36.000Z</time>
      </trkpt>
      <trkpt lat="47.2624" lon="-2.31966">
        <ele>-22.799999237061</ele>
        <time>2021-09-30T10:48:37.000Z</time>
      </trkpt>
      <trkpt lat="47.26254" lon="-2.31942">
        <ele>-22.799999237061</ele>
        <time>2021-09-30T10:48:43.000Z</time>
      </trkpt>
      <trkpt lat="47.26269" lon="-2.31919">
        <ele>-22.799999237061</ele>
        <time>2021-09-30T10:48:49.000Z</time>
      </trkpt>
      <trkpt lat="47.26292" lon="-2.31895">
        <ele>-22.799999237061</ele>
        <time>2021-09-30T10:48:55.000Z</time>
      </trkpt>
      <trkpt lat="47.26298" lon="-2.31881">
        <ele>-22.799999237061</ele>
        <time>2021-09-30T10:48:58.000Z</time>
      </trkpt>
      <trkpt lat="47.26298" lon="-2.31874">
        <ele>-22.799999237061</ele>
        <time>2021-09-30T10:48:59.000Z</time>
      </trkpt>
      <trkpt lat="47.26299" lon="-2.31857">
        <ele>-22.799999237061</ele>
        <time>2021-09-30T10:49:02.000Z</time>
      </trkpt>
      <trkpt lat="47.263" lon="-2.31838">
        <ele>-22.799999237061</ele>
        <time>2021-09-30T10:49:05.000Z</time>
      </trkpt>
      <trkpt lat="47.26304" lon="-2.31796">
        <ele>-22.799999237061</ele>
        <time>2021-09-30T10:49:12.000Z</time>
      </trkpt>
      <trkpt lat="47.26304" lon="-2.31764">
        <ele>-22.799999237061</ele>
        <time>2021-09-30T10:49:18.000Z</time>
      </trkpt>
      <trkpt lat="47.26302" lon="-2.3172">
        <ele>-22.39999961853</ele>
        <time>2021-09-30T10:49:25.000Z</time>
      </trkpt>
      <trkpt lat="47.26305" lon="-2.31715">
        <ele>-22</ele>
        <time>2021-09-30T10:49:26.000Z</time>
      </trkpt>
      <trkpt lat="47.26307" lon="-2.31711">
        <ele>-21.60000038147</ele>
        <time>2021-09-30T10:49:27.000Z</time>
      </trkpt>
      <trkpt lat="47.2631" lon="-2.3171">
        <ele>-21.200000762939</ele>
        <time>2021-09-30T10:49:28.000Z</time>
      </trkpt>
      <trkpt lat="47.26313" lon="-2.31708">
        <ele>-20.799999237061</ele>
        <time>2021-09-30T10:49:29.000Z</time>
      </trkpt>
      <trkpt lat="47.26329" lon="-2.317">
        <ele>-20.799999237061</ele>
        <time>2021-09-30T10:49:34.000Z</time>
      </trkpt>
      <trkpt lat="47.26331" lon="-2.31697">
        <ele>-20.799999237061</ele>
        <time>2021-09-30T10:49:35.000Z</time>
      </trkpt>
      <trkpt lat="47.26336" lon="-2.31687">
        <ele>-20.799999237061</ele>
        <time>2021-09-30T10:49:38.000Z</time>
      </trkpt>
      <trkpt lat="47.2634" lon="-2.31685">
        <ele>-20.200000762939</ele>
        <time>2021-09-30T10:49:40.000Z</time>
      </trkpt>
      <trkpt lat="47.26342" lon="-2.31684">
        <ele>-19.799999237061</ele>
        <time>2021-09-30T10:49:41.000Z</time>
      </trkpt>
      <trkpt lat="47.26345" lon="-2.31683">
        <ele>-19.39999961853</ele>
        <time>2021-09-30T10:49:42.000Z</time>
      </trkpt>
      <trkpt lat="47.26348" lon="-2.31682">
        <ele>-19</ele>
        <time>2021-09-30T10:49:43.000Z</time>
      </trkpt>
      <trkpt lat="47.2635" lon="-2.3168">
        <ele>-18.60000038147</ele>
        <time>2021-09-30T10:49:44.000Z</time>
      </trkpt>
      <trkpt lat="47.26367" lon="-2.31673">
        <ele>-18.60000038147</ele>
        <time>2021-09-30T10:49:50.000Z</time>
      </trkpt>
      <trkpt lat="47.26385" lon="-2.31665">
        <ele>-18.60000038147</ele>
        <time>2021-09-30T10:49:56.000Z</time>
      </trkpt>
      <trkpt lat="47.26399" lon="-2.31658">
        <ele>-18.60000038147</ele>
        <time>2021-09-30T10:50:02.000Z</time>
      </trkpt>
      <trkpt lat="47.26411" lon="-2.31647">
        <ele>-18.60000038147</ele>
        <time>2021-09-30T10:50:07.000Z</time>
      </trkpt>
      <trkpt lat="47.26411" lon="-2.31643">
        <ele>-18.200000762939</ele>
        <time>2021-09-30T10:50:08.000Z</time>
      </trkpt>
      <trkpt lat="47.26411" lon="-2.31639">
        <ele>-17.799999237061</ele>
        <time>2021-09-30T10:50:09.000Z</time>
      </trkpt>
      <trkpt lat="47.2641" lon="-2.31634">
        <ele>-17.39999961853</ele>
        <time>2021-09-30T10:50:10.000Z</time>
      </trkpt>
      <trkpt lat="47.2641" lon="-2.31629">
        <ele>-17</ele>
        <time>2021-09-30T10:50:11.000Z</time>
      </trkpt>
      <trkpt lat="47.26411" lon="-2.31623">
        <ele>-16.60000038147</ele>
        <time>2021-09-30T10:50:12.000Z</time>
      </trkpt>
      <trkpt lat="47.2641" lon="-2.31615">
        <ele>-16.60000038147</ele>
        <time>2021-09-30T10:50:14.000Z</time>
      </trkpt>
      <trkpt lat="47.2641" lon="-2.31581">
        <ele>-16.60000038147</ele>
        <time>2021-09-30T10:50:22.000Z</time>
      </trkpt>
      <trkpt lat="47.2641" lon="-2.31557">
        <ele>-16.60000038147</ele>
        <time>2021-09-30T10:50:28.000Z</time>
      </trkpt>
      <trkpt lat="47.26413" lon="-2.31551">
        <ele>-16.60000038147</ele>
        <time>2021-09-30T10:50:30.000Z</time>
      </trkpt>
      <trkpt lat="47.26416" lon="-2.31552">
        <ele>-16.60000038147</ele>
        <time>2021-09-30T10:50:32.000Z</time>
      </trkpt>
      <trkpt lat="47.26417" lon="-2.31554">
        <ele>-16.60000038147</ele>
        <time>2021-09-30T10:50:35.000Z</time>
      </trkpt>
      <trkpt lat="47.26417" lon="-2.31554">
        <ele>-16.60000038147</ele>
        <time>2021-09-30T10:50:36.000Z</time>
      </trkpt>
    </trkseg>
  </trk>
</gpx>